<?xml version="1.0" encoding="UTF-8" standalone="no" ?>
<gpx xmlns="http://www.topografix.com/GPX/1/1" xmlns:xsi="http://www.w3.org/2001/XMLSchema-instance" xsi:schemaLocation="http://www.topografix.com/GPX/1/1 http://www.topografix.com/GPX/1/1/gpx.xsd" version="1.1" creator="VisuGPX - https://www.visugpx.com">
  <metadata>
    <name>SE-N-La Filée Chateau Thébaud La Haie Fouassière Haute Goulaine Loroux Bottereaux Thouaré Nantes</name>
    <desc><![CDATA[SE-N-La Filée Chateau Thébaud La Haie Fouassière Haute Goulaine Loroux Bottereaux Thouaré Nantes]]></desc>
  </metadata>
  <trk>
    <name><![CDATA[29 mai 2020 16:48:33]]></name>
    <trkseg>
      <trkpt lat="47.16772" lon="-1.62647">
        <ele>66</ele>
        <time>2020-05-29T14:48:31.000Z</time>
      </trkpt>
      <trkpt lat="47.16778" lon="-1.62658">
        <ele>74</ele>
        <time>2020-05-29T14:51:11.000Z</time>
      </trkpt>
      <trkpt lat="47.16776" lon="-1.62673">
        <ele>73</ele>
        <time>2020-05-29T14:51:14.000Z</time>
      </trkpt>
      <trkpt lat="47.16763" lon="-1.62678">
        <ele>72</ele>
        <time>2020-05-29T14:51:17.000Z</time>
      </trkpt>
      <trkpt lat="47.16752" lon="-1.62672">
        <ele>71</ele>
        <time>2020-05-29T14:51:19.000Z</time>
      </trkpt>
      <trkpt lat="47.1674" lon="-1.62676">
        <ele>70</ele>
        <time>2020-05-29T14:51:21.000Z</time>
      </trkpt>
      <trkpt lat="47.1673" lon="-1.62684">
        <ele>70</ele>
        <time>2020-05-29T14:51:23.000Z</time>
      </trkpt>
      <trkpt lat="47.16721" lon="-1.62691">
        <ele>69</ele>
        <time>2020-05-29T14:51:25.000Z</time>
      </trkpt>
      <trkpt lat="47.16716" lon="-1.62704">
        <ele>69</ele>
        <time>2020-05-29T14:51:27.000Z</time>
      </trkpt>
      <trkpt lat="47.16722" lon="-1.62716">
        <ele>69</ele>
        <time>2020-05-29T14:51:29.000Z</time>
      </trkpt>
      <trkpt lat="47.16728" lon="-1.62729">
        <ele>69</ele>
        <time>2020-05-29T14:51:31.000Z</time>
      </trkpt>
      <trkpt lat="47.16735" lon="-1.62742">
        <ele>69</ele>
        <time>2020-05-29T14:51:33.000Z</time>
      </trkpt>
      <trkpt lat="47.16744" lon="-1.62754">
        <ele>69</ele>
        <time>2020-05-29T14:51:35.000Z</time>
      </trkpt>
      <trkpt lat="47.16754" lon="-1.62765">
        <ele>69</ele>
        <time>2020-05-29T14:51:37.000Z</time>
      </trkpt>
      <trkpt lat="47.16765" lon="-1.62775">
        <ele>68</ele>
        <time>2020-05-29T14:51:39.000Z</time>
      </trkpt>
      <trkpt lat="47.16775" lon="-1.62785">
        <ele>68</ele>
        <time>2020-05-29T14:51:41.000Z</time>
      </trkpt>
      <trkpt lat="47.16786" lon="-1.62793">
        <ele>67</ele>
        <time>2020-05-29T14:51:43.000Z</time>
      </trkpt>
      <trkpt lat="47.16795" lon="-1.62803">
        <ele>68</ele>
        <time>2020-05-29T14:51:45.000Z</time>
      </trkpt>
      <trkpt lat="47.16804" lon="-1.62811">
        <ele>68</ele>
        <time>2020-05-29T14:51:47.000Z</time>
      </trkpt>
      <trkpt lat="47.16813" lon="-1.62819">
        <ele>68</ele>
        <time>2020-05-29T14:51:49.000Z</time>
      </trkpt>
      <trkpt lat="47.16821" lon="-1.62828">
        <ele>68</ele>
        <time>2020-05-29T14:51:51.000Z</time>
      </trkpt>
      <trkpt lat="47.16831" lon="-1.62837">
        <ele>69</ele>
        <time>2020-05-29T14:51:53.000Z</time>
      </trkpt>
      <trkpt lat="47.1684" lon="-1.62846">
        <ele>69</ele>
        <time>2020-05-29T14:51:55.000Z</time>
      </trkpt>
      <trkpt lat="47.16849" lon="-1.62855">
        <ele>69</ele>
        <time>2020-05-29T14:51:57.000Z</time>
      </trkpt>
      <trkpt lat="47.16858" lon="-1.62864">
        <ele>70</ele>
        <time>2020-05-29T14:51:59.000Z</time>
      </trkpt>
      <trkpt lat="47.16867" lon="-1.62874">
        <ele>70</ele>
        <time>2020-05-29T14:52:01.000Z</time>
      </trkpt>
      <trkpt lat="47.16874" lon="-1.62887">
        <ele>71</ele>
        <time>2020-05-29T14:52:03.000Z</time>
      </trkpt>
      <trkpt lat="47.16881" lon="-1.62901">
        <ele>71</ele>
        <time>2020-05-29T14:52:05.000Z</time>
      </trkpt>
      <trkpt lat="47.16886" lon="-1.62916">
        <ele>72</ele>
        <time>2020-05-29T14:52:07.000Z</time>
      </trkpt>
      <trkpt lat="47.16888" lon="-1.62932">
        <ele>72</ele>
        <time>2020-05-29T14:52:09.000Z</time>
      </trkpt>
      <trkpt lat="47.1689" lon="-1.62949">
        <ele>72</ele>
        <time>2020-05-29T14:52:11.000Z</time>
      </trkpt>
      <trkpt lat="47.1689" lon="-1.62966">
        <ele>72</ele>
        <time>2020-05-29T14:52:13.000Z</time>
      </trkpt>
      <trkpt lat="47.16889" lon="-1.62984">
        <ele>73</ele>
        <time>2020-05-29T14:52:15.000Z</time>
      </trkpt>
      <trkpt lat="47.16887" lon="-1.63002">
        <ele>73</ele>
        <time>2020-05-29T14:52:17.000Z</time>
      </trkpt>
      <trkpt lat="47.16885" lon="-1.6302">
        <ele>73</ele>
        <time>2020-05-29T14:52:19.000Z</time>
      </trkpt>
      <trkpt lat="47.16885" lon="-1.63038">
        <ele>73</ele>
        <time>2020-05-29T14:52:21.000Z</time>
      </trkpt>
      <trkpt lat="47.16885" lon="-1.63056">
        <ele>73</ele>
        <time>2020-05-29T14:52:23.000Z</time>
      </trkpt>
      <trkpt lat="47.16887" lon="-1.63074">
        <ele>73</ele>
        <time>2020-05-29T14:52:25.000Z</time>
      </trkpt>
      <trkpt lat="47.1689" lon="-1.63091">
        <ele>73</ele>
        <time>2020-05-29T14:52:27.000Z</time>
      </trkpt>
      <trkpt lat="47.16894" lon="-1.63108">
        <ele>73</ele>
        <time>2020-05-29T14:52:29.000Z</time>
      </trkpt>
      <trkpt lat="47.16898" lon="-1.63124">
        <ele>74</ele>
        <time>2020-05-29T14:52:31.000Z</time>
      </trkpt>
      <trkpt lat="47.16903" lon="-1.6314">
        <ele>74</ele>
        <time>2020-05-29T14:52:33.000Z</time>
      </trkpt>
      <trkpt lat="47.16908" lon="-1.63155">
        <ele>74</ele>
        <time>2020-05-29T14:52:35.000Z</time>
      </trkpt>
      <trkpt lat="47.16914" lon="-1.63169">
        <ele>75</ele>
        <time>2020-05-29T14:52:37.000Z</time>
      </trkpt>
      <trkpt lat="47.16921" lon="-1.63182">
        <ele>75</ele>
        <time>2020-05-29T14:52:39.000Z</time>
      </trkpt>
      <trkpt lat="47.16927" lon="-1.63195">
        <ele>75</ele>
        <time>2020-05-29T14:52:41.000Z</time>
      </trkpt>
      <trkpt lat="47.16934" lon="-1.63206">
        <ele>75</ele>
        <time>2020-05-29T14:52:43.000Z</time>
      </trkpt>
      <trkpt lat="47.16942" lon="-1.63217">
        <ele>75</ele>
        <time>2020-05-29T14:52:45.000Z</time>
      </trkpt>
      <trkpt lat="47.1695" lon="-1.63228">
        <ele>76</ele>
        <time>2020-05-29T14:52:47.000Z</time>
      </trkpt>
      <trkpt lat="47.16958" lon="-1.63239">
        <ele>76</ele>
        <time>2020-05-29T14:52:49.000Z</time>
      </trkpt>
      <trkpt lat="47.16966" lon="-1.63247">
        <ele>76</ele>
        <time>2020-05-29T14:52:51.000Z</time>
      </trkpt>
      <trkpt lat="47.16976" lon="-1.63243">
        <ele>76</ele>
        <time>2020-05-29T14:52:53.000Z</time>
      </trkpt>
      <trkpt lat="47.16986" lon="-1.63233">
        <ele>76</ele>
        <time>2020-05-29T14:52:55.000Z</time>
      </trkpt>
      <trkpt lat="47.16997" lon="-1.63226">
        <ele>75</ele>
        <time>2020-05-29T14:52:57.000Z</time>
      </trkpt>
      <trkpt lat="47.17008" lon="-1.63219">
        <ele>75</ele>
        <time>2020-05-29T14:52:59.000Z</time>
      </trkpt>
      <trkpt lat="47.17018" lon="-1.6321">
        <ele>75</ele>
        <time>2020-05-29T14:53:01.000Z</time>
      </trkpt>
      <trkpt lat="47.17029" lon="-1.63203">
        <ele>76</ele>
        <time>2020-05-29T14:53:03.000Z</time>
      </trkpt>
      <trkpt lat="47.1704" lon="-1.63195">
        <ele>76</ele>
        <time>2020-05-29T14:53:05.000Z</time>
      </trkpt>
      <trkpt lat="47.17051" lon="-1.63187">
        <ele>76</ele>
        <time>2020-05-29T14:53:07.000Z</time>
      </trkpt>
      <trkpt lat="47.17063" lon="-1.6318">
        <ele>76</ele>
        <time>2020-05-29T14:53:09.000Z</time>
      </trkpt>
      <trkpt lat="47.17074" lon="-1.63173">
        <ele>76</ele>
        <time>2020-05-29T14:53:11.000Z</time>
      </trkpt>
      <trkpt lat="47.17084" lon="-1.63167">
        <ele>76</ele>
        <time>2020-05-29T14:53:13.000Z</time>
      </trkpt>
      <trkpt lat="47.17095" lon="-1.63161">
        <ele>76</ele>
        <time>2020-05-29T14:53:15.000Z</time>
      </trkpt>
      <trkpt lat="47.17105" lon="-1.63156">
        <ele>76</ele>
        <time>2020-05-29T14:53:17.000Z</time>
      </trkpt>
      <trkpt lat="47.17116" lon="-1.63152">
        <ele>77</ele>
        <time>2020-05-29T14:53:19.000Z</time>
      </trkpt>
      <trkpt lat="47.17127" lon="-1.63147">
        <ele>77</ele>
        <time>2020-05-29T14:53:21.000Z</time>
      </trkpt>
      <trkpt lat="47.17138" lon="-1.63142">
        <ele>76</ele>
        <time>2020-05-29T14:53:23.000Z</time>
      </trkpt>
      <trkpt lat="47.17149" lon="-1.63136">
        <ele>76</ele>
        <time>2020-05-29T14:53:25.000Z</time>
      </trkpt>
      <trkpt lat="47.17159" lon="-1.63128">
        <ele>76</ele>
        <time>2020-05-29T14:53:27.000Z</time>
      </trkpt>
      <trkpt lat="47.1717" lon="-1.6312">
        <ele>75</ele>
        <time>2020-05-29T14:53:29.000Z</time>
      </trkpt>
      <trkpt lat="47.1718" lon="-1.63111">
        <ele>75</ele>
        <time>2020-05-29T14:53:31.000Z</time>
      </trkpt>
      <trkpt lat="47.1719" lon="-1.63101">
        <ele>75</ele>
        <time>2020-05-29T14:53:33.000Z</time>
      </trkpt>
      <trkpt lat="47.172" lon="-1.6309">
        <ele>75</ele>
        <time>2020-05-29T14:53:35.000Z</time>
      </trkpt>
      <trkpt lat="47.17208" lon="-1.63078">
        <ele>75</ele>
        <time>2020-05-29T14:53:37.000Z</time>
      </trkpt>
      <trkpt lat="47.17218" lon="-1.63066">
        <ele>74</ele>
        <time>2020-05-29T14:53:39.000Z</time>
      </trkpt>
      <trkpt lat="47.17227" lon="-1.63053">
        <ele>74</ele>
        <time>2020-05-29T14:53:41.000Z</time>
      </trkpt>
      <trkpt lat="47.17236" lon="-1.63041">
        <ele>74</ele>
        <time>2020-05-29T14:53:43.000Z</time>
      </trkpt>
      <trkpt lat="47.17245" lon="-1.63029">
        <ele>74</ele>
        <time>2020-05-29T14:53:45.000Z</time>
      </trkpt>
      <trkpt lat="47.17253" lon="-1.63017">
        <ele>73</ele>
        <time>2020-05-29T14:53:47.000Z</time>
      </trkpt>
      <trkpt lat="47.17263" lon="-1.63005">
        <ele>74</ele>
        <time>2020-05-29T14:53:49.000Z</time>
      </trkpt>
      <trkpt lat="47.17272" lon="-1.62994">
        <ele>73</ele>
        <time>2020-05-29T14:53:51.000Z</time>
      </trkpt>
      <trkpt lat="47.17283" lon="-1.62985">
        <ele>73</ele>
        <time>2020-05-29T14:53:53.000Z</time>
      </trkpt>
      <trkpt lat="47.17294" lon="-1.62976">
        <ele>71</ele>
        <time>2020-05-29T14:53:55.000Z</time>
      </trkpt>
      <trkpt lat="47.17301" lon="-1.62961">
        <ele>71</ele>
        <time>2020-05-29T14:53:57.000Z</time>
      </trkpt>
      <trkpt lat="47.17305" lon="-1.62944">
        <ele>70</ele>
        <time>2020-05-29T14:53:59.000Z</time>
      </trkpt>
      <trkpt lat="47.17311" lon="-1.62926">
        <ele>70</ele>
        <time>2020-05-29T14:54:01.000Z</time>
      </trkpt>
      <trkpt lat="47.17317" lon="-1.62909">
        <ele>70</ele>
        <time>2020-05-29T14:54:03.000Z</time>
      </trkpt>
      <trkpt lat="47.17322" lon="-1.62892">
        <ele>70</ele>
        <time>2020-05-29T14:54:05.000Z</time>
      </trkpt>
      <trkpt lat="47.17328" lon="-1.62874">
        <ele>71</ele>
        <time>2020-05-29T14:54:07.000Z</time>
      </trkpt>
      <trkpt lat="47.17333" lon="-1.62856">
        <ele>71</ele>
        <time>2020-05-29T14:54:09.000Z</time>
      </trkpt>
      <trkpt lat="47.17339" lon="-1.62838">
        <ele>70</ele>
        <time>2020-05-29T14:54:11.000Z</time>
      </trkpt>
      <trkpt lat="47.17346" lon="-1.62819">
        <ele>71</ele>
        <time>2020-05-29T14:54:13.000Z</time>
      </trkpt>
      <trkpt lat="47.17353" lon="-1.62801">
        <ele>70</ele>
        <time>2020-05-29T14:54:15.000Z</time>
      </trkpt>
      <trkpt lat="47.17359" lon="-1.62783">
        <ele>70</ele>
        <time>2020-05-29T14:54:17.000Z</time>
      </trkpt>
      <trkpt lat="47.17365" lon="-1.62766">
        <ele>69</ele>
        <time>2020-05-29T14:54:19.000Z</time>
      </trkpt>
      <trkpt lat="47.17372" lon="-1.62748">
        <ele>69</ele>
        <time>2020-05-29T14:54:21.000Z</time>
      </trkpt>
      <trkpt lat="47.17377" lon="-1.62732">
        <ele>68</ele>
        <time>2020-05-29T14:54:23.000Z</time>
      </trkpt>
      <trkpt lat="47.17384" lon="-1.62715">
        <ele>68</ele>
        <time>2020-05-29T14:54:25.000Z</time>
      </trkpt>
      <trkpt lat="47.1739" lon="-1.62698">
        <ele>67</ele>
        <time>2020-05-29T14:54:27.000Z</time>
      </trkpt>
      <trkpt lat="47.17397" lon="-1.6268">
        <ele>67</ele>
        <time>2020-05-29T14:54:29.000Z</time>
      </trkpt>
      <trkpt lat="47.17403" lon="-1.62663">
        <ele>66</ele>
        <time>2020-05-29T14:54:31.000Z</time>
      </trkpt>
      <trkpt lat="47.17409" lon="-1.62645">
        <ele>66</ele>
        <time>2020-05-29T14:54:33.000Z</time>
      </trkpt>
      <trkpt lat="47.17416" lon="-1.62628">
        <ele>66</ele>
        <time>2020-05-29T14:54:35.000Z</time>
      </trkpt>
      <trkpt lat="47.17422" lon="-1.62611">
        <ele>66</ele>
        <time>2020-05-29T14:54:37.000Z</time>
      </trkpt>
      <trkpt lat="47.17428" lon="-1.62594">
        <ele>65</ele>
        <time>2020-05-29T14:54:39.000Z</time>
      </trkpt>
      <trkpt lat="47.17434" lon="-1.62577">
        <ele>65</ele>
        <time>2020-05-29T14:54:41.000Z</time>
      </trkpt>
      <trkpt lat="47.1744" lon="-1.6256">
        <ele>65</ele>
        <time>2020-05-29T14:54:43.000Z</time>
      </trkpt>
      <trkpt lat="47.17446" lon="-1.62543">
        <ele>65</ele>
        <time>2020-05-29T14:54:45.000Z</time>
      </trkpt>
      <trkpt lat="47.17452" lon="-1.62526">
        <ele>65</ele>
        <time>2020-05-29T14:54:47.000Z</time>
      </trkpt>
      <trkpt lat="47.17458" lon="-1.6251">
        <ele>65</ele>
        <time>2020-05-29T14:54:49.000Z</time>
      </trkpt>
      <trkpt lat="47.17464" lon="-1.62493">
        <ele>65</ele>
        <time>2020-05-29T14:54:51.000Z</time>
      </trkpt>
      <trkpt lat="47.1747" lon="-1.62478">
        <ele>65</ele>
        <time>2020-05-29T14:54:53.000Z</time>
      </trkpt>
      <trkpt lat="47.17476" lon="-1.62461">
        <ele>66</ele>
        <time>2020-05-29T14:54:55.000Z</time>
      </trkpt>
      <trkpt lat="47.17482" lon="-1.62445">
        <ele>66</ele>
        <time>2020-05-29T14:54:57.000Z</time>
      </trkpt>
      <trkpt lat="47.17487" lon="-1.6243">
        <ele>66</ele>
        <time>2020-05-29T14:54:59.000Z</time>
      </trkpt>
      <trkpt lat="47.1749" lon="-1.62411">
        <ele>66</ele>
        <time>2020-05-29T14:55:02.000Z</time>
      </trkpt>
      <trkpt lat="47.17487" lon="-1.62396">
        <ele>66</ele>
        <time>2020-05-29T14:55:04.000Z</time>
      </trkpt>
      <trkpt lat="47.17488" lon="-1.62379">
        <ele>66</ele>
        <time>2020-05-29T14:55:06.000Z</time>
      </trkpt>
      <trkpt lat="47.17497" lon="-1.62365">
        <ele>67</ele>
        <time>2020-05-29T14:55:08.000Z</time>
      </trkpt>
      <trkpt lat="47.17508" lon="-1.62355">
        <ele>67</ele>
        <time>2020-05-29T14:55:10.000Z</time>
      </trkpt>
      <trkpt lat="47.17517" lon="-1.62342">
        <ele>68</ele>
        <time>2020-05-29T14:55:12.000Z</time>
      </trkpt>
      <trkpt lat="47.17523" lon="-1.62324">
        <ele>68</ele>
        <time>2020-05-29T14:55:14.000Z</time>
      </trkpt>
      <trkpt lat="47.1753" lon="-1.62306">
        <ele>68</ele>
        <time>2020-05-29T14:55:16.000Z</time>
      </trkpt>
      <trkpt lat="47.17535" lon="-1.62289">
        <ele>68</ele>
        <time>2020-05-29T14:55:18.000Z</time>
      </trkpt>
      <trkpt lat="47.17541" lon="-1.62273">
        <ele>68</ele>
        <time>2020-05-29T14:55:20.000Z</time>
      </trkpt>
      <trkpt lat="47.17547" lon="-1.62257">
        <ele>69</ele>
        <time>2020-05-29T14:55:22.000Z</time>
      </trkpt>
      <trkpt lat="47.17553" lon="-1.6224">
        <ele>69</ele>
        <time>2020-05-29T14:55:24.000Z</time>
      </trkpt>
      <trkpt lat="47.17559" lon="-1.62223">
        <ele>70</ele>
        <time>2020-05-29T14:55:26.000Z</time>
      </trkpt>
      <trkpt lat="47.17565" lon="-1.62207">
        <ele>70</ele>
        <time>2020-05-29T14:55:28.000Z</time>
      </trkpt>
      <trkpt lat="47.17571" lon="-1.62191">
        <ele>71</ele>
        <time>2020-05-29T14:55:30.000Z</time>
      </trkpt>
      <trkpt lat="47.17577" lon="-1.62175">
        <ele>70</ele>
        <time>2020-05-29T14:55:32.000Z</time>
      </trkpt>
      <trkpt lat="47.17583" lon="-1.62159">
        <ele>70</ele>
        <time>2020-05-29T14:55:34.000Z</time>
      </trkpt>
      <trkpt lat="47.17588" lon="-1.62143">
        <ele>70</ele>
        <time>2020-05-29T14:55:36.000Z</time>
      </trkpt>
      <trkpt lat="47.17594" lon="-1.62128">
        <ele>70</ele>
        <time>2020-05-29T14:55:38.000Z</time>
      </trkpt>
      <trkpt lat="47.17599" lon="-1.62111">
        <ele>70</ele>
        <time>2020-05-29T14:55:40.000Z</time>
      </trkpt>
      <trkpt lat="47.17605" lon="-1.62095">
        <ele>71</ele>
        <time>2020-05-29T14:55:42.000Z</time>
      </trkpt>
      <trkpt lat="47.17611" lon="-1.6208">
        <ele>71</ele>
        <time>2020-05-29T14:55:44.000Z</time>
      </trkpt>
      <trkpt lat="47.17617" lon="-1.62064">
        <ele>72</ele>
        <time>2020-05-29T14:55:46.000Z</time>
      </trkpt>
      <trkpt lat="47.17623" lon="-1.62049">
        <ele>72</ele>
        <time>2020-05-29T14:55:48.000Z</time>
      </trkpt>
      <trkpt lat="47.17628" lon="-1.62033">
        <ele>72</ele>
        <time>2020-05-29T14:55:50.000Z</time>
      </trkpt>
      <trkpt lat="47.17633" lon="-1.62018">
        <ele>73</ele>
        <time>2020-05-29T14:55:52.000Z</time>
      </trkpt>
      <trkpt lat="47.17634" lon="-1.62002">
        <ele>72</ele>
        <time>2020-05-29T14:55:54.000Z</time>
      </trkpt>
      <trkpt lat="47.17634" lon="-1.61985">
        <ele>72</ele>
        <time>2020-05-29T14:55:56.000Z</time>
      </trkpt>
      <trkpt lat="47.1764" lon="-1.61969">
        <ele>72</ele>
        <time>2020-05-29T14:55:58.000Z</time>
      </trkpt>
      <trkpt lat="47.17649" lon="-1.61956">
        <ele>72</ele>
        <time>2020-05-29T14:56:00.000Z</time>
      </trkpt>
      <trkpt lat="47.17654" lon="-1.6194">
        <ele>72</ele>
        <time>2020-05-29T14:56:02.000Z</time>
      </trkpt>
      <trkpt lat="47.17658" lon="-1.61922">
        <ele>72</ele>
        <time>2020-05-29T14:56:04.000Z</time>
      </trkpt>
      <trkpt lat="47.17662" lon="-1.61903">
        <ele>71</ele>
        <time>2020-05-29T14:56:06.000Z</time>
      </trkpt>
      <trkpt lat="47.17666" lon="-1.61884">
        <ele>71</ele>
        <time>2020-05-29T14:56:08.000Z</time>
      </trkpt>
      <trkpt lat="47.17669" lon="-1.61866">
        <ele>71</ele>
        <time>2020-05-29T14:56:10.000Z</time>
      </trkpt>
      <trkpt lat="47.17671" lon="-1.61848">
        <ele>70</ele>
        <time>2020-05-29T14:56:12.000Z</time>
      </trkpt>
      <trkpt lat="47.17674" lon="-1.61828">
        <ele>70</ele>
        <time>2020-05-29T14:56:14.000Z</time>
      </trkpt>
      <trkpt lat="47.17677" lon="-1.61809">
        <ele>69</ele>
        <time>2020-05-29T14:56:16.000Z</time>
      </trkpt>
      <trkpt lat="47.1768" lon="-1.61789">
        <ele>69</ele>
        <time>2020-05-29T14:56:18.000Z</time>
      </trkpt>
      <trkpt lat="47.17681" lon="-1.61769">
        <ele>68</ele>
        <time>2020-05-29T14:56:20.000Z</time>
      </trkpt>
      <trkpt lat="47.17683" lon="-1.61748">
        <ele>67</ele>
        <time>2020-05-29T14:56:22.000Z</time>
      </trkpt>
      <trkpt lat="47.17684" lon="-1.61727">
        <ele>67</ele>
        <time>2020-05-29T14:56:24.000Z</time>
      </trkpt>
      <trkpt lat="47.17684" lon="-1.61706">
        <ele>66</ele>
        <time>2020-05-29T14:56:26.000Z</time>
      </trkpt>
      <trkpt lat="47.17685" lon="-1.61684">
        <ele>66</ele>
        <time>2020-05-29T14:56:28.000Z</time>
      </trkpt>
      <trkpt lat="47.17685" lon="-1.61661">
        <ele>65</ele>
        <time>2020-05-29T14:56:30.000Z</time>
      </trkpt>
      <trkpt lat="47.17686" lon="-1.61637">
        <ele>64</ele>
        <time>2020-05-29T14:56:32.000Z</time>
      </trkpt>
      <trkpt lat="47.17686" lon="-1.61615">
        <ele>64</ele>
        <time>2020-05-29T14:56:34.000Z</time>
      </trkpt>
      <trkpt lat="47.17686" lon="-1.61591">
        <ele>64</ele>
        <time>2020-05-29T14:56:36.000Z</time>
      </trkpt>
      <trkpt lat="47.17685" lon="-1.61569">
        <ele>63</ele>
        <time>2020-05-29T14:56:38.000Z</time>
      </trkpt>
      <trkpt lat="47.17682" lon="-1.61546">
        <ele>62</ele>
        <time>2020-05-29T14:56:40.000Z</time>
      </trkpt>
      <trkpt lat="47.17677" lon="-1.61524">
        <ele>62</ele>
        <time>2020-05-29T14:56:42.000Z</time>
      </trkpt>
      <trkpt lat="47.1767" lon="-1.61504">
        <ele>61</ele>
        <time>2020-05-29T14:56:44.000Z</time>
      </trkpt>
      <trkpt lat="47.17663" lon="-1.61486">
        <ele>61</ele>
        <time>2020-05-29T14:56:46.000Z</time>
      </trkpt>
      <trkpt lat="47.17654" lon="-1.61469">
        <ele>61</ele>
        <time>2020-05-29T14:56:48.000Z</time>
      </trkpt>
      <trkpt lat="47.17644" lon="-1.61453">
        <ele>60</ele>
        <time>2020-05-29T14:56:50.000Z</time>
      </trkpt>
      <trkpt lat="47.17634" lon="-1.61438">
        <ele>60</ele>
        <time>2020-05-29T14:56:52.000Z</time>
      </trkpt>
      <trkpt lat="47.17623" lon="-1.61426">
        <ele>61</ele>
        <time>2020-05-29T14:56:54.000Z</time>
      </trkpt>
      <trkpt lat="47.1761" lon="-1.61414">
        <ele>61</ele>
        <time>2020-05-29T14:56:56.000Z</time>
      </trkpt>
      <trkpt lat="47.17598" lon="-1.61402">
        <ele>61</ele>
        <time>2020-05-29T14:56:58.000Z</time>
      </trkpt>
      <trkpt lat="47.17586" lon="-1.61391">
        <ele>61</ele>
        <time>2020-05-29T14:57:00.000Z</time>
      </trkpt>
      <trkpt lat="47.17576" lon="-1.61381">
        <ele>61</ele>
        <time>2020-05-29T14:57:02.000Z</time>
      </trkpt>
      <trkpt lat="47.17567" lon="-1.61372">
        <ele>61</ele>
        <time>2020-05-29T14:57:04.000Z</time>
      </trkpt>
      <trkpt lat="47.17558" lon="-1.61363">
        <ele>61</ele>
        <time>2020-05-29T14:57:06.000Z</time>
      </trkpt>
      <trkpt lat="47.17548" lon="-1.61358">
        <ele>60</ele>
        <time>2020-05-29T14:57:08.000Z</time>
      </trkpt>
      <trkpt lat="47.17537" lon="-1.61353">
        <ele>60</ele>
        <time>2020-05-29T14:57:10.000Z</time>
      </trkpt>
      <trkpt lat="47.17526" lon="-1.61341">
        <ele>60</ele>
        <time>2020-05-29T14:57:12.000Z</time>
      </trkpt>
      <trkpt lat="47.1752" lon="-1.61324">
        <ele>60</ele>
        <time>2020-05-29T14:57:14.000Z</time>
      </trkpt>
      <trkpt lat="47.17518" lon="-1.61303">
        <ele>60</ele>
        <time>2020-05-29T14:57:16.000Z</time>
      </trkpt>
      <trkpt lat="47.17515" lon="-1.61284">
        <ele>59</ele>
        <time>2020-05-29T14:57:18.000Z</time>
      </trkpt>
      <trkpt lat="47.17506" lon="-1.61268">
        <ele>59</ele>
        <time>2020-05-29T14:57:20.000Z</time>
      </trkpt>
      <trkpt lat="47.17497" lon="-1.61252">
        <ele>60</ele>
        <time>2020-05-29T14:57:22.000Z</time>
      </trkpt>
      <trkpt lat="47.1749" lon="-1.61235">
        <ele>60</ele>
        <time>2020-05-29T14:57:24.000Z</time>
      </trkpt>
      <trkpt lat="47.17483" lon="-1.61219">
        <ele>60</ele>
        <time>2020-05-29T14:57:26.000Z</time>
      </trkpt>
      <trkpt lat="47.17476" lon="-1.61202">
        <ele>59</ele>
        <time>2020-05-29T14:57:28.000Z</time>
      </trkpt>
      <trkpt lat="47.17469" lon="-1.61186">
        <ele>60</ele>
        <time>2020-05-29T14:57:30.000Z</time>
      </trkpt>
      <trkpt lat="47.17462" lon="-1.6117">
        <ele>60</ele>
        <time>2020-05-29T14:57:32.000Z</time>
      </trkpt>
      <trkpt lat="47.17455" lon="-1.61153">
        <ele>59</ele>
        <time>2020-05-29T14:57:34.000Z</time>
      </trkpt>
      <trkpt lat="47.17448" lon="-1.61136">
        <ele>59</ele>
        <time>2020-05-29T14:57:36.000Z</time>
      </trkpt>
      <trkpt lat="47.17441" lon="-1.61119">
        <ele>59</ele>
        <time>2020-05-29T14:57:38.000Z</time>
      </trkpt>
      <trkpt lat="47.17434" lon="-1.611">
        <ele>59</ele>
        <time>2020-05-29T14:57:40.000Z</time>
      </trkpt>
      <trkpt lat="47.17426" lon="-1.61081">
        <ele>59</ele>
        <time>2020-05-29T14:57:42.000Z</time>
      </trkpt>
      <trkpt lat="47.17418" lon="-1.61061">
        <ele>58</ele>
        <time>2020-05-29T14:57:44.000Z</time>
      </trkpt>
      <trkpt lat="47.17409" lon="-1.61042">
        <ele>57</ele>
        <time>2020-05-29T14:57:46.000Z</time>
      </trkpt>
      <trkpt lat="47.17396" lon="-1.61031">
        <ele>56</ele>
        <time>2020-05-29T14:57:48.000Z</time>
      </trkpt>
      <trkpt lat="47.17386" lon="-1.61015">
        <ele>56</ele>
        <time>2020-05-29T14:57:50.000Z</time>
      </trkpt>
      <trkpt lat="47.17385" lon="-1.60994">
        <ele>56</ele>
        <time>2020-05-29T14:57:52.000Z</time>
      </trkpt>
      <trkpt lat="47.17388" lon="-1.60973">
        <ele>56</ele>
        <time>2020-05-29T14:57:54.000Z</time>
      </trkpt>
      <trkpt lat="47.1739" lon="-1.6095">
        <ele>55</ele>
        <time>2020-05-29T14:57:56.000Z</time>
      </trkpt>
      <trkpt lat="47.17388" lon="-1.60929">
        <ele>56</ele>
        <time>2020-05-29T14:57:58.000Z</time>
      </trkpt>
      <trkpt lat="47.17387" lon="-1.6091">
        <ele>56</ele>
        <time>2020-05-29T14:58:00.000Z</time>
      </trkpt>
      <trkpt lat="47.17387" lon="-1.60892">
        <ele>56</ele>
        <time>2020-05-29T14:58:02.000Z</time>
      </trkpt>
      <trkpt lat="47.17388" lon="-1.60874">
        <ele>57</ele>
        <time>2020-05-29T14:58:04.000Z</time>
      </trkpt>
      <trkpt lat="47.17389" lon="-1.60857">
        <ele>57</ele>
        <time>2020-05-29T14:58:06.000Z</time>
      </trkpt>
      <trkpt lat="47.17392" lon="-1.60839">
        <ele>57</ele>
        <time>2020-05-29T14:58:08.000Z</time>
      </trkpt>
      <trkpt lat="47.17395" lon="-1.60822">
        <ele>57</ele>
        <time>2020-05-29T14:58:10.000Z</time>
      </trkpt>
      <trkpt lat="47.17399" lon="-1.60806">
        <ele>58</ele>
        <time>2020-05-29T14:58:12.000Z</time>
      </trkpt>
      <trkpt lat="47.17403" lon="-1.6079">
        <ele>58</ele>
        <time>2020-05-29T14:58:14.000Z</time>
      </trkpt>
      <trkpt lat="47.17407" lon="-1.60776">
        <ele>58</ele>
        <time>2020-05-29T14:58:16.000Z</time>
      </trkpt>
      <trkpt lat="47.17412" lon="-1.60763">
        <ele>58</ele>
        <time>2020-05-29T14:58:18.000Z</time>
      </trkpt>
      <trkpt lat="47.17419" lon="-1.60749">
        <ele>58</ele>
        <time>2020-05-29T14:58:20.000Z</time>
      </trkpt>
      <trkpt lat="47.17425" lon="-1.60738">
        <ele>59</ele>
        <time>2020-05-29T14:58:22.000Z</time>
      </trkpt>
      <trkpt lat="47.17432" lon="-1.60725">
        <ele>59</ele>
        <time>2020-05-29T14:58:24.000Z</time>
      </trkpt>
      <trkpt lat="47.17439" lon="-1.60714">
        <ele>59</ele>
        <time>2020-05-29T14:58:26.000Z</time>
      </trkpt>
      <trkpt lat="47.17446" lon="-1.60702">
        <ele>60</ele>
        <time>2020-05-29T14:58:28.000Z</time>
      </trkpt>
      <trkpt lat="47.17453" lon="-1.6069">
        <ele>60</ele>
        <time>2020-05-29T14:58:30.000Z</time>
      </trkpt>
      <trkpt lat="47.1746" lon="-1.60678">
        <ele>61</ele>
        <time>2020-05-29T14:58:32.000Z</time>
      </trkpt>
      <trkpt lat="47.17466" lon="-1.60666">
        <ele>61</ele>
        <time>2020-05-29T14:58:34.000Z</time>
      </trkpt>
      <trkpt lat="47.17474" lon="-1.60653">
        <ele>61</ele>
        <time>2020-05-29T14:58:36.000Z</time>
      </trkpt>
      <trkpt lat="47.17481" lon="-1.6064">
        <ele>61</ele>
        <time>2020-05-29T14:58:38.000Z</time>
      </trkpt>
      <trkpt lat="47.17488" lon="-1.60627">
        <ele>61</ele>
        <time>2020-05-29T14:58:40.000Z</time>
      </trkpt>
      <trkpt lat="47.17495" lon="-1.60614">
        <ele>62</ele>
        <time>2020-05-29T14:58:42.000Z</time>
      </trkpt>
      <trkpt lat="47.17502" lon="-1.60601">
        <ele>62</ele>
        <time>2020-05-29T14:58:44.000Z</time>
      </trkpt>
      <trkpt lat="47.17509" lon="-1.60589">
        <ele>62</ele>
        <time>2020-05-29T14:58:46.000Z</time>
      </trkpt>
      <trkpt lat="47.17517" lon="-1.60577">
        <ele>62</ele>
        <time>2020-05-29T14:58:48.000Z</time>
      </trkpt>
      <trkpt lat="47.17525" lon="-1.60565">
        <ele>62</ele>
        <time>2020-05-29T14:58:50.000Z</time>
      </trkpt>
      <trkpt lat="47.17533" lon="-1.60553">
        <ele>63</ele>
        <time>2020-05-29T14:58:52.000Z</time>
      </trkpt>
      <trkpt lat="47.1754" lon="-1.60541">
        <ele>63</ele>
        <time>2020-05-29T14:58:54.000Z</time>
      </trkpt>
      <trkpt lat="47.17547" lon="-1.60529">
        <ele>62</ele>
        <time>2020-05-29T14:58:56.000Z</time>
      </trkpt>
      <trkpt lat="47.17555" lon="-1.60517">
        <ele>62</ele>
        <time>2020-05-29T14:58:58.000Z</time>
      </trkpt>
      <trkpt lat="47.17563" lon="-1.60504">
        <ele>62</ele>
        <time>2020-05-29T14:59:00.000Z</time>
      </trkpt>
      <trkpt lat="47.17571" lon="-1.60491">
        <ele>62</ele>
        <time>2020-05-29T14:59:02.000Z</time>
      </trkpt>
      <trkpt lat="47.17578" lon="-1.60479">
        <ele>62</ele>
        <time>2020-05-29T14:59:04.000Z</time>
      </trkpt>
      <trkpt lat="47.17586" lon="-1.60467">
        <ele>62</ele>
        <time>2020-05-29T14:59:06.000Z</time>
      </trkpt>
      <trkpt lat="47.17593" lon="-1.60454">
        <ele>63</ele>
        <time>2020-05-29T14:59:08.000Z</time>
      </trkpt>
      <trkpt lat="47.17601" lon="-1.60441">
        <ele>63</ele>
        <time>2020-05-29T14:59:10.000Z</time>
      </trkpt>
      <trkpt lat="47.17608" lon="-1.60429">
        <ele>63</ele>
        <time>2020-05-29T14:59:12.000Z</time>
      </trkpt>
      <trkpt lat="47.17607" lon="-1.60414">
        <ele>63</ele>
        <time>2020-05-29T14:59:14.000Z</time>
      </trkpt>
      <trkpt lat="47.17597" lon="-1.60404">
        <ele>63</ele>
        <time>2020-05-29T14:59:16.000Z</time>
      </trkpt>
      <trkpt lat="47.17587" lon="-1.60397">
        <ele>64</ele>
        <time>2020-05-29T14:59:18.000Z</time>
      </trkpt>
      <trkpt lat="47.17578" lon="-1.60389">
        <ele>64</ele>
        <time>2020-05-29T14:59:20.000Z</time>
      </trkpt>
      <trkpt lat="47.17569" lon="-1.60383">
        <ele>64</ele>
        <time>2020-05-29T14:59:22.000Z</time>
      </trkpt>
      <trkpt lat="47.17559" lon="-1.60377">
        <ele>65</ele>
        <time>2020-05-29T14:59:24.000Z</time>
      </trkpt>
      <trkpt lat="47.17549" lon="-1.60369">
        <ele>65</ele>
        <time>2020-05-29T14:59:26.000Z</time>
      </trkpt>
      <trkpt lat="47.1754" lon="-1.60362">
        <ele>66</ele>
        <time>2020-05-29T14:59:28.000Z</time>
      </trkpt>
      <trkpt lat="47.1753" lon="-1.60355">
        <ele>66</ele>
        <time>2020-05-29T14:59:30.000Z</time>
      </trkpt>
      <trkpt lat="47.1752" lon="-1.60347">
        <ele>66</ele>
        <time>2020-05-29T14:59:32.000Z</time>
      </trkpt>
      <trkpt lat="47.1751" lon="-1.6034">
        <ele>67</ele>
        <time>2020-05-29T14:59:34.000Z</time>
      </trkpt>
      <trkpt lat="47.175" lon="-1.60333">
        <ele>67</ele>
        <time>2020-05-29T14:59:36.000Z</time>
      </trkpt>
      <trkpt lat="47.17491" lon="-1.60325">
        <ele>67</ele>
        <time>2020-05-29T14:59:38.000Z</time>
      </trkpt>
      <trkpt lat="47.17481" lon="-1.60317">
        <ele>67</ele>
        <time>2020-05-29T14:59:40.000Z</time>
      </trkpt>
      <trkpt lat="47.17471" lon="-1.6031">
        <ele>68</ele>
        <time>2020-05-29T14:59:42.000Z</time>
      </trkpt>
      <trkpt lat="47.17462" lon="-1.60303">
        <ele>68</ele>
        <time>2020-05-29T14:59:44.000Z</time>
      </trkpt>
      <trkpt lat="47.17453" lon="-1.60297">
        <ele>69</ele>
        <time>2020-05-29T14:59:46.000Z</time>
      </trkpt>
      <trkpt lat="47.17442" lon="-1.6029">
        <ele>69</ele>
        <time>2020-05-29T14:59:48.000Z</time>
      </trkpt>
      <trkpt lat="47.17431" lon="-1.60284">
        <ele>69</ele>
        <time>2020-05-29T14:59:50.000Z</time>
      </trkpt>
      <trkpt lat="47.1742" lon="-1.60281">
        <ele>69</ele>
        <time>2020-05-29T14:59:52.000Z</time>
      </trkpt>
      <trkpt lat="47.17408" lon="-1.60278">
        <ele>70</ele>
        <time>2020-05-29T14:59:54.000Z</time>
      </trkpt>
      <trkpt lat="47.17396" lon="-1.60276">
        <ele>70</ele>
        <time>2020-05-29T14:59:56.000Z</time>
      </trkpt>
      <trkpt lat="47.17384" lon="-1.60273">
        <ele>70</ele>
        <time>2020-05-29T14:59:58.000Z</time>
      </trkpt>
      <trkpt lat="47.17373" lon="-1.60271">
        <ele>70</ele>
        <time>2020-05-29T15:00:00.000Z</time>
      </trkpt>
      <trkpt lat="47.17361" lon="-1.60269">
        <ele>70</ele>
        <time>2020-05-29T15:00:02.000Z</time>
      </trkpt>
      <trkpt lat="47.17349" lon="-1.60266">
        <ele>71</ele>
        <time>2020-05-29T15:00:04.000Z</time>
      </trkpt>
      <trkpt lat="47.17337" lon="-1.60264">
        <ele>71</ele>
        <time>2020-05-29T15:00:06.000Z</time>
      </trkpt>
      <trkpt lat="47.17325" lon="-1.60262">
        <ele>71</ele>
        <time>2020-05-29T15:00:08.000Z</time>
      </trkpt>
      <trkpt lat="47.17314" lon="-1.6026">
        <ele>71</ele>
        <time>2020-05-29T15:00:10.000Z</time>
      </trkpt>
      <trkpt lat="47.17302" lon="-1.60258">
        <ele>71</ele>
        <time>2020-05-29T15:00:12.000Z</time>
      </trkpt>
      <trkpt lat="47.1729" lon="-1.60256">
        <ele>71</ele>
        <time>2020-05-29T15:00:14.000Z</time>
      </trkpt>
      <trkpt lat="47.17278" lon="-1.60254">
        <ele>71</ele>
        <time>2020-05-29T15:00:16.000Z</time>
      </trkpt>
      <trkpt lat="47.17266" lon="-1.60252">
        <ele>70</ele>
        <time>2020-05-29T15:00:18.000Z</time>
      </trkpt>
      <trkpt lat="47.17254" lon="-1.60251">
        <ele>70</ele>
        <time>2020-05-29T15:00:20.000Z</time>
      </trkpt>
      <trkpt lat="47.17242" lon="-1.60251">
        <ele>71</ele>
        <time>2020-05-29T15:00:22.000Z</time>
      </trkpt>
      <trkpt lat="47.17229" lon="-1.60253">
        <ele>71</ele>
        <time>2020-05-29T15:00:24.000Z</time>
      </trkpt>
      <trkpt lat="47.17218" lon="-1.60255">
        <ele>70</ele>
        <time>2020-05-29T15:00:26.000Z</time>
      </trkpt>
      <trkpt lat="47.17205" lon="-1.60258">
        <ele>71</ele>
        <time>2020-05-29T15:00:28.000Z</time>
      </trkpt>
      <trkpt lat="47.17193" lon="-1.60262">
        <ele>72</ele>
        <time>2020-05-29T15:00:30.000Z</time>
      </trkpt>
      <trkpt lat="47.17181" lon="-1.60265">
        <ele>73</ele>
        <time>2020-05-29T15:00:32.000Z</time>
      </trkpt>
      <trkpt lat="47.17169" lon="-1.60269">
        <ele>73</ele>
        <time>2020-05-29T15:00:34.000Z</time>
      </trkpt>
      <trkpt lat="47.17158" lon="-1.60273">
        <ele>73</ele>
        <time>2020-05-29T15:00:36.000Z</time>
      </trkpt>
      <trkpt lat="47.17147" lon="-1.60277">
        <ele>73</ele>
        <time>2020-05-29T15:00:38.000Z</time>
      </trkpt>
      <trkpt lat="47.17135" lon="-1.60281">
        <ele>73</ele>
        <time>2020-05-29T15:00:40.000Z</time>
      </trkpt>
      <trkpt lat="47.17124" lon="-1.60285">
        <ele>73</ele>
        <time>2020-05-29T15:00:42.000Z</time>
      </trkpt>
      <trkpt lat="47.17111" lon="-1.60289">
        <ele>73</ele>
        <time>2020-05-29T15:00:44.000Z</time>
      </trkpt>
      <trkpt lat="47.17098" lon="-1.60294">
        <ele>73</ele>
        <time>2020-05-29T15:00:46.000Z</time>
      </trkpt>
      <trkpt lat="47.17086" lon="-1.60298">
        <ele>73</ele>
        <time>2020-05-29T15:00:48.000Z</time>
      </trkpt>
      <trkpt lat="47.17073" lon="-1.60302">
        <ele>73</ele>
        <time>2020-05-29T15:00:50.000Z</time>
      </trkpt>
      <trkpt lat="47.1706" lon="-1.60307">
        <ele>73</ele>
        <time>2020-05-29T15:00:52.000Z</time>
      </trkpt>
      <trkpt lat="47.17046" lon="-1.60311">
        <ele>73</ele>
        <time>2020-05-29T15:00:54.000Z</time>
      </trkpt>
      <trkpt lat="47.17033" lon="-1.60315">
        <ele>72</ele>
        <time>2020-05-29T15:00:56.000Z</time>
      </trkpt>
      <trkpt lat="47.1702" lon="-1.60318">
        <ele>72</ele>
        <time>2020-05-29T15:00:58.000Z</time>
      </trkpt>
      <trkpt lat="47.17005" lon="-1.6032">
        <ele>72</ele>
        <time>2020-05-29T15:01:00.000Z</time>
      </trkpt>
      <trkpt lat="47.16991" lon="-1.60322">
        <ele>72</ele>
        <time>2020-05-29T15:01:02.000Z</time>
      </trkpt>
      <trkpt lat="47.16977" lon="-1.60321">
        <ele>72</ele>
        <time>2020-05-29T15:01:04.000Z</time>
      </trkpt>
      <trkpt lat="47.16964" lon="-1.60319">
        <ele>72</ele>
        <time>2020-05-29T15:01:06.000Z</time>
      </trkpt>
      <trkpt lat="47.16952" lon="-1.60315">
        <ele>72</ele>
        <time>2020-05-29T15:01:08.000Z</time>
      </trkpt>
      <trkpt lat="47.16938" lon="-1.60312">
        <ele>72</ele>
        <time>2020-05-29T15:01:10.000Z</time>
      </trkpt>
      <trkpt lat="47.16925" lon="-1.60309">
        <ele>72</ele>
        <time>2020-05-29T15:01:12.000Z</time>
      </trkpt>
      <trkpt lat="47.16912" lon="-1.60305">
        <ele>72</ele>
        <time>2020-05-29T15:01:14.000Z</time>
      </trkpt>
      <trkpt lat="47.16898" lon="-1.60302">
        <ele>72</ele>
        <time>2020-05-29T15:01:16.000Z</time>
      </trkpt>
      <trkpt lat="47.16884" lon="-1.603">
        <ele>73</ele>
        <time>2020-05-29T15:01:18.000Z</time>
      </trkpt>
      <trkpt lat="47.1687" lon="-1.60297">
        <ele>73</ele>
        <time>2020-05-29T15:01:20.000Z</time>
      </trkpt>
      <trkpt lat="47.16856" lon="-1.60294">
        <ele>73</ele>
        <time>2020-05-29T15:01:22.000Z</time>
      </trkpt>
      <trkpt lat="47.16843" lon="-1.6029">
        <ele>73</ele>
        <time>2020-05-29T15:01:24.000Z</time>
      </trkpt>
      <trkpt lat="47.16829" lon="-1.60288">
        <ele>74</ele>
        <time>2020-05-29T15:01:26.000Z</time>
      </trkpt>
      <trkpt lat="47.16815" lon="-1.60282">
        <ele>74</ele>
        <time>2020-05-29T15:01:28.000Z</time>
      </trkpt>
      <trkpt lat="47.16803" lon="-1.60271">
        <ele>74</ele>
        <time>2020-05-29T15:01:30.000Z</time>
      </trkpt>
      <trkpt lat="47.16793" lon="-1.60256">
        <ele>73</ele>
        <time>2020-05-29T15:01:32.000Z</time>
      </trkpt>
      <trkpt lat="47.16783" lon="-1.60241">
        <ele>73</ele>
        <time>2020-05-29T15:01:34.000Z</time>
      </trkpt>
      <trkpt lat="47.16774" lon="-1.60225">
        <ele>72</ele>
        <time>2020-05-29T15:01:36.000Z</time>
      </trkpt>
      <trkpt lat="47.16764" lon="-1.60209">
        <ele>72</ele>
        <time>2020-05-29T15:01:38.000Z</time>
      </trkpt>
      <trkpt lat="47.16751" lon="-1.60186">
        <ele>71</ele>
        <time>2020-05-29T15:01:41.000Z</time>
      </trkpt>
      <trkpt lat="47.16742" lon="-1.6017">
        <ele>71</ele>
        <time>2020-05-29T15:01:43.000Z</time>
      </trkpt>
      <trkpt lat="47.16732" lon="-1.60154">
        <ele>70</ele>
        <time>2020-05-29T15:01:45.000Z</time>
      </trkpt>
      <trkpt lat="47.16718" lon="-1.60132">
        <ele>71</ele>
        <time>2020-05-29T15:01:48.000Z</time>
      </trkpt>
      <trkpt lat="47.16706" lon="-1.6011">
        <ele>71</ele>
        <time>2020-05-29T15:01:51.000Z</time>
      </trkpt>
      <trkpt lat="47.16693" lon="-1.60089">
        <ele>71</ele>
        <time>2020-05-29T15:01:54.000Z</time>
      </trkpt>
      <trkpt lat="47.16685" lon="-1.60075">
        <ele>72</ele>
        <time>2020-05-29T15:01:56.000Z</time>
      </trkpt>
      <trkpt lat="47.16677" lon="-1.60061">
        <ele>72</ele>
        <time>2020-05-29T15:01:58.000Z</time>
      </trkpt>
      <trkpt lat="47.16669" lon="-1.60047">
        <ele>72</ele>
        <time>2020-05-29T15:02:00.000Z</time>
      </trkpt>
      <trkpt lat="47.1666" lon="-1.60033">
        <ele>72</ele>
        <time>2020-05-29T15:02:02.000Z</time>
      </trkpt>
      <trkpt lat="47.16652" lon="-1.60019">
        <ele>72</ele>
        <time>2020-05-29T15:02:04.000Z</time>
      </trkpt>
      <trkpt lat="47.16643" lon="-1.60005">
        <ele>72</ele>
        <time>2020-05-29T15:02:06.000Z</time>
      </trkpt>
      <trkpt lat="47.16635" lon="-1.59992">
        <ele>72</ele>
        <time>2020-05-29T15:02:08.000Z</time>
      </trkpt>
      <trkpt lat="47.16627" lon="-1.59978">
        <ele>72</ele>
        <time>2020-05-29T15:02:10.000Z</time>
      </trkpt>
      <trkpt lat="47.16619" lon="-1.59965">
        <ele>72</ele>
        <time>2020-05-29T15:02:12.000Z</time>
      </trkpt>
      <trkpt lat="47.16611" lon="-1.59952">
        <ele>72</ele>
        <time>2020-05-29T15:02:14.000Z</time>
      </trkpt>
      <trkpt lat="47.16597" lon="-1.59932">
        <ele>71</ele>
        <time>2020-05-29T15:02:17.000Z</time>
      </trkpt>
      <trkpt lat="47.16583" lon="-1.59914">
        <ele>71</ele>
        <time>2020-05-29T15:02:20.000Z</time>
      </trkpt>
      <trkpt lat="47.16565" lon="-1.59896">
        <ele>70</ele>
        <time>2020-05-29T15:02:23.000Z</time>
      </trkpt>
      <trkpt lat="47.16547" lon="-1.59878">
        <ele>70</ele>
        <time>2020-05-29T15:02:26.000Z</time>
      </trkpt>
      <trkpt lat="47.16534" lon="-1.59867">
        <ele>70</ele>
        <time>2020-05-29T15:02:28.000Z</time>
      </trkpt>
      <trkpt lat="47.16522" lon="-1.59857">
        <ele>69</ele>
        <time>2020-05-29T15:02:30.000Z</time>
      </trkpt>
      <trkpt lat="47.1651" lon="-1.59847">
        <ele>70</ele>
        <time>2020-05-29T15:02:32.000Z</time>
      </trkpt>
      <trkpt lat="47.16499" lon="-1.59837">
        <ele>69</ele>
        <time>2020-05-29T15:02:34.000Z</time>
      </trkpt>
      <trkpt lat="47.16487" lon="-1.59827">
        <ele>69</ele>
        <time>2020-05-29T15:02:36.000Z</time>
      </trkpt>
      <trkpt lat="47.16475" lon="-1.59817">
        <ele>69</ele>
        <time>2020-05-29T15:02:38.000Z</time>
      </trkpt>
      <trkpt lat="47.16457" lon="-1.59801">
        <ele>69</ele>
        <time>2020-05-29T15:02:41.000Z</time>
      </trkpt>
      <trkpt lat="47.16446" lon="-1.59792">
        <ele>69</ele>
        <time>2020-05-29T15:02:43.000Z</time>
      </trkpt>
      <trkpt lat="47.16434" lon="-1.59783">
        <ele>69</ele>
        <time>2020-05-29T15:02:45.000Z</time>
      </trkpt>
      <trkpt lat="47.16423" lon="-1.59772">
        <ele>69</ele>
        <time>2020-05-29T15:02:47.000Z</time>
      </trkpt>
      <trkpt lat="47.16412" lon="-1.59763">
        <ele>69</ele>
        <time>2020-05-29T15:02:49.000Z</time>
      </trkpt>
      <trkpt lat="47.164" lon="-1.59754">
        <ele>70</ele>
        <time>2020-05-29T15:02:51.000Z</time>
      </trkpt>
      <trkpt lat="47.16389" lon="-1.59743">
        <ele>70</ele>
        <time>2020-05-29T15:02:53.000Z</time>
      </trkpt>
      <trkpt lat="47.16377" lon="-1.59732">
        <ele>70</ele>
        <time>2020-05-29T15:02:55.000Z</time>
      </trkpt>
      <trkpt lat="47.16361" lon="-1.59713">
        <ele>70</ele>
        <time>2020-05-29T15:02:58.000Z</time>
      </trkpt>
      <trkpt lat="47.16351" lon="-1.59698">
        <ele>70</ele>
        <time>2020-05-29T15:03:00.000Z</time>
      </trkpt>
      <trkpt lat="47.16341" lon="-1.59684">
        <ele>70</ele>
        <time>2020-05-29T15:03:02.000Z</time>
      </trkpt>
      <trkpt lat="47.16332" lon="-1.5967">
        <ele>70</ele>
        <time>2020-05-29T15:03:04.000Z</time>
      </trkpt>
      <trkpt lat="47.16323" lon="-1.59656">
        <ele>70</ele>
        <time>2020-05-29T15:03:06.000Z</time>
      </trkpt>
      <trkpt lat="47.16315" lon="-1.59643">
        <ele>71</ele>
        <time>2020-05-29T15:03:08.000Z</time>
      </trkpt>
      <trkpt lat="47.16306" lon="-1.59631">
        <ele>70</ele>
        <time>2020-05-29T15:03:10.000Z</time>
      </trkpt>
      <trkpt lat="47.16297" lon="-1.59622">
        <ele>70</ele>
        <time>2020-05-29T15:03:12.000Z</time>
      </trkpt>
      <trkpt lat="47.16286" lon="-1.59624">
        <ele>70</ele>
        <time>2020-05-29T15:03:14.000Z</time>
      </trkpt>
      <trkpt lat="47.16273" lon="-1.59632">
        <ele>70</ele>
        <time>2020-05-29T15:03:16.000Z</time>
      </trkpt>
      <trkpt lat="47.1626" lon="-1.59639">
        <ele>70</ele>
        <time>2020-05-29T15:03:18.000Z</time>
      </trkpt>
      <trkpt lat="47.16246" lon="-1.59646">
        <ele>70</ele>
        <time>2020-05-29T15:03:20.000Z</time>
      </trkpt>
      <trkpt lat="47.16233" lon="-1.59652">
        <ele>70</ele>
        <time>2020-05-29T15:03:22.000Z</time>
      </trkpt>
      <trkpt lat="47.1622" lon="-1.59659">
        <ele>70</ele>
        <time>2020-05-29T15:03:24.000Z</time>
      </trkpt>
      <trkpt lat="47.16206" lon="-1.59667">
        <ele>70</ele>
        <time>2020-05-29T15:03:26.000Z</time>
      </trkpt>
      <trkpt lat="47.16192" lon="-1.59674">
        <ele>70</ele>
        <time>2020-05-29T15:03:28.000Z</time>
      </trkpt>
      <trkpt lat="47.16178" lon="-1.59682">
        <ele>70</ele>
        <time>2020-05-29T15:03:30.000Z</time>
      </trkpt>
      <trkpt lat="47.16165" lon="-1.59689">
        <ele>70</ele>
        <time>2020-05-29T15:03:32.000Z</time>
      </trkpt>
      <trkpt lat="47.16152" lon="-1.59696">
        <ele>70</ele>
        <time>2020-05-29T15:03:34.000Z</time>
      </trkpt>
      <trkpt lat="47.16138" lon="-1.59703">
        <ele>71</ele>
        <time>2020-05-29T15:03:36.000Z</time>
      </trkpt>
      <trkpt lat="47.16119" lon="-1.59714">
        <ele>71</ele>
        <time>2020-05-29T15:03:39.000Z</time>
      </trkpt>
      <trkpt lat="47.16106" lon="-1.59721">
        <ele>71</ele>
        <time>2020-05-29T15:03:41.000Z</time>
      </trkpt>
      <trkpt lat="47.16094" lon="-1.5973">
        <ele>71</ele>
        <time>2020-05-29T15:03:43.000Z</time>
      </trkpt>
      <trkpt lat="47.16081" lon="-1.59738">
        <ele>71</ele>
        <time>2020-05-29T15:03:45.000Z</time>
      </trkpt>
      <trkpt lat="47.16068" lon="-1.59746">
        <ele>72</ele>
        <time>2020-05-29T15:03:47.000Z</time>
      </trkpt>
      <trkpt lat="47.16055" lon="-1.59755">
        <ele>72</ele>
        <time>2020-05-29T15:03:49.000Z</time>
      </trkpt>
      <trkpt lat="47.16041" lon="-1.59763">
        <ele>72</ele>
        <time>2020-05-29T15:03:51.000Z</time>
      </trkpt>
      <trkpt lat="47.16029" lon="-1.59772">
        <ele>71</ele>
        <time>2020-05-29T15:03:53.000Z</time>
      </trkpt>
      <trkpt lat="47.16016" lon="-1.59782">
        <ele>71</ele>
        <time>2020-05-29T15:03:55.000Z</time>
      </trkpt>
      <trkpt lat="47.16003" lon="-1.5979">
        <ele>71</ele>
        <time>2020-05-29T15:03:57.000Z</time>
      </trkpt>
      <trkpt lat="47.1599" lon="-1.59799">
        <ele>71</ele>
        <time>2020-05-29T15:03:59.000Z</time>
      </trkpt>
      <trkpt lat="47.15976" lon="-1.59807">
        <ele>72</ele>
        <time>2020-05-29T15:04:01.000Z</time>
      </trkpt>
      <trkpt lat="47.15963" lon="-1.59814">
        <ele>72</ele>
        <time>2020-05-29T15:04:03.000Z</time>
      </trkpt>
      <trkpt lat="47.1595" lon="-1.5982">
        <ele>72</ele>
        <time>2020-05-29T15:04:05.000Z</time>
      </trkpt>
      <trkpt lat="47.15938" lon="-1.59826">
        <ele>72</ele>
        <time>2020-05-29T15:04:07.000Z</time>
      </trkpt>
      <trkpt lat="47.15927" lon="-1.59832">
        <ele>72</ele>
        <time>2020-05-29T15:04:09.000Z</time>
      </trkpt>
      <trkpt lat="47.15919" lon="-1.59839">
        <ele>72</ele>
        <time>2020-05-29T15:04:11.000Z</time>
      </trkpt>
      <trkpt lat="47.15913" lon="-1.59852">
        <ele>72</ele>
        <time>2020-05-29T15:04:13.000Z</time>
      </trkpt>
      <trkpt lat="47.15906" lon="-1.59867">
        <ele>72</ele>
        <time>2020-05-29T15:04:15.000Z</time>
      </trkpt>
      <trkpt lat="47.15894" lon="-1.59873">
        <ele>72</ele>
        <time>2020-05-29T15:04:17.000Z</time>
      </trkpt>
      <trkpt lat="47.15884" lon="-1.59867">
        <ele>73</ele>
        <time>2020-05-29T15:04:19.000Z</time>
      </trkpt>
      <trkpt lat="47.15879" lon="-1.59853">
        <ele>73</ele>
        <time>2020-05-29T15:04:21.000Z</time>
      </trkpt>
      <trkpt lat="47.15878" lon="-1.59838">
        <ele>73</ele>
        <time>2020-05-29T15:04:23.000Z</time>
      </trkpt>
      <trkpt lat="47.15875" lon="-1.59824">
        <ele>74</ele>
        <time>2020-05-29T15:04:25.000Z</time>
      </trkpt>
      <trkpt lat="47.15869" lon="-1.59809">
        <ele>74</ele>
        <time>2020-05-29T15:04:27.000Z</time>
      </trkpt>
      <trkpt lat="47.15858" lon="-1.59795">
        <ele>74</ele>
        <time>2020-05-29T15:04:29.000Z</time>
      </trkpt>
      <trkpt lat="47.15846" lon="-1.59781">
        <ele>74</ele>
        <time>2020-05-29T15:04:31.000Z</time>
      </trkpt>
      <trkpt lat="47.15833" lon="-1.59768">
        <ele>74</ele>
        <time>2020-05-29T15:04:33.000Z</time>
      </trkpt>
      <trkpt lat="47.15819" lon="-1.59757">
        <ele>75</ele>
        <time>2020-05-29T15:04:35.000Z</time>
      </trkpt>
      <trkpt lat="47.15799" lon="-1.59741">
        <ele>75</ele>
        <time>2020-05-29T15:04:38.000Z</time>
      </trkpt>
      <trkpt lat="47.15785" lon="-1.59734">
        <ele>75</ele>
        <time>2020-05-29T15:04:40.000Z</time>
      </trkpt>
      <trkpt lat="47.1577" lon="-1.59729">
        <ele>75</ele>
        <time>2020-05-29T15:04:42.000Z</time>
      </trkpt>
      <trkpt lat="47.1576" lon="-1.59711">
        <ele>75</ele>
        <time>2020-05-29T15:04:44.000Z</time>
      </trkpt>
      <trkpt lat="47.15761" lon="-1.59688">
        <ele>75</ele>
        <time>2020-05-29T15:04:46.000Z</time>
      </trkpt>
      <trkpt lat="47.15763" lon="-1.59667">
        <ele>75</ele>
        <time>2020-05-29T15:04:48.000Z</time>
      </trkpt>
      <trkpt lat="47.15762" lon="-1.59648">
        <ele>75</ele>
        <time>2020-05-29T15:04:50.000Z</time>
      </trkpt>
      <trkpt lat="47.15761" lon="-1.59629">
        <ele>75</ele>
        <time>2020-05-29T15:04:52.000Z</time>
      </trkpt>
      <trkpt lat="47.15759" lon="-1.59601">
        <ele>75</ele>
        <time>2020-05-29T15:04:55.000Z</time>
      </trkpt>
      <trkpt lat="47.15758" lon="-1.59584">
        <ele>75</ele>
        <time>2020-05-29T15:04:57.000Z</time>
      </trkpt>
      <trkpt lat="47.15757" lon="-1.59566">
        <ele>75</ele>
        <time>2020-05-29T15:04:59.000Z</time>
      </trkpt>
      <trkpt lat="47.15756" lon="-1.59547">
        <ele>75</ele>
        <time>2020-05-29T15:05:01.000Z</time>
      </trkpt>
      <trkpt lat="47.15756" lon="-1.59529">
        <ele>75</ele>
        <time>2020-05-29T15:05:03.000Z</time>
      </trkpt>
      <trkpt lat="47.15756" lon="-1.59509">
        <ele>75</ele>
        <time>2020-05-29T15:05:05.000Z</time>
      </trkpt>
      <trkpt lat="47.15757" lon="-1.59491">
        <ele>75</ele>
        <time>2020-05-29T15:05:07.000Z</time>
      </trkpt>
      <trkpt lat="47.15759" lon="-1.59474">
        <ele>76</ele>
        <time>2020-05-29T15:05:09.000Z</time>
      </trkpt>
      <trkpt lat="47.15761" lon="-1.59457">
        <ele>76</ele>
        <time>2020-05-29T15:05:11.000Z</time>
      </trkpt>
      <trkpt lat="47.15764" lon="-1.59439">
        <ele>76</ele>
        <time>2020-05-29T15:05:13.000Z</time>
      </trkpt>
      <trkpt lat="47.15767" lon="-1.59421">
        <ele>76</ele>
        <time>2020-05-29T15:05:15.000Z</time>
      </trkpt>
      <trkpt lat="47.1577" lon="-1.59404">
        <ele>76</ele>
        <time>2020-05-29T15:05:17.000Z</time>
      </trkpt>
      <trkpt lat="47.15773" lon="-1.59386">
        <ele>76</ele>
        <time>2020-05-29T15:05:19.000Z</time>
      </trkpt>
      <trkpt lat="47.15776" lon="-1.5937">
        <ele>76</ele>
        <time>2020-05-29T15:05:21.000Z</time>
      </trkpt>
      <trkpt lat="47.15779" lon="-1.59352">
        <ele>76</ele>
        <time>2020-05-29T15:05:23.000Z</time>
      </trkpt>
      <trkpt lat="47.15782" lon="-1.59335">
        <ele>76</ele>
        <time>2020-05-29T15:05:25.000Z</time>
      </trkpt>
      <trkpt lat="47.15785" lon="-1.59318">
        <ele>76</ele>
        <time>2020-05-29T15:05:27.000Z</time>
      </trkpt>
      <trkpt lat="47.15788" lon="-1.59301">
        <ele>76</ele>
        <time>2020-05-29T15:05:29.000Z</time>
      </trkpt>
      <trkpt lat="47.1579" lon="-1.59284">
        <ele>76</ele>
        <time>2020-05-29T15:05:31.000Z</time>
      </trkpt>
      <trkpt lat="47.15793" lon="-1.59266">
        <ele>75</ele>
        <time>2020-05-29T15:05:33.000Z</time>
      </trkpt>
      <trkpt lat="47.15796" lon="-1.59249">
        <ele>75</ele>
        <time>2020-05-29T15:05:35.000Z</time>
      </trkpt>
      <trkpt lat="47.158" lon="-1.59233">
        <ele>75</ele>
        <time>2020-05-29T15:05:37.000Z</time>
      </trkpt>
      <trkpt lat="47.15805" lon="-1.59216">
        <ele>75</ele>
        <time>2020-05-29T15:05:39.000Z</time>
      </trkpt>
      <trkpt lat="47.15811" lon="-1.59191">
        <ele>75</ele>
        <time>2020-05-29T15:05:42.000Z</time>
      </trkpt>
      <trkpt lat="47.15811" lon="-1.59174">
        <ele>75</ele>
        <time>2020-05-29T15:05:44.000Z</time>
      </trkpt>
      <trkpt lat="47.15813" lon="-1.59156">
        <ele>75</ele>
        <time>2020-05-29T15:05:46.000Z</time>
      </trkpt>
      <trkpt lat="47.15823" lon="-1.59144">
        <ele>75</ele>
        <time>2020-05-29T15:05:48.000Z</time>
      </trkpt>
      <trkpt lat="47.15835" lon="-1.59139">
        <ele>74</ele>
        <time>2020-05-29T15:05:50.000Z</time>
      </trkpt>
      <trkpt lat="47.15847" lon="-1.59136">
        <ele>74</ele>
        <time>2020-05-29T15:05:52.000Z</time>
      </trkpt>
      <trkpt lat="47.15856" lon="-1.59124">
        <ele>74</ele>
        <time>2020-05-29T15:05:54.000Z</time>
      </trkpt>
      <trkpt lat="47.15865" lon="-1.59111">
        <ele>75</ele>
        <time>2020-05-29T15:05:56.000Z</time>
      </trkpt>
      <trkpt lat="47.15873" lon="-1.59097">
        <ele>75</ele>
        <time>2020-05-29T15:05:58.000Z</time>
      </trkpt>
      <trkpt lat="47.1588" lon="-1.59083">
        <ele>75</ele>
        <time>2020-05-29T15:06:00.000Z</time>
      </trkpt>
      <trkpt lat="47.15889" lon="-1.59069">
        <ele>75</ele>
        <time>2020-05-29T15:06:02.000Z</time>
      </trkpt>
      <trkpt lat="47.15897" lon="-1.59056">
        <ele>76</ele>
        <time>2020-05-29T15:06:04.000Z</time>
      </trkpt>
      <trkpt lat="47.15905" lon="-1.59043">
        <ele>76</ele>
        <time>2020-05-29T15:06:06.000Z</time>
      </trkpt>
      <trkpt lat="47.15913" lon="-1.59029">
        <ele>76</ele>
        <time>2020-05-29T15:06:08.000Z</time>
      </trkpt>
      <trkpt lat="47.15921" lon="-1.59015">
        <ele>75</ele>
        <time>2020-05-29T15:06:10.000Z</time>
      </trkpt>
      <trkpt lat="47.15929" lon="-1.59002">
        <ele>76</ele>
        <time>2020-05-29T15:06:12.000Z</time>
      </trkpt>
      <trkpt lat="47.15938" lon="-1.58989">
        <ele>76</ele>
        <time>2020-05-29T15:06:14.000Z</time>
      </trkpt>
      <trkpt lat="47.15946" lon="-1.58974">
        <ele>76</ele>
        <time>2020-05-29T15:06:16.000Z</time>
      </trkpt>
      <trkpt lat="47.15953" lon="-1.58959">
        <ele>77</ele>
        <time>2020-05-29T15:06:18.000Z</time>
      </trkpt>
      <trkpt lat="47.15961" lon="-1.58945">
        <ele>77</ele>
        <time>2020-05-29T15:06:20.000Z</time>
      </trkpt>
      <trkpt lat="47.15969" lon="-1.58932">
        <ele>77</ele>
        <time>2020-05-29T15:06:22.000Z</time>
      </trkpt>
      <trkpt lat="47.15977" lon="-1.58919">
        <ele>77</ele>
        <time>2020-05-29T15:06:24.000Z</time>
      </trkpt>
      <trkpt lat="47.15985" lon="-1.58905">
        <ele>78</ele>
        <time>2020-05-29T15:06:26.000Z</time>
      </trkpt>
      <trkpt lat="47.15993" lon="-1.58892">
        <ele>78</ele>
        <time>2020-05-29T15:06:28.000Z</time>
      </trkpt>
      <trkpt lat="47.16002" lon="-1.58879">
        <ele>77</ele>
        <time>2020-05-29T15:06:30.000Z</time>
      </trkpt>
      <trkpt lat="47.16012" lon="-1.58867">
        <ele>77</ele>
        <time>2020-05-29T15:06:32.000Z</time>
      </trkpt>
      <trkpt lat="47.16021" lon="-1.58855">
        <ele>77</ele>
        <time>2020-05-29T15:06:34.000Z</time>
      </trkpt>
      <trkpt lat="47.1603" lon="-1.58843">
        <ele>77</ele>
        <time>2020-05-29T15:06:36.000Z</time>
      </trkpt>
      <trkpt lat="47.16038" lon="-1.58832">
        <ele>76</ele>
        <time>2020-05-29T15:06:38.000Z</time>
      </trkpt>
      <trkpt lat="47.16046" lon="-1.58821">
        <ele>76</ele>
        <time>2020-05-29T15:06:40.000Z</time>
      </trkpt>
      <trkpt lat="47.16054" lon="-1.58811">
        <ele>75</ele>
        <time>2020-05-29T15:06:42.000Z</time>
      </trkpt>
      <trkpt lat="47.16062" lon="-1.58801">
        <ele>75</ele>
        <time>2020-05-29T15:06:44.000Z</time>
      </trkpt>
      <trkpt lat="47.16071" lon="-1.58789">
        <ele>75</ele>
        <time>2020-05-29T15:06:47.000Z</time>
      </trkpt>
      <trkpt lat="47.16078" lon="-1.5878">
        <ele>74</ele>
        <time>2020-05-29T15:06:51.000Z</time>
      </trkpt>
      <trkpt lat="47.16087" lon="-1.58768">
        <ele>74</ele>
        <time>2020-05-29T15:07:00.000Z</time>
      </trkpt>
      <trkpt lat="47.16095" lon="-1.58758">
        <ele>74</ele>
        <time>2020-05-29T15:07:02.000Z</time>
      </trkpt>
      <trkpt lat="47.16104" lon="-1.58746">
        <ele>74</ele>
        <time>2020-05-29T15:07:04.000Z</time>
      </trkpt>
      <trkpt lat="47.16114" lon="-1.58734">
        <ele>74</ele>
        <time>2020-05-29T15:07:06.000Z</time>
      </trkpt>
      <trkpt lat="47.16123" lon="-1.58721">
        <ele>75</ele>
        <time>2020-05-29T15:07:08.000Z</time>
      </trkpt>
      <trkpt lat="47.16133" lon="-1.58708">
        <ele>75</ele>
        <time>2020-05-29T15:07:10.000Z</time>
      </trkpt>
      <trkpt lat="47.16143" lon="-1.58695">
        <ele>75</ele>
        <time>2020-05-29T15:07:12.000Z</time>
      </trkpt>
      <trkpt lat="47.16153" lon="-1.58683">
        <ele>75</ele>
        <time>2020-05-29T15:07:14.000Z</time>
      </trkpt>
      <trkpt lat="47.16162" lon="-1.5867">
        <ele>75</ele>
        <time>2020-05-29T15:07:16.000Z</time>
      </trkpt>
      <trkpt lat="47.16172" lon="-1.58658">
        <ele>75</ele>
        <time>2020-05-29T15:07:18.000Z</time>
      </trkpt>
      <trkpt lat="47.16181" lon="-1.58645">
        <ele>75</ele>
        <time>2020-05-29T15:07:20.000Z</time>
      </trkpt>
      <trkpt lat="47.16192" lon="-1.58632">
        <ele>75</ele>
        <time>2020-05-29T15:07:22.000Z</time>
      </trkpt>
      <trkpt lat="47.16202" lon="-1.58619">
        <ele>75</ele>
        <time>2020-05-29T15:07:24.000Z</time>
      </trkpt>
      <trkpt lat="47.16212" lon="-1.58605">
        <ele>75</ele>
        <time>2020-05-29T15:07:26.000Z</time>
      </trkpt>
      <trkpt lat="47.16222" lon="-1.58592">
        <ele>75</ele>
        <time>2020-05-29T15:07:28.000Z</time>
      </trkpt>
      <trkpt lat="47.16232" lon="-1.58579">
        <ele>75</ele>
        <time>2020-05-29T15:07:30.000Z</time>
      </trkpt>
      <trkpt lat="47.16242" lon="-1.58566">
        <ele>75</ele>
        <time>2020-05-29T15:07:32.000Z</time>
      </trkpt>
      <trkpt lat="47.16253" lon="-1.58552">
        <ele>75</ele>
        <time>2020-05-29T15:07:34.000Z</time>
      </trkpt>
      <trkpt lat="47.16263" lon="-1.58538">
        <ele>75</ele>
        <time>2020-05-29T15:07:36.000Z</time>
      </trkpt>
      <trkpt lat="47.16274" lon="-1.58525">
        <ele>75</ele>
        <time>2020-05-29T15:07:38.000Z</time>
      </trkpt>
      <trkpt lat="47.16284" lon="-1.5851">
        <ele>75</ele>
        <time>2020-05-29T15:07:40.000Z</time>
      </trkpt>
      <trkpt lat="47.16295" lon="-1.58496">
        <ele>74</ele>
        <time>2020-05-29T15:07:42.000Z</time>
      </trkpt>
      <trkpt lat="47.16307" lon="-1.58482">
        <ele>74</ele>
        <time>2020-05-29T15:07:44.000Z</time>
      </trkpt>
      <trkpt lat="47.16317" lon="-1.58466">
        <ele>74</ele>
        <time>2020-05-29T15:07:46.000Z</time>
      </trkpt>
      <trkpt lat="47.16328" lon="-1.58452">
        <ele>74</ele>
        <time>2020-05-29T15:07:48.000Z</time>
      </trkpt>
      <trkpt lat="47.16339" lon="-1.58438">
        <ele>74</ele>
        <time>2020-05-29T15:07:50.000Z</time>
      </trkpt>
      <trkpt lat="47.16349" lon="-1.58425">
        <ele>74</ele>
        <time>2020-05-29T15:07:52.000Z</time>
      </trkpt>
      <trkpt lat="47.16359" lon="-1.58412">
        <ele>74</ele>
        <time>2020-05-29T15:07:54.000Z</time>
      </trkpt>
      <trkpt lat="47.1637" lon="-1.58399">
        <ele>74</ele>
        <time>2020-05-29T15:07:56.000Z</time>
      </trkpt>
      <trkpt lat="47.1638" lon="-1.58385">
        <ele>74</ele>
        <time>2020-05-29T15:07:58.000Z</time>
      </trkpt>
      <trkpt lat="47.1639" lon="-1.58371">
        <ele>74</ele>
        <time>2020-05-29T15:08:00.000Z</time>
      </trkpt>
      <trkpt lat="47.164" lon="-1.58358">
        <ele>74</ele>
        <time>2020-05-29T15:08:02.000Z</time>
      </trkpt>
      <trkpt lat="47.1641" lon="-1.58345">
        <ele>74</ele>
        <time>2020-05-29T15:08:04.000Z</time>
      </trkpt>
      <trkpt lat="47.1642" lon="-1.58331">
        <ele>75</ele>
        <time>2020-05-29T15:08:06.000Z</time>
      </trkpt>
      <trkpt lat="47.1643" lon="-1.58317">
        <ele>75</ele>
        <time>2020-05-29T15:08:08.000Z</time>
      </trkpt>
      <trkpt lat="47.16441" lon="-1.58304">
        <ele>75</ele>
        <time>2020-05-29T15:08:10.000Z</time>
      </trkpt>
      <trkpt lat="47.16451" lon="-1.58291">
        <ele>75</ele>
        <time>2020-05-29T15:08:12.000Z</time>
      </trkpt>
      <trkpt lat="47.16461" lon="-1.58278">
        <ele>76</ele>
        <time>2020-05-29T15:08:14.000Z</time>
      </trkpt>
      <trkpt lat="47.16472" lon="-1.58265">
        <ele>76</ele>
        <time>2020-05-29T15:08:16.000Z</time>
      </trkpt>
      <trkpt lat="47.16482" lon="-1.58252">
        <ele>76</ele>
        <time>2020-05-29T15:08:18.000Z</time>
      </trkpt>
      <trkpt lat="47.16491" lon="-1.58239">
        <ele>77</ele>
        <time>2020-05-29T15:08:20.000Z</time>
      </trkpt>
      <trkpt lat="47.16501" lon="-1.58226">
        <ele>76</ele>
        <time>2020-05-29T15:08:22.000Z</time>
      </trkpt>
      <trkpt lat="47.1651" lon="-1.58214">
        <ele>76</ele>
        <time>2020-05-29T15:08:24.000Z</time>
      </trkpt>
      <trkpt lat="47.16519" lon="-1.58203">
        <ele>76</ele>
        <time>2020-05-29T15:08:26.000Z</time>
      </trkpt>
      <trkpt lat="47.16527" lon="-1.58191">
        <ele>77</ele>
        <time>2020-05-29T15:08:28.000Z</time>
      </trkpt>
      <trkpt lat="47.16536" lon="-1.5818">
        <ele>77</ele>
        <time>2020-05-29T15:08:30.000Z</time>
      </trkpt>
      <trkpt lat="47.16544" lon="-1.58169">
        <ele>77</ele>
        <time>2020-05-29T15:08:32.000Z</time>
      </trkpt>
      <trkpt lat="47.16553" lon="-1.58157">
        <ele>77</ele>
        <time>2020-05-29T15:08:34.000Z</time>
      </trkpt>
      <trkpt lat="47.16562" lon="-1.58145">
        <ele>78</ele>
        <time>2020-05-29T15:08:36.000Z</time>
      </trkpt>
      <trkpt lat="47.16571" lon="-1.58133">
        <ele>78</ele>
        <time>2020-05-29T15:08:38.000Z</time>
      </trkpt>
      <trkpt lat="47.1658" lon="-1.5812">
        <ele>79</ele>
        <time>2020-05-29T15:08:40.000Z</time>
      </trkpt>
      <trkpt lat="47.1659" lon="-1.58107">
        <ele>78</ele>
        <time>2020-05-29T15:08:42.000Z</time>
      </trkpt>
      <trkpt lat="47.166" lon="-1.58095">
        <ele>78</ele>
        <time>2020-05-29T15:08:44.000Z</time>
      </trkpt>
      <trkpt lat="47.16609" lon="-1.58083">
        <ele>77</ele>
        <time>2020-05-29T15:08:46.000Z</time>
      </trkpt>
      <trkpt lat="47.16617" lon="-1.58069">
        <ele>77</ele>
        <time>2020-05-29T15:08:48.000Z</time>
      </trkpt>
      <trkpt lat="47.16616" lon="-1.58053">
        <ele>77</ele>
        <time>2020-05-29T15:08:50.000Z</time>
      </trkpt>
      <trkpt lat="47.16606" lon="-1.58041">
        <ele>78</ele>
        <time>2020-05-29T15:08:52.000Z</time>
      </trkpt>
      <trkpt lat="47.16596" lon="-1.58032">
        <ele>78</ele>
        <time>2020-05-29T15:08:54.000Z</time>
      </trkpt>
      <trkpt lat="47.16585" lon="-1.58024">
        <ele>78</ele>
        <time>2020-05-29T15:08:56.000Z</time>
      </trkpt>
      <trkpt lat="47.16573" lon="-1.58015">
        <ele>78</ele>
        <time>2020-05-29T15:08:58.000Z</time>
      </trkpt>
      <trkpt lat="47.16563" lon="-1.58006">
        <ele>79</ele>
        <time>2020-05-29T15:09:00.000Z</time>
      </trkpt>
      <trkpt lat="47.16552" lon="-1.57994">
        <ele>79</ele>
        <time>2020-05-29T15:09:02.000Z</time>
      </trkpt>
      <trkpt lat="47.16542" lon="-1.57984">
        <ele>79</ele>
        <time>2020-05-29T15:09:04.000Z</time>
      </trkpt>
      <trkpt lat="47.16532" lon="-1.57974">
        <ele>79</ele>
        <time>2020-05-29T15:09:06.000Z</time>
      </trkpt>
      <trkpt lat="47.16522" lon="-1.57963">
        <ele>79</ele>
        <time>2020-05-29T15:09:08.000Z</time>
      </trkpt>
      <trkpt lat="47.16512" lon="-1.57953">
        <ele>79</ele>
        <time>2020-05-29T15:09:10.000Z</time>
      </trkpt>
      <trkpt lat="47.16502" lon="-1.57943">
        <ele>80</ele>
        <time>2020-05-29T15:09:12.000Z</time>
      </trkpt>
      <trkpt lat="47.16492" lon="-1.57932">
        <ele>80</ele>
        <time>2020-05-29T15:09:14.000Z</time>
      </trkpt>
      <trkpt lat="47.16482" lon="-1.57922">
        <ele>80</ele>
        <time>2020-05-29T15:09:16.000Z</time>
      </trkpt>
      <trkpt lat="47.16471" lon="-1.57912">
        <ele>80</ele>
        <time>2020-05-29T15:09:18.000Z</time>
      </trkpt>
      <trkpt lat="47.16461" lon="-1.57902">
        <ele>81</ele>
        <time>2020-05-29T15:09:20.000Z</time>
      </trkpt>
      <trkpt lat="47.16451" lon="-1.57893">
        <ele>81</ele>
        <time>2020-05-29T15:09:22.000Z</time>
      </trkpt>
      <trkpt lat="47.1644" lon="-1.57885">
        <ele>81</ele>
        <time>2020-05-29T15:09:24.000Z</time>
      </trkpt>
      <trkpt lat="47.1643" lon="-1.57876">
        <ele>81</ele>
        <time>2020-05-29T15:09:26.000Z</time>
      </trkpt>
      <trkpt lat="47.16419" lon="-1.57868">
        <ele>81</ele>
        <time>2020-05-29T15:09:28.000Z</time>
      </trkpt>
      <trkpt lat="47.16408" lon="-1.57861">
        <ele>81</ele>
        <time>2020-05-29T15:09:30.000Z</time>
      </trkpt>
      <trkpt lat="47.16397" lon="-1.57853">
        <ele>81</ele>
        <time>2020-05-29T15:09:32.000Z</time>
      </trkpt>
      <trkpt lat="47.16386" lon="-1.57845">
        <ele>81</ele>
        <time>2020-05-29T15:09:34.000Z</time>
      </trkpt>
      <trkpt lat="47.16375" lon="-1.57837">
        <ele>81</ele>
        <time>2020-05-29T15:09:36.000Z</time>
      </trkpt>
      <trkpt lat="47.16365" lon="-1.57828">
        <ele>81</ele>
        <time>2020-05-29T15:09:38.000Z</time>
      </trkpt>
      <trkpt lat="47.16355" lon="-1.57819">
        <ele>81</ele>
        <time>2020-05-29T15:09:40.000Z</time>
      </trkpt>
      <trkpt lat="47.16345" lon="-1.57806">
        <ele>80</ele>
        <time>2020-05-29T15:09:42.000Z</time>
      </trkpt>
      <trkpt lat="47.16337" lon="-1.57793">
        <ele>80</ele>
        <time>2020-05-29T15:09:44.000Z</time>
      </trkpt>
      <trkpt lat="47.16329" lon="-1.57779">
        <ele>81</ele>
        <time>2020-05-29T15:09:46.000Z</time>
      </trkpt>
      <trkpt lat="47.1632" lon="-1.57765">
        <ele>81</ele>
        <time>2020-05-29T15:09:48.000Z</time>
      </trkpt>
      <trkpt lat="47.16312" lon="-1.57751">
        <ele>81</ele>
        <time>2020-05-29T15:09:50.000Z</time>
      </trkpt>
      <trkpt lat="47.16303" lon="-1.57739">
        <ele>82</ele>
        <time>2020-05-29T15:09:52.000Z</time>
      </trkpt>
      <trkpt lat="47.16294" lon="-1.57726">
        <ele>81</ele>
        <time>2020-05-29T15:09:54.000Z</time>
      </trkpt>
      <trkpt lat="47.16286" lon="-1.57712">
        <ele>81</ele>
        <time>2020-05-29T15:09:56.000Z</time>
      </trkpt>
      <trkpt lat="47.16277" lon="-1.57699">
        <ele>81</ele>
        <time>2020-05-29T15:09:58.000Z</time>
      </trkpt>
      <trkpt lat="47.16268" lon="-1.57689">
        <ele>81</ele>
        <time>2020-05-29T15:10:00.000Z</time>
      </trkpt>
      <trkpt lat="47.16257" lon="-1.57679">
        <ele>82</ele>
        <time>2020-05-29T15:10:02.000Z</time>
      </trkpt>
      <trkpt lat="47.16246" lon="-1.57668">
        <ele>82</ele>
        <time>2020-05-29T15:10:04.000Z</time>
      </trkpt>
      <trkpt lat="47.16237" lon="-1.57658">
        <ele>82</ele>
        <time>2020-05-29T15:10:06.000Z</time>
      </trkpt>
      <trkpt lat="47.16227" lon="-1.57647">
        <ele>82</ele>
        <time>2020-05-29T15:10:08.000Z</time>
      </trkpt>
      <trkpt lat="47.16218" lon="-1.57635">
        <ele>82</ele>
        <time>2020-05-29T15:10:10.000Z</time>
      </trkpt>
      <trkpt lat="47.16209" lon="-1.57623">
        <ele>81</ele>
        <time>2020-05-29T15:10:12.000Z</time>
      </trkpt>
      <trkpt lat="47.16201" lon="-1.57611">
        <ele>82</ele>
        <time>2020-05-29T15:10:14.000Z</time>
      </trkpt>
      <trkpt lat="47.16193" lon="-1.57597">
        <ele>81</ele>
        <time>2020-05-29T15:10:16.000Z</time>
      </trkpt>
      <trkpt lat="47.16186" lon="-1.57583">
        <ele>81</ele>
        <time>2020-05-29T15:10:18.000Z</time>
      </trkpt>
      <trkpt lat="47.16178" lon="-1.57568">
        <ele>81</ele>
        <time>2020-05-29T15:10:20.000Z</time>
      </trkpt>
      <trkpt lat="47.16172" lon="-1.57552">
        <ele>81</ele>
        <time>2020-05-29T15:10:22.000Z</time>
      </trkpt>
      <trkpt lat="47.16167" lon="-1.57536">
        <ele>82</ele>
        <time>2020-05-29T15:10:24.000Z</time>
      </trkpt>
      <trkpt lat="47.16164" lon="-1.57518">
        <ele>84</ele>
        <time>2020-05-29T15:10:26.000Z</time>
      </trkpt>
      <trkpt lat="47.16165" lon="-1.57499">
        <ele>84</ele>
        <time>2020-05-29T15:10:28.000Z</time>
      </trkpt>
      <trkpt lat="47.16166" lon="-1.5748">
        <ele>83</ele>
        <time>2020-05-29T15:10:30.000Z</time>
      </trkpt>
      <trkpt lat="47.16167" lon="-1.57462">
        <ele>82</ele>
        <time>2020-05-29T15:10:32.000Z</time>
      </trkpt>
      <trkpt lat="47.16168" lon="-1.57442">
        <ele>81</ele>
        <time>2020-05-29T15:10:34.000Z</time>
      </trkpt>
      <trkpt lat="47.16167" lon="-1.57424">
        <ele>81</ele>
        <time>2020-05-29T15:10:36.000Z</time>
      </trkpt>
      <trkpt lat="47.16165" lon="-1.57407">
        <ele>80</ele>
        <time>2020-05-29T15:10:38.000Z</time>
      </trkpt>
      <trkpt lat="47.16164" lon="-1.57391">
        <ele>80</ele>
        <time>2020-05-29T15:10:40.000Z</time>
      </trkpt>
      <trkpt lat="47.16163" lon="-1.57375">
        <ele>80</ele>
        <time>2020-05-29T15:10:42.000Z</time>
      </trkpt>
      <trkpt lat="47.16162" lon="-1.5736">
        <ele>80</ele>
        <time>2020-05-29T15:10:45.000Z</time>
      </trkpt>
      <trkpt lat="47.16161" lon="-1.57343">
        <ele>80</ele>
        <time>2020-05-29T15:10:49.000Z</time>
      </trkpt>
      <trkpt lat="47.16159" lon="-1.57328">
        <ele>80</ele>
        <time>2020-05-29T15:10:51.000Z</time>
      </trkpt>
      <trkpt lat="47.16158" lon="-1.5731">
        <ele>81</ele>
        <time>2020-05-29T15:10:53.000Z</time>
      </trkpt>
      <trkpt lat="47.16157" lon="-1.57293">
        <ele>81</ele>
        <time>2020-05-29T15:10:55.000Z</time>
      </trkpt>
      <trkpt lat="47.16157" lon="-1.57273">
        <ele>81</ele>
        <time>2020-05-29T15:10:57.000Z</time>
      </trkpt>
      <trkpt lat="47.16158" lon="-1.57256">
        <ele>80</ele>
        <time>2020-05-29T15:10:59.000Z</time>
      </trkpt>
      <trkpt lat="47.1616" lon="-1.57238">
        <ele>80</ele>
        <time>2020-05-29T15:11:01.000Z</time>
      </trkpt>
      <trkpt lat="47.16161" lon="-1.5722">
        <ele>79</ele>
        <time>2020-05-29T15:11:03.000Z</time>
      </trkpt>
      <trkpt lat="47.16162" lon="-1.57203">
        <ele>79</ele>
        <time>2020-05-29T15:11:05.000Z</time>
      </trkpt>
      <trkpt lat="47.16164" lon="-1.57186">
        <ele>78</ele>
        <time>2020-05-29T15:11:07.000Z</time>
      </trkpt>
      <trkpt lat="47.16165" lon="-1.57169">
        <ele>78</ele>
        <time>2020-05-29T15:11:09.000Z</time>
      </trkpt>
      <trkpt lat="47.16166" lon="-1.57153">
        <ele>77</ele>
        <time>2020-05-29T15:11:11.000Z</time>
      </trkpt>
      <trkpt lat="47.16169" lon="-1.57137">
        <ele>77</ele>
        <time>2020-05-29T15:11:13.000Z</time>
      </trkpt>
      <trkpt lat="47.16171" lon="-1.5712">
        <ele>77</ele>
        <time>2020-05-29T15:11:15.000Z</time>
      </trkpt>
      <trkpt lat="47.16174" lon="-1.57103">
        <ele>76</ele>
        <time>2020-05-29T15:11:17.000Z</time>
      </trkpt>
      <trkpt lat="47.16177" lon="-1.57086">
        <ele>76</ele>
        <time>2020-05-29T15:11:19.000Z</time>
      </trkpt>
      <trkpt lat="47.1618" lon="-1.57068">
        <ele>76</ele>
        <time>2020-05-29T15:11:21.000Z</time>
      </trkpt>
      <trkpt lat="47.16182" lon="-1.57051">
        <ele>76</ele>
        <time>2020-05-29T15:11:23.000Z</time>
      </trkpt>
      <trkpt lat="47.16185" lon="-1.57034">
        <ele>76</ele>
        <time>2020-05-29T15:11:25.000Z</time>
      </trkpt>
      <trkpt lat="47.16188" lon="-1.57017">
        <ele>76</ele>
        <time>2020-05-29T15:11:27.000Z</time>
      </trkpt>
      <trkpt lat="47.1619" lon="-1.57001">
        <ele>76</ele>
        <time>2020-05-29T15:11:29.000Z</time>
      </trkpt>
      <trkpt lat="47.16193" lon="-1.56984">
        <ele>76</ele>
        <time>2020-05-29T15:11:31.000Z</time>
      </trkpt>
      <trkpt lat="47.16195" lon="-1.56968">
        <ele>77</ele>
        <time>2020-05-29T15:11:33.000Z</time>
      </trkpt>
      <trkpt lat="47.16197" lon="-1.56952">
        <ele>77</ele>
        <time>2020-05-29T15:11:35.000Z</time>
      </trkpt>
      <trkpt lat="47.16201" lon="-1.56935">
        <ele>76</ele>
        <time>2020-05-29T15:11:37.000Z</time>
      </trkpt>
      <trkpt lat="47.16205" lon="-1.56918">
        <ele>76</ele>
        <time>2020-05-29T15:11:39.000Z</time>
      </trkpt>
      <trkpt lat="47.16208" lon="-1.56902">
        <ele>76</ele>
        <time>2020-05-29T15:11:41.000Z</time>
      </trkpt>
      <trkpt lat="47.1621" lon="-1.56885">
        <ele>76</ele>
        <time>2020-05-29T15:11:43.000Z</time>
      </trkpt>
      <trkpt lat="47.16214" lon="-1.56868">
        <ele>76</ele>
        <time>2020-05-29T15:11:45.000Z</time>
      </trkpt>
      <trkpt lat="47.16217" lon="-1.56852">
        <ele>76</ele>
        <time>2020-05-29T15:11:47.000Z</time>
      </trkpt>
      <trkpt lat="47.1622" lon="-1.56835">
        <ele>76</ele>
        <time>2020-05-29T15:11:49.000Z</time>
      </trkpt>
      <trkpt lat="47.16223" lon="-1.56817">
        <ele>76</ele>
        <time>2020-05-29T15:11:51.000Z</time>
      </trkpt>
      <trkpt lat="47.16226" lon="-1.568">
        <ele>75</ele>
        <time>2020-05-29T15:11:53.000Z</time>
      </trkpt>
      <trkpt lat="47.1623" lon="-1.56784">
        <ele>75</ele>
        <time>2020-05-29T15:11:55.000Z</time>
      </trkpt>
      <trkpt lat="47.16232" lon="-1.56768">
        <ele>75</ele>
        <time>2020-05-29T15:11:57.000Z</time>
      </trkpt>
      <trkpt lat="47.16236" lon="-1.56751">
        <ele>75</ele>
        <time>2020-05-29T15:11:59.000Z</time>
      </trkpt>
      <trkpt lat="47.16236" lon="-1.56735">
        <ele>75</ele>
        <time>2020-05-29T15:12:01.000Z</time>
      </trkpt>
      <trkpt lat="47.16229" lon="-1.56721">
        <ele>75</ele>
        <time>2020-05-29T15:12:03.000Z</time>
      </trkpt>
      <trkpt lat="47.16216" lon="-1.56721">
        <ele>75</ele>
        <time>2020-05-29T15:12:05.000Z</time>
      </trkpt>
      <trkpt lat="47.16204" lon="-1.56722">
        <ele>75</ele>
        <time>2020-05-29T15:12:07.000Z</time>
      </trkpt>
      <trkpt lat="47.16191" lon="-1.56721">
        <ele>75</ele>
        <time>2020-05-29T15:12:09.000Z</time>
      </trkpt>
      <trkpt lat="47.16179" lon="-1.5672">
        <ele>74</ele>
        <time>2020-05-29T15:12:11.000Z</time>
      </trkpt>
      <trkpt lat="47.16166" lon="-1.56718">
        <ele>75</ele>
        <time>2020-05-29T15:12:13.000Z</time>
      </trkpt>
      <trkpt lat="47.16154" lon="-1.56717">
        <ele>75</ele>
        <time>2020-05-29T15:12:15.000Z</time>
      </trkpt>
      <trkpt lat="47.16141" lon="-1.56715">
        <ele>75</ele>
        <time>2020-05-29T15:12:17.000Z</time>
      </trkpt>
      <trkpt lat="47.16129" lon="-1.56713">
        <ele>74</ele>
        <time>2020-05-29T15:12:19.000Z</time>
      </trkpt>
      <trkpt lat="47.16116" lon="-1.56712">
        <ele>74</ele>
        <time>2020-05-29T15:12:21.000Z</time>
      </trkpt>
      <trkpt lat="47.16104" lon="-1.56712">
        <ele>74</ele>
        <time>2020-05-29T15:12:23.000Z</time>
      </trkpt>
      <trkpt lat="47.16091" lon="-1.56712">
        <ele>74</ele>
        <time>2020-05-29T15:12:25.000Z</time>
      </trkpt>
      <trkpt lat="47.16079" lon="-1.56713">
        <ele>74</ele>
        <time>2020-05-29T15:12:27.000Z</time>
      </trkpt>
      <trkpt lat="47.16066" lon="-1.56712">
        <ele>74</ele>
        <time>2020-05-29T15:12:29.000Z</time>
      </trkpt>
      <trkpt lat="47.16052" lon="-1.56711">
        <ele>74</ele>
        <time>2020-05-29T15:12:31.000Z</time>
      </trkpt>
      <trkpt lat="47.16038" lon="-1.56708">
        <ele>74</ele>
        <time>2020-05-29T15:12:33.000Z</time>
      </trkpt>
      <trkpt lat="47.16024" lon="-1.56706">
        <ele>74</ele>
        <time>2020-05-29T15:12:35.000Z</time>
      </trkpt>
      <trkpt lat="47.1601" lon="-1.56703">
        <ele>74</ele>
        <time>2020-05-29T15:12:37.000Z</time>
      </trkpt>
      <trkpt lat="47.15996" lon="-1.56699">
        <ele>73</ele>
        <time>2020-05-29T15:12:39.000Z</time>
      </trkpt>
      <trkpt lat="47.15983" lon="-1.56689">
        <ele>73</ele>
        <time>2020-05-29T15:12:41.000Z</time>
      </trkpt>
      <trkpt lat="47.15976" lon="-1.56671">
        <ele>74</ele>
        <time>2020-05-29T15:12:43.000Z</time>
      </trkpt>
      <trkpt lat="47.15972" lon="-1.56652">
        <ele>74</ele>
        <time>2020-05-29T15:12:45.000Z</time>
      </trkpt>
      <trkpt lat="47.15971" lon="-1.56633">
        <ele>75</ele>
        <time>2020-05-29T15:12:47.000Z</time>
      </trkpt>
      <trkpt lat="47.15968" lon="-1.56615">
        <ele>75</ele>
        <time>2020-05-29T15:12:49.000Z</time>
      </trkpt>
      <trkpt lat="47.15966" lon="-1.56596">
        <ele>74</ele>
        <time>2020-05-29T15:12:51.000Z</time>
      </trkpt>
      <trkpt lat="47.15964" lon="-1.56578">
        <ele>75</ele>
        <time>2020-05-29T15:12:53.000Z</time>
      </trkpt>
      <trkpt lat="47.15963" lon="-1.56558">
        <ele>75</ele>
        <time>2020-05-29T15:12:55.000Z</time>
      </trkpt>
      <trkpt lat="47.15964" lon="-1.56539">
        <ele>76</ele>
        <time>2020-05-29T15:12:57.000Z</time>
      </trkpt>
      <trkpt lat="47.15965" lon="-1.56519">
        <ele>76</ele>
        <time>2020-05-29T15:12:59.000Z</time>
      </trkpt>
      <trkpt lat="47.15965" lon="-1.565">
        <ele>76</ele>
        <time>2020-05-29T15:13:01.000Z</time>
      </trkpt>
      <trkpt lat="47.15966" lon="-1.56481">
        <ele>75</ele>
        <time>2020-05-29T15:13:03.000Z</time>
      </trkpt>
      <trkpt lat="47.15966" lon="-1.56463">
        <ele>75</ele>
        <time>2020-05-29T15:13:05.000Z</time>
      </trkpt>
      <trkpt lat="47.15966" lon="-1.56445">
        <ele>76</ele>
        <time>2020-05-29T15:13:07.000Z</time>
      </trkpt>
      <trkpt lat="47.15966" lon="-1.56426">
        <ele>76</ele>
        <time>2020-05-29T15:13:09.000Z</time>
      </trkpt>
      <trkpt lat="47.15969" lon="-1.56407">
        <ele>75</ele>
        <time>2020-05-29T15:13:11.000Z</time>
      </trkpt>
      <trkpt lat="47.15973" lon="-1.56388">
        <ele>75</ele>
        <time>2020-05-29T15:13:13.000Z</time>
      </trkpt>
      <trkpt lat="47.15978" lon="-1.56371">
        <ele>75</ele>
        <time>2020-05-29T15:13:15.000Z</time>
      </trkpt>
      <trkpt lat="47.15985" lon="-1.56353">
        <ele>75</ele>
        <time>2020-05-29T15:13:17.000Z</time>
      </trkpt>
      <trkpt lat="47.1599" lon="-1.56336">
        <ele>75</ele>
        <time>2020-05-29T15:13:19.000Z</time>
      </trkpt>
      <trkpt lat="47.15995" lon="-1.5632">
        <ele>75</ele>
        <time>2020-05-29T15:13:21.000Z</time>
      </trkpt>
      <trkpt lat="47.16" lon="-1.56303">
        <ele>75</ele>
        <time>2020-05-29T15:13:23.000Z</time>
      </trkpt>
      <trkpt lat="47.16006" lon="-1.56286">
        <ele>74</ele>
        <time>2020-05-29T15:13:25.000Z</time>
      </trkpt>
      <trkpt lat="47.16014" lon="-1.5626">
        <ele>74</ele>
        <time>2020-05-29T15:13:28.000Z</time>
      </trkpt>
      <trkpt lat="47.16015" lon="-1.56242">
        <ele>74</ele>
        <time>2020-05-29T15:13:30.000Z</time>
      </trkpt>
      <trkpt lat="47.16005" lon="-1.56231">
        <ele>74</ele>
        <time>2020-05-29T15:13:32.000Z</time>
      </trkpt>
      <trkpt lat="47.15992" lon="-1.56226">
        <ele>74</ele>
        <time>2020-05-29T15:13:34.000Z</time>
      </trkpt>
      <trkpt lat="47.1598" lon="-1.56221">
        <ele>74</ele>
        <time>2020-05-29T15:13:36.000Z</time>
      </trkpt>
      <trkpt lat="47.15967" lon="-1.56216">
        <ele>75</ele>
        <time>2020-05-29T15:13:38.000Z</time>
      </trkpt>
      <trkpt lat="47.15955" lon="-1.5621">
        <ele>76</ele>
        <time>2020-05-29T15:13:40.000Z</time>
      </trkpt>
      <trkpt lat="47.15942" lon="-1.56206">
        <ele>76</ele>
        <time>2020-05-29T15:13:42.000Z</time>
      </trkpt>
      <trkpt lat="47.15929" lon="-1.56201">
        <ele>76</ele>
        <time>2020-05-29T15:13:44.000Z</time>
      </trkpt>
      <trkpt lat="47.15916" lon="-1.56196">
        <ele>77</ele>
        <time>2020-05-29T15:13:46.000Z</time>
      </trkpt>
      <trkpt lat="47.15903" lon="-1.5619">
        <ele>76</ele>
        <time>2020-05-29T15:13:48.000Z</time>
      </trkpt>
      <trkpt lat="47.1589" lon="-1.56185">
        <ele>77</ele>
        <time>2020-05-29T15:13:50.000Z</time>
      </trkpt>
      <trkpt lat="47.15878" lon="-1.5618">
        <ele>77</ele>
        <time>2020-05-29T15:13:52.000Z</time>
      </trkpt>
      <trkpt lat="47.15864" lon="-1.56174">
        <ele>77</ele>
        <time>2020-05-29T15:13:54.000Z</time>
      </trkpt>
      <trkpt lat="47.15852" lon="-1.56169">
        <ele>77</ele>
        <time>2020-05-29T15:13:56.000Z</time>
      </trkpt>
      <trkpt lat="47.15839" lon="-1.56163">
        <ele>77</ele>
        <time>2020-05-29T15:13:58.000Z</time>
      </trkpt>
      <trkpt lat="47.15826" lon="-1.56157">
        <ele>77</ele>
        <time>2020-05-29T15:14:00.000Z</time>
      </trkpt>
      <trkpt lat="47.15814" lon="-1.56152">
        <ele>77</ele>
        <time>2020-05-29T15:14:02.000Z</time>
      </trkpt>
      <trkpt lat="47.15802" lon="-1.56146">
        <ele>77</ele>
        <time>2020-05-29T15:14:04.000Z</time>
      </trkpt>
      <trkpt lat="47.15789" lon="-1.56141">
        <ele>77</ele>
        <time>2020-05-29T15:14:06.000Z</time>
      </trkpt>
      <trkpt lat="47.15777" lon="-1.56136">
        <ele>77</ele>
        <time>2020-05-29T15:14:08.000Z</time>
      </trkpt>
      <trkpt lat="47.15765" lon="-1.56131">
        <ele>77</ele>
        <time>2020-05-29T15:14:10.000Z</time>
      </trkpt>
      <trkpt lat="47.15753" lon="-1.56126">
        <ele>77</ele>
        <time>2020-05-29T15:14:12.000Z</time>
      </trkpt>
      <trkpt lat="47.15741" lon="-1.5612">
        <ele>77</ele>
        <time>2020-05-29T15:14:14.000Z</time>
      </trkpt>
      <trkpt lat="47.15729" lon="-1.56115">
        <ele>77</ele>
        <time>2020-05-29T15:14:16.000Z</time>
      </trkpt>
      <trkpt lat="47.15717" lon="-1.56111">
        <ele>77</ele>
        <time>2020-05-29T15:14:18.000Z</time>
      </trkpt>
      <trkpt lat="47.15705" lon="-1.56105">
        <ele>78</ele>
        <time>2020-05-29T15:14:20.000Z</time>
      </trkpt>
      <trkpt lat="47.15692" lon="-1.561">
        <ele>78</ele>
        <time>2020-05-29T15:14:22.000Z</time>
      </trkpt>
      <trkpt lat="47.15681" lon="-1.56096">
        <ele>78</ele>
        <time>2020-05-29T15:14:24.000Z</time>
      </trkpt>
      <trkpt lat="47.15669" lon="-1.56091">
        <ele>78</ele>
        <time>2020-05-29T15:14:26.000Z</time>
      </trkpt>
      <trkpt lat="47.15657" lon="-1.56086">
        <ele>78</ele>
        <time>2020-05-29T15:14:28.000Z</time>
      </trkpt>
      <trkpt lat="47.15645" lon="-1.5608">
        <ele>78</ele>
        <time>2020-05-29T15:14:30.000Z</time>
      </trkpt>
      <trkpt lat="47.15632" lon="-1.56073">
        <ele>78</ele>
        <time>2020-05-29T15:14:32.000Z</time>
      </trkpt>
      <trkpt lat="47.15619" lon="-1.56066">
        <ele>78</ele>
        <time>2020-05-29T15:14:34.000Z</time>
      </trkpt>
      <trkpt lat="47.15607" lon="-1.56059">
        <ele>78</ele>
        <time>2020-05-29T15:14:36.000Z</time>
      </trkpt>
      <trkpt lat="47.15594" lon="-1.56049">
        <ele>79</ele>
        <time>2020-05-29T15:14:38.000Z</time>
      </trkpt>
      <trkpt lat="47.15582" lon="-1.56041">
        <ele>79</ele>
        <time>2020-05-29T15:14:40.000Z</time>
      </trkpt>
      <trkpt lat="47.15571" lon="-1.56031">
        <ele>79</ele>
        <time>2020-05-29T15:14:42.000Z</time>
      </trkpt>
      <trkpt lat="47.15559" lon="-1.56021">
        <ele>78</ele>
        <time>2020-05-29T15:14:44.000Z</time>
      </trkpt>
      <trkpt lat="47.15547" lon="-1.56012">
        <ele>78</ele>
        <time>2020-05-29T15:14:46.000Z</time>
      </trkpt>
      <trkpt lat="47.15535" lon="-1.56003">
        <ele>78</ele>
        <time>2020-05-29T15:14:48.000Z</time>
      </trkpt>
      <trkpt lat="47.15524" lon="-1.55993">
        <ele>77</ele>
        <time>2020-05-29T15:14:50.000Z</time>
      </trkpt>
      <trkpt lat="47.15512" lon="-1.55984">
        <ele>77</ele>
        <time>2020-05-29T15:14:52.000Z</time>
      </trkpt>
      <trkpt lat="47.155" lon="-1.55975">
        <ele>77</ele>
        <time>2020-05-29T15:14:54.000Z</time>
      </trkpt>
      <trkpt lat="47.15489" lon="-1.55966">
        <ele>76</ele>
        <time>2020-05-29T15:14:56.000Z</time>
      </trkpt>
      <trkpt lat="47.15477" lon="-1.55957">
        <ele>76</ele>
        <time>2020-05-29T15:14:58.000Z</time>
      </trkpt>
      <trkpt lat="47.15465" lon="-1.55947">
        <ele>76</ele>
        <time>2020-05-29T15:15:00.000Z</time>
      </trkpt>
      <trkpt lat="47.15453" lon="-1.55938">
        <ele>76</ele>
        <time>2020-05-29T15:15:02.000Z</time>
      </trkpt>
      <trkpt lat="47.15442" lon="-1.5593">
        <ele>76</ele>
        <time>2020-05-29T15:15:04.000Z</time>
      </trkpt>
      <trkpt lat="47.1543" lon="-1.5592">
        <ele>76</ele>
        <time>2020-05-29T15:15:06.000Z</time>
      </trkpt>
      <trkpt lat="47.15418" lon="-1.55911">
        <ele>76</ele>
        <time>2020-05-29T15:15:08.000Z</time>
      </trkpt>
      <trkpt lat="47.15408" lon="-1.55905">
        <ele>75</ele>
        <time>2020-05-29T15:15:10.000Z</time>
      </trkpt>
      <trkpt lat="47.15399" lon="-1.55899">
        <ele>75</ele>
        <time>2020-05-29T15:15:12.000Z</time>
      </trkpt>
      <trkpt lat="47.15388" lon="-1.55888">
        <ele>75</ele>
        <time>2020-05-29T15:15:16.000Z</time>
      </trkpt>
      <trkpt lat="47.15381" lon="-1.55876">
        <ele>75</ele>
        <time>2020-05-29T15:15:18.000Z</time>
      </trkpt>
      <trkpt lat="47.15376" lon="-1.5586">
        <ele>75</ele>
        <time>2020-05-29T15:15:20.000Z</time>
      </trkpt>
      <trkpt lat="47.15371" lon="-1.55843">
        <ele>75</ele>
        <time>2020-05-29T15:15:22.000Z</time>
      </trkpt>
      <trkpt lat="47.15364" lon="-1.55827">
        <ele>75</ele>
        <time>2020-05-29T15:15:24.000Z</time>
      </trkpt>
      <trkpt lat="47.15356" lon="-1.55812">
        <ele>75</ele>
        <time>2020-05-29T15:15:26.000Z</time>
      </trkpt>
      <trkpt lat="47.15348" lon="-1.55797">
        <ele>75</ele>
        <time>2020-05-29T15:15:28.000Z</time>
      </trkpt>
      <trkpt lat="47.15339" lon="-1.55781">
        <ele>75</ele>
        <time>2020-05-29T15:15:30.000Z</time>
      </trkpt>
      <trkpt lat="47.15331" lon="-1.55765">
        <ele>75</ele>
        <time>2020-05-29T15:15:32.000Z</time>
      </trkpt>
      <trkpt lat="47.15322" lon="-1.55749">
        <ele>75</ele>
        <time>2020-05-29T15:15:34.000Z</time>
      </trkpt>
      <trkpt lat="47.15314" lon="-1.55732">
        <ele>74</ele>
        <time>2020-05-29T15:15:36.000Z</time>
      </trkpt>
      <trkpt lat="47.15306" lon="-1.55716">
        <ele>74</ele>
        <time>2020-05-29T15:15:38.000Z</time>
      </trkpt>
      <trkpt lat="47.15297" lon="-1.55699">
        <ele>75</ele>
        <time>2020-05-29T15:15:40.000Z</time>
      </trkpt>
      <trkpt lat="47.15288" lon="-1.55682">
        <ele>75</ele>
        <time>2020-05-29T15:15:42.000Z</time>
      </trkpt>
      <trkpt lat="47.15279" lon="-1.55664">
        <ele>75</ele>
        <time>2020-05-29T15:15:44.000Z</time>
      </trkpt>
      <trkpt lat="47.15271" lon="-1.55648">
        <ele>75</ele>
        <time>2020-05-29T15:15:46.000Z</time>
      </trkpt>
      <trkpt lat="47.15264" lon="-1.5563">
        <ele>75</ele>
        <time>2020-05-29T15:15:48.000Z</time>
      </trkpt>
      <trkpt lat="47.15257" lon="-1.55612">
        <ele>74</ele>
        <time>2020-05-29T15:15:50.000Z</time>
      </trkpt>
      <trkpt lat="47.1525" lon="-1.55593">
        <ele>74</ele>
        <time>2020-05-29T15:15:52.000Z</time>
      </trkpt>
      <trkpt lat="47.15243" lon="-1.55574">
        <ele>74</ele>
        <time>2020-05-29T15:15:54.000Z</time>
      </trkpt>
      <trkpt lat="47.15237" lon="-1.55555">
        <ele>73</ele>
        <time>2020-05-29T15:15:56.000Z</time>
      </trkpt>
      <trkpt lat="47.15231" lon="-1.55536">
        <ele>73</ele>
        <time>2020-05-29T15:15:58.000Z</time>
      </trkpt>
      <trkpt lat="47.15225" lon="-1.55518">
        <ele>72</ele>
        <time>2020-05-29T15:16:00.000Z</time>
      </trkpt>
      <trkpt lat="47.15217" lon="-1.55499">
        <ele>72</ele>
        <time>2020-05-29T15:16:02.000Z</time>
      </trkpt>
      <trkpt lat="47.15208" lon="-1.55483">
        <ele>72</ele>
        <time>2020-05-29T15:16:04.000Z</time>
      </trkpt>
      <trkpt lat="47.15198" lon="-1.55472">
        <ele>72</ele>
        <time>2020-05-29T15:16:06.000Z</time>
      </trkpt>
      <trkpt lat="47.15186" lon="-1.55465">
        <ele>72</ele>
        <time>2020-05-29T15:16:08.000Z</time>
      </trkpt>
      <trkpt lat="47.15173" lon="-1.55464">
        <ele>72</ele>
        <time>2020-05-29T15:16:10.000Z</time>
      </trkpt>
      <trkpt lat="47.15158" lon="-1.55466">
        <ele>71</ele>
        <time>2020-05-29T15:16:12.000Z</time>
      </trkpt>
      <trkpt lat="47.15145" lon="-1.55469">
        <ele>71</ele>
        <time>2020-05-29T15:16:14.000Z</time>
      </trkpt>
      <trkpt lat="47.15131" lon="-1.55473">
        <ele>71</ele>
        <time>2020-05-29T15:16:16.000Z</time>
      </trkpt>
      <trkpt lat="47.15117" lon="-1.55477">
        <ele>71</ele>
        <time>2020-05-29T15:16:18.000Z</time>
      </trkpt>
      <trkpt lat="47.15103" lon="-1.55481">
        <ele>70</ele>
        <time>2020-05-29T15:16:20.000Z</time>
      </trkpt>
      <trkpt lat="47.15089" lon="-1.55485">
        <ele>70</ele>
        <time>2020-05-29T15:16:22.000Z</time>
      </trkpt>
      <trkpt lat="47.15075" lon="-1.55488">
        <ele>70</ele>
        <time>2020-05-29T15:16:24.000Z</time>
      </trkpt>
      <trkpt lat="47.15061" lon="-1.55493">
        <ele>70</ele>
        <time>2020-05-29T15:16:26.000Z</time>
      </trkpt>
      <trkpt lat="47.15047" lon="-1.55496">
        <ele>70</ele>
        <time>2020-05-29T15:16:28.000Z</time>
      </trkpt>
      <trkpt lat="47.15033" lon="-1.555">
        <ele>70</ele>
        <time>2020-05-29T15:16:30.000Z</time>
      </trkpt>
      <trkpt lat="47.15019" lon="-1.55503">
        <ele>69</ele>
        <time>2020-05-29T15:16:32.000Z</time>
      </trkpt>
      <trkpt lat="47.15005" lon="-1.55507">
        <ele>69</ele>
        <time>2020-05-29T15:16:34.000Z</time>
      </trkpt>
      <trkpt lat="47.1499" lon="-1.55511">
        <ele>69</ele>
        <time>2020-05-29T15:16:36.000Z</time>
      </trkpt>
      <trkpt lat="47.14976" lon="-1.55515">
        <ele>69</ele>
        <time>2020-05-29T15:16:38.000Z</time>
      </trkpt>
      <trkpt lat="47.14962" lon="-1.55519">
        <ele>69</ele>
        <time>2020-05-29T15:16:40.000Z</time>
      </trkpt>
      <trkpt lat="47.14948" lon="-1.55523">
        <ele>69</ele>
        <time>2020-05-29T15:16:42.000Z</time>
      </trkpt>
      <trkpt lat="47.14933" lon="-1.55527">
        <ele>69</ele>
        <time>2020-05-29T15:16:44.000Z</time>
      </trkpt>
      <trkpt lat="47.14919" lon="-1.55532">
        <ele>69</ele>
        <time>2020-05-29T15:16:46.000Z</time>
      </trkpt>
      <trkpt lat="47.14905" lon="-1.55535">
        <ele>69</ele>
        <time>2020-05-29T15:16:48.000Z</time>
      </trkpt>
      <trkpt lat="47.1489" lon="-1.55538">
        <ele>69</ele>
        <time>2020-05-29T15:16:50.000Z</time>
      </trkpt>
      <trkpt lat="47.14876" lon="-1.55538">
        <ele>69</ele>
        <time>2020-05-29T15:16:52.000Z</time>
      </trkpt>
      <trkpt lat="47.14862" lon="-1.55532">
        <ele>69</ele>
        <time>2020-05-29T15:16:54.000Z</time>
      </trkpt>
      <trkpt lat="47.1485" lon="-1.5552">
        <ele>68</ele>
        <time>2020-05-29T15:16:56.000Z</time>
      </trkpt>
      <trkpt lat="47.14839" lon="-1.55507">
        <ele>68</ele>
        <time>2020-05-29T15:16:58.000Z</time>
      </trkpt>
      <trkpt lat="47.14828" lon="-1.55495">
        <ele>68</ele>
        <time>2020-05-29T15:17:00.000Z</time>
      </trkpt>
      <trkpt lat="47.14817" lon="-1.55481">
        <ele>68</ele>
        <time>2020-05-29T15:17:02.000Z</time>
      </trkpt>
      <trkpt lat="47.14807" lon="-1.55468">
        <ele>69</ele>
        <time>2020-05-29T15:17:04.000Z</time>
      </trkpt>
      <trkpt lat="47.14795" lon="-1.55456">
        <ele>69</ele>
        <time>2020-05-29T15:17:06.000Z</time>
      </trkpt>
      <trkpt lat="47.14781" lon="-1.55445">
        <ele>69</ele>
        <time>2020-05-29T15:17:08.000Z</time>
      </trkpt>
      <trkpt lat="47.14767" lon="-1.55433">
        <ele>69</ele>
        <time>2020-05-29T15:17:10.000Z</time>
      </trkpt>
      <trkpt lat="47.14755" lon="-1.55421">
        <ele>69</ele>
        <time>2020-05-29T15:17:12.000Z</time>
      </trkpt>
      <trkpt lat="47.14742" lon="-1.5541">
        <ele>69</ele>
        <time>2020-05-29T15:17:14.000Z</time>
      </trkpt>
      <trkpt lat="47.1473" lon="-1.55398">
        <ele>69</ele>
        <time>2020-05-29T15:17:16.000Z</time>
      </trkpt>
      <trkpt lat="47.14717" lon="-1.55386">
        <ele>69</ele>
        <time>2020-05-29T15:17:18.000Z</time>
      </trkpt>
      <trkpt lat="47.14705" lon="-1.55375">
        <ele>69</ele>
        <time>2020-05-29T15:17:20.000Z</time>
      </trkpt>
      <trkpt lat="47.14693" lon="-1.55362">
        <ele>69</ele>
        <time>2020-05-29T15:17:22.000Z</time>
      </trkpt>
      <trkpt lat="47.14682" lon="-1.55348">
        <ele>68</ele>
        <time>2020-05-29T15:17:24.000Z</time>
      </trkpt>
      <trkpt lat="47.14672" lon="-1.55334">
        <ele>69</ele>
        <time>2020-05-29T15:17:26.000Z</time>
      </trkpt>
      <trkpt lat="47.14661" lon="-1.5532">
        <ele>68</ele>
        <time>2020-05-29T15:17:28.000Z</time>
      </trkpt>
      <trkpt lat="47.1465" lon="-1.55305">
        <ele>68</ele>
        <time>2020-05-29T15:17:30.000Z</time>
      </trkpt>
      <trkpt lat="47.14639" lon="-1.5529">
        <ele>68</ele>
        <time>2020-05-29T15:17:32.000Z</time>
      </trkpt>
      <trkpt lat="47.14629" lon="-1.55274">
        <ele>67</ele>
        <time>2020-05-29T15:17:34.000Z</time>
      </trkpt>
      <trkpt lat="47.14619" lon="-1.55259">
        <ele>67</ele>
        <time>2020-05-29T15:17:36.000Z</time>
      </trkpt>
      <trkpt lat="47.14609" lon="-1.55243">
        <ele>67</ele>
        <time>2020-05-29T15:17:38.000Z</time>
      </trkpt>
      <trkpt lat="47.146" lon="-1.55227">
        <ele>67</ele>
        <time>2020-05-29T15:17:40.000Z</time>
      </trkpt>
      <trkpt lat="47.1459" lon="-1.5521">
        <ele>66</ele>
        <time>2020-05-29T15:17:42.000Z</time>
      </trkpt>
      <trkpt lat="47.14581" lon="-1.55193">
        <ele>66</ele>
        <time>2020-05-29T15:17:44.000Z</time>
      </trkpt>
      <trkpt lat="47.14572" lon="-1.55176">
        <ele>66</ele>
        <time>2020-05-29T15:17:46.000Z</time>
      </trkpt>
      <trkpt lat="47.14563" lon="-1.55158">
        <ele>65</ele>
        <time>2020-05-29T15:17:48.000Z</time>
      </trkpt>
      <trkpt lat="47.14554" lon="-1.55141">
        <ele>65</ele>
        <time>2020-05-29T15:17:50.000Z</time>
      </trkpt>
      <trkpt lat="47.14544" lon="-1.55124">
        <ele>64</ele>
        <time>2020-05-29T15:17:52.000Z</time>
      </trkpt>
      <trkpt lat="47.14535" lon="-1.55106">
        <ele>64</ele>
        <time>2020-05-29T15:17:54.000Z</time>
      </trkpt>
      <trkpt lat="47.14526" lon="-1.55088">
        <ele>63</ele>
        <time>2020-05-29T15:17:56.000Z</time>
      </trkpt>
      <trkpt lat="47.14517" lon="-1.5507">
        <ele>63</ele>
        <time>2020-05-29T15:17:58.000Z</time>
      </trkpt>
      <trkpt lat="47.14508" lon="-1.55051">
        <ele>63</ele>
        <time>2020-05-29T15:18:00.000Z</time>
      </trkpt>
      <trkpt lat="47.145" lon="-1.55033">
        <ele>62</ele>
        <time>2020-05-29T15:18:02.000Z</time>
      </trkpt>
      <trkpt lat="47.14491" lon="-1.55014">
        <ele>62</ele>
        <time>2020-05-29T15:18:04.000Z</time>
      </trkpt>
      <trkpt lat="47.14482" lon="-1.54999">
        <ele>62</ele>
        <time>2020-05-29T15:18:06.000Z</time>
      </trkpt>
      <trkpt lat="47.14471" lon="-1.54985">
        <ele>62</ele>
        <time>2020-05-29T15:18:08.000Z</time>
      </trkpt>
      <trkpt lat="47.14461" lon="-1.54972">
        <ele>63</ele>
        <time>2020-05-29T15:18:10.000Z</time>
      </trkpt>
      <trkpt lat="47.14449" lon="-1.5496">
        <ele>63</ele>
        <time>2020-05-29T15:18:12.000Z</time>
      </trkpt>
      <trkpt lat="47.14437" lon="-1.54948">
        <ele>63</ele>
        <time>2020-05-29T15:18:14.000Z</time>
      </trkpt>
      <trkpt lat="47.14426" lon="-1.54937">
        <ele>64</ele>
        <time>2020-05-29T15:18:16.000Z</time>
      </trkpt>
      <trkpt lat="47.14414" lon="-1.54925">
        <ele>64</ele>
        <time>2020-05-29T15:18:18.000Z</time>
      </trkpt>
      <trkpt lat="47.14402" lon="-1.54914">
        <ele>65</ele>
        <time>2020-05-29T15:18:20.000Z</time>
      </trkpt>
      <trkpt lat="47.1439" lon="-1.54902">
        <ele>65</ele>
        <time>2020-05-29T15:18:22.000Z</time>
      </trkpt>
      <trkpt lat="47.14378" lon="-1.5489">
        <ele>65</ele>
        <time>2020-05-29T15:18:24.000Z</time>
      </trkpt>
      <trkpt lat="47.14366" lon="-1.54878">
        <ele>65</ele>
        <time>2020-05-29T15:18:26.000Z</time>
      </trkpt>
      <trkpt lat="47.14354" lon="-1.54866">
        <ele>65</ele>
        <time>2020-05-29T15:18:28.000Z</time>
      </trkpt>
      <trkpt lat="47.14342" lon="-1.54855">
        <ele>65</ele>
        <time>2020-05-29T15:18:30.000Z</time>
      </trkpt>
      <trkpt lat="47.1433" lon="-1.54843">
        <ele>64</ele>
        <time>2020-05-29T15:18:32.000Z</time>
      </trkpt>
      <trkpt lat="47.14317" lon="-1.54832">
        <ele>64</ele>
        <time>2020-05-29T15:18:34.000Z</time>
      </trkpt>
      <trkpt lat="47.14305" lon="-1.54822">
        <ele>64</ele>
        <time>2020-05-29T15:18:36.000Z</time>
      </trkpt>
      <trkpt lat="47.14292" lon="-1.54812">
        <ele>64</ele>
        <time>2020-05-29T15:18:38.000Z</time>
      </trkpt>
      <trkpt lat="47.1428" lon="-1.54803">
        <ele>65</ele>
        <time>2020-05-29T15:18:40.000Z</time>
      </trkpt>
      <trkpt lat="47.14268" lon="-1.54794">
        <ele>64</ele>
        <time>2020-05-29T15:18:42.000Z</time>
      </trkpt>
      <trkpt lat="47.14256" lon="-1.54785">
        <ele>64</ele>
        <time>2020-05-29T15:18:44.000Z</time>
      </trkpt>
      <trkpt lat="47.14245" lon="-1.54776">
        <ele>65</ele>
        <time>2020-05-29T15:18:46.000Z</time>
      </trkpt>
      <trkpt lat="47.14233" lon="-1.54767">
        <ele>65</ele>
        <time>2020-05-29T15:18:48.000Z</time>
      </trkpt>
      <trkpt lat="47.14222" lon="-1.54758">
        <ele>65</ele>
        <time>2020-05-29T15:18:50.000Z</time>
      </trkpt>
      <trkpt lat="47.14211" lon="-1.54751">
        <ele>66</ele>
        <time>2020-05-29T15:18:52.000Z</time>
      </trkpt>
      <trkpt lat="47.14202" lon="-1.54744">
        <ele>65</ele>
        <time>2020-05-29T15:18:54.000Z</time>
      </trkpt>
      <trkpt lat="47.14192" lon="-1.54739">
        <ele>65</ele>
        <time>2020-05-29T15:18:57.000Z</time>
      </trkpt>
      <trkpt lat="47.14184" lon="-1.54728">
        <ele>65</ele>
        <time>2020-05-29T15:19:01.000Z</time>
      </trkpt>
      <trkpt lat="47.14184" lon="-1.54714">
        <ele>66</ele>
        <time>2020-05-29T15:19:03.000Z</time>
      </trkpt>
      <trkpt lat="47.14187" lon="-1.54699">
        <ele>66</ele>
        <time>2020-05-29T15:19:05.000Z</time>
      </trkpt>
      <trkpt lat="47.1419" lon="-1.54683">
        <ele>66</ele>
        <time>2020-05-29T15:19:07.000Z</time>
      </trkpt>
      <trkpt lat="47.14191" lon="-1.54667">
        <ele>66</ele>
        <time>2020-05-29T15:19:09.000Z</time>
      </trkpt>
      <trkpt lat="47.14185" lon="-1.54654">
        <ele>66</ele>
        <time>2020-05-29T15:19:11.000Z</time>
      </trkpt>
      <trkpt lat="47.14175" lon="-1.54643">
        <ele>66</ele>
        <time>2020-05-29T15:19:13.000Z</time>
      </trkpt>
      <trkpt lat="47.14165" lon="-1.54631">
        <ele>66</ele>
        <time>2020-05-29T15:19:15.000Z</time>
      </trkpt>
      <trkpt lat="47.14155" lon="-1.54618">
        <ele>66</ele>
        <time>2020-05-29T15:19:17.000Z</time>
      </trkpt>
      <trkpt lat="47.14145" lon="-1.54605">
        <ele>66</ele>
        <time>2020-05-29T15:19:19.000Z</time>
      </trkpt>
      <trkpt lat="47.14134" lon="-1.54592">
        <ele>66</ele>
        <time>2020-05-29T15:19:21.000Z</time>
      </trkpt>
      <trkpt lat="47.14124" lon="-1.5458">
        <ele>66</ele>
        <time>2020-05-29T15:19:23.000Z</time>
      </trkpt>
      <trkpt lat="47.14113" lon="-1.54567">
        <ele>66</ele>
        <time>2020-05-29T15:19:25.000Z</time>
      </trkpt>
      <trkpt lat="47.14103" lon="-1.54556">
        <ele>66</ele>
        <time>2020-05-29T15:19:27.000Z</time>
      </trkpt>
      <trkpt lat="47.14093" lon="-1.54545">
        <ele>67</ele>
        <time>2020-05-29T15:19:29.000Z</time>
      </trkpt>
      <trkpt lat="47.14083" lon="-1.54533">
        <ele>67</ele>
        <time>2020-05-29T15:19:31.000Z</time>
      </trkpt>
      <trkpt lat="47.14072" lon="-1.54519">
        <ele>67</ele>
        <time>2020-05-29T15:19:33.000Z</time>
      </trkpt>
      <trkpt lat="47.14061" lon="-1.54508">
        <ele>66</ele>
        <time>2020-05-29T15:19:35.000Z</time>
      </trkpt>
      <trkpt lat="47.14049" lon="-1.54497">
        <ele>67</ele>
        <time>2020-05-29T15:19:37.000Z</time>
      </trkpt>
      <trkpt lat="47.14038" lon="-1.54486">
        <ele>68</ele>
        <time>2020-05-29T15:19:39.000Z</time>
      </trkpt>
      <trkpt lat="47.14026" lon="-1.54477">
        <ele>68</ele>
        <time>2020-05-29T15:19:41.000Z</time>
      </trkpt>
      <trkpt lat="47.14015" lon="-1.54467">
        <ele>69</ele>
        <time>2020-05-29T15:19:43.000Z</time>
      </trkpt>
      <trkpt lat="47.14004" lon="-1.54458">
        <ele>70</ele>
        <time>2020-05-29T15:19:45.000Z</time>
      </trkpt>
      <trkpt lat="47.13993" lon="-1.54448">
        <ele>70</ele>
        <time>2020-05-29T15:19:47.000Z</time>
      </trkpt>
      <trkpt lat="47.13981" lon="-1.54439">
        <ele>70</ele>
        <time>2020-05-29T15:19:49.000Z</time>
      </trkpt>
      <trkpt lat="47.1397" lon="-1.5443">
        <ele>70</ele>
        <time>2020-05-29T15:19:51.000Z</time>
      </trkpt>
      <trkpt lat="47.13959" lon="-1.54421">
        <ele>70</ele>
        <time>2020-05-29T15:19:53.000Z</time>
      </trkpt>
      <trkpt lat="47.13947" lon="-1.54412">
        <ele>71</ele>
        <time>2020-05-29T15:19:55.000Z</time>
      </trkpt>
      <trkpt lat="47.13936" lon="-1.54402">
        <ele>71</ele>
        <time>2020-05-29T15:19:57.000Z</time>
      </trkpt>
      <trkpt lat="47.13924" lon="-1.54393">
        <ele>71</ele>
        <time>2020-05-29T15:19:59.000Z</time>
      </trkpt>
      <trkpt lat="47.13914" lon="-1.54383">
        <ele>71</ele>
        <time>2020-05-29T15:20:01.000Z</time>
      </trkpt>
      <trkpt lat="47.13903" lon="-1.54374">
        <ele>71</ele>
        <time>2020-05-29T15:20:03.000Z</time>
      </trkpt>
      <trkpt lat="47.13892" lon="-1.54365">
        <ele>70</ele>
        <time>2020-05-29T15:20:05.000Z</time>
      </trkpt>
      <trkpt lat="47.1388" lon="-1.54355">
        <ele>71</ele>
        <time>2020-05-29T15:20:07.000Z</time>
      </trkpt>
      <trkpt lat="47.13869" lon="-1.54346">
        <ele>72</ele>
        <time>2020-05-29T15:20:09.000Z</time>
      </trkpt>
      <trkpt lat="47.13857" lon="-1.54337">
        <ele>72</ele>
        <time>2020-05-29T15:20:11.000Z</time>
      </trkpt>
      <trkpt lat="47.13846" lon="-1.54327">
        <ele>72</ele>
        <time>2020-05-29T15:20:13.000Z</time>
      </trkpt>
      <trkpt lat="47.13834" lon="-1.54319">
        <ele>72</ele>
        <time>2020-05-29T15:20:15.000Z</time>
      </trkpt>
      <trkpt lat="47.13822" lon="-1.54313">
        <ele>72</ele>
        <time>2020-05-29T15:20:17.000Z</time>
      </trkpt>
      <trkpt lat="47.1381" lon="-1.54307">
        <ele>72</ele>
        <time>2020-05-29T15:20:19.000Z</time>
      </trkpt>
      <trkpt lat="47.13797" lon="-1.54301">
        <ele>72</ele>
        <time>2020-05-29T15:20:21.000Z</time>
      </trkpt>
      <trkpt lat="47.13785" lon="-1.54296">
        <ele>72</ele>
        <time>2020-05-29T15:20:23.000Z</time>
      </trkpt>
      <trkpt lat="47.13773" lon="-1.54291">
        <ele>72</ele>
        <time>2020-05-29T15:20:25.000Z</time>
      </trkpt>
      <trkpt lat="47.13761" lon="-1.54285">
        <ele>72</ele>
        <time>2020-05-29T15:20:27.000Z</time>
      </trkpt>
      <trkpt lat="47.13749" lon="-1.54279">
        <ele>72</ele>
        <time>2020-05-29T15:20:29.000Z</time>
      </trkpt>
      <trkpt lat="47.13738" lon="-1.54273">
        <ele>70</ele>
        <time>2020-05-29T15:20:31.000Z</time>
      </trkpt>
      <trkpt lat="47.13725" lon="-1.54267">
        <ele>70</ele>
        <time>2020-05-29T15:20:33.000Z</time>
      </trkpt>
      <trkpt lat="47.13712" lon="-1.54261">
        <ele>69</ele>
        <time>2020-05-29T15:20:35.000Z</time>
      </trkpt>
      <trkpt lat="47.13699" lon="-1.54254">
        <ele>69</ele>
        <time>2020-05-29T15:20:37.000Z</time>
      </trkpt>
      <trkpt lat="47.13685" lon="-1.54247">
        <ele>70</ele>
        <time>2020-05-29T15:20:39.000Z</time>
      </trkpt>
      <trkpt lat="47.13672" lon="-1.5424">
        <ele>70</ele>
        <time>2020-05-29T15:20:41.000Z</time>
      </trkpt>
      <trkpt lat="47.13659" lon="-1.54233">
        <ele>70</ele>
        <time>2020-05-29T15:20:43.000Z</time>
      </trkpt>
      <trkpt lat="47.13646" lon="-1.54227">
        <ele>71</ele>
        <time>2020-05-29T15:20:45.000Z</time>
      </trkpt>
      <trkpt lat="47.13633" lon="-1.5422">
        <ele>71</ele>
        <time>2020-05-29T15:20:47.000Z</time>
      </trkpt>
      <trkpt lat="47.1362" lon="-1.54213">
        <ele>70</ele>
        <time>2020-05-29T15:20:49.000Z</time>
      </trkpt>
      <trkpt lat="47.13608" lon="-1.54204">
        <ele>70</ele>
        <time>2020-05-29T15:20:51.000Z</time>
      </trkpt>
      <trkpt lat="47.13596" lon="-1.54197">
        <ele>70</ele>
        <time>2020-05-29T15:20:53.000Z</time>
      </trkpt>
      <trkpt lat="47.13584" lon="-1.54187">
        <ele>70</ele>
        <time>2020-05-29T15:20:55.000Z</time>
      </trkpt>
      <trkpt lat="47.13572" lon="-1.54175">
        <ele>70</ele>
        <time>2020-05-29T15:20:57.000Z</time>
      </trkpt>
      <trkpt lat="47.13562" lon="-1.54161">
        <ele>70</ele>
        <time>2020-05-29T15:20:59.000Z</time>
      </trkpt>
      <trkpt lat="47.13552" lon="-1.54145">
        <ele>70</ele>
        <time>2020-05-29T15:21:01.000Z</time>
      </trkpt>
      <trkpt lat="47.13542" lon="-1.54129">
        <ele>71</ele>
        <time>2020-05-29T15:21:03.000Z</time>
      </trkpt>
      <trkpt lat="47.13533" lon="-1.54115">
        <ele>71</ele>
        <time>2020-05-29T15:21:05.000Z</time>
      </trkpt>
      <trkpt lat="47.13523" lon="-1.54101">
        <ele>71</ele>
        <time>2020-05-29T15:21:07.000Z</time>
      </trkpt>
      <trkpt lat="47.13513" lon="-1.54087">
        <ele>72</ele>
        <time>2020-05-29T15:21:09.000Z</time>
      </trkpt>
      <trkpt lat="47.13504" lon="-1.54073">
        <ele>72</ele>
        <time>2020-05-29T15:21:11.000Z</time>
      </trkpt>
      <trkpt lat="47.13494" lon="-1.54059">
        <ele>72</ele>
        <time>2020-05-29T15:21:13.000Z</time>
      </trkpt>
      <trkpt lat="47.13485" lon="-1.54045">
        <ele>72</ele>
        <time>2020-05-29T15:21:15.000Z</time>
      </trkpt>
      <trkpt lat="47.13476" lon="-1.5403">
        <ele>72</ele>
        <time>2020-05-29T15:21:17.000Z</time>
      </trkpt>
      <trkpt lat="47.13467" lon="-1.54015">
        <ele>72</ele>
        <time>2020-05-29T15:21:19.000Z</time>
      </trkpt>
      <trkpt lat="47.13459" lon="-1.53999">
        <ele>72</ele>
        <time>2020-05-29T15:21:21.000Z</time>
      </trkpt>
      <trkpt lat="47.13451" lon="-1.53984">
        <ele>71</ele>
        <time>2020-05-29T15:21:23.000Z</time>
      </trkpt>
      <trkpt lat="47.13443" lon="-1.53968">
        <ele>71</ele>
        <time>2020-05-29T15:21:25.000Z</time>
      </trkpt>
      <trkpt lat="47.13435" lon="-1.53953">
        <ele>70</ele>
        <time>2020-05-29T15:21:27.000Z</time>
      </trkpt>
      <trkpt lat="47.13427" lon="-1.53938">
        <ele>70</ele>
        <time>2020-05-29T15:21:29.000Z</time>
      </trkpt>
      <trkpt lat="47.13418" lon="-1.53922">
        <ele>70</ele>
        <time>2020-05-29T15:21:31.000Z</time>
      </trkpt>
      <trkpt lat="47.1341" lon="-1.53906">
        <ele>70</ele>
        <time>2020-05-29T15:21:33.000Z</time>
      </trkpt>
      <trkpt lat="47.13401" lon="-1.53891">
        <ele>70</ele>
        <time>2020-05-29T15:21:35.000Z</time>
      </trkpt>
      <trkpt lat="47.13393" lon="-1.53876">
        <ele>70</ele>
        <time>2020-05-29T15:21:37.000Z</time>
      </trkpt>
      <trkpt lat="47.13385" lon="-1.5386">
        <ele>69</ele>
        <time>2020-05-29T15:21:39.000Z</time>
      </trkpt>
      <trkpt lat="47.13377" lon="-1.53844">
        <ele>69</ele>
        <time>2020-05-29T15:21:41.000Z</time>
      </trkpt>
      <trkpt lat="47.13369" lon="-1.53829">
        <ele>69</ele>
        <time>2020-05-29T15:21:43.000Z</time>
      </trkpt>
      <trkpt lat="47.1336" lon="-1.53814">
        <ele>69</ele>
        <time>2020-05-29T15:21:45.000Z</time>
      </trkpt>
      <trkpt lat="47.13353" lon="-1.538">
        <ele>70</ele>
        <time>2020-05-29T15:21:47.000Z</time>
      </trkpt>
      <trkpt lat="47.13345" lon="-1.53785">
        <ele>70</ele>
        <time>2020-05-29T15:21:49.000Z</time>
      </trkpt>
      <trkpt lat="47.13337" lon="-1.5377">
        <ele>70</ele>
        <time>2020-05-29T15:21:51.000Z</time>
      </trkpt>
      <trkpt lat="47.1333" lon="-1.53756">
        <ele>70</ele>
        <time>2020-05-29T15:21:53.000Z</time>
      </trkpt>
      <trkpt lat="47.13323" lon="-1.53741">
        <ele>71</ele>
        <time>2020-05-29T15:21:55.000Z</time>
      </trkpt>
      <trkpt lat="47.13316" lon="-1.53726">
        <ele>70</ele>
        <time>2020-05-29T15:21:57.000Z</time>
      </trkpt>
      <trkpt lat="47.13309" lon="-1.53709">
        <ele>71</ele>
        <time>2020-05-29T15:21:59.000Z</time>
      </trkpt>
      <trkpt lat="47.13303" lon="-1.53694">
        <ele>71</ele>
        <time>2020-05-29T15:22:01.000Z</time>
      </trkpt>
      <trkpt lat="47.13297" lon="-1.53677">
        <ele>72</ele>
        <time>2020-05-29T15:22:03.000Z</time>
      </trkpt>
      <trkpt lat="47.13291" lon="-1.53661">
        <ele>72</ele>
        <time>2020-05-29T15:22:05.000Z</time>
      </trkpt>
      <trkpt lat="47.13285" lon="-1.53645">
        <ele>73</ele>
        <time>2020-05-29T15:22:07.000Z</time>
      </trkpt>
      <trkpt lat="47.1328" lon="-1.53628">
        <ele>73</ele>
        <time>2020-05-29T15:22:09.000Z</time>
      </trkpt>
      <trkpt lat="47.13275" lon="-1.53612">
        <ele>73</ele>
        <time>2020-05-29T15:22:11.000Z</time>
      </trkpt>
      <trkpt lat="47.13269" lon="-1.53595">
        <ele>73</ele>
        <time>2020-05-29T15:22:13.000Z</time>
      </trkpt>
      <trkpt lat="47.13264" lon="-1.53579">
        <ele>73</ele>
        <time>2020-05-29T15:22:15.000Z</time>
      </trkpt>
      <trkpt lat="47.13259" lon="-1.53564">
        <ele>73</ele>
        <time>2020-05-29T15:22:17.000Z</time>
      </trkpt>
      <trkpt lat="47.13253" lon="-1.53548">
        <ele>74</ele>
        <time>2020-05-29T15:22:19.000Z</time>
      </trkpt>
      <trkpt lat="47.13248" lon="-1.5353">
        <ele>73</ele>
        <time>2020-05-29T15:22:21.000Z</time>
      </trkpt>
      <trkpt lat="47.13243" lon="-1.53515">
        <ele>73</ele>
        <time>2020-05-29T15:22:23.000Z</time>
      </trkpt>
      <trkpt lat="47.13238" lon="-1.53499">
        <ele>73</ele>
        <time>2020-05-29T15:22:25.000Z</time>
      </trkpt>
      <trkpt lat="47.13233" lon="-1.53484">
        <ele>73</ele>
        <time>2020-05-29T15:22:27.000Z</time>
      </trkpt>
      <trkpt lat="47.13228" lon="-1.53467">
        <ele>73</ele>
        <time>2020-05-29T15:22:29.000Z</time>
      </trkpt>
      <trkpt lat="47.13222" lon="-1.53451">
        <ele>73</ele>
        <time>2020-05-29T15:22:31.000Z</time>
      </trkpt>
      <trkpt lat="47.13217" lon="-1.53435">
        <ele>73</ele>
        <time>2020-05-29T15:22:33.000Z</time>
      </trkpt>
      <trkpt lat="47.13211" lon="-1.53418">
        <ele>73</ele>
        <time>2020-05-29T15:22:35.000Z</time>
      </trkpt>
      <trkpt lat="47.13206" lon="-1.534">
        <ele>72</ele>
        <time>2020-05-29T15:22:37.000Z</time>
      </trkpt>
      <trkpt lat="47.13201" lon="-1.53383">
        <ele>72</ele>
        <time>2020-05-29T15:22:39.000Z</time>
      </trkpt>
      <trkpt lat="47.13196" lon="-1.53366">
        <ele>72</ele>
        <time>2020-05-29T15:22:41.000Z</time>
      </trkpt>
      <trkpt lat="47.1319" lon="-1.53349">
        <ele>71</ele>
        <time>2020-05-29T15:22:43.000Z</time>
      </trkpt>
      <trkpt lat="47.13185" lon="-1.53332">
        <ele>72</ele>
        <time>2020-05-29T15:22:45.000Z</time>
      </trkpt>
      <trkpt lat="47.13179" lon="-1.53315">
        <ele>71</ele>
        <time>2020-05-29T15:22:47.000Z</time>
      </trkpt>
      <trkpt lat="47.13174" lon="-1.53298">
        <ele>71</ele>
        <time>2020-05-29T15:22:49.000Z</time>
      </trkpt>
      <trkpt lat="47.13169" lon="-1.53281">
        <ele>71</ele>
        <time>2020-05-29T15:22:51.000Z</time>
      </trkpt>
      <trkpt lat="47.13164" lon="-1.53266">
        <ele>72</ele>
        <time>2020-05-29T15:22:53.000Z</time>
      </trkpt>
      <trkpt lat="47.1316" lon="-1.53253">
        <ele>72</ele>
        <time>2020-05-29T15:22:55.000Z</time>
      </trkpt>
      <trkpt lat="47.13155" lon="-1.53238">
        <ele>71</ele>
        <time>2020-05-29T15:22:58.000Z</time>
      </trkpt>
      <trkpt lat="47.1315" lon="-1.53227">
        <ele>72</ele>
        <time>2020-05-29T15:23:02.000Z</time>
      </trkpt>
      <trkpt lat="47.13154" lon="-1.53212">
        <ele>71</ele>
        <time>2020-05-29T15:23:05.000Z</time>
      </trkpt>
      <trkpt lat="47.13165" lon="-1.5321">
        <ele>71</ele>
        <time>2020-05-29T15:23:07.000Z</time>
      </trkpt>
      <trkpt lat="47.13176" lon="-1.53206">
        <ele>71</ele>
        <time>2020-05-29T15:23:09.000Z</time>
      </trkpt>
      <trkpt lat="47.13187" lon="-1.53201">
        <ele>71</ele>
        <time>2020-05-29T15:23:11.000Z</time>
      </trkpt>
      <trkpt lat="47.13199" lon="-1.53197">
        <ele>71</ele>
        <time>2020-05-29T15:23:13.000Z</time>
      </trkpt>
      <trkpt lat="47.13211" lon="-1.53192">
        <ele>71</ele>
        <time>2020-05-29T15:23:15.000Z</time>
      </trkpt>
      <trkpt lat="47.13222" lon="-1.53187">
        <ele>71</ele>
        <time>2020-05-29T15:23:17.000Z</time>
      </trkpt>
      <trkpt lat="47.13234" lon="-1.53182">
        <ele>72</ele>
        <time>2020-05-29T15:23:19.000Z</time>
      </trkpt>
      <trkpt lat="47.13245" lon="-1.53178">
        <ele>72</ele>
        <time>2020-05-29T15:23:21.000Z</time>
      </trkpt>
      <trkpt lat="47.13257" lon="-1.53173">
        <ele>72</ele>
        <time>2020-05-29T15:23:23.000Z</time>
      </trkpt>
      <trkpt lat="47.13269" lon="-1.53169">
        <ele>72</ele>
        <time>2020-05-29T15:23:25.000Z</time>
      </trkpt>
      <trkpt lat="47.13282" lon="-1.53164">
        <ele>72</ele>
        <time>2020-05-29T15:23:27.000Z</time>
      </trkpt>
      <trkpt lat="47.13294" lon="-1.53159">
        <ele>73</ele>
        <time>2020-05-29T15:23:29.000Z</time>
      </trkpt>
      <trkpt lat="47.13306" lon="-1.53154">
        <ele>73</ele>
        <time>2020-05-29T15:23:31.000Z</time>
      </trkpt>
      <trkpt lat="47.13317" lon="-1.53149">
        <ele>73</ele>
        <time>2020-05-29T15:23:33.000Z</time>
      </trkpt>
      <trkpt lat="47.13328" lon="-1.53146">
        <ele>73</ele>
        <time>2020-05-29T15:23:35.000Z</time>
      </trkpt>
      <trkpt lat="47.1334" lon="-1.53142">
        <ele>74</ele>
        <time>2020-05-29T15:23:37.000Z</time>
      </trkpt>
      <trkpt lat="47.13352" lon="-1.53139">
        <ele>74</ele>
        <time>2020-05-29T15:23:39.000Z</time>
      </trkpt>
      <trkpt lat="47.13364" lon="-1.53137">
        <ele>75</ele>
        <time>2020-05-29T15:23:41.000Z</time>
      </trkpt>
      <trkpt lat="47.13375" lon="-1.53136">
        <ele>75</ele>
        <time>2020-05-29T15:23:43.000Z</time>
      </trkpt>
      <trkpt lat="47.13387" lon="-1.53137">
        <ele>75</ele>
        <time>2020-05-29T15:23:45.000Z</time>
      </trkpt>
      <trkpt lat="47.134" lon="-1.53136">
        <ele>75</ele>
        <time>2020-05-29T15:23:47.000Z</time>
      </trkpt>
      <trkpt lat="47.13411" lon="-1.53136">
        <ele>75</ele>
        <time>2020-05-29T15:23:49.000Z</time>
      </trkpt>
      <trkpt lat="47.13422" lon="-1.53134">
        <ele>76</ele>
        <time>2020-05-29T15:23:51.000Z</time>
      </trkpt>
      <trkpt lat="47.1343" lon="-1.53121">
        <ele>76</ele>
        <time>2020-05-29T15:23:53.000Z</time>
      </trkpt>
      <trkpt lat="47.13436" lon="-1.53108">
        <ele>76</ele>
        <time>2020-05-29T15:23:55.000Z</time>
      </trkpt>
      <trkpt lat="47.13442" lon="-1.53094">
        <ele>75</ele>
        <time>2020-05-29T15:23:57.000Z</time>
      </trkpt>
      <trkpt lat="47.13449" lon="-1.5308">
        <ele>75</ele>
        <time>2020-05-29T15:23:59.000Z</time>
      </trkpt>
      <trkpt lat="47.13456" lon="-1.53065">
        <ele>75</ele>
        <time>2020-05-29T15:24:01.000Z</time>
      </trkpt>
      <trkpt lat="47.13462" lon="-1.53052">
        <ele>75</ele>
        <time>2020-05-29T15:24:03.000Z</time>
      </trkpt>
      <trkpt lat="47.13468" lon="-1.53039">
        <ele>75</ele>
        <time>2020-05-29T15:24:05.000Z</time>
      </trkpt>
      <trkpt lat="47.13473" lon="-1.53026">
        <ele>75</ele>
        <time>2020-05-29T15:24:07.000Z</time>
      </trkpt>
      <trkpt lat="47.13479" lon="-1.53013">
        <ele>76</ele>
        <time>2020-05-29T15:24:09.000Z</time>
      </trkpt>
      <trkpt lat="47.13485" lon="-1.53">
        <ele>76</ele>
        <time>2020-05-29T15:24:11.000Z</time>
      </trkpt>
      <trkpt lat="47.1349" lon="-1.52987">
        <ele>76</ele>
        <time>2020-05-29T15:24:13.000Z</time>
      </trkpt>
      <trkpt lat="47.13496" lon="-1.52975">
        <ele>76</ele>
        <time>2020-05-29T15:24:15.000Z</time>
      </trkpt>
      <trkpt lat="47.13502" lon="-1.52961">
        <ele>76</ele>
        <time>2020-05-29T15:24:17.000Z</time>
      </trkpt>
      <trkpt lat="47.13508" lon="-1.52948">
        <ele>77</ele>
        <time>2020-05-29T15:24:19.000Z</time>
      </trkpt>
      <trkpt lat="47.13514" lon="-1.52935">
        <ele>77</ele>
        <time>2020-05-29T15:24:21.000Z</time>
      </trkpt>
      <trkpt lat="47.1352" lon="-1.52922">
        <ele>77</ele>
        <time>2020-05-29T15:24:23.000Z</time>
      </trkpt>
      <trkpt lat="47.13526" lon="-1.52909">
        <ele>77</ele>
        <time>2020-05-29T15:24:25.000Z</time>
      </trkpt>
      <trkpt lat="47.13532" lon="-1.52897">
        <ele>77</ele>
        <time>2020-05-29T15:24:27.000Z</time>
      </trkpt>
      <trkpt lat="47.13538" lon="-1.52885">
        <ele>77</ele>
        <time>2020-05-29T15:24:29.000Z</time>
      </trkpt>
      <trkpt lat="47.13543" lon="-1.52872">
        <ele>77</ele>
        <time>2020-05-29T15:24:31.000Z</time>
      </trkpt>
      <trkpt lat="47.13549" lon="-1.5286">
        <ele>77</ele>
        <time>2020-05-29T15:24:33.000Z</time>
      </trkpt>
      <trkpt lat="47.13556" lon="-1.52848">
        <ele>77</ele>
        <time>2020-05-29T15:24:35.000Z</time>
      </trkpt>
      <trkpt lat="47.13562" lon="-1.52835">
        <ele>78</ele>
        <time>2020-05-29T15:24:37.000Z</time>
      </trkpt>
      <trkpt lat="47.13568" lon="-1.52822">
        <ele>78</ele>
        <time>2020-05-29T15:24:39.000Z</time>
      </trkpt>
      <trkpt lat="47.13574" lon="-1.52809">
        <ele>78</ele>
        <time>2020-05-29T15:24:41.000Z</time>
      </trkpt>
      <trkpt lat="47.1358" lon="-1.52795">
        <ele>78</ele>
        <time>2020-05-29T15:24:43.000Z</time>
      </trkpt>
      <trkpt lat="47.13586" lon="-1.52782">
        <ele>78</ele>
        <time>2020-05-29T15:24:45.000Z</time>
      </trkpt>
      <trkpt lat="47.13593" lon="-1.52769">
        <ele>78</ele>
        <time>2020-05-29T15:24:47.000Z</time>
      </trkpt>
      <trkpt lat="47.136" lon="-1.52756">
        <ele>79</ele>
        <time>2020-05-29T15:24:49.000Z</time>
      </trkpt>
      <trkpt lat="47.13607" lon="-1.52743">
        <ele>79</ele>
        <time>2020-05-29T15:24:51.000Z</time>
      </trkpt>
      <trkpt lat="47.13615" lon="-1.52731">
        <ele>79</ele>
        <time>2020-05-29T15:24:53.000Z</time>
      </trkpt>
      <trkpt lat="47.13622" lon="-1.52719">
        <ele>79</ele>
        <time>2020-05-29T15:24:55.000Z</time>
      </trkpt>
      <trkpt lat="47.13629" lon="-1.52707">
        <ele>79</ele>
        <time>2020-05-29T15:24:57.000Z</time>
      </trkpt>
      <trkpt lat="47.13636" lon="-1.52695">
        <ele>80</ele>
        <time>2020-05-29T15:24:59.000Z</time>
      </trkpt>
      <trkpt lat="47.13643" lon="-1.52683">
        <ele>80</ele>
        <time>2020-05-29T15:25:01.000Z</time>
      </trkpt>
      <trkpt lat="47.1365" lon="-1.52671">
        <ele>81</ele>
        <time>2020-05-29T15:25:03.000Z</time>
      </trkpt>
      <trkpt lat="47.13658" lon="-1.52658">
        <ele>81</ele>
        <time>2020-05-29T15:25:05.000Z</time>
      </trkpt>
      <trkpt lat="47.13665" lon="-1.52646">
        <ele>81</ele>
        <time>2020-05-29T15:25:07.000Z</time>
      </trkpt>
      <trkpt lat="47.13673" lon="-1.52633">
        <ele>81</ele>
        <time>2020-05-29T15:25:09.000Z</time>
      </trkpt>
      <trkpt lat="47.13681" lon="-1.52621">
        <ele>81</ele>
        <time>2020-05-29T15:25:11.000Z</time>
      </trkpt>
      <trkpt lat="47.13689" lon="-1.52609">
        <ele>81</ele>
        <time>2020-05-29T15:25:13.000Z</time>
      </trkpt>
      <trkpt lat="47.13696" lon="-1.52597">
        <ele>81</ele>
        <time>2020-05-29T15:25:15.000Z</time>
      </trkpt>
      <trkpt lat="47.13703" lon="-1.52585">
        <ele>81</ele>
        <time>2020-05-29T15:25:17.000Z</time>
      </trkpt>
      <trkpt lat="47.13711" lon="-1.52572">
        <ele>82</ele>
        <time>2020-05-29T15:25:19.000Z</time>
      </trkpt>
      <trkpt lat="47.13719" lon="-1.5256">
        <ele>82</ele>
        <time>2020-05-29T15:25:21.000Z</time>
      </trkpt>
      <trkpt lat="47.13726" lon="-1.52547">
        <ele>82</ele>
        <time>2020-05-29T15:25:23.000Z</time>
      </trkpt>
      <trkpt lat="47.13733" lon="-1.52535">
        <ele>83</ele>
        <time>2020-05-29T15:25:25.000Z</time>
      </trkpt>
      <trkpt lat="47.13741" lon="-1.52523">
        <ele>83</ele>
        <time>2020-05-29T15:25:27.000Z</time>
      </trkpt>
      <trkpt lat="47.13749" lon="-1.52511">
        <ele>83</ele>
        <time>2020-05-29T15:25:29.000Z</time>
      </trkpt>
      <trkpt lat="47.13756" lon="-1.52497">
        <ele>83</ele>
        <time>2020-05-29T15:25:31.000Z</time>
      </trkpt>
      <trkpt lat="47.13765" lon="-1.52485">
        <ele>83</ele>
        <time>2020-05-29T15:25:33.000Z</time>
      </trkpt>
      <trkpt lat="47.13773" lon="-1.52472">
        <ele>83</ele>
        <time>2020-05-29T15:25:35.000Z</time>
      </trkpt>
      <trkpt lat="47.13782" lon="-1.5246">
        <ele>82</ele>
        <time>2020-05-29T15:25:37.000Z</time>
      </trkpt>
      <trkpt lat="47.13791" lon="-1.52448">
        <ele>82</ele>
        <time>2020-05-29T15:25:39.000Z</time>
      </trkpt>
      <trkpt lat="47.138" lon="-1.52435">
        <ele>82</ele>
        <time>2020-05-29T15:25:41.000Z</time>
      </trkpt>
      <trkpt lat="47.13808" lon="-1.52421">
        <ele>82</ele>
        <time>2020-05-29T15:25:43.000Z</time>
      </trkpt>
      <trkpt lat="47.13816" lon="-1.52408">
        <ele>82</ele>
        <time>2020-05-29T15:25:45.000Z</time>
      </trkpt>
      <trkpt lat="47.13824" lon="-1.52396">
        <ele>82</ele>
        <time>2020-05-29T15:25:47.000Z</time>
      </trkpt>
      <trkpt lat="47.13832" lon="-1.52383">
        <ele>82</ele>
        <time>2020-05-29T15:25:49.000Z</time>
      </trkpt>
      <trkpt lat="47.1384" lon="-1.52371">
        <ele>81</ele>
        <time>2020-05-29T15:25:51.000Z</time>
      </trkpt>
      <trkpt lat="47.13848" lon="-1.52359">
        <ele>81</ele>
        <time>2020-05-29T15:25:53.000Z</time>
      </trkpt>
      <trkpt lat="47.13855" lon="-1.52347">
        <ele>81</ele>
        <time>2020-05-29T15:25:55.000Z</time>
      </trkpt>
      <trkpt lat="47.13859" lon="-1.52332">
        <ele>81</ele>
        <time>2020-05-29T15:25:57.000Z</time>
      </trkpt>
      <trkpt lat="47.13865" lon="-1.52318">
        <ele>81</ele>
        <time>2020-05-29T15:25:59.000Z</time>
      </trkpt>
      <trkpt lat="47.13874" lon="-1.52307">
        <ele>81</ele>
        <time>2020-05-29T15:26:01.000Z</time>
      </trkpt>
      <trkpt lat="47.13886" lon="-1.523">
        <ele>81</ele>
        <time>2020-05-29T15:26:03.000Z</time>
      </trkpt>
      <trkpt lat="47.13895" lon="-1.5229">
        <ele>81</ele>
        <time>2020-05-29T15:26:05.000Z</time>
      </trkpt>
      <trkpt lat="47.13904" lon="-1.52277">
        <ele>82</ele>
        <time>2020-05-29T15:26:07.000Z</time>
      </trkpt>
      <trkpt lat="47.13912" lon="-1.52265">
        <ele>82</ele>
        <time>2020-05-29T15:26:09.000Z</time>
      </trkpt>
      <trkpt lat="47.1392" lon="-1.52252">
        <ele>83</ele>
        <time>2020-05-29T15:26:11.000Z</time>
      </trkpt>
      <trkpt lat="47.13929" lon="-1.5224">
        <ele>84</ele>
        <time>2020-05-29T15:26:13.000Z</time>
      </trkpt>
      <trkpt lat="47.13936" lon="-1.52228">
        <ele>85</ele>
        <time>2020-05-29T15:26:15.000Z</time>
      </trkpt>
      <trkpt lat="47.13944" lon="-1.52218">
        <ele>85</ele>
        <time>2020-05-29T15:26:17.000Z</time>
      </trkpt>
      <trkpt lat="47.13953" lon="-1.52208">
        <ele>85</ele>
        <time>2020-05-29T15:26:19.000Z</time>
      </trkpt>
      <trkpt lat="47.1396" lon="-1.52198">
        <ele>85</ele>
        <time>2020-05-29T15:26:21.000Z</time>
      </trkpt>
      <trkpt lat="47.13968" lon="-1.52187">
        <ele>84</ele>
        <time>2020-05-29T15:26:23.000Z</time>
      </trkpt>
      <trkpt lat="47.13976" lon="-1.52177">
        <ele>84</ele>
        <time>2020-05-29T15:26:25.000Z</time>
      </trkpt>
      <trkpt lat="47.13984" lon="-1.52167">
        <ele>84</ele>
        <time>2020-05-29T15:26:27.000Z</time>
      </trkpt>
      <trkpt lat="47.13992" lon="-1.52158">
        <ele>83</ele>
        <time>2020-05-29T15:26:29.000Z</time>
      </trkpt>
      <trkpt lat="47.14002" lon="-1.52149">
        <ele>83</ele>
        <time>2020-05-29T15:26:31.000Z</time>
      </trkpt>
      <trkpt lat="47.14011" lon="-1.52141">
        <ele>83</ele>
        <time>2020-05-29T15:26:33.000Z</time>
      </trkpt>
      <trkpt lat="47.14017" lon="-1.52131">
        <ele>83</ele>
        <time>2020-05-29T15:26:35.000Z</time>
      </trkpt>
      <trkpt lat="47.14023" lon="-1.52117">
        <ele>84</ele>
        <time>2020-05-29T15:26:38.000Z</time>
      </trkpt>
      <trkpt lat="47.14028" lon="-1.52106">
        <ele>84</ele>
        <time>2020-05-29T15:26:43.000Z</time>
      </trkpt>
      <trkpt lat="47.14037" lon="-1.52097">
        <ele>84</ele>
        <time>2020-05-29T15:26:46.000Z</time>
      </trkpt>
      <trkpt lat="47.14049" lon="-1.5209">
        <ele>84</ele>
        <time>2020-05-29T15:26:48.000Z</time>
      </trkpt>
      <trkpt lat="47.14061" lon="-1.52081">
        <ele>84</ele>
        <time>2020-05-29T15:26:50.000Z</time>
      </trkpt>
      <trkpt lat="47.14072" lon="-1.52069">
        <ele>84</ele>
        <time>2020-05-29T15:26:52.000Z</time>
      </trkpt>
      <trkpt lat="47.14083" lon="-1.52056">
        <ele>84</ele>
        <time>2020-05-29T15:26:54.000Z</time>
      </trkpt>
      <trkpt lat="47.14094" lon="-1.52046">
        <ele>84</ele>
        <time>2020-05-29T15:26:56.000Z</time>
      </trkpt>
      <trkpt lat="47.14105" lon="-1.52034">
        <ele>84</ele>
        <time>2020-05-29T15:26:58.000Z</time>
      </trkpt>
      <trkpt lat="47.14115" lon="-1.52024">
        <ele>83</ele>
        <time>2020-05-29T15:27:00.000Z</time>
      </trkpt>
      <trkpt lat="47.14126" lon="-1.52014">
        <ele>84</ele>
        <time>2020-05-29T15:27:02.000Z</time>
      </trkpt>
      <trkpt lat="47.14137" lon="-1.52004">
        <ele>84</ele>
        <time>2020-05-29T15:27:04.000Z</time>
      </trkpt>
      <trkpt lat="47.14147" lon="-1.51995">
        <ele>84</ele>
        <time>2020-05-29T15:27:06.000Z</time>
      </trkpt>
      <trkpt lat="47.14157" lon="-1.51984">
        <ele>84</ele>
        <time>2020-05-29T15:27:08.000Z</time>
      </trkpt>
      <trkpt lat="47.14168" lon="-1.51974">
        <ele>84</ele>
        <time>2020-05-29T15:27:10.000Z</time>
      </trkpt>
      <trkpt lat="47.14179" lon="-1.51964">
        <ele>84</ele>
        <time>2020-05-29T15:27:12.000Z</time>
      </trkpt>
      <trkpt lat="47.1419" lon="-1.51953">
        <ele>84</ele>
        <time>2020-05-29T15:27:14.000Z</time>
      </trkpt>
      <trkpt lat="47.142" lon="-1.51943">
        <ele>84</ele>
        <time>2020-05-29T15:27:16.000Z</time>
      </trkpt>
      <trkpt lat="47.1421" lon="-1.51933">
        <ele>84</ele>
        <time>2020-05-29T15:27:18.000Z</time>
      </trkpt>
      <trkpt lat="47.14221" lon="-1.51924">
        <ele>84</ele>
        <time>2020-05-29T15:27:20.000Z</time>
      </trkpt>
      <trkpt lat="47.14231" lon="-1.51914">
        <ele>84</ele>
        <time>2020-05-29T15:27:22.000Z</time>
      </trkpt>
      <trkpt lat="47.14242" lon="-1.51904">
        <ele>84</ele>
        <time>2020-05-29T15:27:24.000Z</time>
      </trkpt>
      <trkpt lat="47.14252" lon="-1.51893">
        <ele>84</ele>
        <time>2020-05-29T15:27:26.000Z</time>
      </trkpt>
      <trkpt lat="47.14262" lon="-1.51884">
        <ele>84</ele>
        <time>2020-05-29T15:27:28.000Z</time>
      </trkpt>
      <trkpt lat="47.14272" lon="-1.51874">
        <ele>85</ele>
        <time>2020-05-29T15:27:30.000Z</time>
      </trkpt>
      <trkpt lat="47.14282" lon="-1.51863">
        <ele>84</ele>
        <time>2020-05-29T15:27:32.000Z</time>
      </trkpt>
      <trkpt lat="47.14292" lon="-1.51854">
        <ele>84</ele>
        <time>2020-05-29T15:27:34.000Z</time>
      </trkpt>
      <trkpt lat="47.14302" lon="-1.51843">
        <ele>84</ele>
        <time>2020-05-29T15:27:36.000Z</time>
      </trkpt>
      <trkpt lat="47.14311" lon="-1.51833">
        <ele>84</ele>
        <time>2020-05-29T15:27:38.000Z</time>
      </trkpt>
      <trkpt lat="47.1432" lon="-1.51822">
        <ele>84</ele>
        <time>2020-05-29T15:27:40.000Z</time>
      </trkpt>
      <trkpt lat="47.14331" lon="-1.51812">
        <ele>84</ele>
        <time>2020-05-29T15:27:42.000Z</time>
      </trkpt>
      <trkpt lat="47.1434" lon="-1.51801">
        <ele>84</ele>
        <time>2020-05-29T15:27:44.000Z</time>
      </trkpt>
      <trkpt lat="47.14351" lon="-1.5179">
        <ele>84</ele>
        <time>2020-05-29T15:27:46.000Z</time>
      </trkpt>
      <trkpt lat="47.14361" lon="-1.51781">
        <ele>84</ele>
        <time>2020-05-29T15:27:48.000Z</time>
      </trkpt>
      <trkpt lat="47.14371" lon="-1.51771">
        <ele>84</ele>
        <time>2020-05-29T15:27:50.000Z</time>
      </trkpt>
      <trkpt lat="47.14381" lon="-1.51761">
        <ele>84</ele>
        <time>2020-05-29T15:27:52.000Z</time>
      </trkpt>
      <trkpt lat="47.14391" lon="-1.5175">
        <ele>83</ele>
        <time>2020-05-29T15:27:54.000Z</time>
      </trkpt>
      <trkpt lat="47.14401" lon="-1.5174">
        <ele>83</ele>
        <time>2020-05-29T15:27:56.000Z</time>
      </trkpt>
      <trkpt lat="47.1441" lon="-1.5173">
        <ele>83</ele>
        <time>2020-05-29T15:27:58.000Z</time>
      </trkpt>
      <trkpt lat="47.1442" lon="-1.5172">
        <ele>83</ele>
        <time>2020-05-29T15:28:00.000Z</time>
      </trkpt>
      <trkpt lat="47.1443" lon="-1.5171">
        <ele>83</ele>
        <time>2020-05-29T15:28:02.000Z</time>
      </trkpt>
      <trkpt lat="47.1444" lon="-1.51699">
        <ele>83</ele>
        <time>2020-05-29T15:28:04.000Z</time>
      </trkpt>
      <trkpt lat="47.1445" lon="-1.51689">
        <ele>83</ele>
        <time>2020-05-29T15:28:06.000Z</time>
      </trkpt>
      <trkpt lat="47.14459" lon="-1.51679">
        <ele>82</ele>
        <time>2020-05-29T15:28:08.000Z</time>
      </trkpt>
      <trkpt lat="47.14469" lon="-1.5167">
        <ele>82</ele>
        <time>2020-05-29T15:28:10.000Z</time>
      </trkpt>
      <trkpt lat="47.14479" lon="-1.51659">
        <ele>82</ele>
        <time>2020-05-29T15:28:12.000Z</time>
      </trkpt>
      <trkpt lat="47.1449" lon="-1.51649">
        <ele>82</ele>
        <time>2020-05-29T15:28:14.000Z</time>
      </trkpt>
      <trkpt lat="47.145" lon="-1.51638">
        <ele>82</ele>
        <time>2020-05-29T15:28:16.000Z</time>
      </trkpt>
      <trkpt lat="47.14509" lon="-1.51628">
        <ele>82</ele>
        <time>2020-05-29T15:28:18.000Z</time>
      </trkpt>
      <trkpt lat="47.14519" lon="-1.51616">
        <ele>82</ele>
        <time>2020-05-29T15:28:20.000Z</time>
      </trkpt>
      <trkpt lat="47.14529" lon="-1.51606">
        <ele>82</ele>
        <time>2020-05-29T15:28:22.000Z</time>
      </trkpt>
      <trkpt lat="47.14538" lon="-1.51594">
        <ele>82</ele>
        <time>2020-05-29T15:28:24.000Z</time>
      </trkpt>
      <trkpt lat="47.14547" lon="-1.51583">
        <ele>81</ele>
        <time>2020-05-29T15:28:26.000Z</time>
      </trkpt>
      <trkpt lat="47.14556" lon="-1.5157">
        <ele>81</ele>
        <time>2020-05-29T15:28:28.000Z</time>
      </trkpt>
      <trkpt lat="47.14564" lon="-1.51558">
        <ele>82</ele>
        <time>2020-05-29T15:28:30.000Z</time>
      </trkpt>
      <trkpt lat="47.14572" lon="-1.51544">
        <ele>82</ele>
        <time>2020-05-29T15:28:32.000Z</time>
      </trkpt>
      <trkpt lat="47.1458" lon="-1.51531">
        <ele>82</ele>
        <time>2020-05-29T15:28:34.000Z</time>
      </trkpt>
      <trkpt lat="47.14587" lon="-1.51518">
        <ele>82</ele>
        <time>2020-05-29T15:28:36.000Z</time>
      </trkpt>
      <trkpt lat="47.14593" lon="-1.51505">
        <ele>82</ele>
        <time>2020-05-29T15:28:38.000Z</time>
      </trkpt>
      <trkpt lat="47.146" lon="-1.5149">
        <ele>83</ele>
        <time>2020-05-29T15:28:40.000Z</time>
      </trkpt>
      <trkpt lat="47.14607" lon="-1.51477">
        <ele>83</ele>
        <time>2020-05-29T15:28:42.000Z</time>
      </trkpt>
      <trkpt lat="47.14614" lon="-1.51464">
        <ele>83</ele>
        <time>2020-05-29T15:28:44.000Z</time>
      </trkpt>
      <trkpt lat="47.1462" lon="-1.51451">
        <ele>83</ele>
        <time>2020-05-29T15:28:46.000Z</time>
      </trkpt>
      <trkpt lat="47.14627" lon="-1.51437">
        <ele>82</ele>
        <time>2020-05-29T15:28:48.000Z</time>
      </trkpt>
      <trkpt lat="47.14634" lon="-1.51423">
        <ele>82</ele>
        <time>2020-05-29T15:28:50.000Z</time>
      </trkpt>
      <trkpt lat="47.14641" lon="-1.51409">
        <ele>82</ele>
        <time>2020-05-29T15:28:52.000Z</time>
      </trkpt>
      <trkpt lat="47.14649" lon="-1.51393">
        <ele>81</ele>
        <time>2020-05-29T15:28:54.000Z</time>
      </trkpt>
      <trkpt lat="47.14658" lon="-1.51376">
        <ele>81</ele>
        <time>2020-05-29T15:28:56.000Z</time>
      </trkpt>
      <trkpt lat="47.14666" lon="-1.51359">
        <ele>80</ele>
        <time>2020-05-29T15:28:58.000Z</time>
      </trkpt>
      <trkpt lat="47.14675" lon="-1.51342">
        <ele>79</ele>
        <time>2020-05-29T15:29:00.000Z</time>
      </trkpt>
      <trkpt lat="47.14684" lon="-1.51326">
        <ele>79</ele>
        <time>2020-05-29T15:29:02.000Z</time>
      </trkpt>
      <trkpt lat="47.14686" lon="-1.51309">
        <ele>79</ele>
        <time>2020-05-29T15:29:04.000Z</time>
      </trkpt>
      <trkpt lat="47.14676" lon="-1.513">
        <ele>79</ele>
        <time>2020-05-29T15:29:06.000Z</time>
      </trkpt>
      <trkpt lat="47.14662" lon="-1.513">
        <ele>78</ele>
        <time>2020-05-29T15:29:08.000Z</time>
      </trkpt>
      <trkpt lat="47.14649" lon="-1.51302">
        <ele>78</ele>
        <time>2020-05-29T15:29:10.000Z</time>
      </trkpt>
      <trkpt lat="47.14636" lon="-1.51305">
        <ele>77</ele>
        <time>2020-05-29T15:29:12.000Z</time>
      </trkpt>
      <trkpt lat="47.14623" lon="-1.51308">
        <ele>77</ele>
        <time>2020-05-29T15:29:14.000Z</time>
      </trkpt>
      <trkpt lat="47.14609" lon="-1.5131">
        <ele>77</ele>
        <time>2020-05-29T15:29:16.000Z</time>
      </trkpt>
      <trkpt lat="47.14594" lon="-1.51313">
        <ele>77</ele>
        <time>2020-05-29T15:29:18.000Z</time>
      </trkpt>
      <trkpt lat="47.1458" lon="-1.51314">
        <ele>77</ele>
        <time>2020-05-29T15:29:20.000Z</time>
      </trkpt>
      <trkpt lat="47.14566" lon="-1.51314">
        <ele>77</ele>
        <time>2020-05-29T15:29:22.000Z</time>
      </trkpt>
      <trkpt lat="47.14553" lon="-1.51313">
        <ele>77</ele>
        <time>2020-05-29T15:29:24.000Z</time>
      </trkpt>
      <trkpt lat="47.14538" lon="-1.51311">
        <ele>77</ele>
        <time>2020-05-29T15:29:26.000Z</time>
      </trkpt>
      <trkpt lat="47.14523" lon="-1.51311">
        <ele>77</ele>
        <time>2020-05-29T15:29:28.000Z</time>
      </trkpt>
      <trkpt lat="47.14508" lon="-1.5131">
        <ele>78</ele>
        <time>2020-05-29T15:29:30.000Z</time>
      </trkpt>
      <trkpt lat="47.14493" lon="-1.5131">
        <ele>78</ele>
        <time>2020-05-29T15:29:32.000Z</time>
      </trkpt>
      <trkpt lat="47.14478" lon="-1.51309">
        <ele>78</ele>
        <time>2020-05-29T15:29:34.000Z</time>
      </trkpt>
      <trkpt lat="47.14463" lon="-1.51306">
        <ele>79</ele>
        <time>2020-05-29T15:29:36.000Z</time>
      </trkpt>
      <trkpt lat="47.14449" lon="-1.513">
        <ele>79</ele>
        <time>2020-05-29T15:29:38.000Z</time>
      </trkpt>
      <trkpt lat="47.14436" lon="-1.5129">
        <ele>79</ele>
        <time>2020-05-29T15:29:40.000Z</time>
      </trkpt>
      <trkpt lat="47.14424" lon="-1.51276">
        <ele>79</ele>
        <time>2020-05-29T15:29:42.000Z</time>
      </trkpt>
      <trkpt lat="47.14413" lon="-1.5126">
        <ele>80</ele>
        <time>2020-05-29T15:29:44.000Z</time>
      </trkpt>
      <trkpt lat="47.14405" lon="-1.51241">
        <ele>80</ele>
        <time>2020-05-29T15:29:46.000Z</time>
      </trkpt>
      <trkpt lat="47.14398" lon="-1.51223">
        <ele>80</ele>
        <time>2020-05-29T15:29:48.000Z</time>
      </trkpt>
      <trkpt lat="47.1439" lon="-1.51203">
        <ele>80</ele>
        <time>2020-05-29T15:29:50.000Z</time>
      </trkpt>
      <trkpt lat="47.14382" lon="-1.51185">
        <ele>80</ele>
        <time>2020-05-29T15:29:52.000Z</time>
      </trkpt>
      <trkpt lat="47.14375" lon="-1.51166">
        <ele>80</ele>
        <time>2020-05-29T15:29:54.000Z</time>
      </trkpt>
      <trkpt lat="47.14367" lon="-1.51147">
        <ele>80</ele>
        <time>2020-05-29T15:29:56.000Z</time>
      </trkpt>
      <trkpt lat="47.1436" lon="-1.51128">
        <ele>79</ele>
        <time>2020-05-29T15:29:58.000Z</time>
      </trkpt>
      <trkpt lat="47.14352" lon="-1.51108">
        <ele>78</ele>
        <time>2020-05-29T15:30:00.000Z</time>
      </trkpt>
      <trkpt lat="47.14344" lon="-1.5109">
        <ele>78</ele>
        <time>2020-05-29T15:30:02.000Z</time>
      </trkpt>
      <trkpt lat="47.14337" lon="-1.5107">
        <ele>79</ele>
        <time>2020-05-29T15:30:04.000Z</time>
      </trkpt>
      <trkpt lat="47.1433" lon="-1.51052">
        <ele>78</ele>
        <time>2020-05-29T15:30:06.000Z</time>
      </trkpt>
      <trkpt lat="47.14323" lon="-1.51032">
        <ele>79</ele>
        <time>2020-05-29T15:30:08.000Z</time>
      </trkpt>
      <trkpt lat="47.14316" lon="-1.51012">
        <ele>79</ele>
        <time>2020-05-29T15:30:10.000Z</time>
      </trkpt>
      <trkpt lat="47.1431" lon="-1.50993">
        <ele>79</ele>
        <time>2020-05-29T15:30:12.000Z</time>
      </trkpt>
      <trkpt lat="47.14303" lon="-1.50973">
        <ele>79</ele>
        <time>2020-05-29T15:30:14.000Z</time>
      </trkpt>
      <trkpt lat="47.14297" lon="-1.50954">
        <ele>79</ele>
        <time>2020-05-29T15:30:16.000Z</time>
      </trkpt>
      <trkpt lat="47.14292" lon="-1.50934">
        <ele>80</ele>
        <time>2020-05-29T15:30:18.000Z</time>
      </trkpt>
      <trkpt lat="47.14286" lon="-1.50913">
        <ele>80</ele>
        <time>2020-05-29T15:30:20.000Z</time>
      </trkpt>
      <trkpt lat="47.14281" lon="-1.50893">
        <ele>80</ele>
        <time>2020-05-29T15:30:22.000Z</time>
      </trkpt>
      <trkpt lat="47.14275" lon="-1.50872">
        <ele>80</ele>
        <time>2020-05-29T15:30:24.000Z</time>
      </trkpt>
      <trkpt lat="47.1427" lon="-1.50852">
        <ele>80</ele>
        <time>2020-05-29T15:30:26.000Z</time>
      </trkpt>
      <trkpt lat="47.14264" lon="-1.50832">
        <ele>80</ele>
        <time>2020-05-29T15:30:28.000Z</time>
      </trkpt>
      <trkpt lat="47.14259" lon="-1.50813">
        <ele>80</ele>
        <time>2020-05-29T15:30:30.000Z</time>
      </trkpt>
      <trkpt lat="47.14253" lon="-1.50793">
        <ele>80</ele>
        <time>2020-05-29T15:30:32.000Z</time>
      </trkpt>
      <trkpt lat="47.14248" lon="-1.50774">
        <ele>80</ele>
        <time>2020-05-29T15:30:34.000Z</time>
      </trkpt>
      <trkpt lat="47.14243" lon="-1.50755">
        <ele>80</ele>
        <time>2020-05-29T15:30:36.000Z</time>
      </trkpt>
      <trkpt lat="47.14239" lon="-1.50736">
        <ele>81</ele>
        <time>2020-05-29T15:30:38.000Z</time>
      </trkpt>
      <trkpt lat="47.14234" lon="-1.50716">
        <ele>81</ele>
        <time>2020-05-29T15:30:40.000Z</time>
      </trkpt>
      <trkpt lat="47.1423" lon="-1.50696">
        <ele>81</ele>
        <time>2020-05-29T15:30:42.000Z</time>
      </trkpt>
      <trkpt lat="47.14226" lon="-1.50677">
        <ele>81</ele>
        <time>2020-05-29T15:30:44.000Z</time>
      </trkpt>
      <trkpt lat="47.14222" lon="-1.50657">
        <ele>81</ele>
        <time>2020-05-29T15:30:46.000Z</time>
      </trkpt>
      <trkpt lat="47.14219" lon="-1.50636">
        <ele>81</ele>
        <time>2020-05-29T15:30:48.000Z</time>
      </trkpt>
      <trkpt lat="47.14215" lon="-1.50617">
        <ele>81</ele>
        <time>2020-05-29T15:30:50.000Z</time>
      </trkpt>
      <trkpt lat="47.14211" lon="-1.50597">
        <ele>81</ele>
        <time>2020-05-29T15:30:52.000Z</time>
      </trkpt>
      <trkpt lat="47.14207" lon="-1.50577">
        <ele>82</ele>
        <time>2020-05-29T15:30:54.000Z</time>
      </trkpt>
      <trkpt lat="47.14204" lon="-1.50559">
        <ele>82</ele>
        <time>2020-05-29T15:30:56.000Z</time>
      </trkpt>
      <trkpt lat="47.142" lon="-1.5054">
        <ele>82</ele>
        <time>2020-05-29T15:30:58.000Z</time>
      </trkpt>
      <trkpt lat="47.14196" lon="-1.50521">
        <ele>82</ele>
        <time>2020-05-29T15:31:00.000Z</time>
      </trkpt>
      <trkpt lat="47.14191" lon="-1.50502">
        <ele>82</ele>
        <time>2020-05-29T15:31:02.000Z</time>
      </trkpt>
      <trkpt lat="47.14187" lon="-1.50482">
        <ele>82</ele>
        <time>2020-05-29T15:31:04.000Z</time>
      </trkpt>
      <trkpt lat="47.14183" lon="-1.50463">
        <ele>82</ele>
        <time>2020-05-29T15:31:06.000Z</time>
      </trkpt>
      <trkpt lat="47.1418" lon="-1.50444">
        <ele>82</ele>
        <time>2020-05-29T15:31:08.000Z</time>
      </trkpt>
      <trkpt lat="47.14176" lon="-1.50424">
        <ele>82</ele>
        <time>2020-05-29T15:31:10.000Z</time>
      </trkpt>
      <trkpt lat="47.14172" lon="-1.50405">
        <ele>82</ele>
        <time>2020-05-29T15:31:12.000Z</time>
      </trkpt>
      <trkpt lat="47.14168" lon="-1.50386">
        <ele>82</ele>
        <time>2020-05-29T15:31:14.000Z</time>
      </trkpt>
      <trkpt lat="47.14165" lon="-1.50366">
        <ele>82</ele>
        <time>2020-05-29T15:31:16.000Z</time>
      </trkpt>
      <trkpt lat="47.14162" lon="-1.50347">
        <ele>82</ele>
        <time>2020-05-29T15:31:18.000Z</time>
      </trkpt>
      <trkpt lat="47.14161" lon="-1.5033">
        <ele>83</ele>
        <time>2020-05-29T15:31:20.000Z</time>
      </trkpt>
      <trkpt lat="47.1416" lon="-1.50311">
        <ele>83</ele>
        <time>2020-05-29T15:31:22.000Z</time>
      </trkpt>
      <trkpt lat="47.14159" lon="-1.50292">
        <ele>82</ele>
        <time>2020-05-29T15:31:24.000Z</time>
      </trkpt>
      <trkpt lat="47.14158" lon="-1.50273">
        <ele>82</ele>
        <time>2020-05-29T15:31:26.000Z</time>
      </trkpt>
      <trkpt lat="47.14157" lon="-1.50253">
        <ele>82</ele>
        <time>2020-05-29T15:31:28.000Z</time>
      </trkpt>
      <trkpt lat="47.14156" lon="-1.50233">
        <ele>82</ele>
        <time>2020-05-29T15:31:30.000Z</time>
      </trkpt>
      <trkpt lat="47.14154" lon="-1.50214">
        <ele>82</ele>
        <time>2020-05-29T15:31:32.000Z</time>
      </trkpt>
      <trkpt lat="47.14153" lon="-1.50194">
        <ele>81</ele>
        <time>2020-05-29T15:31:34.000Z</time>
      </trkpt>
      <trkpt lat="47.14151" lon="-1.50176">
        <ele>82</ele>
        <time>2020-05-29T15:31:36.000Z</time>
      </trkpt>
      <trkpt lat="47.14148" lon="-1.50158">
        <ele>82</ele>
        <time>2020-05-29T15:31:38.000Z</time>
      </trkpt>
      <trkpt lat="47.14145" lon="-1.50141">
        <ele>82</ele>
        <time>2020-05-29T15:31:40.000Z</time>
      </trkpt>
      <trkpt lat="47.14142" lon="-1.50124">
        <ele>82</ele>
        <time>2020-05-29T15:31:42.000Z</time>
      </trkpt>
      <trkpt lat="47.14139" lon="-1.50105">
        <ele>82</ele>
        <time>2020-05-29T15:31:44.000Z</time>
      </trkpt>
      <trkpt lat="47.14135" lon="-1.50087">
        <ele>82</ele>
        <time>2020-05-29T15:31:46.000Z</time>
      </trkpt>
      <trkpt lat="47.14132" lon="-1.50069">
        <ele>82</ele>
        <time>2020-05-29T15:31:48.000Z</time>
      </trkpt>
      <trkpt lat="47.14129" lon="-1.50051">
        <ele>83</ele>
        <time>2020-05-29T15:31:50.000Z</time>
      </trkpt>
      <trkpt lat="47.14126" lon="-1.50034">
        <ele>84</ele>
        <time>2020-05-29T15:31:52.000Z</time>
      </trkpt>
      <trkpt lat="47.14123" lon="-1.50016">
        <ele>84</ele>
        <time>2020-05-29T15:31:54.000Z</time>
      </trkpt>
      <trkpt lat="47.1412" lon="-1.49998">
        <ele>84</ele>
        <time>2020-05-29T15:31:56.000Z</time>
      </trkpt>
      <trkpt lat="47.14117" lon="-1.4998">
        <ele>84</ele>
        <time>2020-05-29T15:31:58.000Z</time>
      </trkpt>
      <trkpt lat="47.14113" lon="-1.49962">
        <ele>84</ele>
        <time>2020-05-29T15:32:00.000Z</time>
      </trkpt>
      <trkpt lat="47.1411" lon="-1.49944">
        <ele>84</ele>
        <time>2020-05-29T15:32:02.000Z</time>
      </trkpt>
      <trkpt lat="47.14107" lon="-1.49925">
        <ele>84</ele>
        <time>2020-05-29T15:32:04.000Z</time>
      </trkpt>
      <trkpt lat="47.14103" lon="-1.49906">
        <ele>84</ele>
        <time>2020-05-29T15:32:06.000Z</time>
      </trkpt>
      <trkpt lat="47.14101" lon="-1.49886">
        <ele>84</ele>
        <time>2020-05-29T15:32:08.000Z</time>
      </trkpt>
      <trkpt lat="47.14098" lon="-1.49867">
        <ele>84</ele>
        <time>2020-05-29T15:32:10.000Z</time>
      </trkpt>
      <trkpt lat="47.14096" lon="-1.49848">
        <ele>84</ele>
        <time>2020-05-29T15:32:12.000Z</time>
      </trkpt>
      <trkpt lat="47.14095" lon="-1.49829">
        <ele>84</ele>
        <time>2020-05-29T15:32:14.000Z</time>
      </trkpt>
      <trkpt lat="47.14094" lon="-1.49811">
        <ele>84</ele>
        <time>2020-05-29T15:32:16.000Z</time>
      </trkpt>
      <trkpt lat="47.14094" lon="-1.49792">
        <ele>85</ele>
        <time>2020-05-29T15:32:18.000Z</time>
      </trkpt>
      <trkpt lat="47.14094" lon="-1.49774">
        <ele>85</ele>
        <time>2020-05-29T15:32:20.000Z</time>
      </trkpt>
      <trkpt lat="47.14094" lon="-1.49756">
        <ele>85</ele>
        <time>2020-05-29T15:32:22.000Z</time>
      </trkpt>
      <trkpt lat="47.14094" lon="-1.49737">
        <ele>85</ele>
        <time>2020-05-29T15:32:24.000Z</time>
      </trkpt>
      <trkpt lat="47.14094" lon="-1.49719">
        <ele>85</ele>
        <time>2020-05-29T15:32:26.000Z</time>
      </trkpt>
      <trkpt lat="47.14094" lon="-1.497">
        <ele>85</ele>
        <time>2020-05-29T15:32:28.000Z</time>
      </trkpt>
      <trkpt lat="47.14094" lon="-1.49682">
        <ele>86</ele>
        <time>2020-05-29T15:32:30.000Z</time>
      </trkpt>
      <trkpt lat="47.14094" lon="-1.49664">
        <ele>86</ele>
        <time>2020-05-29T15:32:32.000Z</time>
      </trkpt>
      <trkpt lat="47.14094" lon="-1.49647">
        <ele>86</ele>
        <time>2020-05-29T15:32:34.000Z</time>
      </trkpt>
      <trkpt lat="47.14093" lon="-1.4963">
        <ele>86</ele>
        <time>2020-05-29T15:32:36.000Z</time>
      </trkpt>
      <trkpt lat="47.14093" lon="-1.49612">
        <ele>87</ele>
        <time>2020-05-29T15:32:38.000Z</time>
      </trkpt>
      <trkpt lat="47.14094" lon="-1.49594">
        <ele>87</ele>
        <time>2020-05-29T15:32:40.000Z</time>
      </trkpt>
      <trkpt lat="47.14094" lon="-1.49577">
        <ele>88</ele>
        <time>2020-05-29T15:32:42.000Z</time>
      </trkpt>
      <trkpt lat="47.14094" lon="-1.49558">
        <ele>88</ele>
        <time>2020-05-29T15:32:44.000Z</time>
      </trkpt>
      <trkpt lat="47.14094" lon="-1.4954">
        <ele>89</ele>
        <time>2020-05-29T15:32:46.000Z</time>
      </trkpt>
      <trkpt lat="47.14094" lon="-1.49522">
        <ele>89</ele>
        <time>2020-05-29T15:32:48.000Z</time>
      </trkpt>
      <trkpt lat="47.14095" lon="-1.49505">
        <ele>89</ele>
        <time>2020-05-29T15:32:50.000Z</time>
      </trkpt>
      <trkpt lat="47.14094" lon="-1.49487">
        <ele>89</ele>
        <time>2020-05-29T15:32:52.000Z</time>
      </trkpt>
      <trkpt lat="47.14094" lon="-1.49469">
        <ele>89</ele>
        <time>2020-05-29T15:32:54.000Z</time>
      </trkpt>
      <trkpt lat="47.14094" lon="-1.49451">
        <ele>89</ele>
        <time>2020-05-29T15:32:56.000Z</time>
      </trkpt>
      <trkpt lat="47.14094" lon="-1.49432">
        <ele>89</ele>
        <time>2020-05-29T15:32:58.000Z</time>
      </trkpt>
      <trkpt lat="47.14093" lon="-1.49414">
        <ele>89</ele>
        <time>2020-05-29T15:33:00.000Z</time>
      </trkpt>
      <trkpt lat="47.14094" lon="-1.49395">
        <ele>89</ele>
        <time>2020-05-29T15:33:02.000Z</time>
      </trkpt>
      <trkpt lat="47.14094" lon="-1.49377">
        <ele>89</ele>
        <time>2020-05-29T15:33:04.000Z</time>
      </trkpt>
      <trkpt lat="47.14095" lon="-1.49359">
        <ele>89</ele>
        <time>2020-05-29T15:33:06.000Z</time>
      </trkpt>
      <trkpt lat="47.14095" lon="-1.49341">
        <ele>89</ele>
        <time>2020-05-29T15:33:08.000Z</time>
      </trkpt>
      <trkpt lat="47.14095" lon="-1.49321">
        <ele>89</ele>
        <time>2020-05-29T15:33:10.000Z</time>
      </trkpt>
      <trkpt lat="47.14095" lon="-1.49303">
        <ele>89</ele>
        <time>2020-05-29T15:33:12.000Z</time>
      </trkpt>
      <trkpt lat="47.14096" lon="-1.49283">
        <ele>89</ele>
        <time>2020-05-29T15:33:14.000Z</time>
      </trkpt>
      <trkpt lat="47.14096" lon="-1.49264">
        <ele>89</ele>
        <time>2020-05-29T15:33:16.000Z</time>
      </trkpt>
      <trkpt lat="47.14096" lon="-1.49246">
        <ele>88</ele>
        <time>2020-05-29T15:33:18.000Z</time>
      </trkpt>
      <trkpt lat="47.14096" lon="-1.49228">
        <ele>89</ele>
        <time>2020-05-29T15:33:20.000Z</time>
      </trkpt>
      <trkpt lat="47.14096" lon="-1.4921">
        <ele>89</ele>
        <time>2020-05-29T15:33:22.000Z</time>
      </trkpt>
      <trkpt lat="47.14095" lon="-1.49192">
        <ele>89</ele>
        <time>2020-05-29T15:33:24.000Z</time>
      </trkpt>
      <trkpt lat="47.14095" lon="-1.49173">
        <ele>89</ele>
        <time>2020-05-29T15:33:26.000Z</time>
      </trkpt>
      <trkpt lat="47.14096" lon="-1.49154">
        <ele>89</ele>
        <time>2020-05-29T15:33:28.000Z</time>
      </trkpt>
      <trkpt lat="47.14096" lon="-1.49134">
        <ele>89</ele>
        <time>2020-05-29T15:33:30.000Z</time>
      </trkpt>
      <trkpt lat="47.14097" lon="-1.49114">
        <ele>89</ele>
        <time>2020-05-29T15:33:32.000Z</time>
      </trkpt>
      <trkpt lat="47.14096" lon="-1.49094">
        <ele>89</ele>
        <time>2020-05-29T15:33:34.000Z</time>
      </trkpt>
      <trkpt lat="47.14096" lon="-1.49076">
        <ele>89</ele>
        <time>2020-05-29T15:33:36.000Z</time>
      </trkpt>
      <trkpt lat="47.14096" lon="-1.49057">
        <ele>90</ele>
        <time>2020-05-29T15:33:38.000Z</time>
      </trkpt>
      <trkpt lat="47.14094" lon="-1.49039">
        <ele>89</ele>
        <time>2020-05-29T15:33:40.000Z</time>
      </trkpt>
      <trkpt lat="47.14092" lon="-1.49022">
        <ele>90</ele>
        <time>2020-05-29T15:33:42.000Z</time>
      </trkpt>
      <trkpt lat="47.14089" lon="-1.49005">
        <ele>90</ele>
        <time>2020-05-29T15:33:44.000Z</time>
      </trkpt>
      <trkpt lat="47.14085" lon="-1.48987">
        <ele>90</ele>
        <time>2020-05-29T15:33:46.000Z</time>
      </trkpt>
      <trkpt lat="47.14081" lon="-1.4897">
        <ele>91</ele>
        <time>2020-05-29T15:33:48.000Z</time>
      </trkpt>
      <trkpt lat="47.14077" lon="-1.48952">
        <ele>91</ele>
        <time>2020-05-29T15:33:50.000Z</time>
      </trkpt>
      <trkpt lat="47.14074" lon="-1.48935">
        <ele>91</ele>
        <time>2020-05-29T15:33:52.000Z</time>
      </trkpt>
      <trkpt lat="47.1407" lon="-1.48919">
        <ele>91</ele>
        <time>2020-05-29T15:33:54.000Z</time>
      </trkpt>
      <trkpt lat="47.14067" lon="-1.48902">
        <ele>91</ele>
        <time>2020-05-29T15:33:56.000Z</time>
      </trkpt>
      <trkpt lat="47.14063" lon="-1.48885">
        <ele>91</ele>
        <time>2020-05-29T15:33:58.000Z</time>
      </trkpt>
      <trkpt lat="47.14059" lon="-1.48868">
        <ele>91</ele>
        <time>2020-05-29T15:34:00.000Z</time>
      </trkpt>
      <trkpt lat="47.14056" lon="-1.48852">
        <ele>91</ele>
        <time>2020-05-29T15:34:02.000Z</time>
      </trkpt>
      <trkpt lat="47.14052" lon="-1.48835">
        <ele>92</ele>
        <time>2020-05-29T15:34:04.000Z</time>
      </trkpt>
      <trkpt lat="47.14048" lon="-1.48818">
        <ele>92</ele>
        <time>2020-05-29T15:34:06.000Z</time>
      </trkpt>
      <trkpt lat="47.14045" lon="-1.488">
        <ele>92</ele>
        <time>2020-05-29T15:34:08.000Z</time>
      </trkpt>
      <trkpt lat="47.14042" lon="-1.48782">
        <ele>93</ele>
        <time>2020-05-29T15:34:10.000Z</time>
      </trkpt>
      <trkpt lat="47.14039" lon="-1.48764">
        <ele>93</ele>
        <time>2020-05-29T15:34:12.000Z</time>
      </trkpt>
      <trkpt lat="47.14036" lon="-1.48747">
        <ele>93</ele>
        <time>2020-05-29T15:34:14.000Z</time>
      </trkpt>
      <trkpt lat="47.14033" lon="-1.48728">
        <ele>93</ele>
        <time>2020-05-29T15:34:16.000Z</time>
      </trkpt>
      <trkpt lat="47.1403" lon="-1.4871">
        <ele>92</ele>
        <time>2020-05-29T15:34:18.000Z</time>
      </trkpt>
      <trkpt lat="47.14028" lon="-1.48692">
        <ele>92</ele>
        <time>2020-05-29T15:34:20.000Z</time>
      </trkpt>
      <trkpt lat="47.14025" lon="-1.48675">
        <ele>92</ele>
        <time>2020-05-29T15:34:22.000Z</time>
      </trkpt>
      <trkpt lat="47.14022" lon="-1.48659">
        <ele>92</ele>
        <time>2020-05-29T15:34:24.000Z</time>
      </trkpt>
      <trkpt lat="47.14019" lon="-1.48642">
        <ele>93</ele>
        <time>2020-05-29T15:34:26.000Z</time>
      </trkpt>
      <trkpt lat="47.14017" lon="-1.48622">
        <ele>93</ele>
        <time>2020-05-29T15:34:28.000Z</time>
      </trkpt>
      <trkpt lat="47.14015" lon="-1.48603">
        <ele>92</ele>
        <time>2020-05-29T15:34:30.000Z</time>
      </trkpt>
      <trkpt lat="47.14012" lon="-1.48583">
        <ele>92</ele>
        <time>2020-05-29T15:34:32.000Z</time>
      </trkpt>
      <trkpt lat="47.14009" lon="-1.48564">
        <ele>93</ele>
        <time>2020-05-29T15:34:34.000Z</time>
      </trkpt>
      <trkpt lat="47.14006" lon="-1.48547">
        <ele>93</ele>
        <time>2020-05-29T15:34:36.000Z</time>
      </trkpt>
      <trkpt lat="47.14003" lon="-1.48528">
        <ele>93</ele>
        <time>2020-05-29T15:34:38.000Z</time>
      </trkpt>
      <trkpt lat="47.14" lon="-1.4851">
        <ele>93</ele>
        <time>2020-05-29T15:34:40.000Z</time>
      </trkpt>
      <trkpt lat="47.13997" lon="-1.48492">
        <ele>92</ele>
        <time>2020-05-29T15:34:42.000Z</time>
      </trkpt>
      <trkpt lat="47.13995" lon="-1.48474">
        <ele>93</ele>
        <time>2020-05-29T15:34:44.000Z</time>
      </trkpt>
      <trkpt lat="47.13993" lon="-1.48456">
        <ele>93</ele>
        <time>2020-05-29T15:34:46.000Z</time>
      </trkpt>
      <trkpt lat="47.13991" lon="-1.48437">
        <ele>93</ele>
        <time>2020-05-29T15:34:48.000Z</time>
      </trkpt>
      <trkpt lat="47.1399" lon="-1.48418">
        <ele>93</ele>
        <time>2020-05-29T15:34:50.000Z</time>
      </trkpt>
      <trkpt lat="47.13989" lon="-1.48401">
        <ele>93</ele>
        <time>2020-05-29T15:34:52.000Z</time>
      </trkpt>
      <trkpt lat="47.13988" lon="-1.48383">
        <ele>93</ele>
        <time>2020-05-29T15:34:54.000Z</time>
      </trkpt>
      <trkpt lat="47.13988" lon="-1.48364">
        <ele>93</ele>
        <time>2020-05-29T15:34:56.000Z</time>
      </trkpt>
      <trkpt lat="47.13987" lon="-1.48346">
        <ele>93</ele>
        <time>2020-05-29T15:34:58.000Z</time>
      </trkpt>
      <trkpt lat="47.13987" lon="-1.48328">
        <ele>92</ele>
        <time>2020-05-29T15:35:00.000Z</time>
      </trkpt>
      <trkpt lat="47.13986" lon="-1.4831">
        <ele>92</ele>
        <time>2020-05-29T15:35:02.000Z</time>
      </trkpt>
      <trkpt lat="47.13986" lon="-1.48293">
        <ele>92</ele>
        <time>2020-05-29T15:35:04.000Z</time>
      </trkpt>
      <trkpt lat="47.13986" lon="-1.48274">
        <ele>92</ele>
        <time>2020-05-29T15:35:06.000Z</time>
      </trkpt>
      <trkpt lat="47.13985" lon="-1.48255">
        <ele>92</ele>
        <time>2020-05-29T15:35:08.000Z</time>
      </trkpt>
      <trkpt lat="47.13984" lon="-1.48236">
        <ele>92</ele>
        <time>2020-05-29T15:35:10.000Z</time>
      </trkpt>
      <trkpt lat="47.13984" lon="-1.48218">
        <ele>92</ele>
        <time>2020-05-29T15:35:12.000Z</time>
      </trkpt>
      <trkpt lat="47.13983" lon="-1.48199">
        <ele>92</ele>
        <time>2020-05-29T15:35:14.000Z</time>
      </trkpt>
      <trkpt lat="47.13982" lon="-1.48181">
        <ele>92</ele>
        <time>2020-05-29T15:35:16.000Z</time>
      </trkpt>
      <trkpt lat="47.13982" lon="-1.48162">
        <ele>92</ele>
        <time>2020-05-29T15:35:18.000Z</time>
      </trkpt>
      <trkpt lat="47.13981" lon="-1.48143">
        <ele>92</ele>
        <time>2020-05-29T15:35:20.000Z</time>
      </trkpt>
      <trkpt lat="47.13981" lon="-1.48125">
        <ele>92</ele>
        <time>2020-05-29T15:35:22.000Z</time>
      </trkpt>
      <trkpt lat="47.1398" lon="-1.48107">
        <ele>92</ele>
        <time>2020-05-29T15:35:24.000Z</time>
      </trkpt>
      <trkpt lat="47.13979" lon="-1.48089">
        <ele>91</ele>
        <time>2020-05-29T15:35:26.000Z</time>
      </trkpt>
      <trkpt lat="47.13979" lon="-1.4807">
        <ele>91</ele>
        <time>2020-05-29T15:35:28.000Z</time>
      </trkpt>
      <trkpt lat="47.13978" lon="-1.48052">
        <ele>92</ele>
        <time>2020-05-29T15:35:30.000Z</time>
      </trkpt>
      <trkpt lat="47.13978" lon="-1.48032">
        <ele>92</ele>
        <time>2020-05-29T15:35:32.000Z</time>
      </trkpt>
      <trkpt lat="47.13977" lon="-1.48013">
        <ele>92</ele>
        <time>2020-05-29T15:35:34.000Z</time>
      </trkpt>
      <trkpt lat="47.13976" lon="-1.47993">
        <ele>92</ele>
        <time>2020-05-29T15:35:36.000Z</time>
      </trkpt>
      <trkpt lat="47.13975" lon="-1.47975">
        <ele>92</ele>
        <time>2020-05-29T15:35:38.000Z</time>
      </trkpt>
      <trkpt lat="47.13973" lon="-1.47957">
        <ele>92</ele>
        <time>2020-05-29T15:35:40.000Z</time>
      </trkpt>
      <trkpt lat="47.1397" lon="-1.47939">
        <ele>92</ele>
        <time>2020-05-29T15:35:42.000Z</time>
      </trkpt>
      <trkpt lat="47.13966" lon="-1.47922">
        <ele>92</ele>
        <time>2020-05-29T15:35:44.000Z</time>
      </trkpt>
      <trkpt lat="47.13962" lon="-1.47906">
        <ele>92</ele>
        <time>2020-05-29T15:35:46.000Z</time>
      </trkpt>
      <trkpt lat="47.13958" lon="-1.47891">
        <ele>92</ele>
        <time>2020-05-29T15:35:48.000Z</time>
      </trkpt>
      <trkpt lat="47.13954" lon="-1.47875">
        <ele>93</ele>
        <time>2020-05-29T15:35:50.000Z</time>
      </trkpt>
      <trkpt lat="47.13949" lon="-1.47859">
        <ele>93</ele>
        <time>2020-05-29T15:35:52.000Z</time>
      </trkpt>
      <trkpt lat="47.13945" lon="-1.47843">
        <ele>94</ele>
        <time>2020-05-29T15:35:54.000Z</time>
      </trkpt>
      <trkpt lat="47.13941" lon="-1.47828">
        <ele>94</ele>
        <time>2020-05-29T15:35:56.000Z</time>
      </trkpt>
      <trkpt lat="47.13936" lon="-1.47811">
        <ele>94</ele>
        <time>2020-05-29T15:35:58.000Z</time>
      </trkpt>
      <trkpt lat="47.13932" lon="-1.47795">
        <ele>94</ele>
        <time>2020-05-29T15:36:00.000Z</time>
      </trkpt>
      <trkpt lat="47.13927" lon="-1.47778">
        <ele>94</ele>
        <time>2020-05-29T15:36:02.000Z</time>
      </trkpt>
      <trkpt lat="47.13922" lon="-1.47761">
        <ele>94</ele>
        <time>2020-05-29T15:36:04.000Z</time>
      </trkpt>
      <trkpt lat="47.13918" lon="-1.47745">
        <ele>94</ele>
        <time>2020-05-29T15:36:06.000Z</time>
      </trkpt>
      <trkpt lat="47.13913" lon="-1.47728">
        <ele>95</ele>
        <time>2020-05-29T15:36:08.000Z</time>
      </trkpt>
      <trkpt lat="47.13909" lon="-1.47711">
        <ele>95</ele>
        <time>2020-05-29T15:36:10.000Z</time>
      </trkpt>
      <trkpt lat="47.13904" lon="-1.47694">
        <ele>95</ele>
        <time>2020-05-29T15:36:12.000Z</time>
      </trkpt>
      <trkpt lat="47.139" lon="-1.47678">
        <ele>95</ele>
        <time>2020-05-29T15:36:14.000Z</time>
      </trkpt>
      <trkpt lat="47.13895" lon="-1.47662">
        <ele>95</ele>
        <time>2020-05-29T15:36:16.000Z</time>
      </trkpt>
      <trkpt lat="47.13891" lon="-1.47645">
        <ele>95</ele>
        <time>2020-05-29T15:36:18.000Z</time>
      </trkpt>
      <trkpt lat="47.13886" lon="-1.47629">
        <ele>96</ele>
        <time>2020-05-29T15:36:20.000Z</time>
      </trkpt>
      <trkpt lat="47.13881" lon="-1.47613">
        <ele>96</ele>
        <time>2020-05-29T15:36:22.000Z</time>
      </trkpt>
      <trkpt lat="47.13876" lon="-1.47597">
        <ele>96</ele>
        <time>2020-05-29T15:36:24.000Z</time>
      </trkpt>
      <trkpt lat="47.13871" lon="-1.4758">
        <ele>96</ele>
        <time>2020-05-29T15:36:26.000Z</time>
      </trkpt>
      <trkpt lat="47.13867" lon="-1.47564">
        <ele>96</ele>
        <time>2020-05-29T15:36:28.000Z</time>
      </trkpt>
      <trkpt lat="47.13863" lon="-1.47547">
        <ele>96</ele>
        <time>2020-05-29T15:36:30.000Z</time>
      </trkpt>
      <trkpt lat="47.13859" lon="-1.4753">
        <ele>96</ele>
        <time>2020-05-29T15:36:32.000Z</time>
      </trkpt>
      <trkpt lat="47.13854" lon="-1.47513">
        <ele>96</ele>
        <time>2020-05-29T15:36:34.000Z</time>
      </trkpt>
      <trkpt lat="47.1385" lon="-1.47496">
        <ele>96</ele>
        <time>2020-05-29T15:36:36.000Z</time>
      </trkpt>
      <trkpt lat="47.13845" lon="-1.47478">
        <ele>95</ele>
        <time>2020-05-29T15:36:38.000Z</time>
      </trkpt>
      <trkpt lat="47.13841" lon="-1.47461">
        <ele>95</ele>
        <time>2020-05-29T15:36:40.000Z</time>
      </trkpt>
      <trkpt lat="47.13836" lon="-1.47444">
        <ele>95</ele>
        <time>2020-05-29T15:36:42.000Z</time>
      </trkpt>
      <trkpt lat="47.13831" lon="-1.47427">
        <ele>95</ele>
        <time>2020-05-29T15:36:44.000Z</time>
      </trkpt>
      <trkpt lat="47.13826" lon="-1.47409">
        <ele>94</ele>
        <time>2020-05-29T15:36:46.000Z</time>
      </trkpt>
      <trkpt lat="47.13821" lon="-1.47392">
        <ele>94</ele>
        <time>2020-05-29T15:36:48.000Z</time>
      </trkpt>
      <trkpt lat="47.13817" lon="-1.47375">
        <ele>94</ele>
        <time>2020-05-29T15:36:50.000Z</time>
      </trkpt>
      <trkpt lat="47.13812" lon="-1.47356">
        <ele>94</ele>
        <time>2020-05-29T15:36:52.000Z</time>
      </trkpt>
      <trkpt lat="47.13807" lon="-1.47339">
        <ele>94</ele>
        <time>2020-05-29T15:36:54.000Z</time>
      </trkpt>
      <trkpt lat="47.13802" lon="-1.47321">
        <ele>94</ele>
        <time>2020-05-29T15:36:56.000Z</time>
      </trkpt>
      <trkpt lat="47.13797" lon="-1.47303">
        <ele>94</ele>
        <time>2020-05-29T15:36:58.000Z</time>
      </trkpt>
      <trkpt lat="47.13792" lon="-1.47284">
        <ele>93</ele>
        <time>2020-05-29T15:37:00.000Z</time>
      </trkpt>
      <trkpt lat="47.13787" lon="-1.47265">
        <ele>93</ele>
        <time>2020-05-29T15:37:02.000Z</time>
      </trkpt>
      <trkpt lat="47.13783" lon="-1.47245">
        <ele>93</ele>
        <time>2020-05-29T15:37:04.000Z</time>
      </trkpt>
      <trkpt lat="47.13778" lon="-1.47226">
        <ele>93</ele>
        <time>2020-05-29T15:37:06.000Z</time>
      </trkpt>
      <trkpt lat="47.13775" lon="-1.47207">
        <ele>93</ele>
        <time>2020-05-29T15:37:08.000Z</time>
      </trkpt>
      <trkpt lat="47.13775" lon="-1.47187">
        <ele>93</ele>
        <time>2020-05-29T15:37:10.000Z</time>
      </trkpt>
      <trkpt lat="47.13774" lon="-1.47168">
        <ele>93</ele>
        <time>2020-05-29T15:37:12.000Z</time>
      </trkpt>
      <trkpt lat="47.13774" lon="-1.47149">
        <ele>93</ele>
        <time>2020-05-29T15:37:14.000Z</time>
      </trkpt>
      <trkpt lat="47.13775" lon="-1.4713">
        <ele>93</ele>
        <time>2020-05-29T15:37:16.000Z</time>
      </trkpt>
      <trkpt lat="47.13777" lon="-1.47112">
        <ele>94</ele>
        <time>2020-05-29T15:37:18.000Z</time>
      </trkpt>
      <trkpt lat="47.13778" lon="-1.47093">
        <ele>93</ele>
        <time>2020-05-29T15:37:20.000Z</time>
      </trkpt>
      <trkpt lat="47.13779" lon="-1.47075">
        <ele>93</ele>
        <time>2020-05-29T15:37:22.000Z</time>
      </trkpt>
      <trkpt lat="47.1378" lon="-1.47056">
        <ele>93</ele>
        <time>2020-05-29T15:37:24.000Z</time>
      </trkpt>
      <trkpt lat="47.1378" lon="-1.47039">
        <ele>93</ele>
        <time>2020-05-29T15:37:26.000Z</time>
      </trkpt>
      <trkpt lat="47.1378" lon="-1.47021">
        <ele>93</ele>
        <time>2020-05-29T15:37:28.000Z</time>
      </trkpt>
      <trkpt lat="47.13779" lon="-1.47004">
        <ele>93</ele>
        <time>2020-05-29T15:37:30.000Z</time>
      </trkpt>
      <trkpt lat="47.13778" lon="-1.46987">
        <ele>93</ele>
        <time>2020-05-29T15:37:32.000Z</time>
      </trkpt>
      <trkpt lat="47.13777" lon="-1.46969">
        <ele>93</ele>
        <time>2020-05-29T15:37:34.000Z</time>
      </trkpt>
      <trkpt lat="47.13775" lon="-1.46952">
        <ele>94</ele>
        <time>2020-05-29T15:37:36.000Z</time>
      </trkpt>
      <trkpt lat="47.13773" lon="-1.46935">
        <ele>94</ele>
        <time>2020-05-29T15:37:38.000Z</time>
      </trkpt>
      <trkpt lat="47.1377" lon="-1.46918">
        <ele>94</ele>
        <time>2020-05-29T15:37:40.000Z</time>
      </trkpt>
      <trkpt lat="47.13769" lon="-1.46901">
        <ele>94</ele>
        <time>2020-05-29T15:37:42.000Z</time>
      </trkpt>
      <trkpt lat="47.13767" lon="-1.46884">
        <ele>94</ele>
        <time>2020-05-29T15:37:44.000Z</time>
      </trkpt>
      <trkpt lat="47.13765" lon="-1.46868">
        <ele>94</ele>
        <time>2020-05-29T15:37:46.000Z</time>
      </trkpt>
      <trkpt lat="47.13762" lon="-1.46852">
        <ele>95</ele>
        <time>2020-05-29T15:37:48.000Z</time>
      </trkpt>
      <trkpt lat="47.13759" lon="-1.46836">
        <ele>95</ele>
        <time>2020-05-29T15:37:50.000Z</time>
      </trkpt>
      <trkpt lat="47.13757" lon="-1.46822">
        <ele>95</ele>
        <time>2020-05-29T15:37:52.000Z</time>
      </trkpt>
      <trkpt lat="47.13755" lon="-1.46809">
        <ele>95</ele>
        <time>2020-05-29T15:37:54.000Z</time>
      </trkpt>
      <trkpt lat="47.13752" lon="-1.46795">
        <ele>96</ele>
        <time>2020-05-29T15:37:56.000Z</time>
      </trkpt>
      <trkpt lat="47.13749" lon="-1.4678">
        <ele>96</ele>
        <time>2020-05-29T15:37:59.000Z</time>
      </trkpt>
      <trkpt lat="47.13742" lon="-1.46766">
        <ele>96</ele>
        <time>2020-05-29T15:38:09.000Z</time>
      </trkpt>
      <trkpt lat="47.13743" lon="-1.46747">
        <ele>97</ele>
        <time>2020-05-29T15:38:12.000Z</time>
      </trkpt>
      <trkpt lat="47.13741" lon="-1.46731">
        <ele>97</ele>
        <time>2020-05-29T15:38:14.000Z</time>
      </trkpt>
      <trkpt lat="47.13737" lon="-1.46716">
        <ele>97</ele>
        <time>2020-05-29T15:38:16.000Z</time>
      </trkpt>
      <trkpt lat="47.13733" lon="-1.46699">
        <ele>97</ele>
        <time>2020-05-29T15:38:18.000Z</time>
      </trkpt>
      <trkpt lat="47.1373" lon="-1.46682">
        <ele>98</ele>
        <time>2020-05-29T15:38:20.000Z</time>
      </trkpt>
      <trkpt lat="47.13726" lon="-1.46664">
        <ele>98</ele>
        <time>2020-05-29T15:38:22.000Z</time>
      </trkpt>
      <trkpt lat="47.13723" lon="-1.46647">
        <ele>97</ele>
        <time>2020-05-29T15:38:24.000Z</time>
      </trkpt>
      <trkpt lat="47.1372" lon="-1.46629">
        <ele>97</ele>
        <time>2020-05-29T15:38:26.000Z</time>
      </trkpt>
      <trkpt lat="47.13716" lon="-1.46613">
        <ele>98</ele>
        <time>2020-05-29T15:38:28.000Z</time>
      </trkpt>
      <trkpt lat="47.13713" lon="-1.46597">
        <ele>98</ele>
        <time>2020-05-29T15:38:30.000Z</time>
      </trkpt>
      <trkpt lat="47.13709" lon="-1.46581">
        <ele>98</ele>
        <time>2020-05-29T15:38:32.000Z</time>
      </trkpt>
      <trkpt lat="47.13704" lon="-1.46566">
        <ele>98</ele>
        <time>2020-05-29T15:38:34.000Z</time>
      </trkpt>
      <trkpt lat="47.13699" lon="-1.46551">
        <ele>98</ele>
        <time>2020-05-29T15:38:36.000Z</time>
      </trkpt>
      <trkpt lat="47.13693" lon="-1.46536">
        <ele>99</ele>
        <time>2020-05-29T15:38:38.000Z</time>
      </trkpt>
      <trkpt lat="47.13687" lon="-1.46522">
        <ele>99</ele>
        <time>2020-05-29T15:38:40.000Z</time>
      </trkpt>
      <trkpt lat="47.13681" lon="-1.46507">
        <ele>99</ele>
        <time>2020-05-29T15:38:42.000Z</time>
      </trkpt>
      <trkpt lat="47.13677" lon="-1.46493">
        <ele>100</ele>
        <time>2020-05-29T15:38:44.000Z</time>
      </trkpt>
      <trkpt lat="47.13672" lon="-1.46478">
        <ele>100</ele>
        <time>2020-05-29T15:38:46.000Z</time>
      </trkpt>
      <trkpt lat="47.13669" lon="-1.46463">
        <ele>100</ele>
        <time>2020-05-29T15:38:48.000Z</time>
      </trkpt>
      <trkpt lat="47.13667" lon="-1.46446">
        <ele>99</ele>
        <time>2020-05-29T15:38:50.000Z</time>
      </trkpt>
      <trkpt lat="47.13667" lon="-1.46429">
        <ele>99</ele>
        <time>2020-05-29T15:38:52.000Z</time>
      </trkpt>
      <trkpt lat="47.13669" lon="-1.46413">
        <ele>100</ele>
        <time>2020-05-29T15:38:54.000Z</time>
      </trkpt>
      <trkpt lat="47.13671" lon="-1.46397">
        <ele>100</ele>
        <time>2020-05-29T15:38:56.000Z</time>
      </trkpt>
      <trkpt lat="47.13672" lon="-1.46379">
        <ele>100</ele>
        <time>2020-05-29T15:38:58.000Z</time>
      </trkpt>
      <trkpt lat="47.13672" lon="-1.46362">
        <ele>100</ele>
        <time>2020-05-29T15:39:00.000Z</time>
      </trkpt>
      <trkpt lat="47.13671" lon="-1.46345">
        <ele>100</ele>
        <time>2020-05-29T15:39:02.000Z</time>
      </trkpt>
      <trkpt lat="47.13669" lon="-1.46329">
        <ele>100</ele>
        <time>2020-05-29T15:39:04.000Z</time>
      </trkpt>
      <trkpt lat="47.13665" lon="-1.46312">
        <ele>100</ele>
        <time>2020-05-29T15:39:06.000Z</time>
      </trkpt>
      <trkpt lat="47.13662" lon="-1.46296">
        <ele>100</ele>
        <time>2020-05-29T15:39:08.000Z</time>
      </trkpt>
      <trkpt lat="47.13658" lon="-1.46279">
        <ele>100</ele>
        <time>2020-05-29T15:39:10.000Z</time>
      </trkpt>
      <trkpt lat="47.13653" lon="-1.46263">
        <ele>100</ele>
        <time>2020-05-29T15:39:12.000Z</time>
      </trkpt>
      <trkpt lat="47.13648" lon="-1.46246">
        <ele>100</ele>
        <time>2020-05-29T15:39:14.000Z</time>
      </trkpt>
      <trkpt lat="47.13643" lon="-1.4623">
        <ele>100</ele>
        <time>2020-05-29T15:39:16.000Z</time>
      </trkpt>
      <trkpt lat="47.13638" lon="-1.46215">
        <ele>100</ele>
        <time>2020-05-29T15:39:18.000Z</time>
      </trkpt>
      <trkpt lat="47.13634" lon="-1.46199">
        <ele>100</ele>
        <time>2020-05-29T15:39:20.000Z</time>
      </trkpt>
      <trkpt lat="47.13629" lon="-1.46184">
        <ele>100</ele>
        <time>2020-05-29T15:39:22.000Z</time>
      </trkpt>
      <trkpt lat="47.13624" lon="-1.46168">
        <ele>100</ele>
        <time>2020-05-29T15:39:24.000Z</time>
      </trkpt>
      <trkpt lat="47.13619" lon="-1.46152">
        <ele>99</ele>
        <time>2020-05-29T15:39:26.000Z</time>
      </trkpt>
      <trkpt lat="47.13614" lon="-1.46137">
        <ele>100</ele>
        <time>2020-05-29T15:39:28.000Z</time>
      </trkpt>
      <trkpt lat="47.13609" lon="-1.46122">
        <ele>100</ele>
        <time>2020-05-29T15:39:30.000Z</time>
      </trkpt>
      <trkpt lat="47.13604" lon="-1.46107">
        <ele>100</ele>
        <time>2020-05-29T15:39:32.000Z</time>
      </trkpt>
      <trkpt lat="47.136" lon="-1.46092">
        <ele>101</ele>
        <time>2020-05-29T15:39:34.000Z</time>
      </trkpt>
      <trkpt lat="47.13596" lon="-1.46077">
        <ele>100</ele>
        <time>2020-05-29T15:39:36.000Z</time>
      </trkpt>
      <trkpt lat="47.13591" lon="-1.46063">
        <ele>101</ele>
        <time>2020-05-29T15:39:38.000Z</time>
      </trkpt>
      <trkpt lat="47.13588" lon="-1.46047">
        <ele>101</ele>
        <time>2020-05-29T15:39:40.000Z</time>
      </trkpt>
      <trkpt lat="47.13583" lon="-1.46033">
        <ele>101</ele>
        <time>2020-05-29T15:39:42.000Z</time>
      </trkpt>
      <trkpt lat="47.13579" lon="-1.4602">
        <ele>101</ele>
        <time>2020-05-29T15:39:44.000Z</time>
      </trkpt>
      <trkpt lat="47.13574" lon="-1.46006">
        <ele>102</ele>
        <time>2020-05-29T15:39:46.000Z</time>
      </trkpt>
      <trkpt lat="47.13569" lon="-1.45992">
        <ele>102</ele>
        <time>2020-05-29T15:39:48.000Z</time>
      </trkpt>
      <trkpt lat="47.13564" lon="-1.45978">
        <ele>101</ele>
        <time>2020-05-29T15:39:50.000Z</time>
      </trkpt>
      <trkpt lat="47.13559" lon="-1.45963">
        <ele>101</ele>
        <time>2020-05-29T15:39:52.000Z</time>
      </trkpt>
      <trkpt lat="47.13553" lon="-1.4595">
        <ele>101</ele>
        <time>2020-05-29T15:39:54.000Z</time>
      </trkpt>
      <trkpt lat="47.13547" lon="-1.45936">
        <ele>101</ele>
        <time>2020-05-29T15:39:56.000Z</time>
      </trkpt>
      <trkpt lat="47.13539" lon="-1.45925">
        <ele>101</ele>
        <time>2020-05-29T15:39:58.000Z</time>
      </trkpt>
      <trkpt lat="47.13531" lon="-1.45912">
        <ele>101</ele>
        <time>2020-05-29T15:40:00.000Z</time>
      </trkpt>
      <trkpt lat="47.13523" lon="-1.45901">
        <ele>101</ele>
        <time>2020-05-29T15:40:02.000Z</time>
      </trkpt>
      <trkpt lat="47.13516" lon="-1.45889">
        <ele>101</ele>
        <time>2020-05-29T15:40:04.000Z</time>
      </trkpt>
      <trkpt lat="47.13507" lon="-1.45877">
        <ele>101</ele>
        <time>2020-05-29T15:40:06.000Z</time>
      </trkpt>
      <trkpt lat="47.13499" lon="-1.45865">
        <ele>100</ele>
        <time>2020-05-29T15:40:08.000Z</time>
      </trkpt>
      <trkpt lat="47.13491" lon="-1.45853">
        <ele>100</ele>
        <time>2020-05-29T15:40:10.000Z</time>
      </trkpt>
      <trkpt lat="47.13483" lon="-1.45841">
        <ele>100</ele>
        <time>2020-05-29T15:40:12.000Z</time>
      </trkpt>
      <trkpt lat="47.13475" lon="-1.45829">
        <ele>100</ele>
        <time>2020-05-29T15:40:14.000Z</time>
      </trkpt>
      <trkpt lat="47.13467" lon="-1.45817">
        <ele>100</ele>
        <time>2020-05-29T15:40:16.000Z</time>
      </trkpt>
      <trkpt lat="47.13459" lon="-1.45805">
        <ele>100</ele>
        <time>2020-05-29T15:40:18.000Z</time>
      </trkpt>
      <trkpt lat="47.13451" lon="-1.45793">
        <ele>100</ele>
        <time>2020-05-29T15:40:20.000Z</time>
      </trkpt>
      <trkpt lat="47.13442" lon="-1.45781">
        <ele>99</ele>
        <time>2020-05-29T15:40:22.000Z</time>
      </trkpt>
      <trkpt lat="47.13434" lon="-1.4577">
        <ele>99</ele>
        <time>2020-05-29T15:40:24.000Z</time>
      </trkpt>
      <trkpt lat="47.13426" lon="-1.45757">
        <ele>99</ele>
        <time>2020-05-29T15:40:26.000Z</time>
      </trkpt>
      <trkpt lat="47.13418" lon="-1.45745">
        <ele>98</ele>
        <time>2020-05-29T15:40:28.000Z</time>
      </trkpt>
      <trkpt lat="47.13409" lon="-1.45732">
        <ele>98</ele>
        <time>2020-05-29T15:40:30.000Z</time>
      </trkpt>
      <trkpt lat="47.134" lon="-1.45719">
        <ele>98</ele>
        <time>2020-05-29T15:40:32.000Z</time>
      </trkpt>
      <trkpt lat="47.13391" lon="-1.45705">
        <ele>97</ele>
        <time>2020-05-29T15:40:34.000Z</time>
      </trkpt>
      <trkpt lat="47.13382" lon="-1.45691">
        <ele>97</ele>
        <time>2020-05-29T15:40:36.000Z</time>
      </trkpt>
      <trkpt lat="47.13372" lon="-1.45677">
        <ele>97</ele>
        <time>2020-05-29T15:40:38.000Z</time>
      </trkpt>
      <trkpt lat="47.13362" lon="-1.45662">
        <ele>97</ele>
        <time>2020-05-29T15:40:40.000Z</time>
      </trkpt>
      <trkpt lat="47.13352" lon="-1.45648">
        <ele>97</ele>
        <time>2020-05-29T15:40:42.000Z</time>
      </trkpt>
      <trkpt lat="47.13344" lon="-1.45633">
        <ele>97</ele>
        <time>2020-05-29T15:40:44.000Z</time>
      </trkpt>
      <trkpt lat="47.13335" lon="-1.45618">
        <ele>97</ele>
        <time>2020-05-29T15:40:46.000Z</time>
      </trkpt>
      <trkpt lat="47.13326" lon="-1.45604">
        <ele>97</ele>
        <time>2020-05-29T15:40:48.000Z</time>
      </trkpt>
      <trkpt lat="47.13317" lon="-1.4559">
        <ele>98</ele>
        <time>2020-05-29T15:40:50.000Z</time>
      </trkpt>
      <trkpt lat="47.13309" lon="-1.45577">
        <ele>98</ele>
        <time>2020-05-29T15:40:52.000Z</time>
      </trkpt>
      <trkpt lat="47.133" lon="-1.45564">
        <ele>98</ele>
        <time>2020-05-29T15:40:54.000Z</time>
      </trkpt>
      <trkpt lat="47.13292" lon="-1.4555">
        <ele>99</ele>
        <time>2020-05-29T15:40:56.000Z</time>
      </trkpt>
      <trkpt lat="47.13283" lon="-1.45536">
        <ele>99</ele>
        <time>2020-05-29T15:40:58.000Z</time>
      </trkpt>
      <trkpt lat="47.13275" lon="-1.45522">
        <ele>99</ele>
        <time>2020-05-29T15:41:00.000Z</time>
      </trkpt>
      <trkpt lat="47.13266" lon="-1.45508">
        <ele>99</ele>
        <time>2020-05-29T15:41:02.000Z</time>
      </trkpt>
      <trkpt lat="47.13258" lon="-1.45494">
        <ele>98</ele>
        <time>2020-05-29T15:41:04.000Z</time>
      </trkpt>
      <trkpt lat="47.13249" lon="-1.45481">
        <ele>99</ele>
        <time>2020-05-29T15:41:06.000Z</time>
      </trkpt>
      <trkpt lat="47.13241" lon="-1.45468">
        <ele>99</ele>
        <time>2020-05-29T15:41:08.000Z</time>
      </trkpt>
      <trkpt lat="47.13233" lon="-1.45455">
        <ele>99</ele>
        <time>2020-05-29T15:41:10.000Z</time>
      </trkpt>
      <trkpt lat="47.13224" lon="-1.45441">
        <ele>99</ele>
        <time>2020-05-29T15:41:12.000Z</time>
      </trkpt>
      <trkpt lat="47.13215" lon="-1.45428">
        <ele>99</ele>
        <time>2020-05-29T15:41:14.000Z</time>
      </trkpt>
      <trkpt lat="47.13206" lon="-1.45416">
        <ele>100</ele>
        <time>2020-05-29T15:41:16.000Z</time>
      </trkpt>
      <trkpt lat="47.13197" lon="-1.45403">
        <ele>100</ele>
        <time>2020-05-29T15:41:18.000Z</time>
      </trkpt>
      <trkpt lat="47.13188" lon="-1.45391">
        <ele>100</ele>
        <time>2020-05-29T15:41:20.000Z</time>
      </trkpt>
      <trkpt lat="47.13179" lon="-1.45379">
        <ele>101</ele>
        <time>2020-05-29T15:41:22.000Z</time>
      </trkpt>
      <trkpt lat="47.13169" lon="-1.45369">
        <ele>101</ele>
        <time>2020-05-29T15:41:24.000Z</time>
      </trkpt>
      <trkpt lat="47.13159" lon="-1.45358">
        <ele>101</ele>
        <time>2020-05-29T15:41:26.000Z</time>
      </trkpt>
      <trkpt lat="47.13149" lon="-1.45348">
        <ele>101</ele>
        <time>2020-05-29T15:41:28.000Z</time>
      </trkpt>
      <trkpt lat="47.13138" lon="-1.45339">
        <ele>101</ele>
        <time>2020-05-29T15:41:30.000Z</time>
      </trkpt>
      <trkpt lat="47.13127" lon="-1.4533">
        <ele>101</ele>
        <time>2020-05-29T15:41:32.000Z</time>
      </trkpt>
      <trkpt lat="47.13117" lon="-1.45321">
        <ele>102</ele>
        <time>2020-05-29T15:41:34.000Z</time>
      </trkpt>
      <trkpt lat="47.13106" lon="-1.45311">
        <ele>101</ele>
        <time>2020-05-29T15:41:36.000Z</time>
      </trkpt>
      <trkpt lat="47.13095" lon="-1.45302">
        <ele>101</ele>
        <time>2020-05-29T15:41:38.000Z</time>
      </trkpt>
      <trkpt lat="47.13085" lon="-1.45293">
        <ele>100</ele>
        <time>2020-05-29T15:41:40.000Z</time>
      </trkpt>
      <trkpt lat="47.13074" lon="-1.45284">
        <ele>100</ele>
        <time>2020-05-29T15:41:42.000Z</time>
      </trkpt>
      <trkpt lat="47.13063" lon="-1.45276">
        <ele>100</ele>
        <time>2020-05-29T15:41:44.000Z</time>
      </trkpt>
      <trkpt lat="47.13052" lon="-1.45266">
        <ele>100</ele>
        <time>2020-05-29T15:41:46.000Z</time>
      </trkpt>
      <trkpt lat="47.13041" lon="-1.45257">
        <ele>100</ele>
        <time>2020-05-29T15:41:48.000Z</time>
      </trkpt>
      <trkpt lat="47.1303" lon="-1.45248">
        <ele>100</ele>
        <time>2020-05-29T15:41:50.000Z</time>
      </trkpt>
      <trkpt lat="47.13019" lon="-1.45239">
        <ele>100</ele>
        <time>2020-05-29T15:41:52.000Z</time>
      </trkpt>
      <trkpt lat="47.13008" lon="-1.45229">
        <ele>100</ele>
        <time>2020-05-29T15:41:54.000Z</time>
      </trkpt>
      <trkpt lat="47.12997" lon="-1.45221">
        <ele>99</ele>
        <time>2020-05-29T15:41:56.000Z</time>
      </trkpt>
      <trkpt lat="47.12986" lon="-1.45211">
        <ele>99</ele>
        <time>2020-05-29T15:41:58.000Z</time>
      </trkpt>
      <trkpt lat="47.12974" lon="-1.45202">
        <ele>100</ele>
        <time>2020-05-29T15:42:00.000Z</time>
      </trkpt>
      <trkpt lat="47.12962" lon="-1.45193">
        <ele>99</ele>
        <time>2020-05-29T15:42:02.000Z</time>
      </trkpt>
      <trkpt lat="47.1295" lon="-1.45185">
        <ele>99</ele>
        <time>2020-05-29T15:42:04.000Z</time>
      </trkpt>
      <trkpt lat="47.12938" lon="-1.45178">
        <ele>100</ele>
        <time>2020-05-29T15:42:06.000Z</time>
      </trkpt>
      <trkpt lat="47.12925" lon="-1.45171">
        <ele>99</ele>
        <time>2020-05-29T15:42:08.000Z</time>
      </trkpt>
      <trkpt lat="47.12912" lon="-1.45164">
        <ele>99</ele>
        <time>2020-05-29T15:42:10.000Z</time>
      </trkpt>
      <trkpt lat="47.12899" lon="-1.45158">
        <ele>99</ele>
        <time>2020-05-29T15:42:12.000Z</time>
      </trkpt>
      <trkpt lat="47.12886" lon="-1.45152">
        <ele>99</ele>
        <time>2020-05-29T15:42:14.000Z</time>
      </trkpt>
      <trkpt lat="47.12874" lon="-1.45146">
        <ele>99</ele>
        <time>2020-05-29T15:42:16.000Z</time>
      </trkpt>
      <trkpt lat="47.12861" lon="-1.4514">
        <ele>98</ele>
        <time>2020-05-29T15:42:18.000Z</time>
      </trkpt>
      <trkpt lat="47.12849" lon="-1.45134">
        <ele>99</ele>
        <time>2020-05-29T15:42:20.000Z</time>
      </trkpt>
      <trkpt lat="47.12836" lon="-1.45128">
        <ele>99</ele>
        <time>2020-05-29T15:42:22.000Z</time>
      </trkpt>
      <trkpt lat="47.12824" lon="-1.45122">
        <ele>99</ele>
        <time>2020-05-29T15:42:24.000Z</time>
      </trkpt>
      <trkpt lat="47.12811" lon="-1.45115">
        <ele>98</ele>
        <time>2020-05-29T15:42:26.000Z</time>
      </trkpt>
      <trkpt lat="47.12799" lon="-1.45109">
        <ele>98</ele>
        <time>2020-05-29T15:42:28.000Z</time>
      </trkpt>
      <trkpt lat="47.12787" lon="-1.45103">
        <ele>98</ele>
        <time>2020-05-29T15:42:30.000Z</time>
      </trkpt>
      <trkpt lat="47.12774" lon="-1.45097">
        <ele>98</ele>
        <time>2020-05-29T15:42:32.000Z</time>
      </trkpt>
      <trkpt lat="47.12762" lon="-1.45091">
        <ele>98</ele>
        <time>2020-05-29T15:42:34.000Z</time>
      </trkpt>
      <trkpt lat="47.12749" lon="-1.45085">
        <ele>98</ele>
        <time>2020-05-29T15:42:36.000Z</time>
      </trkpt>
      <trkpt lat="47.12736" lon="-1.45079">
        <ele>98</ele>
        <time>2020-05-29T15:42:38.000Z</time>
      </trkpt>
      <trkpt lat="47.12718" lon="-1.4507">
        <ele>98</ele>
        <time>2020-05-29T15:42:41.000Z</time>
      </trkpt>
      <trkpt lat="47.12707" lon="-1.45064">
        <ele>98</ele>
        <time>2020-05-29T15:42:43.000Z</time>
      </trkpt>
      <trkpt lat="47.12696" lon="-1.45059">
        <ele>98</ele>
        <time>2020-05-29T15:42:45.000Z</time>
      </trkpt>
      <trkpt lat="47.12684" lon="-1.45054">
        <ele>99</ele>
        <time>2020-05-29T15:42:47.000Z</time>
      </trkpt>
      <trkpt lat="47.12672" lon="-1.45049">
        <ele>99</ele>
        <time>2020-05-29T15:42:49.000Z</time>
      </trkpt>
      <trkpt lat="47.1266" lon="-1.45043">
        <ele>99</ele>
        <time>2020-05-29T15:42:51.000Z</time>
      </trkpt>
      <trkpt lat="47.12647" lon="-1.45036">
        <ele>98</ele>
        <time>2020-05-29T15:42:53.000Z</time>
      </trkpt>
      <trkpt lat="47.12635" lon="-1.45029">
        <ele>98</ele>
        <time>2020-05-29T15:42:55.000Z</time>
      </trkpt>
      <trkpt lat="47.12623" lon="-1.45022">
        <ele>98</ele>
        <time>2020-05-29T15:42:57.000Z</time>
      </trkpt>
      <trkpt lat="47.12605" lon="-1.45011">
        <ele>98</ele>
        <time>2020-05-29T15:43:00.000Z</time>
      </trkpt>
      <trkpt lat="47.12594" lon="-1.45004">
        <ele>98</ele>
        <time>2020-05-29T15:43:02.000Z</time>
      </trkpt>
      <trkpt lat="47.12576" lon="-1.44992">
        <ele>97</ele>
        <time>2020-05-29T15:43:05.000Z</time>
      </trkpt>
      <trkpt lat="47.12564" lon="-1.44984">
        <ele>97</ele>
        <time>2020-05-29T15:43:07.000Z</time>
      </trkpt>
      <trkpt lat="47.12552" lon="-1.44976">
        <ele>97</ele>
        <time>2020-05-29T15:43:09.000Z</time>
      </trkpt>
      <trkpt lat="47.1254" lon="-1.44969">
        <ele>97</ele>
        <time>2020-05-29T15:43:11.000Z</time>
      </trkpt>
      <trkpt lat="47.12522" lon="-1.44958">
        <ele>97</ele>
        <time>2020-05-29T15:43:14.000Z</time>
      </trkpt>
      <trkpt lat="47.12504" lon="-1.44947">
        <ele>97</ele>
        <time>2020-05-29T15:43:17.000Z</time>
      </trkpt>
      <trkpt lat="47.12492" lon="-1.44939">
        <ele>97</ele>
        <time>2020-05-29T15:43:19.000Z</time>
      </trkpt>
      <trkpt lat="47.12481" lon="-1.44932">
        <ele>97</ele>
        <time>2020-05-29T15:43:21.000Z</time>
      </trkpt>
      <trkpt lat="47.12469" lon="-1.44924">
        <ele>97</ele>
        <time>2020-05-29T15:43:23.000Z</time>
      </trkpt>
      <trkpt lat="47.12456" lon="-1.44916">
        <ele>97</ele>
        <time>2020-05-29T15:43:25.000Z</time>
      </trkpt>
      <trkpt lat="47.12438" lon="-1.44903">
        <ele>97</ele>
        <time>2020-05-29T15:43:28.000Z</time>
      </trkpt>
      <trkpt lat="47.12418" lon="-1.44891">
        <ele>97</ele>
        <time>2020-05-29T15:43:31.000Z</time>
      </trkpt>
      <trkpt lat="47.12406" lon="-1.44882">
        <ele>97</ele>
        <time>2020-05-29T15:43:33.000Z</time>
      </trkpt>
      <trkpt lat="47.12394" lon="-1.44874">
        <ele>96</ele>
        <time>2020-05-29T15:43:35.000Z</time>
      </trkpt>
      <trkpt lat="47.12382" lon="-1.44865">
        <ele>97</ele>
        <time>2020-05-29T15:43:37.000Z</time>
      </trkpt>
      <trkpt lat="47.12371" lon="-1.44855">
        <ele>97</ele>
        <time>2020-05-29T15:43:39.000Z</time>
      </trkpt>
      <trkpt lat="47.12359" lon="-1.44845">
        <ele>97</ele>
        <time>2020-05-29T15:43:41.000Z</time>
      </trkpt>
      <trkpt lat="47.12348" lon="-1.44834">
        <ele>97</ele>
        <time>2020-05-29T15:43:43.000Z</time>
      </trkpt>
      <trkpt lat="47.12336" lon="-1.44824">
        <ele>96</ele>
        <time>2020-05-29T15:43:45.000Z</time>
      </trkpt>
      <trkpt lat="47.12325" lon="-1.44813">
        <ele>96</ele>
        <time>2020-05-29T15:43:47.000Z</time>
      </trkpt>
      <trkpt lat="47.12313" lon="-1.44804">
        <ele>96</ele>
        <time>2020-05-29T15:43:49.000Z</time>
      </trkpt>
      <trkpt lat="47.12302" lon="-1.44794">
        <ele>96</ele>
        <time>2020-05-29T15:43:51.000Z</time>
      </trkpt>
      <trkpt lat="47.1229" lon="-1.44783">
        <ele>96</ele>
        <time>2020-05-29T15:43:53.000Z</time>
      </trkpt>
      <trkpt lat="47.12278" lon="-1.44774">
        <ele>96</ele>
        <time>2020-05-29T15:43:55.000Z</time>
      </trkpt>
      <trkpt lat="47.12265" lon="-1.44767">
        <ele>96</ele>
        <time>2020-05-29T15:43:57.000Z</time>
      </trkpt>
      <trkpt lat="47.12252" lon="-1.4476">
        <ele>96</ele>
        <time>2020-05-29T15:43:59.000Z</time>
      </trkpt>
      <trkpt lat="47.1224" lon="-1.44752">
        <ele>96</ele>
        <time>2020-05-29T15:44:01.000Z</time>
      </trkpt>
      <trkpt lat="47.12227" lon="-1.44744">
        <ele>96</ele>
        <time>2020-05-29T15:44:03.000Z</time>
      </trkpt>
      <trkpt lat="47.12213" lon="-1.44736">
        <ele>96</ele>
        <time>2020-05-29T15:44:05.000Z</time>
      </trkpt>
      <trkpt lat="47.122" lon="-1.44728">
        <ele>96</ele>
        <time>2020-05-29T15:44:07.000Z</time>
      </trkpt>
      <trkpt lat="47.12188" lon="-1.44719">
        <ele>96</ele>
        <time>2020-05-29T15:44:09.000Z</time>
      </trkpt>
      <trkpt lat="47.12175" lon="-1.44711">
        <ele>95</ele>
        <time>2020-05-29T15:44:11.000Z</time>
      </trkpt>
      <trkpt lat="47.12163" lon="-1.44702">
        <ele>95</ele>
        <time>2020-05-29T15:44:13.000Z</time>
      </trkpt>
      <trkpt lat="47.12151" lon="-1.44692">
        <ele>95</ele>
        <time>2020-05-29T15:44:15.000Z</time>
      </trkpt>
      <trkpt lat="47.12136" lon="-1.44674">
        <ele>95</ele>
        <time>2020-05-29T15:44:18.000Z</time>
      </trkpt>
      <trkpt lat="47.12125" lon="-1.44663">
        <ele>95</ele>
        <time>2020-05-29T15:44:20.000Z</time>
      </trkpt>
      <trkpt lat="47.12115" lon="-1.44653">
        <ele>95</ele>
        <time>2020-05-29T15:44:22.000Z</time>
      </trkpt>
      <trkpt lat="47.12104" lon="-1.44642">
        <ele>95</ele>
        <time>2020-05-29T15:44:24.000Z</time>
      </trkpt>
      <trkpt lat="47.12094" lon="-1.44631">
        <ele>95</ele>
        <time>2020-05-29T15:44:26.000Z</time>
      </trkpt>
      <trkpt lat="47.12085" lon="-1.4462">
        <ele>96</ele>
        <time>2020-05-29T15:44:28.000Z</time>
      </trkpt>
      <trkpt lat="47.12077" lon="-1.44609">
        <ele>96</ele>
        <time>2020-05-29T15:44:30.000Z</time>
      </trkpt>
      <trkpt lat="47.12069" lon="-1.44597">
        <ele>96</ele>
        <time>2020-05-29T15:44:32.000Z</time>
      </trkpt>
      <trkpt lat="47.12062" lon="-1.44584">
        <ele>96</ele>
        <time>2020-05-29T15:44:34.000Z</time>
      </trkpt>
      <trkpt lat="47.12056" lon="-1.44571">
        <ele>96</ele>
        <time>2020-05-29T15:44:36.000Z</time>
      </trkpt>
      <trkpt lat="47.1205" lon="-1.44558">
        <ele>97</ele>
        <time>2020-05-29T15:44:38.000Z</time>
      </trkpt>
      <trkpt lat="47.1204" lon="-1.44539">
        <ele>98</ele>
        <time>2020-05-29T15:44:41.000Z</time>
      </trkpt>
      <trkpt lat="47.12034" lon="-1.44527">
        <ele>99</ele>
        <time>2020-05-29T15:44:43.000Z</time>
      </trkpt>
      <trkpt lat="47.12027" lon="-1.44514">
        <ele>99</ele>
        <time>2020-05-29T15:44:45.000Z</time>
      </trkpt>
      <trkpt lat="47.12021" lon="-1.44502">
        <ele>100</ele>
        <time>2020-05-29T15:44:47.000Z</time>
      </trkpt>
      <trkpt lat="47.12015" lon="-1.4449">
        <ele>100</ele>
        <time>2020-05-29T15:44:49.000Z</time>
      </trkpt>
      <trkpt lat="47.12008" lon="-1.44477">
        <ele>101</ele>
        <time>2020-05-29T15:44:51.000Z</time>
      </trkpt>
      <trkpt lat="47.12003" lon="-1.44465">
        <ele>101</ele>
        <time>2020-05-29T15:44:53.000Z</time>
      </trkpt>
      <trkpt lat="47.11997" lon="-1.44452">
        <ele>102</ele>
        <time>2020-05-29T15:44:55.000Z</time>
      </trkpt>
      <trkpt lat="47.11991" lon="-1.44442">
        <ele>102</ele>
        <time>2020-05-29T15:44:57.000Z</time>
      </trkpt>
      <trkpt lat="47.11984" lon="-1.44432">
        <ele>102</ele>
        <time>2020-05-29T15:44:59.000Z</time>
      </trkpt>
      <trkpt lat="47.11978" lon="-1.44422">
        <ele>103</ele>
        <time>2020-05-29T15:45:01.000Z</time>
      </trkpt>
      <trkpt lat="47.1197" lon="-1.44412">
        <ele>103</ele>
        <time>2020-05-29T15:45:03.000Z</time>
      </trkpt>
      <trkpt lat="47.11962" lon="-1.44403">
        <ele>103</ele>
        <time>2020-05-29T15:45:05.000Z</time>
      </trkpt>
      <trkpt lat="47.11953" lon="-1.44393">
        <ele>103</ele>
        <time>2020-05-29T15:45:07.000Z</time>
      </trkpt>
      <trkpt lat="47.11944" lon="-1.44385">
        <ele>103</ele>
        <time>2020-05-29T15:45:09.000Z</time>
      </trkpt>
      <trkpt lat="47.11933" lon="-1.44377">
        <ele>102</ele>
        <time>2020-05-29T15:45:11.000Z</time>
      </trkpt>
      <trkpt lat="47.11923" lon="-1.44367">
        <ele>102</ele>
        <time>2020-05-29T15:45:13.000Z</time>
      </trkpt>
      <trkpt lat="47.11914" lon="-1.44353">
        <ele>100</ele>
        <time>2020-05-29T15:45:15.000Z</time>
      </trkpt>
      <trkpt lat="47.11906" lon="-1.44333">
        <ele>100</ele>
        <time>2020-05-29T15:45:17.000Z</time>
      </trkpt>
      <trkpt lat="47.11899" lon="-1.44312">
        <ele>99</ele>
        <time>2020-05-29T15:45:19.000Z</time>
      </trkpt>
      <trkpt lat="47.11892" lon="-1.4429">
        <ele>98</ele>
        <time>2020-05-29T15:45:21.000Z</time>
      </trkpt>
      <trkpt lat="47.11885" lon="-1.44269">
        <ele>97</ele>
        <time>2020-05-29T15:45:23.000Z</time>
      </trkpt>
      <trkpt lat="47.11879" lon="-1.44247">
        <ele>97</ele>
        <time>2020-05-29T15:45:25.000Z</time>
      </trkpt>
      <trkpt lat="47.11872" lon="-1.44226">
        <ele>96</ele>
        <time>2020-05-29T15:45:27.000Z</time>
      </trkpt>
      <trkpt lat="47.11866" lon="-1.44205">
        <ele>95</ele>
        <time>2020-05-29T15:45:29.000Z</time>
      </trkpt>
      <trkpt lat="47.1186" lon="-1.44185">
        <ele>95</ele>
        <time>2020-05-29T15:45:31.000Z</time>
      </trkpt>
      <trkpt lat="47.11855" lon="-1.44171">
        <ele>95</ele>
        <time>2020-05-29T15:45:33.000Z</time>
      </trkpt>
      <trkpt lat="47.11857" lon="-1.44153">
        <ele>94</ele>
        <time>2020-05-29T15:45:36.000Z</time>
      </trkpt>
      <trkpt lat="47.11867" lon="-1.44145">
        <ele>94</ele>
        <time>2020-05-29T15:45:38.000Z</time>
      </trkpt>
      <trkpt lat="47.11879" lon="-1.44137">
        <ele>94</ele>
        <time>2020-05-29T15:45:40.000Z</time>
      </trkpt>
      <trkpt lat="47.11888" lon="-1.44128">
        <ele>94</ele>
        <time>2020-05-29T15:45:42.000Z</time>
      </trkpt>
      <trkpt lat="47.11896" lon="-1.44119">
        <ele>94</ele>
        <time>2020-05-29T15:45:44.000Z</time>
      </trkpt>
      <trkpt lat="47.11904" lon="-1.44108">
        <ele>93</ele>
        <time>2020-05-29T15:45:46.000Z</time>
      </trkpt>
      <trkpt lat="47.11911" lon="-1.44096">
        <ele>93</ele>
        <time>2020-05-29T15:45:48.000Z</time>
      </trkpt>
      <trkpt lat="47.11916" lon="-1.44083">
        <ele>93</ele>
        <time>2020-05-29T15:45:50.000Z</time>
      </trkpt>
      <trkpt lat="47.11922" lon="-1.4407">
        <ele>92</ele>
        <time>2020-05-29T15:45:52.000Z</time>
      </trkpt>
      <trkpt lat="47.11926" lon="-1.44055">
        <ele>92</ele>
        <time>2020-05-29T15:45:54.000Z</time>
      </trkpt>
      <trkpt lat="47.1193" lon="-1.4404">
        <ele>93</ele>
        <time>2020-05-29T15:45:56.000Z</time>
      </trkpt>
      <trkpt lat="47.11934" lon="-1.44026">
        <ele>92</ele>
        <time>2020-05-29T15:45:58.000Z</time>
      </trkpt>
      <trkpt lat="47.11938" lon="-1.4401">
        <ele>92</ele>
        <time>2020-05-29T15:46:00.000Z</time>
      </trkpt>
      <trkpt lat="47.11942" lon="-1.43995">
        <ele>92</ele>
        <time>2020-05-29T15:46:02.000Z</time>
      </trkpt>
      <trkpt lat="47.11946" lon="-1.43979">
        <ele>92</ele>
        <time>2020-05-29T15:46:04.000Z</time>
      </trkpt>
      <trkpt lat="47.1195" lon="-1.43963">
        <ele>92</ele>
        <time>2020-05-29T15:46:06.000Z</time>
      </trkpt>
      <trkpt lat="47.11954" lon="-1.43947">
        <ele>91</ele>
        <time>2020-05-29T15:46:08.000Z</time>
      </trkpt>
      <trkpt lat="47.11959" lon="-1.43931">
        <ele>91</ele>
        <time>2020-05-29T15:46:10.000Z</time>
      </trkpt>
      <trkpt lat="47.11963" lon="-1.43915">
        <ele>91</ele>
        <time>2020-05-29T15:46:12.000Z</time>
      </trkpt>
      <trkpt lat="47.11968" lon="-1.43899">
        <ele>90</ele>
        <time>2020-05-29T15:46:14.000Z</time>
      </trkpt>
      <trkpt lat="47.11972" lon="-1.43882">
        <ele>90</ele>
        <time>2020-05-29T15:46:16.000Z</time>
      </trkpt>
      <trkpt lat="47.11977" lon="-1.43865">
        <ele>89</ele>
        <time>2020-05-29T15:46:18.000Z</time>
      </trkpt>
      <trkpt lat="47.11982" lon="-1.43849">
        <ele>88</ele>
        <time>2020-05-29T15:46:20.000Z</time>
      </trkpt>
      <trkpt lat="47.11987" lon="-1.43832">
        <ele>88</ele>
        <time>2020-05-29T15:46:22.000Z</time>
      </trkpt>
      <trkpt lat="47.11992" lon="-1.43815">
        <ele>87</ele>
        <time>2020-05-29T15:46:24.000Z</time>
      </trkpt>
      <trkpt lat="47.11998" lon="-1.43796">
        <ele>87</ele>
        <time>2020-05-29T15:46:26.000Z</time>
      </trkpt>
      <trkpt lat="47.12003" lon="-1.43779">
        <ele>86</ele>
        <time>2020-05-29T15:46:28.000Z</time>
      </trkpt>
      <trkpt lat="47.12008" lon="-1.43761">
        <ele>86</ele>
        <time>2020-05-29T15:46:30.000Z</time>
      </trkpt>
      <trkpt lat="47.12013" lon="-1.43744">
        <ele>86</ele>
        <time>2020-05-29T15:46:32.000Z</time>
      </trkpt>
      <trkpt lat="47.12019" lon="-1.43727">
        <ele>85</ele>
        <time>2020-05-29T15:46:34.000Z</time>
      </trkpt>
      <trkpt lat="47.12027" lon="-1.43712">
        <ele>85</ele>
        <time>2020-05-29T15:46:36.000Z</time>
      </trkpt>
      <trkpt lat="47.12035" lon="-1.43698">
        <ele>85</ele>
        <time>2020-05-29T15:46:38.000Z</time>
      </trkpt>
      <trkpt lat="47.12043" lon="-1.43683">
        <ele>85</ele>
        <time>2020-05-29T15:46:40.000Z</time>
      </trkpt>
      <trkpt lat="47.12052" lon="-1.43669">
        <ele>85</ele>
        <time>2020-05-29T15:46:42.000Z</time>
      </trkpt>
      <trkpt lat="47.1206" lon="-1.43656">
        <ele>85</ele>
        <time>2020-05-29T15:46:44.000Z</time>
      </trkpt>
      <trkpt lat="47.12067" lon="-1.43643">
        <ele>85</ele>
        <time>2020-05-29T15:46:46.000Z</time>
      </trkpt>
      <trkpt lat="47.12073" lon="-1.43629">
        <ele>85</ele>
        <time>2020-05-29T15:46:48.000Z</time>
      </trkpt>
      <trkpt lat="47.12077" lon="-1.43615">
        <ele>86</ele>
        <time>2020-05-29T15:46:50.000Z</time>
      </trkpt>
      <trkpt lat="47.1208" lon="-1.43601">
        <ele>86</ele>
        <time>2020-05-29T15:46:52.000Z</time>
      </trkpt>
      <trkpt lat="47.12082" lon="-1.43587">
        <ele>86</ele>
        <time>2020-05-29T15:46:54.000Z</time>
      </trkpt>
      <trkpt lat="47.12084" lon="-1.43568">
        <ele>87</ele>
        <time>2020-05-29T15:46:57.000Z</time>
      </trkpt>
      <trkpt lat="47.12086" lon="-1.4355">
        <ele>87</ele>
        <time>2020-05-29T15:47:00.000Z</time>
      </trkpt>
      <trkpt lat="47.12087" lon="-1.43532">
        <ele>88</ele>
        <time>2020-05-29T15:47:03.000Z</time>
      </trkpt>
      <trkpt lat="47.12089" lon="-1.43514">
        <ele>89</ele>
        <time>2020-05-29T15:47:06.000Z</time>
      </trkpt>
      <trkpt lat="47.12091" lon="-1.43494">
        <ele>89</ele>
        <time>2020-05-29T15:47:09.000Z</time>
      </trkpt>
      <trkpt lat="47.12093" lon="-1.43476">
        <ele>89</ele>
        <time>2020-05-29T15:47:12.000Z</time>
      </trkpt>
      <trkpt lat="47.12095" lon="-1.43458">
        <ele>90</ele>
        <time>2020-05-29T15:47:15.000Z</time>
      </trkpt>
      <trkpt lat="47.12099" lon="-1.43439">
        <ele>90</ele>
        <time>2020-05-29T15:47:18.000Z</time>
      </trkpt>
      <trkpt lat="47.12103" lon="-1.43421">
        <ele>90</ele>
        <time>2020-05-29T15:47:21.000Z</time>
      </trkpt>
      <trkpt lat="47.12107" lon="-1.43404">
        <ele>91</ele>
        <time>2020-05-29T15:47:24.000Z</time>
      </trkpt>
      <trkpt lat="47.12113" lon="-1.43388">
        <ele>91</ele>
        <time>2020-05-29T15:47:27.000Z</time>
      </trkpt>
      <trkpt lat="47.12118" lon="-1.43374">
        <ele>92</ele>
        <time>2020-05-29T15:47:30.000Z</time>
      </trkpt>
      <trkpt lat="47.12123" lon="-1.43358">
        <ele>92</ele>
        <time>2020-05-29T15:47:33.000Z</time>
      </trkpt>
      <trkpt lat="47.12128" lon="-1.43343">
        <ele>93</ele>
        <time>2020-05-29T15:47:36.000Z</time>
      </trkpt>
      <trkpt lat="47.12133" lon="-1.43328">
        <ele>94</ele>
        <time>2020-05-29T15:47:39.000Z</time>
      </trkpt>
      <trkpt lat="47.12138" lon="-1.43312">
        <ele>94</ele>
        <time>2020-05-29T15:47:42.000Z</time>
      </trkpt>
      <trkpt lat="47.12142" lon="-1.43297">
        <ele>95</ele>
        <time>2020-05-29T15:47:45.000Z</time>
      </trkpt>
      <trkpt lat="47.12146" lon="-1.43281">
        <ele>95</ele>
        <time>2020-05-29T15:47:48.000Z</time>
      </trkpt>
      <trkpt lat="47.1215" lon="-1.43265">
        <ele>95</ele>
        <time>2020-05-29T15:47:51.000Z</time>
      </trkpt>
      <trkpt lat="47.12154" lon="-1.43248">
        <ele>95</ele>
        <time>2020-05-29T15:47:54.000Z</time>
      </trkpt>
      <trkpt lat="47.12156" lon="-1.43232">
        <ele>95</ele>
        <time>2020-05-29T15:47:57.000Z</time>
      </trkpt>
      <trkpt lat="47.12157" lon="-1.43215">
        <ele>96</ele>
        <time>2020-05-29T15:48:00.000Z</time>
      </trkpt>
      <trkpt lat="47.12159" lon="-1.43198">
        <ele>96</ele>
        <time>2020-05-29T15:48:03.000Z</time>
      </trkpt>
      <trkpt lat="47.12161" lon="-1.4318">
        <ele>97</ele>
        <time>2020-05-29T15:48:06.000Z</time>
      </trkpt>
      <trkpt lat="47.12164" lon="-1.43162">
        <ele>97</ele>
        <time>2020-05-29T15:48:09.000Z</time>
      </trkpt>
      <trkpt lat="47.12167" lon="-1.43144">
        <ele>98</ele>
        <time>2020-05-29T15:48:12.000Z</time>
      </trkpt>
      <trkpt lat="47.1217" lon="-1.43127">
        <ele>98</ele>
        <time>2020-05-29T15:48:15.000Z</time>
      </trkpt>
      <trkpt lat="47.12173" lon="-1.43114">
        <ele>98</ele>
        <time>2020-05-29T15:48:17.000Z</time>
      </trkpt>
      <trkpt lat="47.12178" lon="-1.43097">
        <ele>98</ele>
        <time>2020-05-29T15:48:20.000Z</time>
      </trkpt>
      <trkpt lat="47.12185" lon="-1.4308">
        <ele>98</ele>
        <time>2020-05-29T15:48:23.000Z</time>
      </trkpt>
      <trkpt lat="47.1219" lon="-1.43069">
        <ele>98</ele>
        <time>2020-05-29T15:48:25.000Z</time>
      </trkpt>
      <trkpt lat="47.12195" lon="-1.43057">
        <ele>99</ele>
        <time>2020-05-29T15:48:27.000Z</time>
      </trkpt>
      <trkpt lat="47.122" lon="-1.43045">
        <ele>99</ele>
        <time>2020-05-29T15:48:29.000Z</time>
      </trkpt>
      <trkpt lat="47.12206" lon="-1.43033">
        <ele>99</ele>
        <time>2020-05-29T15:48:31.000Z</time>
      </trkpt>
      <trkpt lat="47.12212" lon="-1.4302">
        <ele>99</ele>
        <time>2020-05-29T15:48:33.000Z</time>
      </trkpt>
      <trkpt lat="47.12218" lon="-1.43008">
        <ele>99</ele>
        <time>2020-05-29T15:48:35.000Z</time>
      </trkpt>
      <trkpt lat="47.12224" lon="-1.42997">
        <ele>99</ele>
        <time>2020-05-29T15:48:37.000Z</time>
      </trkpt>
      <trkpt lat="47.1223" lon="-1.42985">
        <ele>99</ele>
        <time>2020-05-29T15:48:39.000Z</time>
      </trkpt>
      <trkpt lat="47.12236" lon="-1.42973">
        <ele>99</ele>
        <time>2020-05-29T15:48:41.000Z</time>
      </trkpt>
      <trkpt lat="47.12241" lon="-1.42961">
        <ele>99</ele>
        <time>2020-05-29T15:48:43.000Z</time>
      </trkpt>
      <trkpt lat="47.12246" lon="-1.42949">
        <ele>99</ele>
        <time>2020-05-29T15:48:45.000Z</time>
      </trkpt>
      <trkpt lat="47.12251" lon="-1.42935">
        <ele>99</ele>
        <time>2020-05-29T15:48:47.000Z</time>
      </trkpt>
      <trkpt lat="47.12255" lon="-1.42922">
        <ele>99</ele>
        <time>2020-05-29T15:48:49.000Z</time>
      </trkpt>
      <trkpt lat="47.12258" lon="-1.42908">
        <ele>99</ele>
        <time>2020-05-29T15:48:51.000Z</time>
      </trkpt>
      <trkpt lat="47.12261" lon="-1.42893">
        <ele>99</ele>
        <time>2020-05-29T15:48:53.000Z</time>
      </trkpt>
      <trkpt lat="47.12262" lon="-1.42879">
        <ele>99</ele>
        <time>2020-05-29T15:48:55.000Z</time>
      </trkpt>
      <trkpt lat="47.12265" lon="-1.42865">
        <ele>99</ele>
        <time>2020-05-29T15:48:57.000Z</time>
      </trkpt>
      <trkpt lat="47.12267" lon="-1.42852">
        <ele>99</ele>
        <time>2020-05-29T15:48:59.000Z</time>
      </trkpt>
      <trkpt lat="47.12269" lon="-1.42838">
        <ele>99</ele>
        <time>2020-05-29T15:49:01.000Z</time>
      </trkpt>
      <trkpt lat="47.12271" lon="-1.42823">
        <ele>99</ele>
        <time>2020-05-29T15:49:03.000Z</time>
      </trkpt>
      <trkpt lat="47.12272" lon="-1.42809">
        <ele>99</ele>
        <time>2020-05-29T15:49:05.000Z</time>
      </trkpt>
      <trkpt lat="47.12274" lon="-1.42795">
        <ele>99</ele>
        <time>2020-05-29T15:49:07.000Z</time>
      </trkpt>
      <trkpt lat="47.12276" lon="-1.42781">
        <ele>99</ele>
        <time>2020-05-29T15:49:09.000Z</time>
      </trkpt>
      <trkpt lat="47.12278" lon="-1.42767">
        <ele>99</ele>
        <time>2020-05-29T15:49:11.000Z</time>
      </trkpt>
      <trkpt lat="47.1228" lon="-1.42753">
        <ele>99</ele>
        <time>2020-05-29T15:49:13.000Z</time>
      </trkpt>
      <trkpt lat="47.12282" lon="-1.42739">
        <ele>99</ele>
        <time>2020-05-29T15:49:15.000Z</time>
      </trkpt>
      <trkpt lat="47.12284" lon="-1.42724">
        <ele>98</ele>
        <time>2020-05-29T15:49:17.000Z</time>
      </trkpt>
      <trkpt lat="47.12286" lon="-1.42709">
        <ele>99</ele>
        <time>2020-05-29T15:49:19.000Z</time>
      </trkpt>
      <trkpt lat="47.12288" lon="-1.42693">
        <ele>98</ele>
        <time>2020-05-29T15:49:21.000Z</time>
      </trkpt>
      <trkpt lat="47.12291" lon="-1.42678">
        <ele>99</ele>
        <time>2020-05-29T15:49:23.000Z</time>
      </trkpt>
      <trkpt lat="47.12293" lon="-1.42664">
        <ele>98</ele>
        <time>2020-05-29T15:49:25.000Z</time>
      </trkpt>
      <trkpt lat="47.12295" lon="-1.4265">
        <ele>98</ele>
        <time>2020-05-29T15:49:27.000Z</time>
      </trkpt>
      <trkpt lat="47.12297" lon="-1.42636">
        <ele>98</ele>
        <time>2020-05-29T15:49:29.000Z</time>
      </trkpt>
      <trkpt lat="47.12301" lon="-1.42617">
        <ele>98</ele>
        <time>2020-05-29T15:49:32.000Z</time>
      </trkpt>
      <trkpt lat="47.12306" lon="-1.42604">
        <ele>98</ele>
        <time>2020-05-29T15:49:34.000Z</time>
      </trkpt>
      <trkpt lat="47.12313" lon="-1.42593">
        <ele>98</ele>
        <time>2020-05-29T15:49:36.000Z</time>
      </trkpt>
      <trkpt lat="47.12321" lon="-1.42584">
        <ele>99</ele>
        <time>2020-05-29T15:49:38.000Z</time>
      </trkpt>
      <trkpt lat="47.1233" lon="-1.42576">
        <ele>99</ele>
        <time>2020-05-29T15:49:40.000Z</time>
      </trkpt>
      <trkpt lat="47.12339" lon="-1.42569">
        <ele>99</ele>
        <time>2020-05-29T15:49:42.000Z</time>
      </trkpt>
      <trkpt lat="47.12348" lon="-1.42561">
        <ele>100</ele>
        <time>2020-05-29T15:49:44.000Z</time>
      </trkpt>
      <trkpt lat="47.12356" lon="-1.42554">
        <ele>100</ele>
        <time>2020-05-29T15:49:46.000Z</time>
      </trkpt>
      <trkpt lat="47.12366" lon="-1.42547">
        <ele>100</ele>
        <time>2020-05-29T15:49:48.000Z</time>
      </trkpt>
      <trkpt lat="47.12375" lon="-1.42539">
        <ele>100</ele>
        <time>2020-05-29T15:49:50.000Z</time>
      </trkpt>
      <trkpt lat="47.12384" lon="-1.42532">
        <ele>100</ele>
        <time>2020-05-29T15:49:52.000Z</time>
      </trkpt>
      <trkpt lat="47.12391" lon="-1.4252">
        <ele>100</ele>
        <time>2020-05-29T15:49:54.000Z</time>
      </trkpt>
      <trkpt lat="47.12395" lon="-1.42505">
        <ele>100</ele>
        <time>2020-05-29T15:49:56.000Z</time>
      </trkpt>
      <trkpt lat="47.12395" lon="-1.42489">
        <ele>100</ele>
        <time>2020-05-29T15:49:58.000Z</time>
      </trkpt>
      <trkpt lat="47.12394" lon="-1.42472">
        <ele>100</ele>
        <time>2020-05-29T15:50:00.000Z</time>
      </trkpt>
      <trkpt lat="47.12392" lon="-1.42456">
        <ele>101</ele>
        <time>2020-05-29T15:50:02.000Z</time>
      </trkpt>
      <trkpt lat="47.12391" lon="-1.4244">
        <ele>101</ele>
        <time>2020-05-29T15:50:04.000Z</time>
      </trkpt>
      <trkpt lat="47.1239" lon="-1.42425">
        <ele>102</ele>
        <time>2020-05-29T15:50:06.000Z</time>
      </trkpt>
      <trkpt lat="47.12392" lon="-1.42409">
        <ele>101</ele>
        <time>2020-05-29T15:50:08.000Z</time>
      </trkpt>
      <trkpt lat="47.12396" lon="-1.42395">
        <ele>101</ele>
        <time>2020-05-29T15:50:10.000Z</time>
      </trkpt>
      <trkpt lat="47.12403" lon="-1.42381">
        <ele>101</ele>
        <time>2020-05-29T15:50:12.000Z</time>
      </trkpt>
      <trkpt lat="47.12411" lon="-1.42372">
        <ele>101</ele>
        <time>2020-05-29T15:50:14.000Z</time>
      </trkpt>
      <trkpt lat="47.1242" lon="-1.42364">
        <ele>101</ele>
        <time>2020-05-29T15:50:16.000Z</time>
      </trkpt>
      <trkpt lat="47.12425" lon="-1.42352">
        <ele>101</ele>
        <time>2020-05-29T15:50:18.000Z</time>
      </trkpt>
      <trkpt lat="47.12426" lon="-1.42338">
        <ele>101</ele>
        <time>2020-05-29T15:50:20.000Z</time>
      </trkpt>
      <trkpt lat="47.12424" lon="-1.42322">
        <ele>101</ele>
        <time>2020-05-29T15:50:22.000Z</time>
      </trkpt>
      <trkpt lat="47.12421" lon="-1.42307">
        <ele>101</ele>
        <time>2020-05-29T15:50:24.000Z</time>
      </trkpt>
      <trkpt lat="47.12419" lon="-1.42291">
        <ele>102</ele>
        <time>2020-05-29T15:50:26.000Z</time>
      </trkpt>
      <trkpt lat="47.12414" lon="-1.42277">
        <ele>101</ele>
        <time>2020-05-29T15:50:28.000Z</time>
      </trkpt>
      <trkpt lat="47.1241" lon="-1.42261">
        <ele>100</ele>
        <time>2020-05-29T15:50:30.000Z</time>
      </trkpt>
      <trkpt lat="47.12405" lon="-1.42245">
        <ele>100</ele>
        <time>2020-05-29T15:50:32.000Z</time>
      </trkpt>
      <trkpt lat="47.12402" lon="-1.42229">
        <ele>100</ele>
        <time>2020-05-29T15:50:34.000Z</time>
      </trkpt>
      <trkpt lat="47.12398" lon="-1.42213">
        <ele>101</ele>
        <time>2020-05-29T15:50:36.000Z</time>
      </trkpt>
      <trkpt lat="47.12394" lon="-1.42197">
        <ele>100</ele>
        <time>2020-05-29T15:50:38.000Z</time>
      </trkpt>
      <trkpt lat="47.12389" lon="-1.4218">
        <ele>100</ele>
        <time>2020-05-29T15:50:40.000Z</time>
      </trkpt>
      <trkpt lat="47.12384" lon="-1.42162">
        <ele>100</ele>
        <time>2020-05-29T15:50:42.000Z</time>
      </trkpt>
      <trkpt lat="47.1238" lon="-1.42147">
        <ele>100</ele>
        <time>2020-05-29T15:50:44.000Z</time>
      </trkpt>
      <trkpt lat="47.12374" lon="-1.42131">
        <ele>99</ele>
        <time>2020-05-29T15:50:46.000Z</time>
      </trkpt>
      <trkpt lat="47.12367" lon="-1.42116">
        <ele>98</ele>
        <time>2020-05-29T15:50:48.000Z</time>
      </trkpt>
      <trkpt lat="47.12358" lon="-1.42102">
        <ele>98</ele>
        <time>2020-05-29T15:50:50.000Z</time>
      </trkpt>
      <trkpt lat="47.12351" lon="-1.42088">
        <ele>98</ele>
        <time>2020-05-29T15:50:52.000Z</time>
      </trkpt>
      <trkpt lat="47.12344" lon="-1.42076">
        <ele>97</ele>
        <time>2020-05-29T15:50:54.000Z</time>
      </trkpt>
      <trkpt lat="47.12337" lon="-1.42062">
        <ele>98</ele>
        <time>2020-05-29T15:50:57.000Z</time>
      </trkpt>
      <trkpt lat="47.12345" lon="-1.42047">
        <ele>99</ele>
        <time>2020-05-29T15:51:00.000Z</time>
      </trkpt>
      <trkpt lat="47.12355" lon="-1.42039">
        <ele>98</ele>
        <time>2020-05-29T15:51:02.000Z</time>
      </trkpt>
      <trkpt lat="47.12365" lon="-1.4203">
        <ele>99</ele>
        <time>2020-05-29T15:51:04.000Z</time>
      </trkpt>
      <trkpt lat="47.12376" lon="-1.42022">
        <ele>99</ele>
        <time>2020-05-29T15:51:06.000Z</time>
      </trkpt>
      <trkpt lat="47.12386" lon="-1.42013">
        <ele>99</ele>
        <time>2020-05-29T15:51:08.000Z</time>
      </trkpt>
      <trkpt lat="47.12396" lon="-1.42003">
        <ele>98</ele>
        <time>2020-05-29T15:51:10.000Z</time>
      </trkpt>
      <trkpt lat="47.12405" lon="-1.4199">
        <ele>97</ele>
        <time>2020-05-29T15:51:12.000Z</time>
      </trkpt>
      <trkpt lat="47.12414" lon="-1.41976">
        <ele>96</ele>
        <time>2020-05-29T15:51:14.000Z</time>
      </trkpt>
      <trkpt lat="47.12423" lon="-1.41961">
        <ele>95</ele>
        <time>2020-05-29T15:51:16.000Z</time>
      </trkpt>
      <trkpt lat="47.12432" lon="-1.41945">
        <ele>94</ele>
        <time>2020-05-29T15:51:18.000Z</time>
      </trkpt>
      <trkpt lat="47.12443" lon="-1.41931">
        <ele>94</ele>
        <time>2020-05-29T15:51:20.000Z</time>
      </trkpt>
      <trkpt lat="47.12453" lon="-1.41918">
        <ele>94</ele>
        <time>2020-05-29T15:51:22.000Z</time>
      </trkpt>
      <trkpt lat="47.12461" lon="-1.41907">
        <ele>94</ele>
        <time>2020-05-29T15:51:25.000Z</time>
      </trkpt>
      <trkpt lat="47.12472" lon="-1.41898">
        <ele>95</ele>
        <time>2020-05-29T15:51:28.000Z</time>
      </trkpt>
      <trkpt lat="47.12482" lon="-1.41889">
        <ele>95</ele>
        <time>2020-05-29T15:51:30.000Z</time>
      </trkpt>
      <trkpt lat="47.12492" lon="-1.4188">
        <ele>95</ele>
        <time>2020-05-29T15:51:32.000Z</time>
      </trkpt>
      <trkpt lat="47.12504" lon="-1.41872">
        <ele>95</ele>
        <time>2020-05-29T15:51:34.000Z</time>
      </trkpt>
      <trkpt lat="47.12518" lon="-1.41864">
        <ele>94</ele>
        <time>2020-05-29T15:51:36.000Z</time>
      </trkpt>
      <trkpt lat="47.12531" lon="-1.41857">
        <ele>93</ele>
        <time>2020-05-29T15:51:38.000Z</time>
      </trkpt>
      <trkpt lat="47.12546" lon="-1.4185">
        <ele>92</ele>
        <time>2020-05-29T15:51:40.000Z</time>
      </trkpt>
      <trkpt lat="47.1256" lon="-1.41842">
        <ele>92</ele>
        <time>2020-05-29T15:51:42.000Z</time>
      </trkpt>
      <trkpt lat="47.12571" lon="-1.41823">
        <ele>90</ele>
        <time>2020-05-29T15:51:44.000Z</time>
      </trkpt>
      <trkpt lat="47.12576" lon="-1.41798">
        <ele>89</ele>
        <time>2020-05-29T15:51:46.000Z</time>
      </trkpt>
      <trkpt lat="47.12582" lon="-1.41774">
        <ele>88</ele>
        <time>2020-05-29T15:51:48.000Z</time>
      </trkpt>
      <trkpt lat="47.1259" lon="-1.41751">
        <ele>87</ele>
        <time>2020-05-29T15:51:50.000Z</time>
      </trkpt>
      <trkpt lat="47.12601" lon="-1.41734">
        <ele>86</ele>
        <time>2020-05-29T15:51:52.000Z</time>
      </trkpt>
      <trkpt lat="47.12617" lon="-1.41727">
        <ele>86</ele>
        <time>2020-05-29T15:51:54.000Z</time>
      </trkpt>
      <trkpt lat="47.12634" lon="-1.4172">
        <ele>85</ele>
        <time>2020-05-29T15:51:56.000Z</time>
      </trkpt>
      <trkpt lat="47.12649" lon="-1.41713">
        <ele>83</ele>
        <time>2020-05-29T15:51:58.000Z</time>
      </trkpt>
      <trkpt lat="47.12664" lon="-1.41699">
        <ele>82</ele>
        <time>2020-05-29T15:52:00.000Z</time>
      </trkpt>
      <trkpt lat="47.12672" lon="-1.41692">
        <ele>82</ele>
        <time>2020-05-29T15:52:01.000Z</time>
      </trkpt>
      <trkpt lat="47.12682" lon="-1.41684">
        <ele>81</ele>
        <time>2020-05-29T15:52:02.000Z</time>
      </trkpt>
      <trkpt lat="47.12693" lon="-1.41678">
        <ele>80</ele>
        <time>2020-05-29T15:52:03.000Z</time>
      </trkpt>
      <trkpt lat="47.12703" lon="-1.41673">
        <ele>79</ele>
        <time>2020-05-29T15:52:04.000Z</time>
      </trkpt>
      <trkpt lat="47.12714" lon="-1.41671">
        <ele>77</ele>
        <time>2020-05-29T15:52:05.000Z</time>
      </trkpt>
      <trkpt lat="47.12725" lon="-1.4167">
        <ele>77</ele>
        <time>2020-05-29T15:52:06.000Z</time>
      </trkpt>
      <trkpt lat="47.12734" lon="-1.4167">
        <ele>76</ele>
        <time>2020-05-29T15:52:07.000Z</time>
      </trkpt>
      <trkpt lat="47.12749" lon="-1.4167">
        <ele>75</ele>
        <time>2020-05-29T15:52:09.000Z</time>
      </trkpt>
      <trkpt lat="47.12761" lon="-1.41667">
        <ele>74</ele>
        <time>2020-05-29T15:52:11.000Z</time>
      </trkpt>
      <trkpt lat="47.12771" lon="-1.41655">
        <ele>73</ele>
        <time>2020-05-29T15:52:13.000Z</time>
      </trkpt>
      <trkpt lat="47.12777" lon="-1.41637">
        <ele>73</ele>
        <time>2020-05-29T15:52:15.000Z</time>
      </trkpt>
      <trkpt lat="47.12777" lon="-1.41617">
        <ele>72</ele>
        <time>2020-05-29T15:52:17.000Z</time>
      </trkpt>
      <trkpt lat="47.12767" lon="-1.41597">
        <ele>71</ele>
        <time>2020-05-29T15:52:19.000Z</time>
      </trkpt>
      <trkpt lat="47.12752" lon="-1.41586">
        <ele>71</ele>
        <time>2020-05-29T15:52:21.000Z</time>
      </trkpt>
      <trkpt lat="47.12742" lon="-1.41586">
        <ele>70</ele>
        <time>2020-05-29T15:52:22.000Z</time>
      </trkpt>
      <trkpt lat="47.12726" lon="-1.41592">
        <ele>69</ele>
        <time>2020-05-29T15:52:24.000Z</time>
      </trkpt>
      <trkpt lat="47.12711" lon="-1.41596">
        <ele>68</ele>
        <time>2020-05-29T15:52:26.000Z</time>
      </trkpt>
      <trkpt lat="47.12696" lon="-1.41589">
        <ele>67</ele>
        <time>2020-05-29T15:52:28.000Z</time>
      </trkpt>
      <trkpt lat="47.12683" lon="-1.41577">
        <ele>67</ele>
        <time>2020-05-29T15:52:30.000Z</time>
      </trkpt>
      <trkpt lat="47.12673" lon="-1.41571">
        <ele>66</ele>
        <time>2020-05-29T15:52:32.000Z</time>
      </trkpt>
      <trkpt lat="47.12664" lon="-1.41574">
        <ele>66</ele>
        <time>2020-05-29T15:52:34.000Z</time>
      </trkpt>
      <trkpt lat="47.12654" lon="-1.41584">
        <ele>65</ele>
        <time>2020-05-29T15:52:36.000Z</time>
      </trkpt>
      <trkpt lat="47.1264" lon="-1.41591">
        <ele>64</ele>
        <time>2020-05-29T15:52:38.000Z</time>
      </trkpt>
      <trkpt lat="47.12623" lon="-1.41587">
        <ele>62</ele>
        <time>2020-05-29T15:52:40.000Z</time>
      </trkpt>
      <trkpt lat="47.12615" lon="-1.41582">
        <ele>62</ele>
        <time>2020-05-29T15:52:41.000Z</time>
      </trkpt>
      <trkpt lat="47.12607" lon="-1.41573">
        <ele>62</ele>
        <time>2020-05-29T15:52:42.000Z</time>
      </trkpt>
      <trkpt lat="47.126" lon="-1.41563">
        <ele>60</ele>
        <time>2020-05-29T15:52:43.000Z</time>
      </trkpt>
      <trkpt lat="47.12594" lon="-1.41553">
        <ele>59</ele>
        <time>2020-05-29T15:52:44.000Z</time>
      </trkpt>
      <trkpt lat="47.12588" lon="-1.41542">
        <ele>58</ele>
        <time>2020-05-29T15:52:45.000Z</time>
      </trkpt>
      <trkpt lat="47.12582" lon="-1.41531">
        <ele>58</ele>
        <time>2020-05-29T15:52:46.000Z</time>
      </trkpt>
      <trkpt lat="47.12577" lon="-1.4152">
        <ele>57</ele>
        <time>2020-05-29T15:52:47.000Z</time>
      </trkpt>
      <trkpt lat="47.12571" lon="-1.4151">
        <ele>56</ele>
        <time>2020-05-29T15:52:48.000Z</time>
      </trkpt>
      <trkpt lat="47.12559" lon="-1.4149">
        <ele>56</ele>
        <time>2020-05-29T15:52:50.000Z</time>
      </trkpt>
      <trkpt lat="47.12548" lon="-1.41472">
        <ele>56</ele>
        <time>2020-05-29T15:52:52.000Z</time>
      </trkpt>
      <trkpt lat="47.12539" lon="-1.41455">
        <ele>56</ele>
        <time>2020-05-29T15:52:54.000Z</time>
      </trkpt>
      <trkpt lat="47.12531" lon="-1.41441">
        <ele>55</ele>
        <time>2020-05-29T15:52:56.000Z</time>
      </trkpt>
      <trkpt lat="47.12523" lon="-1.41428">
        <ele>55</ele>
        <time>2020-05-29T15:52:58.000Z</time>
      </trkpt>
      <trkpt lat="47.12525" lon="-1.4141">
        <ele>55</ele>
        <time>2020-05-29T15:53:00.000Z</time>
      </trkpt>
      <trkpt lat="47.12536" lon="-1.41396">
        <ele>56</ele>
        <time>2020-05-29T15:53:02.000Z</time>
      </trkpt>
      <trkpt lat="47.12547" lon="-1.41379">
        <ele>56</ele>
        <time>2020-05-29T15:53:04.000Z</time>
      </trkpt>
      <trkpt lat="47.12558" lon="-1.41363">
        <ele>57</ele>
        <time>2020-05-29T15:53:06.000Z</time>
      </trkpt>
      <trkpt lat="47.12568" lon="-1.41347">
        <ele>58</ele>
        <time>2020-05-29T15:53:08.000Z</time>
      </trkpt>
      <trkpt lat="47.12577" lon="-1.41332">
        <ele>59</ele>
        <time>2020-05-29T15:53:10.000Z</time>
      </trkpt>
      <trkpt lat="47.12585" lon="-1.41319">
        <ele>60</ele>
        <time>2020-05-29T15:53:12.000Z</time>
      </trkpt>
      <trkpt lat="47.12592" lon="-1.41308">
        <ele>60</ele>
        <time>2020-05-29T15:53:14.000Z</time>
      </trkpt>
      <trkpt lat="47.12596" lon="-1.41296">
        <ele>60</ele>
        <time>2020-05-29T15:53:16.000Z</time>
      </trkpt>
      <trkpt lat="47.12603" lon="-1.41279">
        <ele>61</ele>
        <time>2020-05-29T15:53:19.000Z</time>
      </trkpt>
      <trkpt lat="47.12613" lon="-1.4127">
        <ele>63</ele>
        <time>2020-05-29T15:53:22.000Z</time>
      </trkpt>
      <trkpt lat="47.12625" lon="-1.41264">
        <ele>65</ele>
        <time>2020-05-29T15:53:25.000Z</time>
      </trkpt>
      <trkpt lat="47.12634" lon="-1.4126">
        <ele>65</ele>
        <time>2020-05-29T15:53:27.000Z</time>
      </trkpt>
      <trkpt lat="47.12644" lon="-1.41252">
        <ele>65</ele>
        <time>2020-05-29T15:53:30.000Z</time>
      </trkpt>
      <trkpt lat="47.12653" lon="-1.41248">
        <ele>66</ele>
        <time>2020-05-29T15:53:32.000Z</time>
      </trkpt>
      <trkpt lat="47.12662" lon="-1.41246">
        <ele>66</ele>
        <time>2020-05-29T15:53:34.000Z</time>
      </trkpt>
      <trkpt lat="47.12675" lon="-1.41242">
        <ele>68</ele>
        <time>2020-05-29T15:53:37.000Z</time>
      </trkpt>
      <trkpt lat="47.12687" lon="-1.41235">
        <ele>69</ele>
        <time>2020-05-29T15:53:40.000Z</time>
      </trkpt>
      <trkpt lat="47.12698" lon="-1.41227">
        <ele>70</ele>
        <time>2020-05-29T15:53:43.000Z</time>
      </trkpt>
      <trkpt lat="47.12707" lon="-1.41219">
        <ele>72</ele>
        <time>2020-05-29T15:53:46.000Z</time>
      </trkpt>
      <trkpt lat="47.12717" lon="-1.41212">
        <ele>74</ele>
        <time>2020-05-29T15:53:49.000Z</time>
      </trkpt>
      <trkpt lat="47.12727" lon="-1.41204">
        <ele>75</ele>
        <time>2020-05-29T15:53:52.000Z</time>
      </trkpt>
      <trkpt lat="47.12736" lon="-1.41194">
        <ele>75</ele>
        <time>2020-05-29T15:53:55.000Z</time>
      </trkpt>
      <trkpt lat="47.12744" lon="-1.41183">
        <ele>75</ele>
        <time>2020-05-29T15:53:58.000Z</time>
      </trkpt>
      <trkpt lat="47.12752" lon="-1.41169">
        <ele>75</ele>
        <time>2020-05-29T15:54:01.000Z</time>
      </trkpt>
      <trkpt lat="47.12759" lon="-1.41158">
        <ele>76</ele>
        <time>2020-05-29T15:54:03.000Z</time>
      </trkpt>
      <trkpt lat="47.12767" lon="-1.41143">
        <ele>77</ele>
        <time>2020-05-29T15:54:06.000Z</time>
      </trkpt>
      <trkpt lat="47.12773" lon="-1.41131">
        <ele>78</ele>
        <time>2020-05-29T15:54:09.000Z</time>
      </trkpt>
      <trkpt lat="47.1278" lon="-1.4112">
        <ele>78</ele>
        <time>2020-05-29T15:54:12.000Z</time>
      </trkpt>
      <trkpt lat="47.12786" lon="-1.4111">
        <ele>78</ele>
        <time>2020-05-29T15:54:15.000Z</time>
      </trkpt>
      <trkpt lat="47.12792" lon="-1.41098">
        <ele>78</ele>
        <time>2020-05-29T15:54:18.000Z</time>
      </trkpt>
      <trkpt lat="47.128" lon="-1.41084">
        <ele>78</ele>
        <time>2020-05-29T15:54:21.000Z</time>
      </trkpt>
      <trkpt lat="47.12806" lon="-1.41069">
        <ele>79</ele>
        <time>2020-05-29T15:54:24.000Z</time>
      </trkpt>
      <trkpt lat="47.12808" lon="-1.41052">
        <ele>79</ele>
        <time>2020-05-29T15:54:27.000Z</time>
      </trkpt>
      <trkpt lat="47.12807" lon="-1.41033">
        <ele>80</ele>
        <time>2020-05-29T15:54:30.000Z</time>
      </trkpt>
      <trkpt lat="47.12803" lon="-1.41016">
        <ele>81</ele>
        <time>2020-05-29T15:54:33.000Z</time>
      </trkpt>
      <trkpt lat="47.12796" lon="-1.41">
        <ele>83</ele>
        <time>2020-05-29T15:54:36.000Z</time>
      </trkpt>
      <trkpt lat="47.12789" lon="-1.40986">
        <ele>83</ele>
        <time>2020-05-29T15:54:39.000Z</time>
      </trkpt>
      <trkpt lat="47.12783" lon="-1.40972">
        <ele>84</ele>
        <time>2020-05-29T15:54:42.000Z</time>
      </trkpt>
      <trkpt lat="47.12778" lon="-1.40957">
        <ele>85</ele>
        <time>2020-05-29T15:54:45.000Z</time>
      </trkpt>
      <trkpt lat="47.12772" lon="-1.40942">
        <ele>86</ele>
        <time>2020-05-29T15:54:48.000Z</time>
      </trkpt>
      <trkpt lat="47.12764" lon="-1.4093">
        <ele>87</ele>
        <time>2020-05-29T15:54:51.000Z</time>
      </trkpt>
      <trkpt lat="47.12754" lon="-1.40921">
        <ele>89</ele>
        <time>2020-05-29T15:54:54.000Z</time>
      </trkpt>
      <trkpt lat="47.12743" lon="-1.40916">
        <ele>91</ele>
        <time>2020-05-29T15:54:57.000Z</time>
      </trkpt>
      <trkpt lat="47.12732" lon="-1.40913">
        <ele>91</ele>
        <time>2020-05-29T15:55:00.000Z</time>
      </trkpt>
      <trkpt lat="47.1272" lon="-1.40911">
        <ele>92</ele>
        <time>2020-05-29T15:55:03.000Z</time>
      </trkpt>
      <trkpt lat="47.12709" lon="-1.40908">
        <ele>93</ele>
        <time>2020-05-29T15:55:06.000Z</time>
      </trkpt>
      <trkpt lat="47.12698" lon="-1.40906">
        <ele>94</ele>
        <time>2020-05-29T15:55:09.000Z</time>
      </trkpt>
      <trkpt lat="47.12687" lon="-1.40903">
        <ele>95</ele>
        <time>2020-05-29T15:55:12.000Z</time>
      </trkpt>
      <trkpt lat="47.12676" lon="-1.40901">
        <ele>95</ele>
        <time>2020-05-29T15:55:15.000Z</time>
      </trkpt>
      <trkpt lat="47.12664" lon="-1.40898">
        <ele>96</ele>
        <time>2020-05-29T15:55:18.000Z</time>
      </trkpt>
      <trkpt lat="47.12652" lon="-1.40895">
        <ele>96</ele>
        <time>2020-05-29T15:55:21.000Z</time>
      </trkpt>
      <trkpt lat="47.1264" lon="-1.40893">
        <ele>96</ele>
        <time>2020-05-29T15:55:24.000Z</time>
      </trkpt>
      <trkpt lat="47.12627" lon="-1.4089">
        <ele>97</ele>
        <time>2020-05-29T15:55:27.000Z</time>
      </trkpt>
      <trkpt lat="47.12614" lon="-1.40887">
        <ele>97</ele>
        <time>2020-05-29T15:55:30.000Z</time>
      </trkpt>
      <trkpt lat="47.12602" lon="-1.40884">
        <ele>98</ele>
        <time>2020-05-29T15:55:33.000Z</time>
      </trkpt>
      <trkpt lat="47.1259" lon="-1.40881">
        <ele>98</ele>
        <time>2020-05-29T15:55:36.000Z</time>
      </trkpt>
      <trkpt lat="47.12577" lon="-1.40879">
        <ele>98</ele>
        <time>2020-05-29T15:55:39.000Z</time>
      </trkpt>
      <trkpt lat="47.12564" lon="-1.40876">
        <ele>98</ele>
        <time>2020-05-29T15:55:42.000Z</time>
      </trkpt>
      <trkpt lat="47.12555" lon="-1.40875">
        <ele>99</ele>
        <time>2020-05-29T15:55:44.000Z</time>
      </trkpt>
      <trkpt lat="47.12546" lon="-1.40872">
        <ele>99</ele>
        <time>2020-05-29T15:55:46.000Z</time>
      </trkpt>
      <trkpt lat="47.12537" lon="-1.4087">
        <ele>99</ele>
        <time>2020-05-29T15:55:48.000Z</time>
      </trkpt>
      <trkpt lat="47.12527" lon="-1.40868">
        <ele>99</ele>
        <time>2020-05-29T15:55:50.000Z</time>
      </trkpt>
      <trkpt lat="47.12517" lon="-1.40865">
        <ele>99</ele>
        <time>2020-05-29T15:55:52.000Z</time>
      </trkpt>
      <trkpt lat="47.12506" lon="-1.40862">
        <ele>99</ele>
        <time>2020-05-29T15:55:54.000Z</time>
      </trkpt>
      <trkpt lat="47.12495" lon="-1.4086">
        <ele>99</ele>
        <time>2020-05-29T15:55:56.000Z</time>
      </trkpt>
      <trkpt lat="47.12483" lon="-1.40857">
        <ele>100</ele>
        <time>2020-05-29T15:55:58.000Z</time>
      </trkpt>
      <trkpt lat="47.12472" lon="-1.40854">
        <ele>100</ele>
        <time>2020-05-29T15:56:00.000Z</time>
      </trkpt>
      <trkpt lat="47.12461" lon="-1.40849">
        <ele>100</ele>
        <time>2020-05-29T15:56:02.000Z</time>
      </trkpt>
      <trkpt lat="47.1245" lon="-1.40844">
        <ele>100</ele>
        <time>2020-05-29T15:56:04.000Z</time>
      </trkpt>
      <trkpt lat="47.1244" lon="-1.40837">
        <ele>100</ele>
        <time>2020-05-29T15:56:06.000Z</time>
      </trkpt>
      <trkpt lat="47.12431" lon="-1.40828">
        <ele>101</ele>
        <time>2020-05-29T15:56:08.000Z</time>
      </trkpt>
      <trkpt lat="47.12423" lon="-1.40817">
        <ele>101</ele>
        <time>2020-05-29T15:56:10.000Z</time>
      </trkpt>
      <trkpt lat="47.12415" lon="-1.40805">
        <ele>101</ele>
        <time>2020-05-29T15:56:12.000Z</time>
      </trkpt>
      <trkpt lat="47.12407" lon="-1.40794">
        <ele>101</ele>
        <time>2020-05-29T15:56:14.000Z</time>
      </trkpt>
      <trkpt lat="47.12399" lon="-1.40782">
        <ele>101</ele>
        <time>2020-05-29T15:56:16.000Z</time>
      </trkpt>
      <trkpt lat="47.12391" lon="-1.4077">
        <ele>101</ele>
        <time>2020-05-29T15:56:18.000Z</time>
      </trkpt>
      <trkpt lat="47.12384" lon="-1.40758">
        <ele>101</ele>
        <time>2020-05-29T15:56:20.000Z</time>
      </trkpt>
      <trkpt lat="47.12377" lon="-1.40748">
        <ele>101</ele>
        <time>2020-05-29T15:56:22.000Z</time>
      </trkpt>
      <trkpt lat="47.1237" lon="-1.40736">
        <ele>102</ele>
        <time>2020-05-29T15:56:24.000Z</time>
      </trkpt>
      <trkpt lat="47.12363" lon="-1.40724">
        <ele>101</ele>
        <time>2020-05-29T15:56:26.000Z</time>
      </trkpt>
      <trkpt lat="47.12355" lon="-1.40714">
        <ele>101</ele>
        <time>2020-05-29T15:56:28.000Z</time>
      </trkpt>
      <trkpt lat="47.12345" lon="-1.40705">
        <ele>101</ele>
        <time>2020-05-29T15:56:30.000Z</time>
      </trkpt>
      <trkpt lat="47.12335" lon="-1.40698">
        <ele>101</ele>
        <time>2020-05-29T15:56:32.000Z</time>
      </trkpt>
      <trkpt lat="47.12325" lon="-1.40694">
        <ele>101</ele>
        <time>2020-05-29T15:56:34.000Z</time>
      </trkpt>
      <trkpt lat="47.12315" lon="-1.40689">
        <ele>101</ele>
        <time>2020-05-29T15:56:36.000Z</time>
      </trkpt>
      <trkpt lat="47.12305" lon="-1.40685">
        <ele>101</ele>
        <time>2020-05-29T15:56:38.000Z</time>
      </trkpt>
      <trkpt lat="47.12295" lon="-1.4068">
        <ele>101</ele>
        <time>2020-05-29T15:56:40.000Z</time>
      </trkpt>
      <trkpt lat="47.12286" lon="-1.40672">
        <ele>102</ele>
        <time>2020-05-29T15:56:42.000Z</time>
      </trkpt>
      <trkpt lat="47.12279" lon="-1.40661">
        <ele>102</ele>
        <time>2020-05-29T15:56:44.000Z</time>
      </trkpt>
      <trkpt lat="47.12272" lon="-1.40648">
        <ele>101</ele>
        <time>2020-05-29T15:56:46.000Z</time>
      </trkpt>
      <trkpt lat="47.12267" lon="-1.40635">
        <ele>102</ele>
        <time>2020-05-29T15:56:48.000Z</time>
      </trkpt>
      <trkpt lat="47.12262" lon="-1.40622">
        <ele>102</ele>
        <time>2020-05-29T15:56:50.000Z</time>
      </trkpt>
      <trkpt lat="47.12256" lon="-1.40609">
        <ele>103</ele>
        <time>2020-05-29T15:56:52.000Z</time>
      </trkpt>
      <trkpt lat="47.1225" lon="-1.40595">
        <ele>103</ele>
        <time>2020-05-29T15:56:54.000Z</time>
      </trkpt>
      <trkpt lat="47.12244" lon="-1.40581">
        <ele>105</ele>
        <time>2020-05-29T15:56:56.000Z</time>
      </trkpt>
      <trkpt lat="47.12239" lon="-1.40566">
        <ele>105</ele>
        <time>2020-05-29T15:56:58.000Z</time>
      </trkpt>
      <trkpt lat="47.12235" lon="-1.40552">
        <ele>105</ele>
        <time>2020-05-29T15:57:00.000Z</time>
      </trkpt>
      <trkpt lat="47.12231" lon="-1.40537">
        <ele>106</ele>
        <time>2020-05-29T15:57:02.000Z</time>
      </trkpt>
      <trkpt lat="47.12227" lon="-1.40523">
        <ele>106</ele>
        <time>2020-05-29T15:57:04.000Z</time>
      </trkpt>
      <trkpt lat="47.12223" lon="-1.40508">
        <ele>107</ele>
        <time>2020-05-29T15:57:06.000Z</time>
      </trkpt>
      <trkpt lat="47.1222" lon="-1.40492">
        <ele>106</ele>
        <time>2020-05-29T15:57:08.000Z</time>
      </trkpt>
      <trkpt lat="47.12216" lon="-1.40475">
        <ele>106</ele>
        <time>2020-05-29T15:57:10.000Z</time>
      </trkpt>
      <trkpt lat="47.12213" lon="-1.40458">
        <ele>105</ele>
        <time>2020-05-29T15:57:12.000Z</time>
      </trkpt>
      <trkpt lat="47.1221" lon="-1.40443">
        <ele>105</ele>
        <time>2020-05-29T15:57:14.000Z</time>
      </trkpt>
      <trkpt lat="47.12206" lon="-1.40427">
        <ele>104</ele>
        <time>2020-05-29T15:57:16.000Z</time>
      </trkpt>
      <trkpt lat="47.12203" lon="-1.4041">
        <ele>104</ele>
        <time>2020-05-29T15:57:18.000Z</time>
      </trkpt>
      <trkpt lat="47.122" lon="-1.40394">
        <ele>104</ele>
        <time>2020-05-29T15:57:20.000Z</time>
      </trkpt>
      <trkpt lat="47.12197" lon="-1.40379">
        <ele>104</ele>
        <time>2020-05-29T15:57:22.000Z</time>
      </trkpt>
      <trkpt lat="47.12194" lon="-1.40363">
        <ele>104</ele>
        <time>2020-05-29T15:57:24.000Z</time>
      </trkpt>
      <trkpt lat="47.12191" lon="-1.40349">
        <ele>103</ele>
        <time>2020-05-29T15:57:26.000Z</time>
      </trkpt>
      <trkpt lat="47.12188" lon="-1.40336">
        <ele>103</ele>
        <time>2020-05-29T15:57:28.000Z</time>
      </trkpt>
      <trkpt lat="47.12184" lon="-1.40318">
        <ele>104</ele>
        <time>2020-05-29T15:57:31.000Z</time>
      </trkpt>
      <trkpt lat="47.12183" lon="-1.40304">
        <ele>104</ele>
        <time>2020-05-29T15:57:34.000Z</time>
      </trkpt>
      <trkpt lat="47.12192" lon="-1.40295">
        <ele>104</ele>
        <time>2020-05-29T15:57:36.000Z</time>
      </trkpt>
      <trkpt lat="47.12203" lon="-1.40289">
        <ele>104</ele>
        <time>2020-05-29T15:57:38.000Z</time>
      </trkpt>
      <trkpt lat="47.12213" lon="-1.40284">
        <ele>104</ele>
        <time>2020-05-29T15:57:40.000Z</time>
      </trkpt>
      <trkpt lat="47.12224" lon="-1.4028">
        <ele>104</ele>
        <time>2020-05-29T15:57:42.000Z</time>
      </trkpt>
      <trkpt lat="47.12235" lon="-1.40274">
        <ele>104</ele>
        <time>2020-05-29T15:57:44.000Z</time>
      </trkpt>
      <trkpt lat="47.12246" lon="-1.40269">
        <ele>104</ele>
        <time>2020-05-29T15:57:46.000Z</time>
      </trkpt>
      <trkpt lat="47.12257" lon="-1.40264">
        <ele>104</ele>
        <time>2020-05-29T15:57:48.000Z</time>
      </trkpt>
      <trkpt lat="47.12267" lon="-1.40259">
        <ele>104</ele>
        <time>2020-05-29T15:57:50.000Z</time>
      </trkpt>
      <trkpt lat="47.12277" lon="-1.40255">
        <ele>103</ele>
        <time>2020-05-29T15:57:52.000Z</time>
      </trkpt>
      <trkpt lat="47.12288" lon="-1.4025">
        <ele>103</ele>
        <time>2020-05-29T15:57:54.000Z</time>
      </trkpt>
      <trkpt lat="47.123" lon="-1.40244">
        <ele>103</ele>
        <time>2020-05-29T15:57:56.000Z</time>
      </trkpt>
      <trkpt lat="47.12312" lon="-1.40238">
        <ele>102</ele>
        <time>2020-05-29T15:57:58.000Z</time>
      </trkpt>
      <trkpt lat="47.12325" lon="-1.40232">
        <ele>102</ele>
        <time>2020-05-29T15:58:00.000Z</time>
      </trkpt>
      <trkpt lat="47.12338" lon="-1.40227">
        <ele>102</ele>
        <time>2020-05-29T15:58:02.000Z</time>
      </trkpt>
      <trkpt lat="47.1235" lon="-1.40221">
        <ele>101</ele>
        <time>2020-05-29T15:58:04.000Z</time>
      </trkpt>
      <trkpt lat="47.12363" lon="-1.40215">
        <ele>101</ele>
        <time>2020-05-29T15:58:06.000Z</time>
      </trkpt>
      <trkpt lat="47.12377" lon="-1.40208">
        <ele>101</ele>
        <time>2020-05-29T15:58:08.000Z</time>
      </trkpt>
      <trkpt lat="47.12392" lon="-1.40201">
        <ele>100</ele>
        <time>2020-05-29T15:58:10.000Z</time>
      </trkpt>
      <trkpt lat="47.12406" lon="-1.40195">
        <ele>100</ele>
        <time>2020-05-29T15:58:12.000Z</time>
      </trkpt>
      <trkpt lat="47.1242" lon="-1.40188">
        <ele>100</ele>
        <time>2020-05-29T15:58:14.000Z</time>
      </trkpt>
      <trkpt lat="47.12434" lon="-1.40181">
        <ele>100</ele>
        <time>2020-05-29T15:58:16.000Z</time>
      </trkpt>
      <trkpt lat="47.12448" lon="-1.40175">
        <ele>100</ele>
        <time>2020-05-29T15:58:18.000Z</time>
      </trkpt>
      <trkpt lat="47.12462" lon="-1.40167">
        <ele>100</ele>
        <time>2020-05-29T15:58:20.000Z</time>
      </trkpt>
      <trkpt lat="47.12477" lon="-1.4016">
        <ele>99</ele>
        <time>2020-05-29T15:58:22.000Z</time>
      </trkpt>
      <trkpt lat="47.12491" lon="-1.40153">
        <ele>98</ele>
        <time>2020-05-29T15:58:24.000Z</time>
      </trkpt>
      <trkpt lat="47.12507" lon="-1.40149">
        <ele>98</ele>
        <time>2020-05-29T15:58:26.000Z</time>
      </trkpt>
      <trkpt lat="47.12522" lon="-1.40147">
        <ele>97</ele>
        <time>2020-05-29T15:58:28.000Z</time>
      </trkpt>
      <trkpt lat="47.12538" lon="-1.40149">
        <ele>97</ele>
        <time>2020-05-29T15:58:30.000Z</time>
      </trkpt>
      <trkpt lat="47.12554" lon="-1.40153">
        <ele>96</ele>
        <time>2020-05-29T15:58:32.000Z</time>
      </trkpt>
      <trkpt lat="47.12568" lon="-1.40158">
        <ele>96</ele>
        <time>2020-05-29T15:58:34.000Z</time>
      </trkpt>
      <trkpt lat="47.12584" lon="-1.40162">
        <ele>95</ele>
        <time>2020-05-29T15:58:36.000Z</time>
      </trkpt>
      <trkpt lat="47.12599" lon="-1.40165">
        <ele>94</ele>
        <time>2020-05-29T15:58:38.000Z</time>
      </trkpt>
      <trkpt lat="47.12614" lon="-1.40165">
        <ele>94</ele>
        <time>2020-05-29T15:58:40.000Z</time>
      </trkpt>
      <trkpt lat="47.1263" lon="-1.40163">
        <ele>94</ele>
        <time>2020-05-29T15:58:42.000Z</time>
      </trkpt>
      <trkpt lat="47.12645" lon="-1.4016">
        <ele>94</ele>
        <time>2020-05-29T15:58:44.000Z</time>
      </trkpt>
      <trkpt lat="47.1266" lon="-1.40157">
        <ele>93</ele>
        <time>2020-05-29T15:58:46.000Z</time>
      </trkpt>
      <trkpt lat="47.12675" lon="-1.40154">
        <ele>92</ele>
        <time>2020-05-29T15:58:48.000Z</time>
      </trkpt>
      <trkpt lat="47.12689" lon="-1.40148">
        <ele>92</ele>
        <time>2020-05-29T15:58:50.000Z</time>
      </trkpt>
      <trkpt lat="47.12703" lon="-1.40138">
        <ele>91</ele>
        <time>2020-05-29T15:58:52.000Z</time>
      </trkpt>
      <trkpt lat="47.12715" lon="-1.40126">
        <ele>92</ele>
        <time>2020-05-29T15:58:54.000Z</time>
      </trkpt>
      <trkpt lat="47.12728" lon="-1.40113">
        <ele>92</ele>
        <time>2020-05-29T15:58:56.000Z</time>
      </trkpt>
      <trkpt lat="47.12741" lon="-1.40101">
        <ele>91</ele>
        <time>2020-05-29T15:58:58.000Z</time>
      </trkpt>
      <trkpt lat="47.12754" lon="-1.40089">
        <ele>91</ele>
        <time>2020-05-29T15:59:00.000Z</time>
      </trkpt>
      <trkpt lat="47.12766" lon="-1.40077">
        <ele>90</ele>
        <time>2020-05-29T15:59:02.000Z</time>
      </trkpt>
      <trkpt lat="47.12778" lon="-1.40066">
        <ele>90</ele>
        <time>2020-05-29T15:59:04.000Z</time>
      </trkpt>
      <trkpt lat="47.1279" lon="-1.40054">
        <ele>89</ele>
        <time>2020-05-29T15:59:06.000Z</time>
      </trkpt>
      <trkpt lat="47.12802" lon="-1.40042">
        <ele>89</ele>
        <time>2020-05-29T15:59:08.000Z</time>
      </trkpt>
      <trkpt lat="47.12814" lon="-1.4003">
        <ele>89</ele>
        <time>2020-05-29T15:59:10.000Z</time>
      </trkpt>
      <trkpt lat="47.12826" lon="-1.40018">
        <ele>89</ele>
        <time>2020-05-29T15:59:12.000Z</time>
      </trkpt>
      <trkpt lat="47.12837" lon="-1.40008">
        <ele>89</ele>
        <time>2020-05-29T15:59:14.000Z</time>
      </trkpt>
      <trkpt lat="47.12848" lon="-1.39997">
        <ele>89</ele>
        <time>2020-05-29T15:59:16.000Z</time>
      </trkpt>
      <trkpt lat="47.1286" lon="-1.39986">
        <ele>89</ele>
        <time>2020-05-29T15:59:18.000Z</time>
      </trkpt>
      <trkpt lat="47.12871" lon="-1.39975">
        <ele>89</ele>
        <time>2020-05-29T15:59:20.000Z</time>
      </trkpt>
      <trkpt lat="47.12883" lon="-1.39964">
        <ele>89</ele>
        <time>2020-05-29T15:59:22.000Z</time>
      </trkpt>
      <trkpt lat="47.12894" lon="-1.39956">
        <ele>89</ele>
        <time>2020-05-29T15:59:24.000Z</time>
      </trkpt>
      <trkpt lat="47.12907" lon="-1.39949">
        <ele>89</ele>
        <time>2020-05-29T15:59:26.000Z</time>
      </trkpt>
      <trkpt lat="47.1292" lon="-1.39945">
        <ele>89</ele>
        <time>2020-05-29T15:59:28.000Z</time>
      </trkpt>
      <trkpt lat="47.12931" lon="-1.3994">
        <ele>89</ele>
        <time>2020-05-29T15:59:30.000Z</time>
      </trkpt>
      <trkpt lat="47.12943" lon="-1.39935">
        <ele>89</ele>
        <time>2020-05-29T15:59:32.000Z</time>
      </trkpt>
      <trkpt lat="47.12954" lon="-1.3993">
        <ele>89</ele>
        <time>2020-05-29T15:59:34.000Z</time>
      </trkpt>
      <trkpt lat="47.12964" lon="-1.39925">
        <ele>90</ele>
        <time>2020-05-29T15:59:36.000Z</time>
      </trkpt>
      <trkpt lat="47.12975" lon="-1.39918">
        <ele>90</ele>
        <time>2020-05-29T15:59:38.000Z</time>
      </trkpt>
      <trkpt lat="47.12983" lon="-1.39909">
        <ele>90</ele>
        <time>2020-05-29T15:59:40.000Z</time>
      </trkpt>
      <trkpt lat="47.12991" lon="-1.39897">
        <ele>90</ele>
        <time>2020-05-29T15:59:43.000Z</time>
      </trkpt>
      <trkpt lat="47.13001" lon="-1.39895">
        <ele>90</ele>
        <time>2020-05-29T15:59:55.000Z</time>
      </trkpt>
      <trkpt lat="47.13007" lon="-1.39907">
        <ele>90</ele>
        <time>2020-05-29T15:59:57.000Z</time>
      </trkpt>
      <trkpt lat="47.13013" lon="-1.39921">
        <ele>91</ele>
        <time>2020-05-29T15:59:59.000Z</time>
      </trkpt>
      <trkpt lat="47.13021" lon="-1.39935">
        <ele>91</ele>
        <time>2020-05-29T16:00:01.000Z</time>
      </trkpt>
      <trkpt lat="47.13031" lon="-1.39949">
        <ele>91</ele>
        <time>2020-05-29T16:00:03.000Z</time>
      </trkpt>
      <trkpt lat="47.13042" lon="-1.39962">
        <ele>91</ele>
        <time>2020-05-29T16:00:05.000Z</time>
      </trkpt>
      <trkpt lat="47.13055" lon="-1.39974">
        <ele>90</ele>
        <time>2020-05-29T16:00:07.000Z</time>
      </trkpt>
      <trkpt lat="47.13068" lon="-1.39984">
        <ele>90</ele>
        <time>2020-05-29T16:00:09.000Z</time>
      </trkpt>
      <trkpt lat="47.13082" lon="-1.39993">
        <ele>89</ele>
        <time>2020-05-29T16:00:11.000Z</time>
      </trkpt>
      <trkpt lat="47.13096" lon="-1.40001">
        <ele>89</ele>
        <time>2020-05-29T16:00:13.000Z</time>
      </trkpt>
      <trkpt lat="47.1311" lon="-1.40008">
        <ele>89</ele>
        <time>2020-05-29T16:00:15.000Z</time>
      </trkpt>
      <trkpt lat="47.13123" lon="-1.40015">
        <ele>89</ele>
        <time>2020-05-29T16:00:17.000Z</time>
      </trkpt>
      <trkpt lat="47.13137" lon="-1.40022">
        <ele>89</ele>
        <time>2020-05-29T16:00:19.000Z</time>
      </trkpt>
      <trkpt lat="47.1315" lon="-1.40028">
        <ele>89</ele>
        <time>2020-05-29T16:00:21.000Z</time>
      </trkpt>
      <trkpt lat="47.13163" lon="-1.40035">
        <ele>89</ele>
        <time>2020-05-29T16:00:23.000Z</time>
      </trkpt>
      <trkpt lat="47.13176" lon="-1.40043">
        <ele>89</ele>
        <time>2020-05-29T16:00:25.000Z</time>
      </trkpt>
      <trkpt lat="47.13188" lon="-1.40051">
        <ele>89</ele>
        <time>2020-05-29T16:00:27.000Z</time>
      </trkpt>
      <trkpt lat="47.13201" lon="-1.40059">
        <ele>89</ele>
        <time>2020-05-29T16:00:29.000Z</time>
      </trkpt>
      <trkpt lat="47.13212" lon="-1.40067">
        <ele>90</ele>
        <time>2020-05-29T16:00:31.000Z</time>
      </trkpt>
      <trkpt lat="47.13224" lon="-1.40076">
        <ele>90</ele>
        <time>2020-05-29T16:00:33.000Z</time>
      </trkpt>
      <trkpt lat="47.13236" lon="-1.40085">
        <ele>90</ele>
        <time>2020-05-29T16:00:35.000Z</time>
      </trkpt>
      <trkpt lat="47.13247" lon="-1.40095">
        <ele>90</ele>
        <time>2020-05-29T16:00:37.000Z</time>
      </trkpt>
      <trkpt lat="47.13258" lon="-1.40104">
        <ele>90</ele>
        <time>2020-05-29T16:00:39.000Z</time>
      </trkpt>
      <trkpt lat="47.13269" lon="-1.40113">
        <ele>90</ele>
        <time>2020-05-29T16:00:41.000Z</time>
      </trkpt>
      <trkpt lat="47.1328" lon="-1.40123">
        <ele>90</ele>
        <time>2020-05-29T16:00:43.000Z</time>
      </trkpt>
      <trkpt lat="47.13291" lon="-1.40131">
        <ele>90</ele>
        <time>2020-05-29T16:00:45.000Z</time>
      </trkpt>
      <trkpt lat="47.13302" lon="-1.4014">
        <ele>91</ele>
        <time>2020-05-29T16:00:47.000Z</time>
      </trkpt>
      <trkpt lat="47.13313" lon="-1.40149">
        <ele>91</ele>
        <time>2020-05-29T16:00:49.000Z</time>
      </trkpt>
      <trkpt lat="47.13323" lon="-1.40157">
        <ele>91</ele>
        <time>2020-05-29T16:00:51.000Z</time>
      </trkpt>
      <trkpt lat="47.13334" lon="-1.40165">
        <ele>91</ele>
        <time>2020-05-29T16:00:53.000Z</time>
      </trkpt>
      <trkpt lat="47.13345" lon="-1.40172">
        <ele>91</ele>
        <time>2020-05-29T16:00:55.000Z</time>
      </trkpt>
      <trkpt lat="47.13357" lon="-1.40177">
        <ele>91</ele>
        <time>2020-05-29T16:00:57.000Z</time>
      </trkpt>
      <trkpt lat="47.13369" lon="-1.40179">
        <ele>91</ele>
        <time>2020-05-29T16:00:59.000Z</time>
      </trkpt>
      <trkpt lat="47.13381" lon="-1.4018">
        <ele>91</ele>
        <time>2020-05-29T16:01:01.000Z</time>
      </trkpt>
      <trkpt lat="47.13394" lon="-1.4018">
        <ele>91</ele>
        <time>2020-05-29T16:01:03.000Z</time>
      </trkpt>
      <trkpt lat="47.13406" lon="-1.4018">
        <ele>91</ele>
        <time>2020-05-29T16:01:05.000Z</time>
      </trkpt>
      <trkpt lat="47.13418" lon="-1.4018">
        <ele>91</ele>
        <time>2020-05-29T16:01:07.000Z</time>
      </trkpt>
      <trkpt lat="47.1343" lon="-1.40182">
        <ele>91</ele>
        <time>2020-05-29T16:01:09.000Z</time>
      </trkpt>
      <trkpt lat="47.13442" lon="-1.40185">
        <ele>92</ele>
        <time>2020-05-29T16:01:11.000Z</time>
      </trkpt>
      <trkpt lat="47.13454" lon="-1.4019">
        <ele>92</ele>
        <time>2020-05-29T16:01:13.000Z</time>
      </trkpt>
      <trkpt lat="47.13465" lon="-1.40196">
        <ele>92</ele>
        <time>2020-05-29T16:01:15.000Z</time>
      </trkpt>
      <trkpt lat="47.13476" lon="-1.40201">
        <ele>92</ele>
        <time>2020-05-29T16:01:17.000Z</time>
      </trkpt>
      <trkpt lat="47.13487" lon="-1.40206">
        <ele>92</ele>
        <time>2020-05-29T16:01:19.000Z</time>
      </trkpt>
      <trkpt lat="47.13499" lon="-1.40211">
        <ele>92</ele>
        <time>2020-05-29T16:01:21.000Z</time>
      </trkpt>
      <trkpt lat="47.13511" lon="-1.40216">
        <ele>92</ele>
        <time>2020-05-29T16:01:23.000Z</time>
      </trkpt>
      <trkpt lat="47.13523" lon="-1.40222">
        <ele>92</ele>
        <time>2020-05-29T16:01:25.000Z</time>
      </trkpt>
      <trkpt lat="47.13535" lon="-1.40228">
        <ele>92</ele>
        <time>2020-05-29T16:01:27.000Z</time>
      </trkpt>
      <trkpt lat="47.13547" lon="-1.40233">
        <ele>92</ele>
        <time>2020-05-29T16:01:29.000Z</time>
      </trkpt>
      <trkpt lat="47.13558" lon="-1.40238">
        <ele>91</ele>
        <time>2020-05-29T16:01:31.000Z</time>
      </trkpt>
      <trkpt lat="47.1357" lon="-1.40244">
        <ele>91</ele>
        <time>2020-05-29T16:01:33.000Z</time>
      </trkpt>
      <trkpt lat="47.13582" lon="-1.40249">
        <ele>91</ele>
        <time>2020-05-29T16:01:35.000Z</time>
      </trkpt>
      <trkpt lat="47.13594" lon="-1.40254">
        <ele>91</ele>
        <time>2020-05-29T16:01:37.000Z</time>
      </trkpt>
      <trkpt lat="47.13605" lon="-1.4026">
        <ele>91</ele>
        <time>2020-05-29T16:01:39.000Z</time>
      </trkpt>
      <trkpt lat="47.13617" lon="-1.40265">
        <ele>91</ele>
        <time>2020-05-29T16:01:41.000Z</time>
      </trkpt>
      <trkpt lat="47.13628" lon="-1.4027">
        <ele>91</ele>
        <time>2020-05-29T16:01:43.000Z</time>
      </trkpt>
      <trkpt lat="47.1364" lon="-1.40275">
        <ele>91</ele>
        <time>2020-05-29T16:01:45.000Z</time>
      </trkpt>
      <trkpt lat="47.13652" lon="-1.40278">
        <ele>91</ele>
        <time>2020-05-29T16:01:47.000Z</time>
      </trkpt>
      <trkpt lat="47.13664" lon="-1.4028">
        <ele>91</ele>
        <time>2020-05-29T16:01:49.000Z</time>
      </trkpt>
      <trkpt lat="47.13677" lon="-1.40281">
        <ele>90</ele>
        <time>2020-05-29T16:01:51.000Z</time>
      </trkpt>
      <trkpt lat="47.1369" lon="-1.40279">
        <ele>90</ele>
        <time>2020-05-29T16:01:53.000Z</time>
      </trkpt>
      <trkpt lat="47.13702" lon="-1.40276">
        <ele>90</ele>
        <time>2020-05-29T16:01:55.000Z</time>
      </trkpt>
      <trkpt lat="47.13715" lon="-1.40275">
        <ele>90</ele>
        <time>2020-05-29T16:01:57.000Z</time>
      </trkpt>
      <trkpt lat="47.13727" lon="-1.40273">
        <ele>90</ele>
        <time>2020-05-29T16:01:59.000Z</time>
      </trkpt>
      <trkpt lat="47.1374" lon="-1.4027">
        <ele>90</ele>
        <time>2020-05-29T16:02:01.000Z</time>
      </trkpt>
      <trkpt lat="47.13752" lon="-1.40268">
        <ele>90</ele>
        <time>2020-05-29T16:02:03.000Z</time>
      </trkpt>
      <trkpt lat="47.13764" lon="-1.40266">
        <ele>90</ele>
        <time>2020-05-29T16:02:05.000Z</time>
      </trkpt>
      <trkpt lat="47.13776" lon="-1.40263">
        <ele>90</ele>
        <time>2020-05-29T16:02:07.000Z</time>
      </trkpt>
      <trkpt lat="47.13788" lon="-1.40261">
        <ele>90</ele>
        <time>2020-05-29T16:02:09.000Z</time>
      </trkpt>
      <trkpt lat="47.138" lon="-1.40259">
        <ele>90</ele>
        <time>2020-05-29T16:02:11.000Z</time>
      </trkpt>
      <trkpt lat="47.13813" lon="-1.40257">
        <ele>90</ele>
        <time>2020-05-29T16:02:13.000Z</time>
      </trkpt>
      <trkpt lat="47.13825" lon="-1.40255">
        <ele>90</ele>
        <time>2020-05-29T16:02:15.000Z</time>
      </trkpt>
      <trkpt lat="47.13837" lon="-1.40252">
        <ele>90</ele>
        <time>2020-05-29T16:02:17.000Z</time>
      </trkpt>
      <trkpt lat="47.13849" lon="-1.4025">
        <ele>89</ele>
        <time>2020-05-29T16:02:19.000Z</time>
      </trkpt>
      <trkpt lat="47.13861" lon="-1.40248">
        <ele>89</ele>
        <time>2020-05-29T16:02:21.000Z</time>
      </trkpt>
      <trkpt lat="47.13874" lon="-1.40246">
        <ele>89</ele>
        <time>2020-05-29T16:02:23.000Z</time>
      </trkpt>
      <trkpt lat="47.13886" lon="-1.40244">
        <ele>89</ele>
        <time>2020-05-29T16:02:25.000Z</time>
      </trkpt>
      <trkpt lat="47.13898" lon="-1.40243">
        <ele>90</ele>
        <time>2020-05-29T16:02:27.000Z</time>
      </trkpt>
      <trkpt lat="47.1391" lon="-1.40244">
        <ele>89</ele>
        <time>2020-05-29T16:02:29.000Z</time>
      </trkpt>
      <trkpt lat="47.13922" lon="-1.40246">
        <ele>90</ele>
        <time>2020-05-29T16:02:31.000Z</time>
      </trkpt>
      <trkpt lat="47.13933" lon="-1.40249">
        <ele>90</ele>
        <time>2020-05-29T16:02:33.000Z</time>
      </trkpt>
      <trkpt lat="47.13946" lon="-1.40254">
        <ele>89</ele>
        <time>2020-05-29T16:02:35.000Z</time>
      </trkpt>
      <trkpt lat="47.13958" lon="-1.40259">
        <ele>89</ele>
        <time>2020-05-29T16:02:37.000Z</time>
      </trkpt>
      <trkpt lat="47.1397" lon="-1.40265">
        <ele>89</ele>
        <time>2020-05-29T16:02:39.000Z</time>
      </trkpt>
      <trkpt lat="47.13981" lon="-1.40272">
        <ele>89</ele>
        <time>2020-05-29T16:02:41.000Z</time>
      </trkpt>
      <trkpt lat="47.13993" lon="-1.40281">
        <ele>89</ele>
        <time>2020-05-29T16:02:43.000Z</time>
      </trkpt>
      <trkpt lat="47.14003" lon="-1.40291">
        <ele>89</ele>
        <time>2020-05-29T16:02:45.000Z</time>
      </trkpt>
      <trkpt lat="47.14012" lon="-1.40303">
        <ele>89</ele>
        <time>2020-05-29T16:02:47.000Z</time>
      </trkpt>
      <trkpt lat="47.14021" lon="-1.40316">
        <ele>89</ele>
        <time>2020-05-29T16:02:49.000Z</time>
      </trkpt>
      <trkpt lat="47.14029" lon="-1.40331">
        <ele>88</ele>
        <time>2020-05-29T16:02:51.000Z</time>
      </trkpt>
      <trkpt lat="47.14036" lon="-1.40346">
        <ele>88</ele>
        <time>2020-05-29T16:02:53.000Z</time>
      </trkpt>
      <trkpt lat="47.14042" lon="-1.40362">
        <ele>88</ele>
        <time>2020-05-29T16:02:55.000Z</time>
      </trkpt>
      <trkpt lat="47.14047" lon="-1.40378">
        <ele>88</ele>
        <time>2020-05-29T16:02:57.000Z</time>
      </trkpt>
      <trkpt lat="47.14052" lon="-1.40394">
        <ele>88</ele>
        <time>2020-05-29T16:02:59.000Z</time>
      </trkpt>
      <trkpt lat="47.14058" lon="-1.40411">
        <ele>88</ele>
        <time>2020-05-29T16:03:01.000Z</time>
      </trkpt>
      <trkpt lat="47.14063" lon="-1.40427">
        <ele>89</ele>
        <time>2020-05-29T16:03:03.000Z</time>
      </trkpt>
      <trkpt lat="47.1407" lon="-1.40442">
        <ele>89</ele>
        <time>2020-05-29T16:03:05.000Z</time>
      </trkpt>
      <trkpt lat="47.14083" lon="-1.40446">
        <ele>88</ele>
        <time>2020-05-29T16:03:07.000Z</time>
      </trkpt>
      <trkpt lat="47.14095" lon="-1.40441">
        <ele>88</ele>
        <time>2020-05-29T16:03:09.000Z</time>
      </trkpt>
      <trkpt lat="47.14106" lon="-1.40437">
        <ele>88</ele>
        <time>2020-05-29T16:03:11.000Z</time>
      </trkpt>
      <trkpt lat="47.14118" lon="-1.40432">
        <ele>88</ele>
        <time>2020-05-29T16:03:13.000Z</time>
      </trkpt>
      <trkpt lat="47.1413" lon="-1.40427">
        <ele>88</ele>
        <time>2020-05-29T16:03:15.000Z</time>
      </trkpt>
      <trkpt lat="47.14142" lon="-1.40424">
        <ele>88</ele>
        <time>2020-05-29T16:03:17.000Z</time>
      </trkpt>
      <trkpt lat="47.14154" lon="-1.40419">
        <ele>88</ele>
        <time>2020-05-29T16:03:19.000Z</time>
      </trkpt>
      <trkpt lat="47.14165" lon="-1.40415">
        <ele>88</ele>
        <time>2020-05-29T16:03:21.000Z</time>
      </trkpt>
      <trkpt lat="47.14177" lon="-1.40411">
        <ele>88</ele>
        <time>2020-05-29T16:03:23.000Z</time>
      </trkpt>
      <trkpt lat="47.14189" lon="-1.40408">
        <ele>89</ele>
        <time>2020-05-29T16:03:25.000Z</time>
      </trkpt>
      <trkpt lat="47.14201" lon="-1.40406">
        <ele>89</ele>
        <time>2020-05-29T16:03:27.000Z</time>
      </trkpt>
      <trkpt lat="47.14212" lon="-1.40406">
        <ele>89</ele>
        <time>2020-05-29T16:03:29.000Z</time>
      </trkpt>
      <trkpt lat="47.14225" lon="-1.40406">
        <ele>88</ele>
        <time>2020-05-29T16:03:31.000Z</time>
      </trkpt>
      <trkpt lat="47.14237" lon="-1.40407">
        <ele>88</ele>
        <time>2020-05-29T16:03:33.000Z</time>
      </trkpt>
      <trkpt lat="47.14249" lon="-1.40408">
        <ele>88</ele>
        <time>2020-05-29T16:03:35.000Z</time>
      </trkpt>
      <trkpt lat="47.14261" lon="-1.40408">
        <ele>88</ele>
        <time>2020-05-29T16:03:37.000Z</time>
      </trkpt>
      <trkpt lat="47.14272" lon="-1.40408">
        <ele>88</ele>
        <time>2020-05-29T16:03:39.000Z</time>
      </trkpt>
      <trkpt lat="47.14284" lon="-1.40408">
        <ele>88</ele>
        <time>2020-05-29T16:03:41.000Z</time>
      </trkpt>
      <trkpt lat="47.14296" lon="-1.40406">
        <ele>88</ele>
        <time>2020-05-29T16:03:43.000Z</time>
      </trkpt>
      <trkpt lat="47.14307" lon="-1.40402">
        <ele>88</ele>
        <time>2020-05-29T16:03:45.000Z</time>
      </trkpt>
      <trkpt lat="47.14318" lon="-1.40396">
        <ele>87</ele>
        <time>2020-05-29T16:03:47.000Z</time>
      </trkpt>
      <trkpt lat="47.14329" lon="-1.4039">
        <ele>87</ele>
        <time>2020-05-29T16:03:49.000Z</time>
      </trkpt>
      <trkpt lat="47.14339" lon="-1.40384">
        <ele>87</ele>
        <time>2020-05-29T16:03:51.000Z</time>
      </trkpt>
      <trkpt lat="47.1435" lon="-1.40378">
        <ele>86</ele>
        <time>2020-05-29T16:03:53.000Z</time>
      </trkpt>
      <trkpt lat="47.14362" lon="-1.40372">
        <ele>86</ele>
        <time>2020-05-29T16:03:55.000Z</time>
      </trkpt>
      <trkpt lat="47.14373" lon="-1.40366">
        <ele>86</ele>
        <time>2020-05-29T16:03:57.000Z</time>
      </trkpt>
      <trkpt lat="47.14384" lon="-1.4036">
        <ele>86</ele>
        <time>2020-05-29T16:03:59.000Z</time>
      </trkpt>
      <trkpt lat="47.14396" lon="-1.40355">
        <ele>86</ele>
        <time>2020-05-29T16:04:01.000Z</time>
      </trkpt>
      <trkpt lat="47.14407" lon="-1.40349">
        <ele>85</ele>
        <time>2020-05-29T16:04:03.000Z</time>
      </trkpt>
      <trkpt lat="47.14418" lon="-1.40343">
        <ele>85</ele>
        <time>2020-05-29T16:04:05.000Z</time>
      </trkpt>
      <trkpt lat="47.14429" lon="-1.40336">
        <ele>85</ele>
        <time>2020-05-29T16:04:07.000Z</time>
      </trkpt>
      <trkpt lat="47.14441" lon="-1.40329">
        <ele>84</ele>
        <time>2020-05-29T16:04:09.000Z</time>
      </trkpt>
      <trkpt lat="47.14453" lon="-1.40321">
        <ele>83</ele>
        <time>2020-05-29T16:04:11.000Z</time>
      </trkpt>
      <trkpt lat="47.14465" lon="-1.40312">
        <ele>82</ele>
        <time>2020-05-29T16:04:13.000Z</time>
      </trkpt>
      <trkpt lat="47.14478" lon="-1.40301">
        <ele>81</ele>
        <time>2020-05-29T16:04:15.000Z</time>
      </trkpt>
      <trkpt lat="47.1449" lon="-1.40288">
        <ele>80</ele>
        <time>2020-05-29T16:04:17.000Z</time>
      </trkpt>
      <trkpt lat="47.14504" lon="-1.40275">
        <ele>79</ele>
        <time>2020-05-29T16:04:19.000Z</time>
      </trkpt>
      <trkpt lat="47.14518" lon="-1.40261">
        <ele>78</ele>
        <time>2020-05-29T16:04:21.000Z</time>
      </trkpt>
      <trkpt lat="47.14531" lon="-1.40247">
        <ele>77</ele>
        <time>2020-05-29T16:04:23.000Z</time>
      </trkpt>
      <trkpt lat="47.14545" lon="-1.40232">
        <ele>78</ele>
        <time>2020-05-29T16:04:25.000Z</time>
      </trkpt>
      <trkpt lat="47.14559" lon="-1.40217">
        <ele>77</ele>
        <time>2020-05-29T16:04:27.000Z</time>
      </trkpt>
      <trkpt lat="47.14574" lon="-1.40202">
        <ele>77</ele>
        <time>2020-05-29T16:04:29.000Z</time>
      </trkpt>
      <trkpt lat="47.14581" lon="-1.40194">
        <ele>77</ele>
        <time>2020-05-29T16:04:30.000Z</time>
      </trkpt>
      <trkpt lat="47.1459" lon="-1.40188">
        <ele>76</ele>
        <time>2020-05-29T16:04:31.000Z</time>
      </trkpt>
      <trkpt lat="47.14599" lon="-1.40182">
        <ele>76</ele>
        <time>2020-05-29T16:04:32.000Z</time>
      </trkpt>
      <trkpt lat="47.14608" lon="-1.40177">
        <ele>76</ele>
        <time>2020-05-29T16:04:33.000Z</time>
      </trkpt>
      <trkpt lat="47.14617" lon="-1.40174">
        <ele>75</ele>
        <time>2020-05-29T16:04:34.000Z</time>
      </trkpt>
      <trkpt lat="47.14626" lon="-1.4017">
        <ele>75</ele>
        <time>2020-05-29T16:04:35.000Z</time>
      </trkpt>
      <trkpt lat="47.14636" lon="-1.40166">
        <ele>74</ele>
        <time>2020-05-29T16:04:36.000Z</time>
      </trkpt>
      <trkpt lat="47.14646" lon="-1.40163">
        <ele>73</ele>
        <time>2020-05-29T16:04:37.000Z</time>
      </trkpt>
      <trkpt lat="47.14656" lon="-1.40158">
        <ele>72</ele>
        <time>2020-05-29T16:04:38.000Z</time>
      </trkpt>
      <trkpt lat="47.14666" lon="-1.40153">
        <ele>71</ele>
        <time>2020-05-29T16:04:39.000Z</time>
      </trkpt>
      <trkpt lat="47.14676" lon="-1.40147">
        <ele>71</ele>
        <time>2020-05-29T16:04:40.000Z</time>
      </trkpt>
      <trkpt lat="47.14685" lon="-1.4014">
        <ele>71</ele>
        <time>2020-05-29T16:04:41.000Z</time>
      </trkpt>
      <trkpt lat="47.14694" lon="-1.40133">
        <ele>70</ele>
        <time>2020-05-29T16:04:42.000Z</time>
      </trkpt>
      <trkpt lat="47.14704" lon="-1.40124">
        <ele>69</ele>
        <time>2020-05-29T16:04:43.000Z</time>
      </trkpt>
      <trkpt lat="47.14713" lon="-1.40115">
        <ele>69</ele>
        <time>2020-05-29T16:04:44.000Z</time>
      </trkpt>
      <trkpt lat="47.14722" lon="-1.40105">
        <ele>68</ele>
        <time>2020-05-29T16:04:45.000Z</time>
      </trkpt>
      <trkpt lat="47.1473" lon="-1.40095">
        <ele>67</ele>
        <time>2020-05-29T16:04:46.000Z</time>
      </trkpt>
      <trkpt lat="47.14739" lon="-1.40085">
        <ele>67</ele>
        <time>2020-05-29T16:04:47.000Z</time>
      </trkpt>
      <trkpt lat="47.14746" lon="-1.40076">
        <ele>66</ele>
        <time>2020-05-29T16:04:48.000Z</time>
      </trkpt>
      <trkpt lat="47.14754" lon="-1.40066">
        <ele>65</ele>
        <time>2020-05-29T16:04:49.000Z</time>
      </trkpt>
      <trkpt lat="47.14762" lon="-1.40057">
        <ele>65</ele>
        <time>2020-05-29T16:04:50.000Z</time>
      </trkpt>
      <trkpt lat="47.1477" lon="-1.40047">
        <ele>64</ele>
        <time>2020-05-29T16:04:51.000Z</time>
      </trkpt>
      <trkpt lat="47.14778" lon="-1.40038">
        <ele>63</ele>
        <time>2020-05-29T16:04:52.000Z</time>
      </trkpt>
      <trkpt lat="47.14786" lon="-1.40028">
        <ele>63</ele>
        <time>2020-05-29T16:04:53.000Z</time>
      </trkpt>
      <trkpt lat="47.14794" lon="-1.40019">
        <ele>62</ele>
        <time>2020-05-29T16:04:54.000Z</time>
      </trkpt>
      <trkpt lat="47.14801" lon="-1.4001">
        <ele>61</ele>
        <time>2020-05-29T16:04:55.000Z</time>
      </trkpt>
      <trkpt lat="47.1481" lon="-1.4">
        <ele>60</ele>
        <time>2020-05-29T16:04:56.000Z</time>
      </trkpt>
      <trkpt lat="47.14817" lon="-1.39991">
        <ele>60</ele>
        <time>2020-05-29T16:04:57.000Z</time>
      </trkpt>
      <trkpt lat="47.14825" lon="-1.39981">
        <ele>59</ele>
        <time>2020-05-29T16:04:58.000Z</time>
      </trkpt>
      <trkpt lat="47.14833" lon="-1.39973">
        <ele>59</ele>
        <time>2020-05-29T16:04:59.000Z</time>
      </trkpt>
      <trkpt lat="47.1484" lon="-1.39964">
        <ele>58</ele>
        <time>2020-05-29T16:05:00.000Z</time>
      </trkpt>
      <trkpt lat="47.14848" lon="-1.39957">
        <ele>58</ele>
        <time>2020-05-29T16:05:01.000Z</time>
      </trkpt>
      <trkpt lat="47.14856" lon="-1.39952">
        <ele>58</ele>
        <time>2020-05-29T16:05:02.000Z</time>
      </trkpt>
      <trkpt lat="47.14873" lon="-1.39946">
        <ele>58</ele>
        <time>2020-05-29T16:05:04.000Z</time>
      </trkpt>
      <trkpt lat="47.1489" lon="-1.39945">
        <ele>58</ele>
        <time>2020-05-29T16:05:06.000Z</time>
      </trkpt>
      <trkpt lat="47.14907" lon="-1.39948">
        <ele>57</ele>
        <time>2020-05-29T16:05:08.000Z</time>
      </trkpt>
      <trkpt lat="47.14923" lon="-1.39952">
        <ele>57</ele>
        <time>2020-05-29T16:05:10.000Z</time>
      </trkpt>
      <trkpt lat="47.14938" lon="-1.39954">
        <ele>57</ele>
        <time>2020-05-29T16:05:12.000Z</time>
      </trkpt>
      <trkpt lat="47.14952" lon="-1.39957">
        <ele>56</ele>
        <time>2020-05-29T16:05:14.000Z</time>
      </trkpt>
      <trkpt lat="47.14967" lon="-1.39959">
        <ele>56</ele>
        <time>2020-05-29T16:05:16.000Z</time>
      </trkpt>
      <trkpt lat="47.14981" lon="-1.39961">
        <ele>57</ele>
        <time>2020-05-29T16:05:18.000Z</time>
      </trkpt>
      <trkpt lat="47.14996" lon="-1.39965">
        <ele>57</ele>
        <time>2020-05-29T16:05:20.000Z</time>
      </trkpt>
      <trkpt lat="47.15007" lon="-1.39977">
        <ele>57</ele>
        <time>2020-05-29T16:05:22.000Z</time>
      </trkpt>
      <trkpt lat="47.15015" lon="-1.39994">
        <ele>58</ele>
        <time>2020-05-29T16:05:24.000Z</time>
      </trkpt>
      <trkpt lat="47.15019" lon="-1.40013">
        <ele>57</ele>
        <time>2020-05-29T16:05:26.000Z</time>
      </trkpt>
      <trkpt lat="47.1502" lon="-1.4003">
        <ele>57</ele>
        <time>2020-05-29T16:05:28.000Z</time>
      </trkpt>
      <trkpt lat="47.15019" lon="-1.40047">
        <ele>58</ele>
        <time>2020-05-29T16:05:30.000Z</time>
      </trkpt>
      <trkpt lat="47.15019" lon="-1.40064">
        <ele>58</ele>
        <time>2020-05-29T16:05:32.000Z</time>
      </trkpt>
      <trkpt lat="47.15023" lon="-1.40096">
        <ele>60</ele>
        <time>2020-05-29T16:05:36.000Z</time>
      </trkpt>
      <trkpt lat="47.15028" lon="-1.40111">
        <ele>60</ele>
        <time>2020-05-29T16:05:38.000Z</time>
      </trkpt>
      <trkpt lat="47.15035" lon="-1.40124">
        <ele>60</ele>
        <time>2020-05-29T16:05:40.000Z</time>
      </trkpt>
      <trkpt lat="47.15043" lon="-1.40136">
        <ele>61</ele>
        <time>2020-05-29T16:05:42.000Z</time>
      </trkpt>
      <trkpt lat="47.15051" lon="-1.40147">
        <ele>62</ele>
        <time>2020-05-29T16:05:44.000Z</time>
      </trkpt>
      <trkpt lat="47.15059" lon="-1.40158">
        <ele>62</ele>
        <time>2020-05-29T16:05:46.000Z</time>
      </trkpt>
      <trkpt lat="47.15066" lon="-1.40171">
        <ele>63</ele>
        <time>2020-05-29T16:05:48.000Z</time>
      </trkpt>
      <trkpt lat="47.15073" lon="-1.40183">
        <ele>63</ele>
        <time>2020-05-29T16:05:50.000Z</time>
      </trkpt>
      <trkpt lat="47.15078" lon="-1.40197">
        <ele>64</ele>
        <time>2020-05-29T16:05:52.000Z</time>
      </trkpt>
      <trkpt lat="47.15083" lon="-1.40212">
        <ele>64</ele>
        <time>2020-05-29T16:05:54.000Z</time>
      </trkpt>
      <trkpt lat="47.15086" lon="-1.40226">
        <ele>65</ele>
        <time>2020-05-29T16:05:56.000Z</time>
      </trkpt>
      <trkpt lat="47.15089" lon="-1.40242">
        <ele>66</ele>
        <time>2020-05-29T16:05:58.000Z</time>
      </trkpt>
      <trkpt lat="47.15092" lon="-1.40256">
        <ele>66</ele>
        <time>2020-05-29T16:06:00.000Z</time>
      </trkpt>
      <trkpt lat="47.15094" lon="-1.4027">
        <ele>67</ele>
        <time>2020-05-29T16:06:02.000Z</time>
      </trkpt>
      <trkpt lat="47.15098" lon="-1.40283">
        <ele>67</ele>
        <time>2020-05-29T16:06:04.000Z</time>
      </trkpt>
      <trkpt lat="47.15102" lon="-1.40296">
        <ele>68</ele>
        <time>2020-05-29T16:06:06.000Z</time>
      </trkpt>
      <trkpt lat="47.15107" lon="-1.40307">
        <ele>68</ele>
        <time>2020-05-29T16:06:08.000Z</time>
      </trkpt>
      <trkpt lat="47.15113" lon="-1.40319">
        <ele>69</ele>
        <time>2020-05-29T16:06:10.000Z</time>
      </trkpt>
      <trkpt lat="47.15119" lon="-1.40328">
        <ele>69</ele>
        <time>2020-05-29T16:06:12.000Z</time>
      </trkpt>
      <trkpt lat="47.15128" lon="-1.40335">
        <ele>70</ele>
        <time>2020-05-29T16:06:14.000Z</time>
      </trkpt>
      <trkpt lat="47.15136" lon="-1.40341">
        <ele>70</ele>
        <time>2020-05-29T16:06:16.000Z</time>
      </trkpt>
      <trkpt lat="47.15149" lon="-1.40346">
        <ele>70</ele>
        <time>2020-05-29T16:06:19.000Z</time>
      </trkpt>
      <trkpt lat="47.15162" lon="-1.40347">
        <ele>71</ele>
        <time>2020-05-29T16:06:22.000Z</time>
      </trkpt>
      <trkpt lat="47.15171" lon="-1.40345">
        <ele>71</ele>
        <time>2020-05-29T16:06:24.000Z</time>
      </trkpt>
      <trkpt lat="47.15184" lon="-1.40341">
        <ele>71</ele>
        <time>2020-05-29T16:06:27.000Z</time>
      </trkpt>
      <trkpt lat="47.15195" lon="-1.40334">
        <ele>72</ele>
        <time>2020-05-29T16:06:30.000Z</time>
      </trkpt>
      <trkpt lat="47.15205" lon="-1.40323">
        <ele>73</ele>
        <time>2020-05-29T16:06:33.000Z</time>
      </trkpt>
      <trkpt lat="47.15213" lon="-1.40308">
        <ele>74</ele>
        <time>2020-05-29T16:06:36.000Z</time>
      </trkpt>
      <trkpt lat="47.15218" lon="-1.40291">
        <ele>75</ele>
        <time>2020-05-29T16:06:39.000Z</time>
      </trkpt>
      <trkpt lat="47.15222" lon="-1.40273">
        <ele>76</ele>
        <time>2020-05-29T16:06:42.000Z</time>
      </trkpt>
      <trkpt lat="47.15225" lon="-1.40255">
        <ele>76</ele>
        <time>2020-05-29T16:06:45.000Z</time>
      </trkpt>
      <trkpt lat="47.15228" lon="-1.40237">
        <ele>77</ele>
        <time>2020-05-29T16:06:48.000Z</time>
      </trkpt>
      <trkpt lat="47.15231" lon="-1.40218">
        <ele>77</ele>
        <time>2020-05-29T16:06:51.000Z</time>
      </trkpt>
      <trkpt lat="47.15234" lon="-1.402">
        <ele>78</ele>
        <time>2020-05-29T16:06:54.000Z</time>
      </trkpt>
      <trkpt lat="47.15238" lon="-1.40181">
        <ele>78</ele>
        <time>2020-05-29T16:06:57.000Z</time>
      </trkpt>
      <trkpt lat="47.15241" lon="-1.40164">
        <ele>79</ele>
        <time>2020-05-29T16:07:00.000Z</time>
      </trkpt>
      <trkpt lat="47.15244" lon="-1.40151">
        <ele>79</ele>
        <time>2020-05-29T16:07:02.000Z</time>
      </trkpt>
      <trkpt lat="47.15248" lon="-1.40135">
        <ele>79</ele>
        <time>2020-05-29T16:07:05.000Z</time>
      </trkpt>
      <trkpt lat="47.15253" lon="-1.40124">
        <ele>80</ele>
        <time>2020-05-29T16:07:11.000Z</time>
      </trkpt>
      <trkpt lat="47.15263" lon="-1.40116">
        <ele>80</ele>
        <time>2020-05-29T16:09:43.000Z</time>
      </trkpt>
      <trkpt lat="47.15268" lon="-1.40104">
        <ele>81</ele>
        <time>2020-05-29T16:09:47.000Z</time>
      </trkpt>
      <trkpt lat="47.15275" lon="-1.40088">
        <ele>81</ele>
        <time>2020-05-29T16:09:51.000Z</time>
      </trkpt>
      <trkpt lat="47.15282" lon="-1.40074">
        <ele>82</ele>
        <time>2020-05-29T16:09:53.000Z</time>
      </trkpt>
      <trkpt lat="47.1529" lon="-1.40064">
        <ele>82</ele>
        <time>2020-05-29T16:09:55.000Z</time>
      </trkpt>
      <trkpt lat="47.153" lon="-1.40057">
        <ele>81</ele>
        <time>2020-05-29T16:09:57.000Z</time>
      </trkpt>
      <trkpt lat="47.15311" lon="-1.40051">
        <ele>81</ele>
        <time>2020-05-29T16:09:59.000Z</time>
      </trkpt>
      <trkpt lat="47.15321" lon="-1.40046">
        <ele>80</ele>
        <time>2020-05-29T16:10:01.000Z</time>
      </trkpt>
      <trkpt lat="47.15332" lon="-1.40041">
        <ele>80</ele>
        <time>2020-05-29T16:10:03.000Z</time>
      </trkpt>
      <trkpt lat="47.15342" lon="-1.40035">
        <ele>81</ele>
        <time>2020-05-29T16:10:05.000Z</time>
      </trkpt>
      <trkpt lat="47.15353" lon="-1.40029">
        <ele>81</ele>
        <time>2020-05-29T16:10:07.000Z</time>
      </trkpt>
      <trkpt lat="47.15364" lon="-1.40024">
        <ele>81</ele>
        <time>2020-05-29T16:10:09.000Z</time>
      </trkpt>
      <trkpt lat="47.15376" lon="-1.40019">
        <ele>81</ele>
        <time>2020-05-29T16:10:11.000Z</time>
      </trkpt>
      <trkpt lat="47.15387" lon="-1.4001">
        <ele>79</ele>
        <time>2020-05-29T16:10:13.000Z</time>
      </trkpt>
      <trkpt lat="47.15399" lon="-1.4">
        <ele>78</ele>
        <time>2020-05-29T16:10:15.000Z</time>
      </trkpt>
      <trkpt lat="47.15412" lon="-1.39994">
        <ele>78</ele>
        <time>2020-05-29T16:10:17.000Z</time>
      </trkpt>
      <trkpt lat="47.15425" lon="-1.39989">
        <ele>78</ele>
        <time>2020-05-29T16:10:19.000Z</time>
      </trkpt>
      <trkpt lat="47.15437" lon="-1.39985">
        <ele>78</ele>
        <time>2020-05-29T16:10:21.000Z</time>
      </trkpt>
      <trkpt lat="47.15451" lon="-1.39981">
        <ele>77</ele>
        <time>2020-05-29T16:10:23.000Z</time>
      </trkpt>
      <trkpt lat="47.15463" lon="-1.39979">
        <ele>78</ele>
        <time>2020-05-29T16:10:25.000Z</time>
      </trkpt>
      <trkpt lat="47.15476" lon="-1.39975">
        <ele>77</ele>
        <time>2020-05-29T16:10:27.000Z</time>
      </trkpt>
      <trkpt lat="47.15488" lon="-1.39965">
        <ele>77</ele>
        <time>2020-05-29T16:10:29.000Z</time>
      </trkpt>
      <trkpt lat="47.155" lon="-1.39955">
        <ele>77</ele>
        <time>2020-05-29T16:10:31.000Z</time>
      </trkpt>
      <trkpt lat="47.15512" lon="-1.39946">
        <ele>77</ele>
        <time>2020-05-29T16:10:33.000Z</time>
      </trkpt>
      <trkpt lat="47.15524" lon="-1.39937">
        <ele>77</ele>
        <time>2020-05-29T16:10:35.000Z</time>
      </trkpt>
      <trkpt lat="47.15536" lon="-1.39928">
        <ele>77</ele>
        <time>2020-05-29T16:10:37.000Z</time>
      </trkpt>
      <trkpt lat="47.15547" lon="-1.39919">
        <ele>77</ele>
        <time>2020-05-29T16:10:39.000Z</time>
      </trkpt>
      <trkpt lat="47.15559" lon="-1.3991">
        <ele>77</ele>
        <time>2020-05-29T16:10:41.000Z</time>
      </trkpt>
      <trkpt lat="47.1557" lon="-1.399">
        <ele>77</ele>
        <time>2020-05-29T16:10:43.000Z</time>
      </trkpt>
      <trkpt lat="47.15582" lon="-1.39889">
        <ele>77</ele>
        <time>2020-05-29T16:10:45.000Z</time>
      </trkpt>
      <trkpt lat="47.15593" lon="-1.39881">
        <ele>77</ele>
        <time>2020-05-29T16:10:47.000Z</time>
      </trkpt>
      <trkpt lat="47.15605" lon="-1.39872">
        <ele>77</ele>
        <time>2020-05-29T16:10:49.000Z</time>
      </trkpt>
      <trkpt lat="47.15617" lon="-1.39864">
        <ele>77</ele>
        <time>2020-05-29T16:10:51.000Z</time>
      </trkpt>
      <trkpt lat="47.15629" lon="-1.39854">
        <ele>77</ele>
        <time>2020-05-29T16:10:53.000Z</time>
      </trkpt>
      <trkpt lat="47.1564" lon="-1.39846">
        <ele>76</ele>
        <time>2020-05-29T16:10:55.000Z</time>
      </trkpt>
      <trkpt lat="47.15652" lon="-1.39837">
        <ele>75</ele>
        <time>2020-05-29T16:10:57.000Z</time>
      </trkpt>
      <trkpt lat="47.15662" lon="-1.3983">
        <ele>76</ele>
        <time>2020-05-29T16:10:59.000Z</time>
      </trkpt>
      <trkpt lat="47.15673" lon="-1.39825">
        <ele>77</ele>
        <time>2020-05-29T16:11:01.000Z</time>
      </trkpt>
      <trkpt lat="47.15684" lon="-1.39818">
        <ele>77</ele>
        <time>2020-05-29T16:11:03.000Z</time>
      </trkpt>
      <trkpt lat="47.15696" lon="-1.39812">
        <ele>77</ele>
        <time>2020-05-29T16:11:05.000Z</time>
      </trkpt>
      <trkpt lat="47.15707" lon="-1.39805">
        <ele>77</ele>
        <time>2020-05-29T16:11:07.000Z</time>
      </trkpt>
      <trkpt lat="47.15717" lon="-1.39796">
        <ele>77</ele>
        <time>2020-05-29T16:11:09.000Z</time>
      </trkpt>
      <trkpt lat="47.15728" lon="-1.39788">
        <ele>78</ele>
        <time>2020-05-29T16:11:11.000Z</time>
      </trkpt>
      <trkpt lat="47.15739" lon="-1.39781">
        <ele>78</ele>
        <time>2020-05-29T16:11:13.000Z</time>
      </trkpt>
      <trkpt lat="47.1575" lon="-1.39775">
        <ele>78</ele>
        <time>2020-05-29T16:11:15.000Z</time>
      </trkpt>
      <trkpt lat="47.15761" lon="-1.39767">
        <ele>79</ele>
        <time>2020-05-29T16:11:17.000Z</time>
      </trkpt>
      <trkpt lat="47.15772" lon="-1.3976">
        <ele>80</ele>
        <time>2020-05-29T16:11:19.000Z</time>
      </trkpt>
      <trkpt lat="47.15783" lon="-1.39752">
        <ele>79</ele>
        <time>2020-05-29T16:11:21.000Z</time>
      </trkpt>
      <trkpt lat="47.15794" lon="-1.39745">
        <ele>80</ele>
        <time>2020-05-29T16:11:23.000Z</time>
      </trkpt>
      <trkpt lat="47.15805" lon="-1.39738">
        <ele>80</ele>
        <time>2020-05-29T16:11:25.000Z</time>
      </trkpt>
      <trkpt lat="47.15817" lon="-1.39732">
        <ele>80</ele>
        <time>2020-05-29T16:11:27.000Z</time>
      </trkpt>
      <trkpt lat="47.15829" lon="-1.39726">
        <ele>80</ele>
        <time>2020-05-29T16:11:29.000Z</time>
      </trkpt>
      <trkpt lat="47.1584" lon="-1.39719">
        <ele>80</ele>
        <time>2020-05-29T16:11:31.000Z</time>
      </trkpt>
      <trkpt lat="47.15851" lon="-1.39712">
        <ele>80</ele>
        <time>2020-05-29T16:11:33.000Z</time>
      </trkpt>
      <trkpt lat="47.15861" lon="-1.39704">
        <ele>81</ele>
        <time>2020-05-29T16:11:35.000Z</time>
      </trkpt>
      <trkpt lat="47.1587" lon="-1.39698">
        <ele>81</ele>
        <time>2020-05-29T16:11:37.000Z</time>
      </trkpt>
      <trkpt lat="47.15882" lon="-1.39691">
        <ele>81</ele>
        <time>2020-05-29T16:11:39.000Z</time>
      </trkpt>
      <trkpt lat="47.15893" lon="-1.39686">
        <ele>81</ele>
        <time>2020-05-29T16:11:41.000Z</time>
      </trkpt>
      <trkpt lat="47.15904" lon="-1.39677">
        <ele>81</ele>
        <time>2020-05-29T16:11:43.000Z</time>
      </trkpt>
      <trkpt lat="47.15915" lon="-1.3967">
        <ele>80</ele>
        <time>2020-05-29T16:11:45.000Z</time>
      </trkpt>
      <trkpt lat="47.15927" lon="-1.39665">
        <ele>81</ele>
        <time>2020-05-29T16:11:47.000Z</time>
      </trkpt>
      <trkpt lat="47.15939" lon="-1.3966">
        <ele>80</ele>
        <time>2020-05-29T16:11:49.000Z</time>
      </trkpt>
      <trkpt lat="47.15951" lon="-1.39656">
        <ele>80</ele>
        <time>2020-05-29T16:11:51.000Z</time>
      </trkpt>
      <trkpt lat="47.15963" lon="-1.39651">
        <ele>79</ele>
        <time>2020-05-29T16:11:53.000Z</time>
      </trkpt>
      <trkpt lat="47.15975" lon="-1.39644">
        <ele>78</ele>
        <time>2020-05-29T16:11:55.000Z</time>
      </trkpt>
      <trkpt lat="47.15988" lon="-1.39637">
        <ele>77</ele>
        <time>2020-05-29T16:11:57.000Z</time>
      </trkpt>
      <trkpt lat="47.16001" lon="-1.39628">
        <ele>77</ele>
        <time>2020-05-29T16:11:59.000Z</time>
      </trkpt>
      <trkpt lat="47.16014" lon="-1.39619">
        <ele>76</ele>
        <time>2020-05-29T16:12:01.000Z</time>
      </trkpt>
      <trkpt lat="47.16028" lon="-1.39609">
        <ele>75</ele>
        <time>2020-05-29T16:12:03.000Z</time>
      </trkpt>
      <trkpt lat="47.16042" lon="-1.39599">
        <ele>74</ele>
        <time>2020-05-29T16:12:05.000Z</time>
      </trkpt>
      <trkpt lat="47.16056" lon="-1.39589">
        <ele>73</ele>
        <time>2020-05-29T16:12:07.000Z</time>
      </trkpt>
      <trkpt lat="47.1607" lon="-1.3958">
        <ele>73</ele>
        <time>2020-05-29T16:12:09.000Z</time>
      </trkpt>
      <trkpt lat="47.16084" lon="-1.39573">
        <ele>72</ele>
        <time>2020-05-29T16:12:11.000Z</time>
      </trkpt>
      <trkpt lat="47.16099" lon="-1.39565">
        <ele>72</ele>
        <time>2020-05-29T16:12:13.000Z</time>
      </trkpt>
      <trkpt lat="47.16113" lon="-1.39558">
        <ele>71</ele>
        <time>2020-05-29T16:12:15.000Z</time>
      </trkpt>
      <trkpt lat="47.16127" lon="-1.3955">
        <ele>71</ele>
        <time>2020-05-29T16:12:17.000Z</time>
      </trkpt>
      <trkpt lat="47.1614" lon="-1.39542">
        <ele>72</ele>
        <time>2020-05-29T16:12:19.000Z</time>
      </trkpt>
      <trkpt lat="47.16153" lon="-1.39534">
        <ele>72</ele>
        <time>2020-05-29T16:12:21.000Z</time>
      </trkpt>
      <trkpt lat="47.16167" lon="-1.39526">
        <ele>72</ele>
        <time>2020-05-29T16:12:23.000Z</time>
      </trkpt>
      <trkpt lat="47.16181" lon="-1.39518">
        <ele>72</ele>
        <time>2020-05-29T16:12:25.000Z</time>
      </trkpt>
      <trkpt lat="47.16194" lon="-1.39511">
        <ele>72</ele>
        <time>2020-05-29T16:12:27.000Z</time>
      </trkpt>
      <trkpt lat="47.16207" lon="-1.39504">
        <ele>72</ele>
        <time>2020-05-29T16:12:29.000Z</time>
      </trkpt>
      <trkpt lat="47.1622" lon="-1.39498">
        <ele>71</ele>
        <time>2020-05-29T16:12:31.000Z</time>
      </trkpt>
      <trkpt lat="47.16233" lon="-1.39491">
        <ele>69</ele>
        <time>2020-05-29T16:12:33.000Z</time>
      </trkpt>
      <trkpt lat="47.16247" lon="-1.39485">
        <ele>68</ele>
        <time>2020-05-29T16:12:35.000Z</time>
      </trkpt>
      <trkpt lat="47.16261" lon="-1.39477">
        <ele>69</ele>
        <time>2020-05-29T16:12:37.000Z</time>
      </trkpt>
      <trkpt lat="47.16276" lon="-1.39469">
        <ele>68</ele>
        <time>2020-05-29T16:12:39.000Z</time>
      </trkpt>
      <trkpt lat="47.1629" lon="-1.39461">
        <ele>68</ele>
        <time>2020-05-29T16:12:41.000Z</time>
      </trkpt>
      <trkpt lat="47.16304" lon="-1.39453">
        <ele>68</ele>
        <time>2020-05-29T16:12:43.000Z</time>
      </trkpt>
      <trkpt lat="47.16319" lon="-1.39445">
        <ele>69</ele>
        <time>2020-05-29T16:12:45.000Z</time>
      </trkpt>
      <trkpt lat="47.16333" lon="-1.39437">
        <ele>68</ele>
        <time>2020-05-29T16:12:47.000Z</time>
      </trkpt>
      <trkpt lat="47.16347" lon="-1.3943">
        <ele>67</ele>
        <time>2020-05-29T16:12:49.000Z</time>
      </trkpt>
      <trkpt lat="47.16361" lon="-1.39422">
        <ele>67</ele>
        <time>2020-05-29T16:12:51.000Z</time>
      </trkpt>
      <trkpt lat="47.16375" lon="-1.39415">
        <ele>67</ele>
        <time>2020-05-29T16:12:53.000Z</time>
      </trkpt>
      <trkpt lat="47.16389" lon="-1.39407">
        <ele>67</ele>
        <time>2020-05-29T16:12:55.000Z</time>
      </trkpt>
      <trkpt lat="47.16402" lon="-1.39401">
        <ele>67</ele>
        <time>2020-05-29T16:12:57.000Z</time>
      </trkpt>
      <trkpt lat="47.16415" lon="-1.39394">
        <ele>67</ele>
        <time>2020-05-29T16:12:59.000Z</time>
      </trkpt>
      <trkpt lat="47.16428" lon="-1.39387">
        <ele>67</ele>
        <time>2020-05-29T16:13:01.000Z</time>
      </trkpt>
      <trkpt lat="47.16441" lon="-1.3938">
        <ele>66</ele>
        <time>2020-05-29T16:13:03.000Z</time>
      </trkpt>
      <trkpt lat="47.16454" lon="-1.39374">
        <ele>66</ele>
        <time>2020-05-29T16:13:05.000Z</time>
      </trkpt>
      <trkpt lat="47.16467" lon="-1.39366">
        <ele>66</ele>
        <time>2020-05-29T16:13:07.000Z</time>
      </trkpt>
      <trkpt lat="47.16481" lon="-1.39358">
        <ele>65</ele>
        <time>2020-05-29T16:13:09.000Z</time>
      </trkpt>
      <trkpt lat="47.16495" lon="-1.39352">
        <ele>65</ele>
        <time>2020-05-29T16:13:11.000Z</time>
      </trkpt>
      <trkpt lat="47.16508" lon="-1.39344">
        <ele>65</ele>
        <time>2020-05-29T16:13:13.000Z</time>
      </trkpt>
      <trkpt lat="47.16521" lon="-1.39337">
        <ele>64</ele>
        <time>2020-05-29T16:13:15.000Z</time>
      </trkpt>
      <trkpt lat="47.16535" lon="-1.3933">
        <ele>64</ele>
        <time>2020-05-29T16:13:17.000Z</time>
      </trkpt>
      <trkpt lat="47.16548" lon="-1.39323">
        <ele>63</ele>
        <time>2020-05-29T16:13:19.000Z</time>
      </trkpt>
      <trkpt lat="47.16561" lon="-1.39316">
        <ele>63</ele>
        <time>2020-05-29T16:13:21.000Z</time>
      </trkpt>
      <trkpt lat="47.16574" lon="-1.39309">
        <ele>62</ele>
        <time>2020-05-29T16:13:23.000Z</time>
      </trkpt>
      <trkpt lat="47.16587" lon="-1.39303">
        <ele>62</ele>
        <time>2020-05-29T16:13:25.000Z</time>
      </trkpt>
      <trkpt lat="47.166" lon="-1.39296">
        <ele>62</ele>
        <time>2020-05-29T16:13:27.000Z</time>
      </trkpt>
      <trkpt lat="47.16613" lon="-1.39292">
        <ele>62</ele>
        <time>2020-05-29T16:13:29.000Z</time>
      </trkpt>
      <trkpt lat="47.16623" lon="-1.39287">
        <ele>62</ele>
        <time>2020-05-29T16:13:32.000Z</time>
      </trkpt>
      <trkpt lat="47.16629" lon="-1.39273">
        <ele>62</ele>
        <time>2020-05-29T16:13:35.000Z</time>
      </trkpt>
      <trkpt lat="47.16636" lon="-1.39262">
        <ele>62</ele>
        <time>2020-05-29T16:13:37.000Z</time>
      </trkpt>
      <trkpt lat="47.16647" lon="-1.39253">
        <ele>62</ele>
        <time>2020-05-29T16:13:39.000Z</time>
      </trkpt>
      <trkpt lat="47.16658" lon="-1.39254">
        <ele>62</ele>
        <time>2020-05-29T16:13:41.000Z</time>
      </trkpt>
      <trkpt lat="47.1667" lon="-1.39261">
        <ele>62</ele>
        <time>2020-05-29T16:13:43.000Z</time>
      </trkpt>
      <trkpt lat="47.16682" lon="-1.39264">
        <ele>62</ele>
        <time>2020-05-29T16:13:45.000Z</time>
      </trkpt>
      <trkpt lat="47.16695" lon="-1.39263">
        <ele>62</ele>
        <time>2020-05-29T16:13:47.000Z</time>
      </trkpt>
      <trkpt lat="47.16706" lon="-1.39262">
        <ele>62</ele>
        <time>2020-05-29T16:13:49.000Z</time>
      </trkpt>
      <trkpt lat="47.16719" lon="-1.3926">
        <ele>62</ele>
        <time>2020-05-29T16:13:51.000Z</time>
      </trkpt>
      <trkpt lat="47.16731" lon="-1.39257">
        <ele>62</ele>
        <time>2020-05-29T16:13:53.000Z</time>
      </trkpt>
      <trkpt lat="47.16744" lon="-1.39255">
        <ele>62</ele>
        <time>2020-05-29T16:13:55.000Z</time>
      </trkpt>
      <trkpt lat="47.16757" lon="-1.39253">
        <ele>61</ele>
        <time>2020-05-29T16:13:57.000Z</time>
      </trkpt>
      <trkpt lat="47.16769" lon="-1.39251">
        <ele>61</ele>
        <time>2020-05-29T16:13:59.000Z</time>
      </trkpt>
      <trkpt lat="47.16782" lon="-1.39248">
        <ele>61</ele>
        <time>2020-05-29T16:14:01.000Z</time>
      </trkpt>
      <trkpt lat="47.16795" lon="-1.39246">
        <ele>61</ele>
        <time>2020-05-29T16:14:03.000Z</time>
      </trkpt>
      <trkpt lat="47.16808" lon="-1.39243">
        <ele>61</ele>
        <time>2020-05-29T16:14:05.000Z</time>
      </trkpt>
      <trkpt lat="47.16821" lon="-1.39241">
        <ele>60</ele>
        <time>2020-05-29T16:14:07.000Z</time>
      </trkpt>
      <trkpt lat="47.16834" lon="-1.39238">
        <ele>60</ele>
        <time>2020-05-29T16:14:09.000Z</time>
      </trkpt>
      <trkpt lat="47.16847" lon="-1.39235">
        <ele>60</ele>
        <time>2020-05-29T16:14:11.000Z</time>
      </trkpt>
      <trkpt lat="47.1686" lon="-1.39232">
        <ele>60</ele>
        <time>2020-05-29T16:14:13.000Z</time>
      </trkpt>
      <trkpt lat="47.16873" lon="-1.39229">
        <ele>60</ele>
        <time>2020-05-29T16:14:15.000Z</time>
      </trkpt>
      <trkpt lat="47.16886" lon="-1.39227">
        <ele>60</ele>
        <time>2020-05-29T16:14:17.000Z</time>
      </trkpt>
      <trkpt lat="47.169" lon="-1.39224">
        <ele>60</ele>
        <time>2020-05-29T16:14:19.000Z</time>
      </trkpt>
      <trkpt lat="47.16913" lon="-1.39221">
        <ele>60</ele>
        <time>2020-05-29T16:14:21.000Z</time>
      </trkpt>
      <trkpt lat="47.16926" lon="-1.39219">
        <ele>60</ele>
        <time>2020-05-29T16:14:23.000Z</time>
      </trkpt>
      <trkpt lat="47.16939" lon="-1.39217">
        <ele>60</ele>
        <time>2020-05-29T16:14:25.000Z</time>
      </trkpt>
      <trkpt lat="47.16952" lon="-1.39215">
        <ele>60</ele>
        <time>2020-05-29T16:14:27.000Z</time>
      </trkpt>
      <trkpt lat="47.16964" lon="-1.39213">
        <ele>60</ele>
        <time>2020-05-29T16:14:29.000Z</time>
      </trkpt>
      <trkpt lat="47.16977" lon="-1.39212">
        <ele>60</ele>
        <time>2020-05-29T16:14:31.000Z</time>
      </trkpt>
      <trkpt lat="47.1699" lon="-1.39212">
        <ele>60</ele>
        <time>2020-05-29T16:14:33.000Z</time>
      </trkpt>
      <trkpt lat="47.17002" lon="-1.39211">
        <ele>60</ele>
        <time>2020-05-29T16:14:35.000Z</time>
      </trkpt>
      <trkpt lat="47.17015" lon="-1.39212">
        <ele>60</ele>
        <time>2020-05-29T16:14:37.000Z</time>
      </trkpt>
      <trkpt lat="47.17026" lon="-1.39213">
        <ele>60</ele>
        <time>2020-05-29T16:14:39.000Z</time>
      </trkpt>
      <trkpt lat="47.17038" lon="-1.39214">
        <ele>59</ele>
        <time>2020-05-29T16:14:41.000Z</time>
      </trkpt>
      <trkpt lat="47.1705" lon="-1.39215">
        <ele>60</ele>
        <time>2020-05-29T16:14:43.000Z</time>
      </trkpt>
      <trkpt lat="47.1706" lon="-1.39216">
        <ele>60</ele>
        <time>2020-05-29T16:14:45.000Z</time>
      </trkpt>
      <trkpt lat="47.17071" lon="-1.39218">
        <ele>60</ele>
        <time>2020-05-29T16:14:47.000Z</time>
      </trkpt>
      <trkpt lat="47.17081" lon="-1.39219">
        <ele>61</ele>
        <time>2020-05-29T16:14:49.000Z</time>
      </trkpt>
      <trkpt lat="47.1709" lon="-1.3922">
        <ele>61</ele>
        <time>2020-05-29T16:14:51.000Z</time>
      </trkpt>
      <trkpt lat="47.171" lon="-1.39221">
        <ele>61</ele>
        <time>2020-05-29T16:14:53.000Z</time>
      </trkpt>
      <trkpt lat="47.1711" lon="-1.39222">
        <ele>62</ele>
        <time>2020-05-29T16:14:55.000Z</time>
      </trkpt>
      <trkpt lat="47.1712" lon="-1.39223">
        <ele>62</ele>
        <time>2020-05-29T16:14:57.000Z</time>
      </trkpt>
      <trkpt lat="47.1713" lon="-1.39224">
        <ele>62</ele>
        <time>2020-05-29T16:14:59.000Z</time>
      </trkpt>
      <trkpt lat="47.17139" lon="-1.39225">
        <ele>62</ele>
        <time>2020-05-29T16:15:01.000Z</time>
      </trkpt>
      <trkpt lat="47.17149" lon="-1.39225">
        <ele>62</ele>
        <time>2020-05-29T16:15:03.000Z</time>
      </trkpt>
      <trkpt lat="47.17159" lon="-1.39225">
        <ele>63</ele>
        <time>2020-05-29T16:15:05.000Z</time>
      </trkpt>
      <trkpt lat="47.17169" lon="-1.39225">
        <ele>63</ele>
        <time>2020-05-29T16:15:07.000Z</time>
      </trkpt>
      <trkpt lat="47.17179" lon="-1.39225">
        <ele>63</ele>
        <time>2020-05-29T16:15:09.000Z</time>
      </trkpt>
      <trkpt lat="47.17189" lon="-1.39224">
        <ele>63</ele>
        <time>2020-05-29T16:15:11.000Z</time>
      </trkpt>
      <trkpt lat="47.172" lon="-1.39224">
        <ele>63</ele>
        <time>2020-05-29T16:15:13.000Z</time>
      </trkpt>
      <trkpt lat="47.1721" lon="-1.39223">
        <ele>63</ele>
        <time>2020-05-29T16:15:15.000Z</time>
      </trkpt>
      <trkpt lat="47.1722" lon="-1.39222">
        <ele>64</ele>
        <time>2020-05-29T16:15:17.000Z</time>
      </trkpt>
      <trkpt lat="47.1723" lon="-1.39221">
        <ele>64</ele>
        <time>2020-05-29T16:15:19.000Z</time>
      </trkpt>
      <trkpt lat="47.17241" lon="-1.39219">
        <ele>65</ele>
        <time>2020-05-29T16:15:21.000Z</time>
      </trkpt>
      <trkpt lat="47.17251" lon="-1.39218">
        <ele>65</ele>
        <time>2020-05-29T16:15:23.000Z</time>
      </trkpt>
      <trkpt lat="47.17261" lon="-1.39217">
        <ele>65</ele>
        <time>2020-05-29T16:15:25.000Z</time>
      </trkpt>
      <trkpt lat="47.17271" lon="-1.39215">
        <ele>65</ele>
        <time>2020-05-29T16:15:27.000Z</time>
      </trkpt>
      <trkpt lat="47.17281" lon="-1.39214">
        <ele>65</ele>
        <time>2020-05-29T16:15:29.000Z</time>
      </trkpt>
      <trkpt lat="47.17292" lon="-1.39212">
        <ele>65</ele>
        <time>2020-05-29T16:15:31.000Z</time>
      </trkpt>
      <trkpt lat="47.17304" lon="-1.39211">
        <ele>65</ele>
        <time>2020-05-29T16:15:33.000Z</time>
      </trkpt>
      <trkpt lat="47.17315" lon="-1.39208">
        <ele>64</ele>
        <time>2020-05-29T16:15:35.000Z</time>
      </trkpt>
      <trkpt lat="47.17327" lon="-1.39207">
        <ele>64</ele>
        <time>2020-05-29T16:15:37.000Z</time>
      </trkpt>
      <trkpt lat="47.17339" lon="-1.39205">
        <ele>64</ele>
        <time>2020-05-29T16:15:39.000Z</time>
      </trkpt>
      <trkpt lat="47.1735" lon="-1.39201">
        <ele>63</ele>
        <time>2020-05-29T16:15:41.000Z</time>
      </trkpt>
      <trkpt lat="47.17363" lon="-1.39197">
        <ele>63</ele>
        <time>2020-05-29T16:15:43.000Z</time>
      </trkpt>
      <trkpt lat="47.17376" lon="-1.39192">
        <ele>62</ele>
        <time>2020-05-29T16:15:45.000Z</time>
      </trkpt>
      <trkpt lat="47.17389" lon="-1.39185">
        <ele>61</ele>
        <time>2020-05-29T16:15:47.000Z</time>
      </trkpt>
      <trkpt lat="47.17401" lon="-1.39178">
        <ele>61</ele>
        <time>2020-05-29T16:15:49.000Z</time>
      </trkpt>
      <trkpt lat="47.17414" lon="-1.39169">
        <ele>61</ele>
        <time>2020-05-29T16:15:51.000Z</time>
      </trkpt>
      <trkpt lat="47.17427" lon="-1.3916">
        <ele>61</ele>
        <time>2020-05-29T16:15:53.000Z</time>
      </trkpt>
      <trkpt lat="47.1744" lon="-1.3915">
        <ele>60</ele>
        <time>2020-05-29T16:15:55.000Z</time>
      </trkpt>
      <trkpt lat="47.17454" lon="-1.39139">
        <ele>59</ele>
        <time>2020-05-29T16:15:57.000Z</time>
      </trkpt>
      <trkpt lat="47.17466" lon="-1.39129">
        <ele>59</ele>
        <time>2020-05-29T16:15:59.000Z</time>
      </trkpt>
      <trkpt lat="47.17479" lon="-1.39118">
        <ele>58</ele>
        <time>2020-05-29T16:16:01.000Z</time>
      </trkpt>
      <trkpt lat="47.17491" lon="-1.39108">
        <ele>58</ele>
        <time>2020-05-29T16:16:03.000Z</time>
      </trkpt>
      <trkpt lat="47.17503" lon="-1.39097">
        <ele>57</ele>
        <time>2020-05-29T16:16:05.000Z</time>
      </trkpt>
      <trkpt lat="47.17515" lon="-1.39087">
        <ele>57</ele>
        <time>2020-05-29T16:16:07.000Z</time>
      </trkpt>
      <trkpt lat="47.17527" lon="-1.39076">
        <ele>57</ele>
        <time>2020-05-29T16:16:09.000Z</time>
      </trkpt>
      <trkpt lat="47.17538" lon="-1.39066">
        <ele>56</ele>
        <time>2020-05-29T16:16:11.000Z</time>
      </trkpt>
      <trkpt lat="47.17549" lon="-1.39054">
        <ele>57</ele>
        <time>2020-05-29T16:16:13.000Z</time>
      </trkpt>
      <trkpt lat="47.17559" lon="-1.39042">
        <ele>56</ele>
        <time>2020-05-29T16:16:15.000Z</time>
      </trkpt>
      <trkpt lat="47.17565" lon="-1.39024">
        <ele>56</ele>
        <time>2020-05-29T16:16:17.000Z</time>
      </trkpt>
      <trkpt lat="47.17568" lon="-1.39005">
        <ele>56</ele>
        <time>2020-05-29T16:16:19.000Z</time>
      </trkpt>
      <trkpt lat="47.17572" lon="-1.38986">
        <ele>56</ele>
        <time>2020-05-29T16:16:21.000Z</time>
      </trkpt>
      <trkpt lat="47.17577" lon="-1.38968">
        <ele>56</ele>
        <time>2020-05-29T16:16:23.000Z</time>
      </trkpt>
      <trkpt lat="47.17584" lon="-1.38953">
        <ele>56</ele>
        <time>2020-05-29T16:16:25.000Z</time>
      </trkpt>
      <trkpt lat="47.17592" lon="-1.38939">
        <ele>56</ele>
        <time>2020-05-29T16:16:27.000Z</time>
      </trkpt>
      <trkpt lat="47.176" lon="-1.38924">
        <ele>56</ele>
        <time>2020-05-29T16:16:29.000Z</time>
      </trkpt>
      <trkpt lat="47.17609" lon="-1.3891">
        <ele>56</ele>
        <time>2020-05-29T16:16:31.000Z</time>
      </trkpt>
      <trkpt lat="47.17616" lon="-1.38896">
        <ele>56</ele>
        <time>2020-05-29T16:16:33.000Z</time>
      </trkpt>
      <trkpt lat="47.17623" lon="-1.38884">
        <ele>56</ele>
        <time>2020-05-29T16:16:35.000Z</time>
      </trkpt>
      <trkpt lat="47.1763" lon="-1.38869">
        <ele>56</ele>
        <time>2020-05-29T16:16:38.000Z</time>
      </trkpt>
      <trkpt lat="47.17634" lon="-1.38855">
        <ele>57</ele>
        <time>2020-05-29T16:16:44.000Z</time>
      </trkpt>
      <trkpt lat="47.17644" lon="-1.38845">
        <ele>56</ele>
        <time>2020-05-29T16:16:47.000Z</time>
      </trkpt>
      <trkpt lat="47.17654" lon="-1.38841">
        <ele>56</ele>
        <time>2020-05-29T16:16:49.000Z</time>
      </trkpt>
      <trkpt lat="47.17666" lon="-1.38837">
        <ele>56</ele>
        <time>2020-05-29T16:16:51.000Z</time>
      </trkpt>
      <trkpt lat="47.17678" lon="-1.38834">
        <ele>55</ele>
        <time>2020-05-29T16:16:53.000Z</time>
      </trkpt>
      <trkpt lat="47.17689" lon="-1.38831">
        <ele>55</ele>
        <time>2020-05-29T16:16:55.000Z</time>
      </trkpt>
      <trkpt lat="47.17702" lon="-1.38829">
        <ele>55</ele>
        <time>2020-05-29T16:16:57.000Z</time>
      </trkpt>
      <trkpt lat="47.17714" lon="-1.38826">
        <ele>56</ele>
        <time>2020-05-29T16:16:59.000Z</time>
      </trkpt>
      <trkpt lat="47.17726" lon="-1.38825">
        <ele>55</ele>
        <time>2020-05-29T16:17:01.000Z</time>
      </trkpt>
      <trkpt lat="47.17739" lon="-1.38824">
        <ele>55</ele>
        <time>2020-05-29T16:17:03.000Z</time>
      </trkpt>
      <trkpt lat="47.17751" lon="-1.38825">
        <ele>55</ele>
        <time>2020-05-29T16:17:05.000Z</time>
      </trkpt>
      <trkpt lat="47.17763" lon="-1.38827">
        <ele>55</ele>
        <time>2020-05-29T16:17:07.000Z</time>
      </trkpt>
      <trkpt lat="47.17775" lon="-1.38829">
        <ele>55</ele>
        <time>2020-05-29T16:17:09.000Z</time>
      </trkpt>
      <trkpt lat="47.17788" lon="-1.38831">
        <ele>55</ele>
        <time>2020-05-29T16:17:11.000Z</time>
      </trkpt>
      <trkpt lat="47.17801" lon="-1.38835">
        <ele>55</ele>
        <time>2020-05-29T16:17:13.000Z</time>
      </trkpt>
      <trkpt lat="47.17814" lon="-1.38839">
        <ele>55</ele>
        <time>2020-05-29T16:17:15.000Z</time>
      </trkpt>
      <trkpt lat="47.17826" lon="-1.38842">
        <ele>54</ele>
        <time>2020-05-29T16:17:17.000Z</time>
      </trkpt>
      <trkpt lat="47.17839" lon="-1.38847">
        <ele>55</ele>
        <time>2020-05-29T16:17:19.000Z</time>
      </trkpt>
      <trkpt lat="47.17852" lon="-1.38851">
        <ele>55</ele>
        <time>2020-05-29T16:17:21.000Z</time>
      </trkpt>
      <trkpt lat="47.17864" lon="-1.38855">
        <ele>55</ele>
        <time>2020-05-29T16:17:23.000Z</time>
      </trkpt>
      <trkpt lat="47.17878" lon="-1.3886">
        <ele>55</ele>
        <time>2020-05-29T16:17:25.000Z</time>
      </trkpt>
      <trkpt lat="47.17891" lon="-1.38864">
        <ele>55</ele>
        <time>2020-05-29T16:17:27.000Z</time>
      </trkpt>
      <trkpt lat="47.17905" lon="-1.38868">
        <ele>55</ele>
        <time>2020-05-29T16:17:29.000Z</time>
      </trkpt>
      <trkpt lat="47.17918" lon="-1.38872">
        <ele>55</ele>
        <time>2020-05-29T16:17:31.000Z</time>
      </trkpt>
      <trkpt lat="47.17931" lon="-1.38877">
        <ele>55</ele>
        <time>2020-05-29T16:17:33.000Z</time>
      </trkpt>
      <trkpt lat="47.17944" lon="-1.3888">
        <ele>54</ele>
        <time>2020-05-29T16:17:35.000Z</time>
      </trkpt>
      <trkpt lat="47.17957" lon="-1.38884">
        <ele>54</ele>
        <time>2020-05-29T16:17:37.000Z</time>
      </trkpt>
      <trkpt lat="47.17971" lon="-1.38889">
        <ele>54</ele>
        <time>2020-05-29T16:17:39.000Z</time>
      </trkpt>
      <trkpt lat="47.17984" lon="-1.38893">
        <ele>54</ele>
        <time>2020-05-29T16:17:41.000Z</time>
      </trkpt>
      <trkpt lat="47.17998" lon="-1.38898">
        <ele>54</ele>
        <time>2020-05-29T16:17:43.000Z</time>
      </trkpt>
      <trkpt lat="47.18011" lon="-1.38903">
        <ele>54</ele>
        <time>2020-05-29T16:17:45.000Z</time>
      </trkpt>
      <trkpt lat="47.18025" lon="-1.38909">
        <ele>53</ele>
        <time>2020-05-29T16:17:47.000Z</time>
      </trkpt>
      <trkpt lat="47.18038" lon="-1.38916">
        <ele>53</ele>
        <time>2020-05-29T16:17:49.000Z</time>
      </trkpt>
      <trkpt lat="47.1805" lon="-1.38923">
        <ele>52</ele>
        <time>2020-05-29T16:17:51.000Z</time>
      </trkpt>
      <trkpt lat="47.18063" lon="-1.38931">
        <ele>52</ele>
        <time>2020-05-29T16:17:53.000Z</time>
      </trkpt>
      <trkpt lat="47.18076" lon="-1.38939">
        <ele>52</ele>
        <time>2020-05-29T16:17:55.000Z</time>
      </trkpt>
      <trkpt lat="47.18088" lon="-1.38947">
        <ele>52</ele>
        <time>2020-05-29T16:17:57.000Z</time>
      </trkpt>
      <trkpt lat="47.181" lon="-1.38955">
        <ele>52</ele>
        <time>2020-05-29T16:17:59.000Z</time>
      </trkpt>
      <trkpt lat="47.18113" lon="-1.38961">
        <ele>52</ele>
        <time>2020-05-29T16:18:01.000Z</time>
      </trkpt>
      <trkpt lat="47.18125" lon="-1.38969">
        <ele>52</ele>
        <time>2020-05-29T16:18:03.000Z</time>
      </trkpt>
      <trkpt lat="47.18137" lon="-1.38976">
        <ele>52</ele>
        <time>2020-05-29T16:18:05.000Z</time>
      </trkpt>
      <trkpt lat="47.1815" lon="-1.38984">
        <ele>52</ele>
        <time>2020-05-29T16:18:07.000Z</time>
      </trkpt>
      <trkpt lat="47.18163" lon="-1.38991">
        <ele>52</ele>
        <time>2020-05-29T16:18:09.000Z</time>
      </trkpt>
      <trkpt lat="47.18176" lon="-1.38999">
        <ele>52</ele>
        <time>2020-05-29T16:18:11.000Z</time>
      </trkpt>
      <trkpt lat="47.18188" lon="-1.39006">
        <ele>52</ele>
        <time>2020-05-29T16:18:13.000Z</time>
      </trkpt>
      <trkpt lat="47.18201" lon="-1.39014">
        <ele>52</ele>
        <time>2020-05-29T16:18:15.000Z</time>
      </trkpt>
      <trkpt lat="47.18214" lon="-1.39022">
        <ele>52</ele>
        <time>2020-05-29T16:18:17.000Z</time>
      </trkpt>
      <trkpt lat="47.18227" lon="-1.39029">
        <ele>52</ele>
        <time>2020-05-29T16:18:19.000Z</time>
      </trkpt>
      <trkpt lat="47.1824" lon="-1.39036">
        <ele>51</ele>
        <time>2020-05-29T16:18:21.000Z</time>
      </trkpt>
      <trkpt lat="47.18252" lon="-1.39044">
        <ele>52</ele>
        <time>2020-05-29T16:18:23.000Z</time>
      </trkpt>
      <trkpt lat="47.18264" lon="-1.39051">
        <ele>51</ele>
        <time>2020-05-29T16:18:25.000Z</time>
      </trkpt>
      <trkpt lat="47.18277" lon="-1.39058">
        <ele>51</ele>
        <time>2020-05-29T16:18:27.000Z</time>
      </trkpt>
      <trkpt lat="47.18289" lon="-1.39065">
        <ele>51</ele>
        <time>2020-05-29T16:18:29.000Z</time>
      </trkpt>
      <trkpt lat="47.18301" lon="-1.39073">
        <ele>52</ele>
        <time>2020-05-29T16:18:31.000Z</time>
      </trkpt>
      <trkpt lat="47.18314" lon="-1.39082">
        <ele>52</ele>
        <time>2020-05-29T16:18:33.000Z</time>
      </trkpt>
      <trkpt lat="47.18328" lon="-1.39089">
        <ele>51</ele>
        <time>2020-05-29T16:18:35.000Z</time>
      </trkpt>
      <trkpt lat="47.18341" lon="-1.39097">
        <ele>51</ele>
        <time>2020-05-29T16:18:37.000Z</time>
      </trkpt>
      <trkpt lat="47.18354" lon="-1.39104">
        <ele>51</ele>
        <time>2020-05-29T16:18:39.000Z</time>
      </trkpt>
      <trkpt lat="47.18367" lon="-1.39113">
        <ele>51</ele>
        <time>2020-05-29T16:18:41.000Z</time>
      </trkpt>
      <trkpt lat="47.1838" lon="-1.39121">
        <ele>51</ele>
        <time>2020-05-29T16:18:43.000Z</time>
      </trkpt>
      <trkpt lat="47.18393" lon="-1.39128">
        <ele>51</ele>
        <time>2020-05-29T16:18:45.000Z</time>
      </trkpt>
      <trkpt lat="47.18405" lon="-1.39136">
        <ele>51</ele>
        <time>2020-05-29T16:18:47.000Z</time>
      </trkpt>
      <trkpt lat="47.18417" lon="-1.39144">
        <ele>51</ele>
        <time>2020-05-29T16:18:49.000Z</time>
      </trkpt>
      <trkpt lat="47.18429" lon="-1.39151">
        <ele>51</ele>
        <time>2020-05-29T16:18:51.000Z</time>
      </trkpt>
      <trkpt lat="47.18441" lon="-1.39159">
        <ele>51</ele>
        <time>2020-05-29T16:18:53.000Z</time>
      </trkpt>
      <trkpt lat="47.18452" lon="-1.3917">
        <ele>51</ele>
        <time>2020-05-29T16:18:55.000Z</time>
      </trkpt>
      <trkpt lat="47.18461" lon="-1.39182">
        <ele>51</ele>
        <time>2020-05-29T16:18:57.000Z</time>
      </trkpt>
      <trkpt lat="47.18469" lon="-1.39195">
        <ele>51</ele>
        <time>2020-05-29T16:18:59.000Z</time>
      </trkpt>
      <trkpt lat="47.18475" lon="-1.3921">
        <ele>52</ele>
        <time>2020-05-29T16:19:01.000Z</time>
      </trkpt>
      <trkpt lat="47.18479" lon="-1.39227">
        <ele>53</ele>
        <time>2020-05-29T16:19:03.000Z</time>
      </trkpt>
      <trkpt lat="47.18484" lon="-1.39244">
        <ele>53</ele>
        <time>2020-05-29T16:19:05.000Z</time>
      </trkpt>
      <trkpt lat="47.18489" lon="-1.39261">
        <ele>54</ele>
        <time>2020-05-29T16:19:07.000Z</time>
      </trkpt>
      <trkpt lat="47.18495" lon="-1.39278">
        <ele>54</ele>
        <time>2020-05-29T16:19:09.000Z</time>
      </trkpt>
      <trkpt lat="47.18501" lon="-1.39295">
        <ele>55</ele>
        <time>2020-05-29T16:19:11.000Z</time>
      </trkpt>
      <trkpt lat="47.18507" lon="-1.39311">
        <ele>55</ele>
        <time>2020-05-29T16:19:13.000Z</time>
      </trkpt>
      <trkpt lat="47.18514" lon="-1.39326">
        <ele>55</ele>
        <time>2020-05-29T16:19:15.000Z</time>
      </trkpt>
      <trkpt lat="47.18521" lon="-1.39342">
        <ele>55</ele>
        <time>2020-05-29T16:19:17.000Z</time>
      </trkpt>
      <trkpt lat="47.18529" lon="-1.39357">
        <ele>55</ele>
        <time>2020-05-29T16:19:19.000Z</time>
      </trkpt>
      <trkpt lat="47.18536" lon="-1.39371">
        <ele>55</ele>
        <time>2020-05-29T16:19:21.000Z</time>
      </trkpt>
      <trkpt lat="47.18544" lon="-1.39386">
        <ele>55</ele>
        <time>2020-05-29T16:19:23.000Z</time>
      </trkpt>
      <trkpt lat="47.18554" lon="-1.39398">
        <ele>55</ele>
        <time>2020-05-29T16:19:25.000Z</time>
      </trkpt>
      <trkpt lat="47.18564" lon="-1.39409">
        <ele>55</ele>
        <time>2020-05-29T16:19:27.000Z</time>
      </trkpt>
      <trkpt lat="47.18575" lon="-1.39418">
        <ele>54</ele>
        <time>2020-05-29T16:19:29.000Z</time>
      </trkpt>
      <trkpt lat="47.18587" lon="-1.39427">
        <ele>54</ele>
        <time>2020-05-29T16:19:31.000Z</time>
      </trkpt>
      <trkpt lat="47.18598" lon="-1.39435">
        <ele>54</ele>
        <time>2020-05-29T16:19:33.000Z</time>
      </trkpt>
      <trkpt lat="47.1861" lon="-1.39443">
        <ele>54</ele>
        <time>2020-05-29T16:19:35.000Z</time>
      </trkpt>
      <trkpt lat="47.1862" lon="-1.39451">
        <ele>55</ele>
        <time>2020-05-29T16:19:37.000Z</time>
      </trkpt>
      <trkpt lat="47.18632" lon="-1.3946">
        <ele>54</ele>
        <time>2020-05-29T16:19:39.000Z</time>
      </trkpt>
      <trkpt lat="47.18643" lon="-1.39468">
        <ele>54</ele>
        <time>2020-05-29T16:19:41.000Z</time>
      </trkpt>
      <trkpt lat="47.18654" lon="-1.39477">
        <ele>54</ele>
        <time>2020-05-29T16:19:43.000Z</time>
      </trkpt>
      <trkpt lat="47.18665" lon="-1.39485">
        <ele>54</ele>
        <time>2020-05-29T16:19:45.000Z</time>
      </trkpt>
      <trkpt lat="47.18676" lon="-1.39494">
        <ele>54</ele>
        <time>2020-05-29T16:19:47.000Z</time>
      </trkpt>
      <trkpt lat="47.18687" lon="-1.39502">
        <ele>54</ele>
        <time>2020-05-29T16:19:49.000Z</time>
      </trkpt>
      <trkpt lat="47.18698" lon="-1.3951">
        <ele>54</ele>
        <time>2020-05-29T16:19:51.000Z</time>
      </trkpt>
      <trkpt lat="47.18709" lon="-1.39518">
        <ele>54</ele>
        <time>2020-05-29T16:19:53.000Z</time>
      </trkpt>
      <trkpt lat="47.18718" lon="-1.39528">
        <ele>54</ele>
        <time>2020-05-29T16:19:55.000Z</time>
      </trkpt>
      <trkpt lat="47.18726" lon="-1.3954">
        <ele>55</ele>
        <time>2020-05-29T16:19:57.000Z</time>
      </trkpt>
      <trkpt lat="47.18735" lon="-1.39552">
        <ele>55</ele>
        <time>2020-05-29T16:19:59.000Z</time>
      </trkpt>
      <trkpt lat="47.18743" lon="-1.39564">
        <ele>55</ele>
        <time>2020-05-29T16:20:01.000Z</time>
      </trkpt>
      <trkpt lat="47.1875" lon="-1.39577">
        <ele>55</ele>
        <time>2020-05-29T16:20:03.000Z</time>
      </trkpt>
      <trkpt lat="47.18758" lon="-1.3959">
        <ele>55</ele>
        <time>2020-05-29T16:20:05.000Z</time>
      </trkpt>
      <trkpt lat="47.18764" lon="-1.39602">
        <ele>55</ele>
        <time>2020-05-29T16:20:07.000Z</time>
      </trkpt>
      <trkpt lat="47.1877" lon="-1.39612">
        <ele>56</ele>
        <time>2020-05-29T16:20:09.000Z</time>
      </trkpt>
      <trkpt lat="47.18777" lon="-1.39624">
        <ele>57</ele>
        <time>2020-05-29T16:20:11.000Z</time>
      </trkpt>
      <trkpt lat="47.18782" lon="-1.39635">
        <ele>57</ele>
        <time>2020-05-29T16:20:13.000Z</time>
      </trkpt>
      <trkpt lat="47.18788" lon="-1.39647">
        <ele>58</ele>
        <time>2020-05-29T16:20:15.000Z</time>
      </trkpt>
      <trkpt lat="47.18794" lon="-1.39659">
        <ele>58</ele>
        <time>2020-05-29T16:20:17.000Z</time>
      </trkpt>
      <trkpt lat="47.18799" lon="-1.3967">
        <ele>59</ele>
        <time>2020-05-29T16:20:19.000Z</time>
      </trkpt>
      <trkpt lat="47.18805" lon="-1.39682">
        <ele>59</ele>
        <time>2020-05-29T16:20:21.000Z</time>
      </trkpt>
      <trkpt lat="47.18813" lon="-1.39697">
        <ele>60</ele>
        <time>2020-05-29T16:20:24.000Z</time>
      </trkpt>
      <trkpt lat="47.18821" lon="-1.39712">
        <ele>61</ele>
        <time>2020-05-29T16:20:27.000Z</time>
      </trkpt>
      <trkpt lat="47.18828" lon="-1.39728">
        <ele>62</ele>
        <time>2020-05-29T16:20:30.000Z</time>
      </trkpt>
      <trkpt lat="47.18836" lon="-1.39742">
        <ele>63</ele>
        <time>2020-05-29T16:20:33.000Z</time>
      </trkpt>
      <trkpt lat="47.18841" lon="-1.39753">
        <ele>63</ele>
        <time>2020-05-29T16:20:35.000Z</time>
      </trkpt>
      <trkpt lat="47.18849" lon="-1.39768">
        <ele>64</ele>
        <time>2020-05-29T16:20:38.000Z</time>
      </trkpt>
      <trkpt lat="47.18857" lon="-1.39783">
        <ele>64</ele>
        <time>2020-05-29T16:20:41.000Z</time>
      </trkpt>
      <trkpt lat="47.18865" lon="-1.39798">
        <ele>65</ele>
        <time>2020-05-29T16:20:44.000Z</time>
      </trkpt>
      <trkpt lat="47.18874" lon="-1.39812">
        <ele>65</ele>
        <time>2020-05-29T16:20:47.000Z</time>
      </trkpt>
      <trkpt lat="47.18881" lon="-1.39822">
        <ele>66</ele>
        <time>2020-05-29T16:20:49.000Z</time>
      </trkpt>
      <trkpt lat="47.18889" lon="-1.39831">
        <ele>66</ele>
        <time>2020-05-29T16:20:51.000Z</time>
      </trkpt>
      <trkpt lat="47.18896" lon="-1.39839">
        <ele>66</ele>
        <time>2020-05-29T16:20:53.000Z</time>
      </trkpt>
      <trkpt lat="47.18903" lon="-1.39848">
        <ele>67</ele>
        <time>2020-05-29T16:20:55.000Z</time>
      </trkpt>
      <trkpt lat="47.18911" lon="-1.39856">
        <ele>67</ele>
        <time>2020-05-29T16:20:57.000Z</time>
      </trkpt>
      <trkpt lat="47.18918" lon="-1.39864">
        <ele>67</ele>
        <time>2020-05-29T16:20:59.000Z</time>
      </trkpt>
      <trkpt lat="47.18929" lon="-1.39874">
        <ele>68</ele>
        <time>2020-05-29T16:21:02.000Z</time>
      </trkpt>
      <trkpt lat="47.18939" lon="-1.39886">
        <ele>69</ele>
        <time>2020-05-29T16:21:05.000Z</time>
      </trkpt>
      <trkpt lat="47.18949" lon="-1.39898">
        <ele>70</ele>
        <time>2020-05-29T16:21:08.000Z</time>
      </trkpt>
      <trkpt lat="47.18956" lon="-1.39908">
        <ele>70</ele>
        <time>2020-05-29T16:21:10.000Z</time>
      </trkpt>
      <trkpt lat="47.18963" lon="-1.39918">
        <ele>70</ele>
        <time>2020-05-29T16:21:12.000Z</time>
      </trkpt>
      <trkpt lat="47.18969" lon="-1.39928">
        <ele>70</ele>
        <time>2020-05-29T16:21:14.000Z</time>
      </trkpt>
      <trkpt lat="47.18975" lon="-1.39938">
        <ele>70</ele>
        <time>2020-05-29T16:21:16.000Z</time>
      </trkpt>
      <trkpt lat="47.18982" lon="-1.39948">
        <ele>71</ele>
        <time>2020-05-29T16:21:18.000Z</time>
      </trkpt>
      <trkpt lat="47.18988" lon="-1.39959">
        <ele>71</ele>
        <time>2020-05-29T16:21:20.000Z</time>
      </trkpt>
      <trkpt lat="47.18994" lon="-1.39969">
        <ele>71</ele>
        <time>2020-05-29T16:21:22.000Z</time>
      </trkpt>
      <trkpt lat="47.19001" lon="-1.39979">
        <ele>71</ele>
        <time>2020-05-29T16:21:24.000Z</time>
      </trkpt>
      <trkpt lat="47.19007" lon="-1.3999">
        <ele>71</ele>
        <time>2020-05-29T16:21:26.000Z</time>
      </trkpt>
      <trkpt lat="47.19013" lon="-1.4">
        <ele>72</ele>
        <time>2020-05-29T16:21:28.000Z</time>
      </trkpt>
      <trkpt lat="47.1902" lon="-1.40011">
        <ele>72</ele>
        <time>2020-05-29T16:21:30.000Z</time>
      </trkpt>
      <trkpt lat="47.19027" lon="-1.40022">
        <ele>72</ele>
        <time>2020-05-29T16:21:32.000Z</time>
      </trkpt>
      <trkpt lat="47.19033" lon="-1.40033">
        <ele>72</ele>
        <time>2020-05-29T16:21:34.000Z</time>
      </trkpt>
      <trkpt lat="47.1904" lon="-1.40043">
        <ele>72</ele>
        <time>2020-05-29T16:21:36.000Z</time>
      </trkpt>
      <trkpt lat="47.19047" lon="-1.40055">
        <ele>72</ele>
        <time>2020-05-29T16:21:38.000Z</time>
      </trkpt>
      <trkpt lat="47.19054" lon="-1.40066">
        <ele>72</ele>
        <time>2020-05-29T16:21:40.000Z</time>
      </trkpt>
      <trkpt lat="47.19063" lon="-1.40079">
        <ele>72</ele>
        <time>2020-05-29T16:21:42.000Z</time>
      </trkpt>
      <trkpt lat="47.19071" lon="-1.40092">
        <ele>72</ele>
        <time>2020-05-29T16:21:44.000Z</time>
      </trkpt>
      <trkpt lat="47.19078" lon="-1.40107">
        <ele>72</ele>
        <time>2020-05-29T16:21:46.000Z</time>
      </trkpt>
      <trkpt lat="47.19085" lon="-1.40121">
        <ele>72</ele>
        <time>2020-05-29T16:21:48.000Z</time>
      </trkpt>
      <trkpt lat="47.19092" lon="-1.40139">
        <ele>72</ele>
        <time>2020-05-29T16:21:50.000Z</time>
      </trkpt>
      <trkpt lat="47.19099" lon="-1.40157">
        <ele>71</ele>
        <time>2020-05-29T16:21:52.000Z</time>
      </trkpt>
      <trkpt lat="47.19105" lon="-1.40176">
        <ele>71</ele>
        <time>2020-05-29T16:21:54.000Z</time>
      </trkpt>
      <trkpt lat="47.19112" lon="-1.40195">
        <ele>71</ele>
        <time>2020-05-29T16:21:56.000Z</time>
      </trkpt>
      <trkpt lat="47.1912" lon="-1.40217">
        <ele>70</ele>
        <time>2020-05-29T16:21:58.000Z</time>
      </trkpt>
      <trkpt lat="47.19128" lon="-1.40239">
        <ele>69</ele>
        <time>2020-05-29T16:22:00.000Z</time>
      </trkpt>
      <trkpt lat="47.19132" lon="-1.40251">
        <ele>69</ele>
        <time>2020-05-29T16:22:01.000Z</time>
      </trkpt>
      <trkpt lat="47.19137" lon="-1.40263">
        <ele>68</ele>
        <time>2020-05-29T16:22:02.000Z</time>
      </trkpt>
      <trkpt lat="47.19141" lon="-1.40275">
        <ele>68</ele>
        <time>2020-05-29T16:22:03.000Z</time>
      </trkpt>
      <trkpt lat="47.19149" lon="-1.40298">
        <ele>67</ele>
        <time>2020-05-29T16:22:05.000Z</time>
      </trkpt>
      <trkpt lat="47.19153" lon="-1.40311">
        <ele>67</ele>
        <time>2020-05-29T16:22:06.000Z</time>
      </trkpt>
      <trkpt lat="47.19161" lon="-1.40331">
        <ele>66</ele>
        <time>2020-05-29T16:22:08.000Z</time>
      </trkpt>
      <trkpt lat="47.19168" lon="-1.40353">
        <ele>66</ele>
        <time>2020-05-29T16:22:10.000Z</time>
      </trkpt>
      <trkpt lat="47.19176" lon="-1.40373">
        <ele>65</ele>
        <time>2020-05-29T16:22:12.000Z</time>
      </trkpt>
      <trkpt lat="47.19183" lon="-1.40393">
        <ele>65</ele>
        <time>2020-05-29T16:22:14.000Z</time>
      </trkpt>
      <trkpt lat="47.1919" lon="-1.40414">
        <ele>64</ele>
        <time>2020-05-29T16:22:16.000Z</time>
      </trkpt>
      <trkpt lat="47.19195" lon="-1.40435">
        <ele>64</ele>
        <time>2020-05-29T16:22:18.000Z</time>
      </trkpt>
      <trkpt lat="47.192" lon="-1.40459">
        <ele>63</ele>
        <time>2020-05-29T16:22:20.000Z</time>
      </trkpt>
      <trkpt lat="47.19205" lon="-1.40483">
        <ele>62</ele>
        <time>2020-05-29T16:22:22.000Z</time>
      </trkpt>
      <trkpt lat="47.19208" lon="-1.40507">
        <ele>62</ele>
        <time>2020-05-29T16:22:24.000Z</time>
      </trkpt>
      <trkpt lat="47.19213" lon="-1.40529">
        <ele>61</ele>
        <time>2020-05-29T16:22:26.000Z</time>
      </trkpt>
      <trkpt lat="47.19217" lon="-1.40553">
        <ele>61</ele>
        <time>2020-05-29T16:22:28.000Z</time>
      </trkpt>
      <trkpt lat="47.19221" lon="-1.40576">
        <ele>61</ele>
        <time>2020-05-29T16:22:30.000Z</time>
      </trkpt>
      <trkpt lat="47.19225" lon="-1.40598">
        <ele>61</ele>
        <time>2020-05-29T16:22:32.000Z</time>
      </trkpt>
      <trkpt lat="47.19229" lon="-1.4062">
        <ele>61</ele>
        <time>2020-05-29T16:22:34.000Z</time>
      </trkpt>
      <trkpt lat="47.19233" lon="-1.40641">
        <ele>61</ele>
        <time>2020-05-29T16:22:36.000Z</time>
      </trkpt>
      <trkpt lat="47.19236" lon="-1.40663">
        <ele>61</ele>
        <time>2020-05-29T16:22:38.000Z</time>
      </trkpt>
      <trkpt lat="47.19239" lon="-1.40683">
        <ele>61</ele>
        <time>2020-05-29T16:22:40.000Z</time>
      </trkpt>
      <trkpt lat="47.19243" lon="-1.40702">
        <ele>62</ele>
        <time>2020-05-29T16:22:42.000Z</time>
      </trkpt>
      <trkpt lat="47.19246" lon="-1.4072">
        <ele>62</ele>
        <time>2020-05-29T16:22:44.000Z</time>
      </trkpt>
      <trkpt lat="47.19249" lon="-1.40739">
        <ele>63</ele>
        <time>2020-05-29T16:22:46.000Z</time>
      </trkpt>
      <trkpt lat="47.19253" lon="-1.40758">
        <ele>63</ele>
        <time>2020-05-29T16:22:48.000Z</time>
      </trkpt>
      <trkpt lat="47.19255" lon="-1.40777">
        <ele>64</ele>
        <time>2020-05-29T16:22:50.000Z</time>
      </trkpt>
      <trkpt lat="47.19257" lon="-1.40796">
        <ele>64</ele>
        <time>2020-05-29T16:22:52.000Z</time>
      </trkpt>
      <trkpt lat="47.19259" lon="-1.40817">
        <ele>64</ele>
        <time>2020-05-29T16:22:54.000Z</time>
      </trkpt>
      <trkpt lat="47.19261" lon="-1.40839">
        <ele>64</ele>
        <time>2020-05-29T16:22:56.000Z</time>
      </trkpt>
      <trkpt lat="47.19263" lon="-1.40861">
        <ele>64</ele>
        <time>2020-05-29T16:22:58.000Z</time>
      </trkpt>
      <trkpt lat="47.19265" lon="-1.40882">
        <ele>64</ele>
        <time>2020-05-29T16:23:00.000Z</time>
      </trkpt>
      <trkpt lat="47.19265" lon="-1.40904">
        <ele>64</ele>
        <time>2020-05-29T16:23:02.000Z</time>
      </trkpt>
      <trkpt lat="47.19265" lon="-1.40925">
        <ele>64</ele>
        <time>2020-05-29T16:23:04.000Z</time>
      </trkpt>
      <trkpt lat="47.19264" lon="-1.40947">
        <ele>64</ele>
        <time>2020-05-29T16:23:06.000Z</time>
      </trkpt>
      <trkpt lat="47.19263" lon="-1.40968">
        <ele>64</ele>
        <time>2020-05-29T16:23:08.000Z</time>
      </trkpt>
      <trkpt lat="47.19264" lon="-1.40989">
        <ele>64</ele>
        <time>2020-05-29T16:23:10.000Z</time>
      </trkpt>
      <trkpt lat="47.19266" lon="-1.41009">
        <ele>64</ele>
        <time>2020-05-29T16:23:12.000Z</time>
      </trkpt>
      <trkpt lat="47.19271" lon="-1.4103">
        <ele>64</ele>
        <time>2020-05-29T16:23:14.000Z</time>
      </trkpt>
      <trkpt lat="47.19276" lon="-1.41048">
        <ele>64</ele>
        <time>2020-05-29T16:23:16.000Z</time>
      </trkpt>
      <trkpt lat="47.19283" lon="-1.41066">
        <ele>65</ele>
        <time>2020-05-29T16:23:18.000Z</time>
      </trkpt>
      <trkpt lat="47.1929" lon="-1.41083">
        <ele>65</ele>
        <time>2020-05-29T16:23:20.000Z</time>
      </trkpt>
      <trkpt lat="47.19298" lon="-1.411">
        <ele>65</ele>
        <time>2020-05-29T16:23:22.000Z</time>
      </trkpt>
      <trkpt lat="47.19307" lon="-1.41115">
        <ele>65</ele>
        <time>2020-05-29T16:23:24.000Z</time>
      </trkpt>
      <trkpt lat="47.19315" lon="-1.4113">
        <ele>66</ele>
        <time>2020-05-29T16:23:26.000Z</time>
      </trkpt>
      <trkpt lat="47.19322" lon="-1.41145">
        <ele>66</ele>
        <time>2020-05-29T16:23:28.000Z</time>
      </trkpt>
      <trkpt lat="47.1933" lon="-1.41159">
        <ele>66</ele>
        <time>2020-05-29T16:23:30.000Z</time>
      </trkpt>
      <trkpt lat="47.19337" lon="-1.41175">
        <ele>66</ele>
        <time>2020-05-29T16:23:32.000Z</time>
      </trkpt>
      <trkpt lat="47.19345" lon="-1.41189">
        <ele>67</ele>
        <time>2020-05-29T16:23:34.000Z</time>
      </trkpt>
      <trkpt lat="47.19353" lon="-1.41204">
        <ele>67</ele>
        <time>2020-05-29T16:23:36.000Z</time>
      </trkpt>
      <trkpt lat="47.19361" lon="-1.41219">
        <ele>68</ele>
        <time>2020-05-29T16:23:38.000Z</time>
      </trkpt>
      <trkpt lat="47.19368" lon="-1.41234">
        <ele>68</ele>
        <time>2020-05-29T16:23:40.000Z</time>
      </trkpt>
      <trkpt lat="47.19376" lon="-1.4125">
        <ele>68</ele>
        <time>2020-05-29T16:23:42.000Z</time>
      </trkpt>
      <trkpt lat="47.19383" lon="-1.41265">
        <ele>69</ele>
        <time>2020-05-29T16:23:44.000Z</time>
      </trkpt>
      <trkpt lat="47.19391" lon="-1.41279">
        <ele>69</ele>
        <time>2020-05-29T16:23:46.000Z</time>
      </trkpt>
      <trkpt lat="47.19398" lon="-1.41293">
        <ele>69</ele>
        <time>2020-05-29T16:23:48.000Z</time>
      </trkpt>
      <trkpt lat="47.19406" lon="-1.41309">
        <ele>70</ele>
        <time>2020-05-29T16:23:50.000Z</time>
      </trkpt>
      <trkpt lat="47.19413" lon="-1.41323">
        <ele>69</ele>
        <time>2020-05-29T16:23:52.000Z</time>
      </trkpt>
      <trkpt lat="47.1942" lon="-1.41338">
        <ele>69</ele>
        <time>2020-05-29T16:23:54.000Z</time>
      </trkpt>
      <trkpt lat="47.19429" lon="-1.41352">
        <ele>69</ele>
        <time>2020-05-29T16:23:56.000Z</time>
      </trkpt>
      <trkpt lat="47.19438" lon="-1.41364">
        <ele>70</ele>
        <time>2020-05-29T16:23:58.000Z</time>
      </trkpt>
      <trkpt lat="47.19453" lon="-1.41383">
        <ele>70</ele>
        <time>2020-05-29T16:24:01.000Z</time>
      </trkpt>
      <trkpt lat="47.19464" lon="-1.41394">
        <ele>70</ele>
        <time>2020-05-29T16:24:03.000Z</time>
      </trkpt>
      <trkpt lat="47.19475" lon="-1.41405">
        <ele>70</ele>
        <time>2020-05-29T16:24:05.000Z</time>
      </trkpt>
      <trkpt lat="47.19486" lon="-1.41415">
        <ele>70</ele>
        <time>2020-05-29T16:24:07.000Z</time>
      </trkpt>
      <trkpt lat="47.19498" lon="-1.41426">
        <ele>70</ele>
        <time>2020-05-29T16:24:09.000Z</time>
      </trkpt>
      <trkpt lat="47.19509" lon="-1.41437">
        <ele>70</ele>
        <time>2020-05-29T16:24:11.000Z</time>
      </trkpt>
      <trkpt lat="47.1952" lon="-1.41448">
        <ele>70</ele>
        <time>2020-05-29T16:24:13.000Z</time>
      </trkpt>
      <trkpt lat="47.19531" lon="-1.4146">
        <ele>70</ele>
        <time>2020-05-29T16:24:15.000Z</time>
      </trkpt>
      <trkpt lat="47.19541" lon="-1.41471">
        <ele>70</ele>
        <time>2020-05-29T16:24:17.000Z</time>
      </trkpt>
      <trkpt lat="47.19552" lon="-1.41483">
        <ele>70</ele>
        <time>2020-05-29T16:24:19.000Z</time>
      </trkpt>
      <trkpt lat="47.19563" lon="-1.41498">
        <ele>70</ele>
        <time>2020-05-29T16:24:21.000Z</time>
      </trkpt>
      <trkpt lat="47.19572" lon="-1.41512">
        <ele>70</ele>
        <time>2020-05-29T16:24:23.000Z</time>
      </trkpt>
      <trkpt lat="47.19581" lon="-1.41528">
        <ele>69</ele>
        <time>2020-05-29T16:24:25.000Z</time>
      </trkpt>
      <trkpt lat="47.1959" lon="-1.41546">
        <ele>68</ele>
        <time>2020-05-29T16:24:27.000Z</time>
      </trkpt>
      <trkpt lat="47.19598" lon="-1.41564">
        <ele>68</ele>
        <time>2020-05-29T16:24:29.000Z</time>
      </trkpt>
      <trkpt lat="47.19607" lon="-1.41582">
        <ele>68</ele>
        <time>2020-05-29T16:24:31.000Z</time>
      </trkpt>
      <trkpt lat="47.19616" lon="-1.41601">
        <ele>68</ele>
        <time>2020-05-29T16:24:33.000Z</time>
      </trkpt>
      <trkpt lat="47.19625" lon="-1.41621">
        <ele>67</ele>
        <time>2020-05-29T16:24:35.000Z</time>
      </trkpt>
      <trkpt lat="47.19634" lon="-1.41639">
        <ele>67</ele>
        <time>2020-05-29T16:24:37.000Z</time>
      </trkpt>
      <trkpt lat="47.19643" lon="-1.41658">
        <ele>67</ele>
        <time>2020-05-29T16:24:39.000Z</time>
      </trkpt>
      <trkpt lat="47.19651" lon="-1.41676">
        <ele>67</ele>
        <time>2020-05-29T16:24:41.000Z</time>
      </trkpt>
      <trkpt lat="47.19659" lon="-1.41693">
        <ele>66</ele>
        <time>2020-05-29T16:24:43.000Z</time>
      </trkpt>
      <trkpt lat="47.19667" lon="-1.4171">
        <ele>66</ele>
        <time>2020-05-29T16:24:45.000Z</time>
      </trkpt>
      <trkpt lat="47.19676" lon="-1.41727">
        <ele>67</ele>
        <time>2020-05-29T16:24:47.000Z</time>
      </trkpt>
      <trkpt lat="47.19684" lon="-1.41745">
        <ele>67</ele>
        <time>2020-05-29T16:24:49.000Z</time>
      </trkpt>
      <trkpt lat="47.19692" lon="-1.41762">
        <ele>66</ele>
        <time>2020-05-29T16:24:51.000Z</time>
      </trkpt>
      <trkpt lat="47.197" lon="-1.41777">
        <ele>66</ele>
        <time>2020-05-29T16:24:53.000Z</time>
      </trkpt>
      <trkpt lat="47.19707" lon="-1.41792">
        <ele>66</ele>
        <time>2020-05-29T16:24:55.000Z</time>
      </trkpt>
      <trkpt lat="47.19714" lon="-1.41806">
        <ele>66</ele>
        <time>2020-05-29T16:24:57.000Z</time>
      </trkpt>
      <trkpt lat="47.19722" lon="-1.41821">
        <ele>66</ele>
        <time>2020-05-29T16:24:59.000Z</time>
      </trkpt>
      <trkpt lat="47.19731" lon="-1.41841">
        <ele>67</ele>
        <time>2020-05-29T16:25:02.000Z</time>
      </trkpt>
      <trkpt lat="47.19737" lon="-1.41853">
        <ele>67</ele>
        <time>2020-05-29T16:25:04.000Z</time>
      </trkpt>
      <trkpt lat="47.19745" lon="-1.41872">
        <ele>69</ele>
        <time>2020-05-29T16:25:07.000Z</time>
      </trkpt>
      <trkpt lat="47.19752" lon="-1.41885">
        <ele>70</ele>
        <time>2020-05-29T16:25:09.000Z</time>
      </trkpt>
      <trkpt lat="47.19758" lon="-1.41897">
        <ele>70</ele>
        <time>2020-05-29T16:25:11.000Z</time>
      </trkpt>
      <trkpt lat="47.19769" lon="-1.41912">
        <ele>71</ele>
        <time>2020-05-29T16:25:14.000Z</time>
      </trkpt>
      <trkpt lat="47.1978" lon="-1.41927">
        <ele>70</ele>
        <time>2020-05-29T16:25:17.000Z</time>
      </trkpt>
      <trkpt lat="47.19788" lon="-1.41936">
        <ele>70</ele>
        <time>2020-05-29T16:25:19.000Z</time>
      </trkpt>
      <trkpt lat="47.19799" lon="-1.41951">
        <ele>70</ele>
        <time>2020-05-29T16:25:22.000Z</time>
      </trkpt>
      <trkpt lat="47.19809" lon="-1.41968">
        <ele>70</ele>
        <time>2020-05-29T16:25:25.000Z</time>
      </trkpt>
      <trkpt lat="47.19814" lon="-1.4198">
        <ele>71</ele>
        <time>2020-05-29T16:25:27.000Z</time>
      </trkpt>
      <trkpt lat="47.19818" lon="-1.41992">
        <ele>72</ele>
        <time>2020-05-29T16:25:29.000Z</time>
      </trkpt>
      <trkpt lat="47.19823" lon="-1.42004">
        <ele>73</ele>
        <time>2020-05-29T16:25:31.000Z</time>
      </trkpt>
      <trkpt lat="47.19829" lon="-1.42018">
        <ele>73</ele>
        <time>2020-05-29T16:25:33.000Z</time>
      </trkpt>
      <trkpt lat="47.19833" lon="-1.42032">
        <ele>74</ele>
        <time>2020-05-29T16:25:35.000Z</time>
      </trkpt>
      <trkpt lat="47.19837" lon="-1.42047">
        <ele>75</ele>
        <time>2020-05-29T16:25:37.000Z</time>
      </trkpt>
      <trkpt lat="47.19839" lon="-1.42062">
        <ele>75</ele>
        <time>2020-05-29T16:25:39.000Z</time>
      </trkpt>
      <trkpt lat="47.19841" lon="-1.42079">
        <ele>75</ele>
        <time>2020-05-29T16:25:41.000Z</time>
      </trkpt>
      <trkpt lat="47.19841" lon="-1.42095">
        <ele>75</ele>
        <time>2020-05-29T16:25:43.000Z</time>
      </trkpt>
      <trkpt lat="47.1984" lon="-1.42113">
        <ele>75</ele>
        <time>2020-05-29T16:25:45.000Z</time>
      </trkpt>
      <trkpt lat="47.19839" lon="-1.42129">
        <ele>75</ele>
        <time>2020-05-29T16:25:47.000Z</time>
      </trkpt>
      <trkpt lat="47.19837" lon="-1.42146">
        <ele>75</ele>
        <time>2020-05-29T16:25:49.000Z</time>
      </trkpt>
      <trkpt lat="47.19836" lon="-1.42162">
        <ele>76</ele>
        <time>2020-05-29T16:25:51.000Z</time>
      </trkpt>
      <trkpt lat="47.19835" lon="-1.42179">
        <ele>76</ele>
        <time>2020-05-29T16:25:53.000Z</time>
      </trkpt>
      <trkpt lat="47.19833" lon="-1.42196">
        <ele>77</ele>
        <time>2020-05-29T16:25:55.000Z</time>
      </trkpt>
      <trkpt lat="47.19831" lon="-1.42213">
        <ele>77</ele>
        <time>2020-05-29T16:25:57.000Z</time>
      </trkpt>
      <trkpt lat="47.1983" lon="-1.4223">
        <ele>77</ele>
        <time>2020-05-29T16:25:59.000Z</time>
      </trkpt>
      <trkpt lat="47.19829" lon="-1.42246">
        <ele>78</ele>
        <time>2020-05-29T16:26:01.000Z</time>
      </trkpt>
      <trkpt lat="47.19828" lon="-1.42264">
        <ele>78</ele>
        <time>2020-05-29T16:26:03.000Z</time>
      </trkpt>
      <trkpt lat="47.19828" lon="-1.4228">
        <ele>78</ele>
        <time>2020-05-29T16:26:05.000Z</time>
      </trkpt>
      <trkpt lat="47.19827" lon="-1.42296">
        <ele>78</ele>
        <time>2020-05-29T16:26:07.000Z</time>
      </trkpt>
      <trkpt lat="47.19828" lon="-1.42311">
        <ele>78</ele>
        <time>2020-05-29T16:26:09.000Z</time>
      </trkpt>
      <trkpt lat="47.19828" lon="-1.42328">
        <ele>78</ele>
        <time>2020-05-29T16:26:11.000Z</time>
      </trkpt>
      <trkpt lat="47.19828" lon="-1.42345">
        <ele>78</ele>
        <time>2020-05-29T16:26:13.000Z</time>
      </trkpt>
      <trkpt lat="47.19829" lon="-1.4236">
        <ele>79</ele>
        <time>2020-05-29T16:26:15.000Z</time>
      </trkpt>
      <trkpt lat="47.19831" lon="-1.42377">
        <ele>79</ele>
        <time>2020-05-29T16:26:17.000Z</time>
      </trkpt>
      <trkpt lat="47.19832" lon="-1.42393">
        <ele>79</ele>
        <time>2020-05-29T16:26:19.000Z</time>
      </trkpt>
      <trkpt lat="47.19832" lon="-1.42409">
        <ele>79</ele>
        <time>2020-05-29T16:26:21.000Z</time>
      </trkpt>
      <trkpt lat="47.19832" lon="-1.42426">
        <ele>79</ele>
        <time>2020-05-29T16:26:23.000Z</time>
      </trkpt>
      <trkpt lat="47.19833" lon="-1.42443">
        <ele>80</ele>
        <time>2020-05-29T16:26:25.000Z</time>
      </trkpt>
      <trkpt lat="47.19833" lon="-1.4246">
        <ele>79</ele>
        <time>2020-05-29T16:26:27.000Z</time>
      </trkpt>
      <trkpt lat="47.19834" lon="-1.42477">
        <ele>79</ele>
        <time>2020-05-29T16:26:29.000Z</time>
      </trkpt>
      <trkpt lat="47.19835" lon="-1.42494">
        <ele>79</ele>
        <time>2020-05-29T16:26:31.000Z</time>
      </trkpt>
      <trkpt lat="47.19837" lon="-1.4251">
        <ele>79</ele>
        <time>2020-05-29T16:26:33.000Z</time>
      </trkpt>
      <trkpt lat="47.19839" lon="-1.42526">
        <ele>79</ele>
        <time>2020-05-29T16:26:35.000Z</time>
      </trkpt>
      <trkpt lat="47.19841" lon="-1.42542">
        <ele>79</ele>
        <time>2020-05-29T16:26:37.000Z</time>
      </trkpt>
      <trkpt lat="47.19844" lon="-1.42559">
        <ele>79</ele>
        <time>2020-05-29T16:26:39.000Z</time>
      </trkpt>
      <trkpt lat="47.19845" lon="-1.42576">
        <ele>79</ele>
        <time>2020-05-29T16:26:41.000Z</time>
      </trkpt>
      <trkpt lat="47.19848" lon="-1.42594">
        <ele>79</ele>
        <time>2020-05-29T16:26:43.000Z</time>
      </trkpt>
      <trkpt lat="47.19848" lon="-1.42611">
        <ele>80</ele>
        <time>2020-05-29T16:26:45.000Z</time>
      </trkpt>
      <trkpt lat="47.1985" lon="-1.4263">
        <ele>80</ele>
        <time>2020-05-29T16:26:47.000Z</time>
      </trkpt>
      <trkpt lat="47.19851" lon="-1.4265">
        <ele>80</ele>
        <time>2020-05-29T16:26:49.000Z</time>
      </trkpt>
      <trkpt lat="47.19852" lon="-1.42669">
        <ele>80</ele>
        <time>2020-05-29T16:26:51.000Z</time>
      </trkpt>
      <trkpt lat="47.19853" lon="-1.42689">
        <ele>79</ele>
        <time>2020-05-29T16:26:53.000Z</time>
      </trkpt>
      <trkpt lat="47.19855" lon="-1.4271">
        <ele>78</ele>
        <time>2020-05-29T16:26:55.000Z</time>
      </trkpt>
      <trkpt lat="47.19857" lon="-1.42742">
        <ele>77</ele>
        <time>2020-05-29T16:26:58.000Z</time>
      </trkpt>
      <trkpt lat="47.19859" lon="-1.42765">
        <ele>76</ele>
        <time>2020-05-29T16:27:00.000Z</time>
      </trkpt>
      <trkpt lat="47.19865" lon="-1.42787">
        <ele>75</ele>
        <time>2020-05-29T16:27:02.000Z</time>
      </trkpt>
      <trkpt lat="47.19871" lon="-1.42809">
        <ele>75</ele>
        <time>2020-05-29T16:27:04.000Z</time>
      </trkpt>
      <trkpt lat="47.19879" lon="-1.42831">
        <ele>74</ele>
        <time>2020-05-29T16:27:06.000Z</time>
      </trkpt>
      <trkpt lat="47.19886" lon="-1.42852">
        <ele>74</ele>
        <time>2020-05-29T16:27:08.000Z</time>
      </trkpt>
      <trkpt lat="47.1989" lon="-1.42872">
        <ele>73</ele>
        <time>2020-05-29T16:27:10.000Z</time>
      </trkpt>
      <trkpt lat="47.19893" lon="-1.42888">
        <ele>72</ele>
        <time>2020-05-29T16:27:12.000Z</time>
      </trkpt>
      <trkpt lat="47.19897" lon="-1.42906">
        <ele>70</ele>
        <time>2020-05-29T16:27:14.000Z</time>
      </trkpt>
      <trkpt lat="47.199" lon="-1.42919">
        <ele>70</ele>
        <time>2020-05-29T16:27:16.000Z</time>
      </trkpt>
      <trkpt lat="47.19912" lon="-1.42923">
        <ele>71</ele>
        <time>2020-05-29T16:27:22.000Z</time>
      </trkpt>
      <trkpt lat="47.19924" lon="-1.42919">
        <ele>72</ele>
        <time>2020-05-29T16:27:24.000Z</time>
      </trkpt>
      <trkpt lat="47.19935" lon="-1.42906">
        <ele>71</ele>
        <time>2020-05-29T16:27:26.000Z</time>
      </trkpt>
      <trkpt lat="47.19947" lon="-1.42894">
        <ele>70</ele>
        <time>2020-05-29T16:27:28.000Z</time>
      </trkpt>
      <trkpt lat="47.1996" lon="-1.42884">
        <ele>70</ele>
        <time>2020-05-29T16:27:30.000Z</time>
      </trkpt>
      <trkpt lat="47.19972" lon="-1.42876">
        <ele>69</ele>
        <time>2020-05-29T16:27:32.000Z</time>
      </trkpt>
      <trkpt lat="47.19984" lon="-1.42866">
        <ele>69</ele>
        <time>2020-05-29T16:27:34.000Z</time>
      </trkpt>
      <trkpt lat="47.19995" lon="-1.42858">
        <ele>68</ele>
        <time>2020-05-29T16:27:36.000Z</time>
      </trkpt>
      <trkpt lat="47.20007" lon="-1.42851">
        <ele>69</ele>
        <time>2020-05-29T16:27:38.000Z</time>
      </trkpt>
      <trkpt lat="47.20019" lon="-1.42846">
        <ele>69</ele>
        <time>2020-05-29T16:27:40.000Z</time>
      </trkpt>
      <trkpt lat="47.20033" lon="-1.4284">
        <ele>69</ele>
        <time>2020-05-29T16:27:42.000Z</time>
      </trkpt>
      <trkpt lat="47.20046" lon="-1.42835">
        <ele>69</ele>
        <time>2020-05-29T16:27:44.000Z</time>
      </trkpt>
      <trkpt lat="47.20059" lon="-1.42829">
        <ele>69</ele>
        <time>2020-05-29T16:27:46.000Z</time>
      </trkpt>
      <trkpt lat="47.20071" lon="-1.42823">
        <ele>69</ele>
        <time>2020-05-29T16:27:48.000Z</time>
      </trkpt>
      <trkpt lat="47.20085" lon="-1.42818">
        <ele>69</ele>
        <time>2020-05-29T16:27:50.000Z</time>
      </trkpt>
      <trkpt lat="47.20098" lon="-1.42813">
        <ele>70</ele>
        <time>2020-05-29T16:27:52.000Z</time>
      </trkpt>
      <trkpt lat="47.2011" lon="-1.42807">
        <ele>70</ele>
        <time>2020-05-29T16:27:54.000Z</time>
      </trkpt>
      <trkpt lat="47.20122" lon="-1.42802">
        <ele>71</ele>
        <time>2020-05-29T16:27:56.000Z</time>
      </trkpt>
      <trkpt lat="47.20133" lon="-1.42797">
        <ele>71</ele>
        <time>2020-05-29T16:27:58.000Z</time>
      </trkpt>
      <trkpt lat="47.20145" lon="-1.42791">
        <ele>71</ele>
        <time>2020-05-29T16:28:00.000Z</time>
      </trkpt>
      <trkpt lat="47.20157" lon="-1.42786">
        <ele>72</ele>
        <time>2020-05-29T16:28:02.000Z</time>
      </trkpt>
      <trkpt lat="47.20168" lon="-1.42781">
        <ele>72</ele>
        <time>2020-05-29T16:28:04.000Z</time>
      </trkpt>
      <trkpt lat="47.20181" lon="-1.42777">
        <ele>72</ele>
        <time>2020-05-29T16:28:06.000Z</time>
      </trkpt>
      <trkpt lat="47.20192" lon="-1.42775">
        <ele>73</ele>
        <time>2020-05-29T16:28:08.000Z</time>
      </trkpt>
      <trkpt lat="47.20204" lon="-1.42774">
        <ele>73</ele>
        <time>2020-05-29T16:28:10.000Z</time>
      </trkpt>
      <trkpt lat="47.20216" lon="-1.42775">
        <ele>72</ele>
        <time>2020-05-29T16:28:12.000Z</time>
      </trkpt>
      <trkpt lat="47.20229" lon="-1.42776">
        <ele>72</ele>
        <time>2020-05-29T16:28:14.000Z</time>
      </trkpt>
      <trkpt lat="47.20241" lon="-1.4278">
        <ele>71</ele>
        <time>2020-05-29T16:28:16.000Z</time>
      </trkpt>
      <trkpt lat="47.20254" lon="-1.42784">
        <ele>71</ele>
        <time>2020-05-29T16:28:18.000Z</time>
      </trkpt>
      <trkpt lat="47.20273" lon="-1.4279">
        <ele>71</ele>
        <time>2020-05-29T16:28:21.000Z</time>
      </trkpt>
      <trkpt lat="47.20285" lon="-1.42791">
        <ele>70</ele>
        <time>2020-05-29T16:28:23.000Z</time>
      </trkpt>
      <trkpt lat="47.20298" lon="-1.42792">
        <ele>70</ele>
        <time>2020-05-29T16:28:25.000Z</time>
      </trkpt>
      <trkpt lat="47.20312" lon="-1.42793">
        <ele>70</ele>
        <time>2020-05-29T16:28:27.000Z</time>
      </trkpt>
      <trkpt lat="47.20325" lon="-1.42796">
        <ele>71</ele>
        <time>2020-05-29T16:28:29.000Z</time>
      </trkpt>
      <trkpt lat="47.20338" lon="-1.42801">
        <ele>70</ele>
        <time>2020-05-29T16:28:31.000Z</time>
      </trkpt>
      <trkpt lat="47.20351" lon="-1.42805">
        <ele>70</ele>
        <time>2020-05-29T16:28:33.000Z</time>
      </trkpt>
      <trkpt lat="47.20364" lon="-1.4281">
        <ele>70</ele>
        <time>2020-05-29T16:28:35.000Z</time>
      </trkpt>
      <trkpt lat="47.20377" lon="-1.42814">
        <ele>69</ele>
        <time>2020-05-29T16:28:37.000Z</time>
      </trkpt>
      <trkpt lat="47.2039" lon="-1.42816">
        <ele>69</ele>
        <time>2020-05-29T16:28:39.000Z</time>
      </trkpt>
      <trkpt lat="47.20402" lon="-1.42823">
        <ele>70</ele>
        <time>2020-05-29T16:28:41.000Z</time>
      </trkpt>
      <trkpt lat="47.20414" lon="-1.42829">
        <ele>69</ele>
        <time>2020-05-29T16:28:43.000Z</time>
      </trkpt>
      <trkpt lat="47.20427" lon="-1.42836">
        <ele>69</ele>
        <time>2020-05-29T16:28:45.000Z</time>
      </trkpt>
      <trkpt lat="47.2044" lon="-1.42843">
        <ele>69</ele>
        <time>2020-05-29T16:28:47.000Z</time>
      </trkpt>
      <trkpt lat="47.20452" lon="-1.4285">
        <ele>68</ele>
        <time>2020-05-29T16:28:49.000Z</time>
      </trkpt>
      <trkpt lat="47.20466" lon="-1.42857">
        <ele>68</ele>
        <time>2020-05-29T16:28:51.000Z</time>
      </trkpt>
      <trkpt lat="47.2048" lon="-1.42865">
        <ele>68</ele>
        <time>2020-05-29T16:28:53.000Z</time>
      </trkpt>
      <trkpt lat="47.20493" lon="-1.42872">
        <ele>68</ele>
        <time>2020-05-29T16:28:55.000Z</time>
      </trkpt>
      <trkpt lat="47.20506" lon="-1.42879">
        <ele>68</ele>
        <time>2020-05-29T16:28:57.000Z</time>
      </trkpt>
      <trkpt lat="47.2052" lon="-1.42885">
        <ele>68</ele>
        <time>2020-05-29T16:28:59.000Z</time>
      </trkpt>
      <trkpt lat="47.20533" lon="-1.42888">
        <ele>68</ele>
        <time>2020-05-29T16:29:01.000Z</time>
      </trkpt>
      <trkpt lat="47.20547" lon="-1.42892">
        <ele>68</ele>
        <time>2020-05-29T16:29:03.000Z</time>
      </trkpt>
      <trkpt lat="47.20561" lon="-1.42894">
        <ele>68</ele>
        <time>2020-05-29T16:29:05.000Z</time>
      </trkpt>
      <trkpt lat="47.20575" lon="-1.42896">
        <ele>68</ele>
        <time>2020-05-29T16:29:07.000Z</time>
      </trkpt>
      <trkpt lat="47.20589" lon="-1.42898">
        <ele>68</ele>
        <time>2020-05-29T16:29:09.000Z</time>
      </trkpt>
      <trkpt lat="47.20603" lon="-1.42901">
        <ele>68</ele>
        <time>2020-05-29T16:29:11.000Z</time>
      </trkpt>
      <trkpt lat="47.20617" lon="-1.42903">
        <ele>68</ele>
        <time>2020-05-29T16:29:13.000Z</time>
      </trkpt>
      <trkpt lat="47.2063" lon="-1.42904">
        <ele>68</ele>
        <time>2020-05-29T16:29:15.000Z</time>
      </trkpt>
      <trkpt lat="47.20644" lon="-1.42907">
        <ele>68</ele>
        <time>2020-05-29T16:29:17.000Z</time>
      </trkpt>
      <trkpt lat="47.20658" lon="-1.42908">
        <ele>67</ele>
        <time>2020-05-29T16:29:19.000Z</time>
      </trkpt>
      <trkpt lat="47.20672" lon="-1.42911">
        <ele>68</ele>
        <time>2020-05-29T16:29:21.000Z</time>
      </trkpt>
      <trkpt lat="47.20686" lon="-1.42912">
        <ele>67</ele>
        <time>2020-05-29T16:29:23.000Z</time>
      </trkpt>
      <trkpt lat="47.20699" lon="-1.42915">
        <ele>67</ele>
        <time>2020-05-29T16:29:25.000Z</time>
      </trkpt>
      <trkpt lat="47.20713" lon="-1.42918">
        <ele>67</ele>
        <time>2020-05-29T16:29:27.000Z</time>
      </trkpt>
      <trkpt lat="47.20727" lon="-1.42921">
        <ele>67</ele>
        <time>2020-05-29T16:29:29.000Z</time>
      </trkpt>
      <trkpt lat="47.2074" lon="-1.42926">
        <ele>67</ele>
        <time>2020-05-29T16:29:31.000Z</time>
      </trkpt>
      <trkpt lat="47.20753" lon="-1.42931">
        <ele>67</ele>
        <time>2020-05-29T16:29:33.000Z</time>
      </trkpt>
      <trkpt lat="47.20767" lon="-1.42935">
        <ele>67</ele>
        <time>2020-05-29T16:29:35.000Z</time>
      </trkpt>
      <trkpt lat="47.20781" lon="-1.42939">
        <ele>67</ele>
        <time>2020-05-29T16:29:37.000Z</time>
      </trkpt>
      <trkpt lat="47.20794" lon="-1.42941">
        <ele>66</ele>
        <time>2020-05-29T16:29:39.000Z</time>
      </trkpt>
      <trkpt lat="47.20814" lon="-1.42941">
        <ele>67</ele>
        <time>2020-05-29T16:29:42.000Z</time>
      </trkpt>
      <trkpt lat="47.20827" lon="-1.4294">
        <ele>67</ele>
        <time>2020-05-29T16:29:44.000Z</time>
      </trkpt>
      <trkpt lat="47.2084" lon="-1.4294">
        <ele>67</ele>
        <time>2020-05-29T16:29:46.000Z</time>
      </trkpt>
      <trkpt lat="47.20852" lon="-1.4294">
        <ele>67</ele>
        <time>2020-05-29T16:29:48.000Z</time>
      </trkpt>
      <trkpt lat="47.20865" lon="-1.42942">
        <ele>66</ele>
        <time>2020-05-29T16:29:50.000Z</time>
      </trkpt>
      <trkpt lat="47.20877" lon="-1.42945">
        <ele>67</ele>
        <time>2020-05-29T16:29:52.000Z</time>
      </trkpt>
      <trkpt lat="47.20889" lon="-1.42951">
        <ele>66</ele>
        <time>2020-05-29T16:29:54.000Z</time>
      </trkpt>
      <trkpt lat="47.20901" lon="-1.42959">
        <ele>66</ele>
        <time>2020-05-29T16:29:56.000Z</time>
      </trkpt>
      <trkpt lat="47.20914" lon="-1.42967">
        <ele>67</ele>
        <time>2020-05-29T16:29:58.000Z</time>
      </trkpt>
      <trkpt lat="47.20926" lon="-1.42976">
        <ele>67</ele>
        <time>2020-05-29T16:30:00.000Z</time>
      </trkpt>
      <trkpt lat="47.20938" lon="-1.42986">
        <ele>67</ele>
        <time>2020-05-29T16:30:02.000Z</time>
      </trkpt>
      <trkpt lat="47.20951" lon="-1.42994">
        <ele>67</ele>
        <time>2020-05-29T16:30:04.000Z</time>
      </trkpt>
      <trkpt lat="47.20963" lon="-1.43003">
        <ele>67</ele>
        <time>2020-05-29T16:30:06.000Z</time>
      </trkpt>
      <trkpt lat="47.20975" lon="-1.43012">
        <ele>67</ele>
        <time>2020-05-29T16:30:08.000Z</time>
      </trkpt>
      <trkpt lat="47.20987" lon="-1.43021">
        <ele>67</ele>
        <time>2020-05-29T16:30:10.000Z</time>
      </trkpt>
      <trkpt lat="47.20999" lon="-1.4303">
        <ele>66</ele>
        <time>2020-05-29T16:30:12.000Z</time>
      </trkpt>
      <trkpt lat="47.21011" lon="-1.43038">
        <ele>66</ele>
        <time>2020-05-29T16:30:14.000Z</time>
      </trkpt>
      <trkpt lat="47.21024" lon="-1.43045">
        <ele>66</ele>
        <time>2020-05-29T16:30:16.000Z</time>
      </trkpt>
      <trkpt lat="47.21037" lon="-1.43051">
        <ele>66</ele>
        <time>2020-05-29T16:30:18.000Z</time>
      </trkpt>
      <trkpt lat="47.21049" lon="-1.43055">
        <ele>66</ele>
        <time>2020-05-29T16:30:20.000Z</time>
      </trkpt>
      <trkpt lat="47.21062" lon="-1.43057">
        <ele>66</ele>
        <time>2020-05-29T16:30:22.000Z</time>
      </trkpt>
      <trkpt lat="47.21075" lon="-1.43057">
        <ele>65</ele>
        <time>2020-05-29T16:30:24.000Z</time>
      </trkpt>
      <trkpt lat="47.21088" lon="-1.43058">
        <ele>65</ele>
        <time>2020-05-29T16:30:26.000Z</time>
      </trkpt>
      <trkpt lat="47.21101" lon="-1.43058">
        <ele>65</ele>
        <time>2020-05-29T16:30:28.000Z</time>
      </trkpt>
      <trkpt lat="47.21114" lon="-1.43058">
        <ele>65</ele>
        <time>2020-05-29T16:30:30.000Z</time>
      </trkpt>
      <trkpt lat="47.21127" lon="-1.43059">
        <ele>65</ele>
        <time>2020-05-29T16:30:32.000Z</time>
      </trkpt>
      <trkpt lat="47.2114" lon="-1.43061">
        <ele>66</ele>
        <time>2020-05-29T16:30:34.000Z</time>
      </trkpt>
      <trkpt lat="47.21153" lon="-1.43065">
        <ele>65</ele>
        <time>2020-05-29T16:30:36.000Z</time>
      </trkpt>
      <trkpt lat="47.21166" lon="-1.4307">
        <ele>65</ele>
        <time>2020-05-29T16:30:38.000Z</time>
      </trkpt>
      <trkpt lat="47.21179" lon="-1.43075">
        <ele>65</ele>
        <time>2020-05-29T16:30:40.000Z</time>
      </trkpt>
      <trkpt lat="47.21193" lon="-1.43079">
        <ele>65</ele>
        <time>2020-05-29T16:30:42.000Z</time>
      </trkpt>
      <trkpt lat="47.21206" lon="-1.43083">
        <ele>64</ele>
        <time>2020-05-29T16:30:44.000Z</time>
      </trkpt>
      <trkpt lat="47.21221" lon="-1.43084">
        <ele>64</ele>
        <time>2020-05-29T16:30:46.000Z</time>
      </trkpt>
      <trkpt lat="47.21234" lon="-1.43083">
        <ele>64</ele>
        <time>2020-05-29T16:30:48.000Z</time>
      </trkpt>
      <trkpt lat="47.21247" lon="-1.43082">
        <ele>64</ele>
        <time>2020-05-29T16:30:50.000Z</time>
      </trkpt>
      <trkpt lat="47.2126" lon="-1.43083">
        <ele>63</ele>
        <time>2020-05-29T16:30:52.000Z</time>
      </trkpt>
      <trkpt lat="47.21273" lon="-1.43087">
        <ele>63</ele>
        <time>2020-05-29T16:30:54.000Z</time>
      </trkpt>
      <trkpt lat="47.21286" lon="-1.43094">
        <ele>63</ele>
        <time>2020-05-29T16:30:56.000Z</time>
      </trkpt>
      <trkpt lat="47.21298" lon="-1.43104">
        <ele>62</ele>
        <time>2020-05-29T16:30:58.000Z</time>
      </trkpt>
      <trkpt lat="47.21311" lon="-1.43113">
        <ele>61</ele>
        <time>2020-05-29T16:31:00.000Z</time>
      </trkpt>
      <trkpt lat="47.21323" lon="-1.43121">
        <ele>61</ele>
        <time>2020-05-29T16:31:02.000Z</time>
      </trkpt>
      <trkpt lat="47.21336" lon="-1.4313">
        <ele>60</ele>
        <time>2020-05-29T16:31:04.000Z</time>
      </trkpt>
      <trkpt lat="47.21348" lon="-1.43139">
        <ele>60</ele>
        <time>2020-05-29T16:31:06.000Z</time>
      </trkpt>
      <trkpt lat="47.2136" lon="-1.43149">
        <ele>60</ele>
        <time>2020-05-29T16:31:08.000Z</time>
      </trkpt>
      <trkpt lat="47.21371" lon="-1.43164">
        <ele>59</ele>
        <time>2020-05-29T16:31:10.000Z</time>
      </trkpt>
      <trkpt lat="47.21378" lon="-1.43182">
        <ele>59</ele>
        <time>2020-05-29T16:31:12.000Z</time>
      </trkpt>
      <trkpt lat="47.21382" lon="-1.43205">
        <ele>58</ele>
        <time>2020-05-29T16:31:14.000Z</time>
      </trkpt>
      <trkpt lat="47.21386" lon="-1.43228">
        <ele>58</ele>
        <time>2020-05-29T16:31:16.000Z</time>
      </trkpt>
      <trkpt lat="47.21389" lon="-1.43251">
        <ele>57</ele>
        <time>2020-05-29T16:31:18.000Z</time>
      </trkpt>
      <trkpt lat="47.21393" lon="-1.43275">
        <ele>57</ele>
        <time>2020-05-29T16:31:20.000Z</time>
      </trkpt>
      <trkpt lat="47.21396" lon="-1.433">
        <ele>56</ele>
        <time>2020-05-29T16:31:22.000Z</time>
      </trkpt>
      <trkpt lat="47.21398" lon="-1.43313">
        <ele>56</ele>
        <time>2020-05-29T16:31:23.000Z</time>
      </trkpt>
      <trkpt lat="47.21401" lon="-1.43326">
        <ele>55</ele>
        <time>2020-05-29T16:31:24.000Z</time>
      </trkpt>
      <trkpt lat="47.21404" lon="-1.4334">
        <ele>55</ele>
        <time>2020-05-29T16:31:25.000Z</time>
      </trkpt>
      <trkpt lat="47.21408" lon="-1.43353">
        <ele>55</ele>
        <time>2020-05-29T16:31:26.000Z</time>
      </trkpt>
      <trkpt lat="47.21414" lon="-1.43365">
        <ele>54</ele>
        <time>2020-05-29T16:31:27.000Z</time>
      </trkpt>
      <trkpt lat="47.21421" lon="-1.43375">
        <ele>54</ele>
        <time>2020-05-29T16:31:28.000Z</time>
      </trkpt>
      <trkpt lat="47.21429" lon="-1.43382">
        <ele>54</ele>
        <time>2020-05-29T16:31:29.000Z</time>
      </trkpt>
      <trkpt lat="47.21438" lon="-1.43388">
        <ele>53</ele>
        <time>2020-05-29T16:31:30.000Z</time>
      </trkpt>
      <trkpt lat="47.21446" lon="-1.43393">
        <ele>53</ele>
        <time>2020-05-29T16:31:31.000Z</time>
      </trkpt>
      <trkpt lat="47.21462" lon="-1.43404">
        <ele>53</ele>
        <time>2020-05-29T16:31:33.000Z</time>
      </trkpt>
      <trkpt lat="47.21478" lon="-1.43415">
        <ele>52</ele>
        <time>2020-05-29T16:31:35.000Z</time>
      </trkpt>
      <trkpt lat="47.21492" lon="-1.43425">
        <ele>52</ele>
        <time>2020-05-29T16:31:37.000Z</time>
      </trkpt>
      <trkpt lat="47.21504" lon="-1.43437">
        <ele>53</ele>
        <time>2020-05-29T16:31:39.000Z</time>
      </trkpt>
      <trkpt lat="47.21513" lon="-1.43452">
        <ele>54</ele>
        <time>2020-05-29T16:31:41.000Z</time>
      </trkpt>
      <trkpt lat="47.2152" lon="-1.43472">
        <ele>54</ele>
        <time>2020-05-29T16:31:43.000Z</time>
      </trkpt>
      <trkpt lat="47.21525" lon="-1.43492">
        <ele>54</ele>
        <time>2020-05-29T16:31:45.000Z</time>
      </trkpt>
      <trkpt lat="47.2153" lon="-1.43514">
        <ele>54</ele>
        <time>2020-05-29T16:31:47.000Z</time>
      </trkpt>
      <trkpt lat="47.21537" lon="-1.43533">
        <ele>54</ele>
        <time>2020-05-29T16:31:49.000Z</time>
      </trkpt>
      <trkpt lat="47.21546" lon="-1.4355">
        <ele>54</ele>
        <time>2020-05-29T16:31:51.000Z</time>
      </trkpt>
      <trkpt lat="47.21555" lon="-1.43564">
        <ele>54</ele>
        <time>2020-05-29T16:31:53.000Z</time>
      </trkpt>
      <trkpt lat="47.21566" lon="-1.43578">
        <ele>54</ele>
        <time>2020-05-29T16:31:55.000Z</time>
      </trkpt>
      <trkpt lat="47.21576" lon="-1.4359">
        <ele>54</ele>
        <time>2020-05-29T16:31:57.000Z</time>
      </trkpt>
      <trkpt lat="47.21586" lon="-1.43601">
        <ele>54</ele>
        <time>2020-05-29T16:31:59.000Z</time>
      </trkpt>
      <trkpt lat="47.21595" lon="-1.4361">
        <ele>55</ele>
        <time>2020-05-29T16:32:01.000Z</time>
      </trkpt>
      <trkpt lat="47.21604" lon="-1.43621">
        <ele>56</ele>
        <time>2020-05-29T16:32:03.000Z</time>
      </trkpt>
      <trkpt lat="47.21613" lon="-1.43631">
        <ele>56</ele>
        <time>2020-05-29T16:32:05.000Z</time>
      </trkpt>
      <trkpt lat="47.21624" lon="-1.43639">
        <ele>56</ele>
        <time>2020-05-29T16:32:07.000Z</time>
      </trkpt>
      <trkpt lat="47.21638" lon="-1.43637">
        <ele>56</ele>
        <time>2020-05-29T16:32:09.000Z</time>
      </trkpt>
      <trkpt lat="47.21651" lon="-1.43627">
        <ele>56</ele>
        <time>2020-05-29T16:32:11.000Z</time>
      </trkpt>
      <trkpt lat="47.21663" lon="-1.43616">
        <ele>55</ele>
        <time>2020-05-29T16:32:13.000Z</time>
      </trkpt>
      <trkpt lat="47.21676" lon="-1.43606">
        <ele>55</ele>
        <time>2020-05-29T16:32:15.000Z</time>
      </trkpt>
      <trkpt lat="47.21689" lon="-1.43597">
        <ele>55</ele>
        <time>2020-05-29T16:32:17.000Z</time>
      </trkpt>
      <trkpt lat="47.21702" lon="-1.43587">
        <ele>55</ele>
        <time>2020-05-29T16:32:19.000Z</time>
      </trkpt>
      <trkpt lat="47.21715" lon="-1.43576">
        <ele>56</ele>
        <time>2020-05-29T16:32:21.000Z</time>
      </trkpt>
      <trkpt lat="47.21728" lon="-1.43566">
        <ele>56</ele>
        <time>2020-05-29T16:32:23.000Z</time>
      </trkpt>
      <trkpt lat="47.21741" lon="-1.43557">
        <ele>56</ele>
        <time>2020-05-29T16:32:25.000Z</time>
      </trkpt>
      <trkpt lat="47.21755" lon="-1.43548">
        <ele>56</ele>
        <time>2020-05-29T16:32:27.000Z</time>
      </trkpt>
      <trkpt lat="47.21768" lon="-1.43538">
        <ele>56</ele>
        <time>2020-05-29T16:32:29.000Z</time>
      </trkpt>
      <trkpt lat="47.21781" lon="-1.43528">
        <ele>56</ele>
        <time>2020-05-29T16:32:31.000Z</time>
      </trkpt>
      <trkpt lat="47.21793" lon="-1.43518">
        <ele>56</ele>
        <time>2020-05-29T16:32:33.000Z</time>
      </trkpt>
      <trkpt lat="47.21805" lon="-1.43509">
        <ele>56</ele>
        <time>2020-05-29T16:32:35.000Z</time>
      </trkpt>
      <trkpt lat="47.21817" lon="-1.43499">
        <ele>55</ele>
        <time>2020-05-29T16:32:37.000Z</time>
      </trkpt>
      <trkpt lat="47.2183" lon="-1.43489">
        <ele>56</ele>
        <time>2020-05-29T16:32:39.000Z</time>
      </trkpt>
      <trkpt lat="47.21843" lon="-1.4348">
        <ele>55</ele>
        <time>2020-05-29T16:32:41.000Z</time>
      </trkpt>
      <trkpt lat="47.21857" lon="-1.4347">
        <ele>55</ele>
        <time>2020-05-29T16:32:43.000Z</time>
      </trkpt>
      <trkpt lat="47.21871" lon="-1.4346">
        <ele>56</ele>
        <time>2020-05-29T16:32:45.000Z</time>
      </trkpt>
      <trkpt lat="47.21884" lon="-1.4345">
        <ele>56</ele>
        <time>2020-05-29T16:32:47.000Z</time>
      </trkpt>
      <trkpt lat="47.21897" lon="-1.43439">
        <ele>56</ele>
        <time>2020-05-29T16:32:49.000Z</time>
      </trkpt>
      <trkpt lat="47.2191" lon="-1.43429">
        <ele>56</ele>
        <time>2020-05-29T16:32:51.000Z</time>
      </trkpt>
      <trkpt lat="47.21923" lon="-1.43418">
        <ele>56</ele>
        <time>2020-05-29T16:32:53.000Z</time>
      </trkpt>
      <trkpt lat="47.21935" lon="-1.43405">
        <ele>57</ele>
        <time>2020-05-29T16:32:55.000Z</time>
      </trkpt>
      <trkpt lat="47.21947" lon="-1.43392">
        <ele>57</ele>
        <time>2020-05-29T16:32:57.000Z</time>
      </trkpt>
      <trkpt lat="47.21958" lon="-1.43378">
        <ele>56</ele>
        <time>2020-05-29T16:32:59.000Z</time>
      </trkpt>
      <trkpt lat="47.21967" lon="-1.43362">
        <ele>56</ele>
        <time>2020-05-29T16:33:01.000Z</time>
      </trkpt>
      <trkpt lat="47.21977" lon="-1.43346">
        <ele>57</ele>
        <time>2020-05-29T16:33:03.000Z</time>
      </trkpt>
      <trkpt lat="47.21986" lon="-1.43331">
        <ele>57</ele>
        <time>2020-05-29T16:33:05.000Z</time>
      </trkpt>
      <trkpt lat="47.21995" lon="-1.43318">
        <ele>57</ele>
        <time>2020-05-29T16:33:07.000Z</time>
      </trkpt>
      <trkpt lat="47.22004" lon="-1.43304">
        <ele>57</ele>
        <time>2020-05-29T16:33:09.000Z</time>
      </trkpt>
      <trkpt lat="47.22013" lon="-1.43291">
        <ele>57</ele>
        <time>2020-05-29T16:33:11.000Z</time>
      </trkpt>
      <trkpt lat="47.22022" lon="-1.43278">
        <ele>58</ele>
        <time>2020-05-29T16:33:13.000Z</time>
      </trkpt>
      <trkpt lat="47.22031" lon="-1.43264">
        <ele>58</ele>
        <time>2020-05-29T16:33:15.000Z</time>
      </trkpt>
      <trkpt lat="47.2204" lon="-1.4325">
        <ele>58</ele>
        <time>2020-05-29T16:33:17.000Z</time>
      </trkpt>
      <trkpt lat="47.22048" lon="-1.43236">
        <ele>59</ele>
        <time>2020-05-29T16:33:19.000Z</time>
      </trkpt>
      <trkpt lat="47.22057" lon="-1.43222">
        <ele>59</ele>
        <time>2020-05-29T16:33:21.000Z</time>
      </trkpt>
      <trkpt lat="47.22066" lon="-1.43208">
        <ele>59</ele>
        <time>2020-05-29T16:33:23.000Z</time>
      </trkpt>
      <trkpt lat="47.22076" lon="-1.43193">
        <ele>58</ele>
        <time>2020-05-29T16:33:25.000Z</time>
      </trkpt>
      <trkpt lat="47.22085" lon="-1.43178">
        <ele>58</ele>
        <time>2020-05-29T16:33:27.000Z</time>
      </trkpt>
      <trkpt lat="47.22094" lon="-1.43164">
        <ele>58</ele>
        <time>2020-05-29T16:33:29.000Z</time>
      </trkpt>
      <trkpt lat="47.22103" lon="-1.43149">
        <ele>58</ele>
        <time>2020-05-29T16:33:31.000Z</time>
      </trkpt>
      <trkpt lat="47.22112" lon="-1.43134">
        <ele>58</ele>
        <time>2020-05-29T16:33:33.000Z</time>
      </trkpt>
      <trkpt lat="47.2212" lon="-1.43119">
        <ele>58</ele>
        <time>2020-05-29T16:33:35.000Z</time>
      </trkpt>
      <trkpt lat="47.22128" lon="-1.43105">
        <ele>58</ele>
        <time>2020-05-29T16:33:37.000Z</time>
      </trkpt>
      <trkpt lat="47.22136" lon="-1.43089">
        <ele>58</ele>
        <time>2020-05-29T16:33:39.000Z</time>
      </trkpt>
      <trkpt lat="47.22142" lon="-1.43073">
        <ele>58</ele>
        <time>2020-05-29T16:33:41.000Z</time>
      </trkpt>
      <trkpt lat="47.22149" lon="-1.43057">
        <ele>58</ele>
        <time>2020-05-29T16:33:43.000Z</time>
      </trkpt>
      <trkpt lat="47.22155" lon="-1.43041">
        <ele>59</ele>
        <time>2020-05-29T16:33:45.000Z</time>
      </trkpt>
      <trkpt lat="47.22161" lon="-1.43024">
        <ele>58</ele>
        <time>2020-05-29T16:33:47.000Z</time>
      </trkpt>
      <trkpt lat="47.22167" lon="-1.43008">
        <ele>59</ele>
        <time>2020-05-29T16:33:49.000Z</time>
      </trkpt>
      <trkpt lat="47.22172" lon="-1.42992">
        <ele>59</ele>
        <time>2020-05-29T16:33:51.000Z</time>
      </trkpt>
      <trkpt lat="47.22178" lon="-1.42976">
        <ele>59</ele>
        <time>2020-05-29T16:33:53.000Z</time>
      </trkpt>
      <trkpt lat="47.22184" lon="-1.4296">
        <ele>59</ele>
        <time>2020-05-29T16:33:55.000Z</time>
      </trkpt>
      <trkpt lat="47.22189" lon="-1.42945">
        <ele>59</ele>
        <time>2020-05-29T16:33:57.000Z</time>
      </trkpt>
      <trkpt lat="47.22194" lon="-1.4293">
        <ele>59</ele>
        <time>2020-05-29T16:33:59.000Z</time>
      </trkpt>
      <trkpt lat="47.22199" lon="-1.42914">
        <ele>59</ele>
        <time>2020-05-29T16:34:01.000Z</time>
      </trkpt>
      <trkpt lat="47.22205" lon="-1.429">
        <ele>59</ele>
        <time>2020-05-29T16:34:03.000Z</time>
      </trkpt>
      <trkpt lat="47.2221" lon="-1.42884">
        <ele>59</ele>
        <time>2020-05-29T16:34:05.000Z</time>
      </trkpt>
      <trkpt lat="47.22216" lon="-1.42869">
        <ele>59</ele>
        <time>2020-05-29T16:34:07.000Z</time>
      </trkpt>
      <trkpt lat="47.22222" lon="-1.42854">
        <ele>60</ele>
        <time>2020-05-29T16:34:09.000Z</time>
      </trkpt>
      <trkpt lat="47.22227" lon="-1.4284">
        <ele>60</ele>
        <time>2020-05-29T16:34:11.000Z</time>
      </trkpt>
      <trkpt lat="47.22232" lon="-1.42825">
        <ele>60</ele>
        <time>2020-05-29T16:34:13.000Z</time>
      </trkpt>
      <trkpt lat="47.22237" lon="-1.42812">
        <ele>60</ele>
        <time>2020-05-29T16:34:15.000Z</time>
      </trkpt>
      <trkpt lat="47.22242" lon="-1.42798">
        <ele>60</ele>
        <time>2020-05-29T16:34:17.000Z</time>
      </trkpt>
      <trkpt lat="47.22248" lon="-1.42784">
        <ele>60</ele>
        <time>2020-05-29T16:34:19.000Z</time>
      </trkpt>
      <trkpt lat="47.22253" lon="-1.42769">
        <ele>60</ele>
        <time>2020-05-29T16:34:21.000Z</time>
      </trkpt>
      <trkpt lat="47.22258" lon="-1.42754">
        <ele>60</ele>
        <time>2020-05-29T16:34:23.000Z</time>
      </trkpt>
      <trkpt lat="47.22264" lon="-1.4274">
        <ele>60</ele>
        <time>2020-05-29T16:34:25.000Z</time>
      </trkpt>
      <trkpt lat="47.22269" lon="-1.42725">
        <ele>60</ele>
        <time>2020-05-29T16:34:27.000Z</time>
      </trkpt>
      <trkpt lat="47.22274" lon="-1.4271">
        <ele>60</ele>
        <time>2020-05-29T16:34:29.000Z</time>
      </trkpt>
      <trkpt lat="47.22279" lon="-1.42696">
        <ele>60</ele>
        <time>2020-05-29T16:34:31.000Z</time>
      </trkpt>
      <trkpt lat="47.22285" lon="-1.42681">
        <ele>60</ele>
        <time>2020-05-29T16:34:33.000Z</time>
      </trkpt>
      <trkpt lat="47.2229" lon="-1.42666">
        <ele>60</ele>
        <time>2020-05-29T16:34:35.000Z</time>
      </trkpt>
      <trkpt lat="47.22296" lon="-1.42651">
        <ele>60</ele>
        <time>2020-05-29T16:34:37.000Z</time>
      </trkpt>
      <trkpt lat="47.22301" lon="-1.42636">
        <ele>59</ele>
        <time>2020-05-29T16:34:39.000Z</time>
      </trkpt>
      <trkpt lat="47.22306" lon="-1.4262">
        <ele>59</ele>
        <time>2020-05-29T16:34:41.000Z</time>
      </trkpt>
      <trkpt lat="47.22312" lon="-1.42604">
        <ele>58</ele>
        <time>2020-05-29T16:34:43.000Z</time>
      </trkpt>
      <trkpt lat="47.22318" lon="-1.42587">
        <ele>58</ele>
        <time>2020-05-29T16:34:45.000Z</time>
      </trkpt>
      <trkpt lat="47.22324" lon="-1.4257">
        <ele>58</ele>
        <time>2020-05-29T16:34:47.000Z</time>
      </trkpt>
      <trkpt lat="47.2233" lon="-1.42554">
        <ele>57</ele>
        <time>2020-05-29T16:34:49.000Z</time>
      </trkpt>
      <trkpt lat="47.22336" lon="-1.42537">
        <ele>57</ele>
        <time>2020-05-29T16:34:51.000Z</time>
      </trkpt>
      <trkpt lat="47.22343" lon="-1.4252">
        <ele>57</ele>
        <time>2020-05-29T16:34:53.000Z</time>
      </trkpt>
      <trkpt lat="47.22349" lon="-1.42501">
        <ele>57</ele>
        <time>2020-05-29T16:34:55.000Z</time>
      </trkpt>
      <trkpt lat="47.22356" lon="-1.42483">
        <ele>56</ele>
        <time>2020-05-29T16:34:57.000Z</time>
      </trkpt>
      <trkpt lat="47.22362" lon="-1.42465">
        <ele>56</ele>
        <time>2020-05-29T16:34:59.000Z</time>
      </trkpt>
      <trkpt lat="47.22369" lon="-1.42446">
        <ele>56</ele>
        <time>2020-05-29T16:35:01.000Z</time>
      </trkpt>
      <trkpt lat="47.22375" lon="-1.42428">
        <ele>57</ele>
        <time>2020-05-29T16:35:03.000Z</time>
      </trkpt>
      <trkpt lat="47.22382" lon="-1.42409">
        <ele>57</ele>
        <time>2020-05-29T16:35:05.000Z</time>
      </trkpt>
      <trkpt lat="47.22389" lon="-1.4239">
        <ele>57</ele>
        <time>2020-05-29T16:35:07.000Z</time>
      </trkpt>
      <trkpt lat="47.22395" lon="-1.42371">
        <ele>57</ele>
        <time>2020-05-29T16:35:09.000Z</time>
      </trkpt>
      <trkpt lat="47.22402" lon="-1.42352">
        <ele>57</ele>
        <time>2020-05-29T16:35:11.000Z</time>
      </trkpt>
      <trkpt lat="47.22409" lon="-1.42335">
        <ele>57</ele>
        <time>2020-05-29T16:35:13.000Z</time>
      </trkpt>
      <trkpt lat="47.22415" lon="-1.42318">
        <ele>57</ele>
        <time>2020-05-29T16:35:15.000Z</time>
      </trkpt>
      <trkpt lat="47.22421" lon="-1.42301">
        <ele>57</ele>
        <time>2020-05-29T16:35:17.000Z</time>
      </trkpt>
      <trkpt lat="47.22427" lon="-1.42284">
        <ele>57</ele>
        <time>2020-05-29T16:35:19.000Z</time>
      </trkpt>
      <trkpt lat="47.22433" lon="-1.42267">
        <ele>58</ele>
        <time>2020-05-29T16:35:21.000Z</time>
      </trkpt>
      <trkpt lat="47.2244" lon="-1.4225">
        <ele>58</ele>
        <time>2020-05-29T16:35:23.000Z</time>
      </trkpt>
      <trkpt lat="47.22446" lon="-1.42234">
        <ele>59</ele>
        <time>2020-05-29T16:35:25.000Z</time>
      </trkpt>
      <trkpt lat="47.22453" lon="-1.42218">
        <ele>60</ele>
        <time>2020-05-29T16:35:27.000Z</time>
      </trkpt>
      <trkpt lat="47.22458" lon="-1.42203">
        <ele>60</ele>
        <time>2020-05-29T16:35:29.000Z</time>
      </trkpt>
      <trkpt lat="47.22464" lon="-1.42188">
        <ele>61</ele>
        <time>2020-05-29T16:35:31.000Z</time>
      </trkpt>
      <trkpt lat="47.22469" lon="-1.42173">
        <ele>61</ele>
        <time>2020-05-29T16:35:33.000Z</time>
      </trkpt>
      <trkpt lat="47.22474" lon="-1.42159">
        <ele>61</ele>
        <time>2020-05-29T16:35:35.000Z</time>
      </trkpt>
      <trkpt lat="47.2248" lon="-1.42144">
        <ele>62</ele>
        <time>2020-05-29T16:35:37.000Z</time>
      </trkpt>
      <trkpt lat="47.22485" lon="-1.4213">
        <ele>62</ele>
        <time>2020-05-29T16:35:39.000Z</time>
      </trkpt>
      <trkpt lat="47.22491" lon="-1.42115">
        <ele>62</ele>
        <time>2020-05-29T16:35:41.000Z</time>
      </trkpt>
      <trkpt lat="47.22496" lon="-1.421">
        <ele>62</ele>
        <time>2020-05-29T16:35:43.000Z</time>
      </trkpt>
      <trkpt lat="47.22502" lon="-1.42085">
        <ele>62</ele>
        <time>2020-05-29T16:35:45.000Z</time>
      </trkpt>
      <trkpt lat="47.22507" lon="-1.4207">
        <ele>62</ele>
        <time>2020-05-29T16:35:47.000Z</time>
      </trkpt>
      <trkpt lat="47.22513" lon="-1.42055">
        <ele>62</ele>
        <time>2020-05-29T16:35:49.000Z</time>
      </trkpt>
      <trkpt lat="47.22519" lon="-1.42039">
        <ele>62</ele>
        <time>2020-05-29T16:35:51.000Z</time>
      </trkpt>
      <trkpt lat="47.22525" lon="-1.42024">
        <ele>62</ele>
        <time>2020-05-29T16:35:53.000Z</time>
      </trkpt>
      <trkpt lat="47.22531" lon="-1.42008">
        <ele>62</ele>
        <time>2020-05-29T16:35:55.000Z</time>
      </trkpt>
      <trkpt lat="47.22537" lon="-1.41993">
        <ele>62</ele>
        <time>2020-05-29T16:35:57.000Z</time>
      </trkpt>
      <trkpt lat="47.22543" lon="-1.41978">
        <ele>62</ele>
        <time>2020-05-29T16:35:59.000Z</time>
      </trkpt>
      <trkpt lat="47.22548" lon="-1.41963">
        <ele>62</ele>
        <time>2020-05-29T16:36:01.000Z</time>
      </trkpt>
      <trkpt lat="47.22554" lon="-1.41948">
        <ele>61</ele>
        <time>2020-05-29T16:36:03.000Z</time>
      </trkpt>
      <trkpt lat="47.2256" lon="-1.41933">
        <ele>61</ele>
        <time>2020-05-29T16:36:05.000Z</time>
      </trkpt>
      <trkpt lat="47.22567" lon="-1.41917">
        <ele>61</ele>
        <time>2020-05-29T16:36:07.000Z</time>
      </trkpt>
      <trkpt lat="47.22573" lon="-1.41901">
        <ele>62</ele>
        <time>2020-05-29T16:36:09.000Z</time>
      </trkpt>
      <trkpt lat="47.22579" lon="-1.41886">
        <ele>62</ele>
        <time>2020-05-29T16:36:11.000Z</time>
      </trkpt>
      <trkpt lat="47.22585" lon="-1.4187">
        <ele>63</ele>
        <time>2020-05-29T16:36:13.000Z</time>
      </trkpt>
      <trkpt lat="47.22591" lon="-1.41854">
        <ele>63</ele>
        <time>2020-05-29T16:36:15.000Z</time>
      </trkpt>
      <trkpt lat="47.22597" lon="-1.41839">
        <ele>63</ele>
        <time>2020-05-29T16:36:17.000Z</time>
      </trkpt>
      <trkpt lat="47.22603" lon="-1.41825">
        <ele>63</ele>
        <time>2020-05-29T16:36:19.000Z</time>
      </trkpt>
      <trkpt lat="47.22609" lon="-1.41809">
        <ele>64</ele>
        <time>2020-05-29T16:36:21.000Z</time>
      </trkpt>
      <trkpt lat="47.22615" lon="-1.41795">
        <ele>64</ele>
        <time>2020-05-29T16:36:23.000Z</time>
      </trkpt>
      <trkpt lat="47.22621" lon="-1.41779">
        <ele>64</ele>
        <time>2020-05-29T16:36:25.000Z</time>
      </trkpt>
      <trkpt lat="47.22627" lon="-1.41765">
        <ele>65</ele>
        <time>2020-05-29T16:36:27.000Z</time>
      </trkpt>
      <trkpt lat="47.22633" lon="-1.4175">
        <ele>65</ele>
        <time>2020-05-29T16:36:29.000Z</time>
      </trkpt>
      <trkpt lat="47.22638" lon="-1.41735">
        <ele>65</ele>
        <time>2020-05-29T16:36:31.000Z</time>
      </trkpt>
      <trkpt lat="47.22644" lon="-1.4172">
        <ele>65</ele>
        <time>2020-05-29T16:36:33.000Z</time>
      </trkpt>
      <trkpt lat="47.2265" lon="-1.41705">
        <ele>65</ele>
        <time>2020-05-29T16:36:35.000Z</time>
      </trkpt>
      <trkpt lat="47.22656" lon="-1.41691">
        <ele>65</ele>
        <time>2020-05-29T16:36:37.000Z</time>
      </trkpt>
      <trkpt lat="47.22662" lon="-1.41675">
        <ele>65</ele>
        <time>2020-05-29T16:36:39.000Z</time>
      </trkpt>
      <trkpt lat="47.22668" lon="-1.4166">
        <ele>66</ele>
        <time>2020-05-29T16:36:41.000Z</time>
      </trkpt>
      <trkpt lat="47.22674" lon="-1.41646">
        <ele>65</ele>
        <time>2020-05-29T16:36:43.000Z</time>
      </trkpt>
      <trkpt lat="47.22679" lon="-1.41631">
        <ele>66</ele>
        <time>2020-05-29T16:36:45.000Z</time>
      </trkpt>
      <trkpt lat="47.22685" lon="-1.41616">
        <ele>66</ele>
        <time>2020-05-29T16:36:47.000Z</time>
      </trkpt>
      <trkpt lat="47.22691" lon="-1.41602">
        <ele>66</ele>
        <time>2020-05-29T16:36:49.000Z</time>
      </trkpt>
      <trkpt lat="47.22696" lon="-1.41588">
        <ele>66</ele>
        <time>2020-05-29T16:36:51.000Z</time>
      </trkpt>
      <trkpt lat="47.22701" lon="-1.41574">
        <ele>66</ele>
        <time>2020-05-29T16:36:53.000Z</time>
      </trkpt>
      <trkpt lat="47.22707" lon="-1.41559">
        <ele>66</ele>
        <time>2020-05-29T16:36:55.000Z</time>
      </trkpt>
      <trkpt lat="47.22712" lon="-1.41544">
        <ele>67</ele>
        <time>2020-05-29T16:36:57.000Z</time>
      </trkpt>
      <trkpt lat="47.22718" lon="-1.41529">
        <ele>67</ele>
        <time>2020-05-29T16:36:59.000Z</time>
      </trkpt>
      <trkpt lat="47.22723" lon="-1.41514">
        <ele>67</ele>
        <time>2020-05-29T16:37:01.000Z</time>
      </trkpt>
      <trkpt lat="47.22729" lon="-1.41499">
        <ele>67</ele>
        <time>2020-05-29T16:37:03.000Z</time>
      </trkpt>
      <trkpt lat="47.22736" lon="-1.41483">
        <ele>67</ele>
        <time>2020-05-29T16:37:05.000Z</time>
      </trkpt>
      <trkpt lat="47.22742" lon="-1.41467">
        <ele>67</ele>
        <time>2020-05-29T16:37:07.000Z</time>
      </trkpt>
      <trkpt lat="47.22748" lon="-1.4145">
        <ele>67</ele>
        <time>2020-05-29T16:37:09.000Z</time>
      </trkpt>
      <trkpt lat="47.22755" lon="-1.41433">
        <ele>66</ele>
        <time>2020-05-29T16:37:11.000Z</time>
      </trkpt>
      <trkpt lat="47.22762" lon="-1.41415">
        <ele>66</ele>
        <time>2020-05-29T16:37:13.000Z</time>
      </trkpt>
      <trkpt lat="47.2277" lon="-1.41396">
        <ele>66</ele>
        <time>2020-05-29T16:37:15.000Z</time>
      </trkpt>
      <trkpt lat="47.22776" lon="-1.41377">
        <ele>66</ele>
        <time>2020-05-29T16:37:17.000Z</time>
      </trkpt>
      <trkpt lat="47.22784" lon="-1.41358">
        <ele>67</ele>
        <time>2020-05-29T16:37:19.000Z</time>
      </trkpt>
      <trkpt lat="47.22791" lon="-1.41339">
        <ele>67</ele>
        <time>2020-05-29T16:37:21.000Z</time>
      </trkpt>
      <trkpt lat="47.22799" lon="-1.41319">
        <ele>67</ele>
        <time>2020-05-29T16:37:23.000Z</time>
      </trkpt>
      <trkpt lat="47.22806" lon="-1.413">
        <ele>66</ele>
        <time>2020-05-29T16:37:25.000Z</time>
      </trkpt>
      <trkpt lat="47.22813" lon="-1.41281">
        <ele>65</ele>
        <time>2020-05-29T16:37:27.000Z</time>
      </trkpt>
      <trkpt lat="47.22821" lon="-1.41262">
        <ele>64</ele>
        <time>2020-05-29T16:37:29.000Z</time>
      </trkpt>
      <trkpt lat="47.22828" lon="-1.41243">
        <ele>64</ele>
        <time>2020-05-29T16:37:31.000Z</time>
      </trkpt>
      <trkpt lat="47.22836" lon="-1.41224">
        <ele>64</ele>
        <time>2020-05-29T16:37:33.000Z</time>
      </trkpt>
      <trkpt lat="47.22843" lon="-1.41206">
        <ele>64</ele>
        <time>2020-05-29T16:37:35.000Z</time>
      </trkpt>
      <trkpt lat="47.22852" lon="-1.41187">
        <ele>64</ele>
        <time>2020-05-29T16:37:37.000Z</time>
      </trkpt>
      <trkpt lat="47.2286" lon="-1.41168">
        <ele>64</ele>
        <time>2020-05-29T16:37:39.000Z</time>
      </trkpt>
      <trkpt lat="47.22867" lon="-1.41147">
        <ele>64</ele>
        <time>2020-05-29T16:37:41.000Z</time>
      </trkpt>
      <trkpt lat="47.22874" lon="-1.41128">
        <ele>64</ele>
        <time>2020-05-29T16:37:43.000Z</time>
      </trkpt>
      <trkpt lat="47.22882" lon="-1.41108">
        <ele>64</ele>
        <time>2020-05-29T16:37:45.000Z</time>
      </trkpt>
      <trkpt lat="47.22889" lon="-1.41089">
        <ele>65</ele>
        <time>2020-05-29T16:37:47.000Z</time>
      </trkpt>
      <trkpt lat="47.22896" lon="-1.4107">
        <ele>65</ele>
        <time>2020-05-29T16:37:49.000Z</time>
      </trkpt>
      <trkpt lat="47.22904" lon="-1.41052">
        <ele>65</ele>
        <time>2020-05-29T16:37:51.000Z</time>
      </trkpt>
      <trkpt lat="47.22911" lon="-1.41034">
        <ele>65</ele>
        <time>2020-05-29T16:37:53.000Z</time>
      </trkpt>
      <trkpt lat="47.22917" lon="-1.41017">
        <ele>65</ele>
        <time>2020-05-29T16:37:55.000Z</time>
      </trkpt>
      <trkpt lat="47.22925" lon="-1.40999">
        <ele>65</ele>
        <time>2020-05-29T16:37:57.000Z</time>
      </trkpt>
      <trkpt lat="47.22931" lon="-1.40983">
        <ele>65</ele>
        <time>2020-05-29T16:37:59.000Z</time>
      </trkpt>
      <trkpt lat="47.22938" lon="-1.40965">
        <ele>65</ele>
        <time>2020-05-29T16:38:01.000Z</time>
      </trkpt>
      <trkpt lat="47.22944" lon="-1.40948">
        <ele>65</ele>
        <time>2020-05-29T16:38:03.000Z</time>
      </trkpt>
      <trkpt lat="47.2295" lon="-1.40931">
        <ele>65</ele>
        <time>2020-05-29T16:38:05.000Z</time>
      </trkpt>
      <trkpt lat="47.22956" lon="-1.40916">
        <ele>66</ele>
        <time>2020-05-29T16:38:07.000Z</time>
      </trkpt>
      <trkpt lat="47.22962" lon="-1.40902">
        <ele>66</ele>
        <time>2020-05-29T16:38:09.000Z</time>
      </trkpt>
      <trkpt lat="47.22968" lon="-1.40888">
        <ele>66</ele>
        <time>2020-05-29T16:38:11.000Z</time>
      </trkpt>
      <trkpt lat="47.22974" lon="-1.40873">
        <ele>66</ele>
        <time>2020-05-29T16:38:13.000Z</time>
      </trkpt>
      <trkpt lat="47.22979" lon="-1.40858">
        <ele>66</ele>
        <time>2020-05-29T16:38:15.000Z</time>
      </trkpt>
      <trkpt lat="47.22984" lon="-1.40844">
        <ele>66</ele>
        <time>2020-05-29T16:38:17.000Z</time>
      </trkpt>
      <trkpt lat="47.2299" lon="-1.40831">
        <ele>66</ele>
        <time>2020-05-29T16:38:19.000Z</time>
      </trkpt>
      <trkpt lat="47.22995" lon="-1.40817">
        <ele>66</ele>
        <time>2020-05-29T16:38:21.000Z</time>
      </trkpt>
      <trkpt lat="47.23001" lon="-1.40803">
        <ele>66</ele>
        <time>2020-05-29T16:38:23.000Z</time>
      </trkpt>
      <trkpt lat="47.23007" lon="-1.40788">
        <ele>66</ele>
        <time>2020-05-29T16:38:25.000Z</time>
      </trkpt>
      <trkpt lat="47.23012" lon="-1.40774">
        <ele>66</ele>
        <time>2020-05-29T16:38:27.000Z</time>
      </trkpt>
      <trkpt lat="47.23018" lon="-1.40761">
        <ele>66</ele>
        <time>2020-05-29T16:38:29.000Z</time>
      </trkpt>
      <trkpt lat="47.23023" lon="-1.40747">
        <ele>66</ele>
        <time>2020-05-29T16:38:31.000Z</time>
      </trkpt>
      <trkpt lat="47.23029" lon="-1.40733">
        <ele>66</ele>
        <time>2020-05-29T16:38:33.000Z</time>
      </trkpt>
      <trkpt lat="47.23034" lon="-1.40719">
        <ele>66</ele>
        <time>2020-05-29T16:38:35.000Z</time>
      </trkpt>
      <trkpt lat="47.2304" lon="-1.40705">
        <ele>66</ele>
        <time>2020-05-29T16:38:37.000Z</time>
      </trkpt>
      <trkpt lat="47.23045" lon="-1.40691">
        <ele>66</ele>
        <time>2020-05-29T16:38:39.000Z</time>
      </trkpt>
      <trkpt lat="47.2305" lon="-1.40678">
        <ele>66</ele>
        <time>2020-05-29T16:38:41.000Z</time>
      </trkpt>
      <trkpt lat="47.23056" lon="-1.40663">
        <ele>67</ele>
        <time>2020-05-29T16:38:43.000Z</time>
      </trkpt>
      <trkpt lat="47.23062" lon="-1.40649">
        <ele>67</ele>
        <time>2020-05-29T16:38:45.000Z</time>
      </trkpt>
      <trkpt lat="47.23067" lon="-1.40634">
        <ele>67</ele>
        <time>2020-05-29T16:38:47.000Z</time>
      </trkpt>
      <trkpt lat="47.23072" lon="-1.4062">
        <ele>67</ele>
        <time>2020-05-29T16:38:49.000Z</time>
      </trkpt>
      <trkpt lat="47.23079" lon="-1.40605">
        <ele>67</ele>
        <time>2020-05-29T16:38:51.000Z</time>
      </trkpt>
      <trkpt lat="47.23085" lon="-1.4059">
        <ele>67</ele>
        <time>2020-05-29T16:38:53.000Z</time>
      </trkpt>
      <trkpt lat="47.2309" lon="-1.40575">
        <ele>66</ele>
        <time>2020-05-29T16:38:55.000Z</time>
      </trkpt>
      <trkpt lat="47.23096" lon="-1.4056">
        <ele>66</ele>
        <time>2020-05-29T16:38:57.000Z</time>
      </trkpt>
      <trkpt lat="47.23102" lon="-1.40545">
        <ele>66</ele>
        <time>2020-05-29T16:38:59.000Z</time>
      </trkpt>
      <trkpt lat="47.23108" lon="-1.4053">
        <ele>66</ele>
        <time>2020-05-29T16:39:01.000Z</time>
      </trkpt>
      <trkpt lat="47.23114" lon="-1.40514">
        <ele>66</ele>
        <time>2020-05-29T16:39:03.000Z</time>
      </trkpt>
      <trkpt lat="47.2312" lon="-1.405">
        <ele>66</ele>
        <time>2020-05-29T16:39:05.000Z</time>
      </trkpt>
      <trkpt lat="47.23126" lon="-1.40485">
        <ele>65</ele>
        <time>2020-05-29T16:39:07.000Z</time>
      </trkpt>
      <trkpt lat="47.23131" lon="-1.40471">
        <ele>65</ele>
        <time>2020-05-29T16:39:09.000Z</time>
      </trkpt>
      <trkpt lat="47.23137" lon="-1.40455">
        <ele>65</ele>
        <time>2020-05-29T16:39:11.000Z</time>
      </trkpt>
      <trkpt lat="47.23143" lon="-1.4044">
        <ele>65</ele>
        <time>2020-05-29T16:39:13.000Z</time>
      </trkpt>
      <trkpt lat="47.23149" lon="-1.40425">
        <ele>64</ele>
        <time>2020-05-29T16:39:15.000Z</time>
      </trkpt>
      <trkpt lat="47.23155" lon="-1.4041">
        <ele>64</ele>
        <time>2020-05-29T16:39:17.000Z</time>
      </trkpt>
      <trkpt lat="47.23161" lon="-1.40396">
        <ele>63</ele>
        <time>2020-05-29T16:39:19.000Z</time>
      </trkpt>
      <trkpt lat="47.23167" lon="-1.4038">
        <ele>63</ele>
        <time>2020-05-29T16:39:21.000Z</time>
      </trkpt>
      <trkpt lat="47.23173" lon="-1.40364">
        <ele>63</ele>
        <time>2020-05-29T16:39:23.000Z</time>
      </trkpt>
      <trkpt lat="47.23179" lon="-1.40349">
        <ele>62</ele>
        <time>2020-05-29T16:39:25.000Z</time>
      </trkpt>
      <trkpt lat="47.23185" lon="-1.40333">
        <ele>62</ele>
        <time>2020-05-29T16:39:27.000Z</time>
      </trkpt>
      <trkpt lat="47.23191" lon="-1.40317">
        <ele>61</ele>
        <time>2020-05-29T16:39:29.000Z</time>
      </trkpt>
      <trkpt lat="47.23197" lon="-1.40301">
        <ele>61</ele>
        <time>2020-05-29T16:39:31.000Z</time>
      </trkpt>
      <trkpt lat="47.23203" lon="-1.40285">
        <ele>61</ele>
        <time>2020-05-29T16:39:33.000Z</time>
      </trkpt>
      <trkpt lat="47.2321" lon="-1.40268">
        <ele>61</ele>
        <time>2020-05-29T16:39:35.000Z</time>
      </trkpt>
      <trkpt lat="47.23216" lon="-1.40252">
        <ele>60</ele>
        <time>2020-05-29T16:39:37.000Z</time>
      </trkpt>
      <trkpt lat="47.23223" lon="-1.40236">
        <ele>59</ele>
        <time>2020-05-29T16:39:39.000Z</time>
      </trkpt>
      <trkpt lat="47.23229" lon="-1.40219">
        <ele>59</ele>
        <time>2020-05-29T16:39:41.000Z</time>
      </trkpt>
      <trkpt lat="47.23236" lon="-1.40202">
        <ele>59</ele>
        <time>2020-05-29T16:39:43.000Z</time>
      </trkpt>
      <trkpt lat="47.23243" lon="-1.40184">
        <ele>59</ele>
        <time>2020-05-29T16:39:45.000Z</time>
      </trkpt>
      <trkpt lat="47.2325" lon="-1.40167">
        <ele>59</ele>
        <time>2020-05-29T16:39:47.000Z</time>
      </trkpt>
      <trkpt lat="47.23256" lon="-1.40151">
        <ele>58</ele>
        <time>2020-05-29T16:39:49.000Z</time>
      </trkpt>
      <trkpt lat="47.23262" lon="-1.40136">
        <ele>58</ele>
        <time>2020-05-29T16:39:51.000Z</time>
      </trkpt>
      <trkpt lat="47.23268" lon="-1.40119">
        <ele>58</ele>
        <time>2020-05-29T16:39:53.000Z</time>
      </trkpt>
      <trkpt lat="47.23274" lon="-1.40103">
        <ele>58</ele>
        <time>2020-05-29T16:39:55.000Z</time>
      </trkpt>
      <trkpt lat="47.2328" lon="-1.40087">
        <ele>58</ele>
        <time>2020-05-29T16:39:57.000Z</time>
      </trkpt>
      <trkpt lat="47.23286" lon="-1.40072">
        <ele>59</ele>
        <time>2020-05-29T16:39:59.000Z</time>
      </trkpt>
      <trkpt lat="47.23293" lon="-1.40056">
        <ele>59</ele>
        <time>2020-05-29T16:40:01.000Z</time>
      </trkpt>
      <trkpt lat="47.23299" lon="-1.4004">
        <ele>59</ele>
        <time>2020-05-29T16:40:03.000Z</time>
      </trkpt>
      <trkpt lat="47.23306" lon="-1.40024">
        <ele>59</ele>
        <time>2020-05-29T16:40:05.000Z</time>
      </trkpt>
      <trkpt lat="47.23312" lon="-1.40008">
        <ele>59</ele>
        <time>2020-05-29T16:40:07.000Z</time>
      </trkpt>
      <trkpt lat="47.23319" lon="-1.39992">
        <ele>59</ele>
        <time>2020-05-29T16:40:09.000Z</time>
      </trkpt>
      <trkpt lat="47.23324" lon="-1.39976">
        <ele>58</ele>
        <time>2020-05-29T16:40:11.000Z</time>
      </trkpt>
      <trkpt lat="47.2333" lon="-1.39962">
        <ele>58</ele>
        <time>2020-05-29T16:40:13.000Z</time>
      </trkpt>
      <trkpt lat="47.23335" lon="-1.39946">
        <ele>58</ele>
        <time>2020-05-29T16:40:15.000Z</time>
      </trkpt>
      <trkpt lat="47.2334" lon="-1.39931">
        <ele>59</ele>
        <time>2020-05-29T16:40:17.000Z</time>
      </trkpt>
      <trkpt lat="47.23345" lon="-1.39915">
        <ele>58</ele>
        <time>2020-05-29T16:40:19.000Z</time>
      </trkpt>
      <trkpt lat="47.23349" lon="-1.399">
        <ele>58</ele>
        <time>2020-05-29T16:40:21.000Z</time>
      </trkpt>
      <trkpt lat="47.23353" lon="-1.39884">
        <ele>58</ele>
        <time>2020-05-29T16:40:23.000Z</time>
      </trkpt>
      <trkpt lat="47.23357" lon="-1.39868">
        <ele>58</ele>
        <time>2020-05-29T16:40:25.000Z</time>
      </trkpt>
      <trkpt lat="47.2336" lon="-1.39853">
        <ele>58</ele>
        <time>2020-05-29T16:40:27.000Z</time>
      </trkpt>
      <trkpt lat="47.23364" lon="-1.39837">
        <ele>58</ele>
        <time>2020-05-29T16:40:29.000Z</time>
      </trkpt>
      <trkpt lat="47.23367" lon="-1.3982">
        <ele>58</ele>
        <time>2020-05-29T16:40:31.000Z</time>
      </trkpt>
      <trkpt lat="47.2337" lon="-1.39804">
        <ele>58</ele>
        <time>2020-05-29T16:40:33.000Z</time>
      </trkpt>
      <trkpt lat="47.23372" lon="-1.39788">
        <ele>57</ele>
        <time>2020-05-29T16:40:35.000Z</time>
      </trkpt>
      <trkpt lat="47.23374" lon="-1.39772">
        <ele>57</ele>
        <time>2020-05-29T16:40:37.000Z</time>
      </trkpt>
      <trkpt lat="47.23376" lon="-1.39756">
        <ele>57</ele>
        <time>2020-05-29T16:40:39.000Z</time>
      </trkpt>
      <trkpt lat="47.23377" lon="-1.3974">
        <ele>57</ele>
        <time>2020-05-29T16:40:41.000Z</time>
      </trkpt>
      <trkpt lat="47.23379" lon="-1.39724">
        <ele>57</ele>
        <time>2020-05-29T16:40:43.000Z</time>
      </trkpt>
      <trkpt lat="47.2338" lon="-1.39708">
        <ele>57</ele>
        <time>2020-05-29T16:40:45.000Z</time>
      </trkpt>
      <trkpt lat="47.23382" lon="-1.39691">
        <ele>57</ele>
        <time>2020-05-29T16:40:47.000Z</time>
      </trkpt>
      <trkpt lat="47.23383" lon="-1.39675">
        <ele>57</ele>
        <time>2020-05-29T16:40:49.000Z</time>
      </trkpt>
      <trkpt lat="47.23385" lon="-1.39658">
        <ele>57</ele>
        <time>2020-05-29T16:40:51.000Z</time>
      </trkpt>
      <trkpt lat="47.23387" lon="-1.39641">
        <ele>57</ele>
        <time>2020-05-29T16:40:53.000Z</time>
      </trkpt>
      <trkpt lat="47.23388" lon="-1.39625">
        <ele>57</ele>
        <time>2020-05-29T16:40:55.000Z</time>
      </trkpt>
      <trkpt lat="47.2339" lon="-1.39608">
        <ele>57</ele>
        <time>2020-05-29T16:40:57.000Z</time>
      </trkpt>
      <trkpt lat="47.23391" lon="-1.39591">
        <ele>57</ele>
        <time>2020-05-29T16:40:59.000Z</time>
      </trkpt>
      <trkpt lat="47.23393" lon="-1.39575">
        <ele>57</ele>
        <time>2020-05-29T16:41:01.000Z</time>
      </trkpt>
      <trkpt lat="47.23394" lon="-1.39559">
        <ele>57</ele>
        <time>2020-05-29T16:41:03.000Z</time>
      </trkpt>
      <trkpt lat="47.23396" lon="-1.39543">
        <ele>57</ele>
        <time>2020-05-29T16:41:05.000Z</time>
      </trkpt>
      <trkpt lat="47.23397" lon="-1.39527">
        <ele>58</ele>
        <time>2020-05-29T16:41:07.000Z</time>
      </trkpt>
      <trkpt lat="47.23399" lon="-1.39511">
        <ele>58</ele>
        <time>2020-05-29T16:41:09.000Z</time>
      </trkpt>
      <trkpt lat="47.234" lon="-1.39495">
        <ele>58</ele>
        <time>2020-05-29T16:41:11.000Z</time>
      </trkpt>
      <trkpt lat="47.23401" lon="-1.39478">
        <ele>59</ele>
        <time>2020-05-29T16:41:13.000Z</time>
      </trkpt>
      <trkpt lat="47.23402" lon="-1.39462">
        <ele>60</ele>
        <time>2020-05-29T16:41:15.000Z</time>
      </trkpt>
      <trkpt lat="47.23404" lon="-1.39448">
        <ele>60</ele>
        <time>2020-05-29T16:41:17.000Z</time>
      </trkpt>
      <trkpt lat="47.23405" lon="-1.39432">
        <ele>60</ele>
        <time>2020-05-29T16:41:19.000Z</time>
      </trkpt>
      <trkpt lat="47.23407" lon="-1.39417">
        <ele>60</ele>
        <time>2020-05-29T16:41:21.000Z</time>
      </trkpt>
      <trkpt lat="47.23409" lon="-1.39402">
        <ele>60</ele>
        <time>2020-05-29T16:41:23.000Z</time>
      </trkpt>
      <trkpt lat="47.2341" lon="-1.39386">
        <ele>60</ele>
        <time>2020-05-29T16:41:25.000Z</time>
      </trkpt>
      <trkpt lat="47.23412" lon="-1.39371">
        <ele>59</ele>
        <time>2020-05-29T16:41:27.000Z</time>
      </trkpt>
      <trkpt lat="47.23413" lon="-1.39354">
        <ele>59</ele>
        <time>2020-05-29T16:41:29.000Z</time>
      </trkpt>
      <trkpt lat="47.23415" lon="-1.39338">
        <ele>59</ele>
        <time>2020-05-29T16:41:31.000Z</time>
      </trkpt>
      <trkpt lat="47.23416" lon="-1.3932">
        <ele>59</ele>
        <time>2020-05-29T16:41:33.000Z</time>
      </trkpt>
      <trkpt lat="47.23418" lon="-1.39304">
        <ele>59</ele>
        <time>2020-05-29T16:41:35.000Z</time>
      </trkpt>
      <trkpt lat="47.23419" lon="-1.39287">
        <ele>59</ele>
        <time>2020-05-29T16:41:37.000Z</time>
      </trkpt>
      <trkpt lat="47.23421" lon="-1.3927">
        <ele>59</ele>
        <time>2020-05-29T16:41:39.000Z</time>
      </trkpt>
      <trkpt lat="47.23423" lon="-1.39253">
        <ele>60</ele>
        <time>2020-05-29T16:41:41.000Z</time>
      </trkpt>
      <trkpt lat="47.23424" lon="-1.39235">
        <ele>60</ele>
        <time>2020-05-29T16:41:43.000Z</time>
      </trkpt>
      <trkpt lat="47.23426" lon="-1.39217">
        <ele>60</ele>
        <time>2020-05-29T16:41:45.000Z</time>
      </trkpt>
      <trkpt lat="47.23428" lon="-1.39201">
        <ele>61</ele>
        <time>2020-05-29T16:41:47.000Z</time>
      </trkpt>
      <trkpt lat="47.2343" lon="-1.39184">
        <ele>60</ele>
        <time>2020-05-29T16:41:49.000Z</time>
      </trkpt>
      <trkpt lat="47.23432" lon="-1.39167">
        <ele>60</ele>
        <time>2020-05-29T16:41:51.000Z</time>
      </trkpt>
      <trkpt lat="47.23433" lon="-1.3915">
        <ele>60</ele>
        <time>2020-05-29T16:41:53.000Z</time>
      </trkpt>
      <trkpt lat="47.23435" lon="-1.39133">
        <ele>60</ele>
        <time>2020-05-29T16:41:55.000Z</time>
      </trkpt>
      <trkpt lat="47.23437" lon="-1.39118">
        <ele>61</ele>
        <time>2020-05-29T16:41:57.000Z</time>
      </trkpt>
      <trkpt lat="47.23439" lon="-1.39101">
        <ele>60</ele>
        <time>2020-05-29T16:41:59.000Z</time>
      </trkpt>
      <trkpt lat="47.23441" lon="-1.39086">
        <ele>60</ele>
        <time>2020-05-29T16:42:01.000Z</time>
      </trkpt>
      <trkpt lat="47.23442" lon="-1.3907">
        <ele>60</ele>
        <time>2020-05-29T16:42:03.000Z</time>
      </trkpt>
      <trkpt lat="47.23443" lon="-1.39055">
        <ele>61</ele>
        <time>2020-05-29T16:42:05.000Z</time>
      </trkpt>
      <trkpt lat="47.23444" lon="-1.3904">
        <ele>61</ele>
        <time>2020-05-29T16:42:07.000Z</time>
      </trkpt>
      <trkpt lat="47.23446" lon="-1.39025">
        <ele>61</ele>
        <time>2020-05-29T16:42:09.000Z</time>
      </trkpt>
      <trkpt lat="47.23446" lon="-1.3901">
        <ele>62</ele>
        <time>2020-05-29T16:42:11.000Z</time>
      </trkpt>
      <trkpt lat="47.23448" lon="-1.38995">
        <ele>62</ele>
        <time>2020-05-29T16:42:13.000Z</time>
      </trkpt>
      <trkpt lat="47.23449" lon="-1.3898">
        <ele>63</ele>
        <time>2020-05-29T16:42:15.000Z</time>
      </trkpt>
      <trkpt lat="47.2345" lon="-1.38966">
        <ele>63</ele>
        <time>2020-05-29T16:42:17.000Z</time>
      </trkpt>
      <trkpt lat="47.23451" lon="-1.38952">
        <ele>64</ele>
        <time>2020-05-29T16:42:19.000Z</time>
      </trkpt>
      <trkpt lat="47.23452" lon="-1.38938">
        <ele>64</ele>
        <time>2020-05-29T16:42:21.000Z</time>
      </trkpt>
      <trkpt lat="47.23453" lon="-1.38923">
        <ele>65</ele>
        <time>2020-05-29T16:42:23.000Z</time>
      </trkpt>
      <trkpt lat="47.23455" lon="-1.38909">
        <ele>65</ele>
        <time>2020-05-29T16:42:25.000Z</time>
      </trkpt>
      <trkpt lat="47.23456" lon="-1.38894">
        <ele>65</ele>
        <time>2020-05-29T16:42:27.000Z</time>
      </trkpt>
      <trkpt lat="47.23457" lon="-1.38879">
        <ele>65</ele>
        <time>2020-05-29T16:42:29.000Z</time>
      </trkpt>
      <trkpt lat="47.23458" lon="-1.38863">
        <ele>66</ele>
        <time>2020-05-29T16:42:31.000Z</time>
      </trkpt>
      <trkpt lat="47.2346" lon="-1.38849">
        <ele>66</ele>
        <time>2020-05-29T16:42:33.000Z</time>
      </trkpt>
      <trkpt lat="47.23462" lon="-1.38834">
        <ele>66</ele>
        <time>2020-05-29T16:42:35.000Z</time>
      </trkpt>
      <trkpt lat="47.23463" lon="-1.38819">
        <ele>66</ele>
        <time>2020-05-29T16:42:37.000Z</time>
      </trkpt>
      <trkpt lat="47.23464" lon="-1.38804">
        <ele>66</ele>
        <time>2020-05-29T16:42:39.000Z</time>
      </trkpt>
      <trkpt lat="47.23466" lon="-1.38789">
        <ele>66</ele>
        <time>2020-05-29T16:42:41.000Z</time>
      </trkpt>
      <trkpt lat="47.23467" lon="-1.38774">
        <ele>66</ele>
        <time>2020-05-29T16:42:43.000Z</time>
      </trkpt>
      <trkpt lat="47.23468" lon="-1.3876">
        <ele>66</ele>
        <time>2020-05-29T16:42:45.000Z</time>
      </trkpt>
      <trkpt lat="47.2347" lon="-1.38745">
        <ele>65</ele>
        <time>2020-05-29T16:42:47.000Z</time>
      </trkpt>
      <trkpt lat="47.23471" lon="-1.3873">
        <ele>65</ele>
        <time>2020-05-29T16:42:49.000Z</time>
      </trkpt>
      <trkpt lat="47.23473" lon="-1.38715">
        <ele>65</ele>
        <time>2020-05-29T16:42:51.000Z</time>
      </trkpt>
      <trkpt lat="47.23474" lon="-1.38701">
        <ele>65</ele>
        <time>2020-05-29T16:42:53.000Z</time>
      </trkpt>
      <trkpt lat="47.23475" lon="-1.38686">
        <ele>65</ele>
        <time>2020-05-29T16:42:55.000Z</time>
      </trkpt>
      <trkpt lat="47.23477" lon="-1.3867">
        <ele>65</ele>
        <time>2020-05-29T16:42:57.000Z</time>
      </trkpt>
      <trkpt lat="47.23478" lon="-1.38654">
        <ele>65</ele>
        <time>2020-05-29T16:42:59.000Z</time>
      </trkpt>
      <trkpt lat="47.23479" lon="-1.38639">
        <ele>66</ele>
        <time>2020-05-29T16:43:01.000Z</time>
      </trkpt>
      <trkpt lat="47.23481" lon="-1.38623">
        <ele>66</ele>
        <time>2020-05-29T16:43:03.000Z</time>
      </trkpt>
      <trkpt lat="47.23482" lon="-1.38608">
        <ele>66</ele>
        <time>2020-05-29T16:43:05.000Z</time>
      </trkpt>
      <trkpt lat="47.23484" lon="-1.38593">
        <ele>66</ele>
        <time>2020-05-29T16:43:07.000Z</time>
      </trkpt>
      <trkpt lat="47.23485" lon="-1.38577">
        <ele>67</ele>
        <time>2020-05-29T16:43:09.000Z</time>
      </trkpt>
      <trkpt lat="47.23486" lon="-1.38563">
        <ele>67</ele>
        <time>2020-05-29T16:43:11.000Z</time>
      </trkpt>
      <trkpt lat="47.23487" lon="-1.38547">
        <ele>67</ele>
        <time>2020-05-29T16:43:13.000Z</time>
      </trkpt>
      <trkpt lat="47.23489" lon="-1.38532">
        <ele>66</ele>
        <time>2020-05-29T16:43:15.000Z</time>
      </trkpt>
      <trkpt lat="47.2349" lon="-1.38517">
        <ele>66</ele>
        <time>2020-05-29T16:43:17.000Z</time>
      </trkpt>
      <trkpt lat="47.23489" lon="-1.38503">
        <ele>66</ele>
        <time>2020-05-29T16:43:19.000Z</time>
      </trkpt>
      <trkpt lat="47.23487" lon="-1.3849">
        <ele>66</ele>
        <time>2020-05-29T16:43:22.000Z</time>
      </trkpt>
      <trkpt lat="47.23485" lon="-1.38472">
        <ele>66</ele>
        <time>2020-05-29T16:43:25.000Z</time>
      </trkpt>
      <trkpt lat="47.23491" lon="-1.3845">
        <ele>66</ele>
        <time>2020-05-29T16:43:28.000Z</time>
      </trkpt>
      <trkpt lat="47.23495" lon="-1.38435">
        <ele>66</ele>
        <time>2020-05-29T16:43:30.000Z</time>
      </trkpt>
      <trkpt lat="47.23498" lon="-1.38419">
        <ele>66</ele>
        <time>2020-05-29T16:43:32.000Z</time>
      </trkpt>
      <trkpt lat="47.235" lon="-1.38402">
        <ele>66</ele>
        <time>2020-05-29T16:43:34.000Z</time>
      </trkpt>
      <trkpt lat="47.23502" lon="-1.38384">
        <ele>65</ele>
        <time>2020-05-29T16:43:36.000Z</time>
      </trkpt>
      <trkpt lat="47.23504" lon="-1.38366">
        <ele>65</ele>
        <time>2020-05-29T16:43:38.000Z</time>
      </trkpt>
      <trkpt lat="47.23506" lon="-1.38348">
        <ele>65</ele>
        <time>2020-05-29T16:43:40.000Z</time>
      </trkpt>
      <trkpt lat="47.23507" lon="-1.3833">
        <ele>65</ele>
        <time>2020-05-29T16:43:42.000Z</time>
      </trkpt>
      <trkpt lat="47.23509" lon="-1.38311">
        <ele>65</ele>
        <time>2020-05-29T16:43:44.000Z</time>
      </trkpt>
      <trkpt lat="47.23511" lon="-1.38293">
        <ele>65</ele>
        <time>2020-05-29T16:43:46.000Z</time>
      </trkpt>
      <trkpt lat="47.23512" lon="-1.38274">
        <ele>64</ele>
        <time>2020-05-29T16:43:48.000Z</time>
      </trkpt>
      <trkpt lat="47.23514" lon="-1.38256">
        <ele>64</ele>
        <time>2020-05-29T16:43:50.000Z</time>
      </trkpt>
      <trkpt lat="47.23516" lon="-1.38239">
        <ele>64</ele>
        <time>2020-05-29T16:43:52.000Z</time>
      </trkpt>
      <trkpt lat="47.23517" lon="-1.38222">
        <ele>64</ele>
        <time>2020-05-29T16:43:54.000Z</time>
      </trkpt>
      <trkpt lat="47.23519" lon="-1.38204">
        <ele>64</ele>
        <time>2020-05-29T16:43:56.000Z</time>
      </trkpt>
      <trkpt lat="47.2352" lon="-1.38185">
        <ele>63</ele>
        <time>2020-05-29T16:43:58.000Z</time>
      </trkpt>
      <trkpt lat="47.23522" lon="-1.38167">
        <ele>63</ele>
        <time>2020-05-29T16:44:00.000Z</time>
      </trkpt>
      <trkpt lat="47.23524" lon="-1.3815">
        <ele>63</ele>
        <time>2020-05-29T16:44:02.000Z</time>
      </trkpt>
      <trkpt lat="47.23525" lon="-1.38133">
        <ele>63</ele>
        <time>2020-05-29T16:44:04.000Z</time>
      </trkpt>
      <trkpt lat="47.23527" lon="-1.38116">
        <ele>63</ele>
        <time>2020-05-29T16:44:06.000Z</time>
      </trkpt>
      <trkpt lat="47.23529" lon="-1.38098">
        <ele>63</ele>
        <time>2020-05-29T16:44:08.000Z</time>
      </trkpt>
      <trkpt lat="47.2353" lon="-1.3808">
        <ele>63</ele>
        <time>2020-05-29T16:44:10.000Z</time>
      </trkpt>
      <trkpt lat="47.23532" lon="-1.38062">
        <ele>63</ele>
        <time>2020-05-29T16:44:12.000Z</time>
      </trkpt>
      <trkpt lat="47.23533" lon="-1.38045">
        <ele>63</ele>
        <time>2020-05-29T16:44:14.000Z</time>
      </trkpt>
      <trkpt lat="47.23535" lon="-1.38028">
        <ele>63</ele>
        <time>2020-05-29T16:44:16.000Z</time>
      </trkpt>
      <trkpt lat="47.23536" lon="-1.38011">
        <ele>63</ele>
        <time>2020-05-29T16:44:18.000Z</time>
      </trkpt>
      <trkpt lat="47.23538" lon="-1.37995">
        <ele>63</ele>
        <time>2020-05-29T16:44:20.000Z</time>
      </trkpt>
      <trkpt lat="47.2354" lon="-1.37978">
        <ele>63</ele>
        <time>2020-05-29T16:44:22.000Z</time>
      </trkpt>
      <trkpt lat="47.23541" lon="-1.37961">
        <ele>63</ele>
        <time>2020-05-29T16:44:24.000Z</time>
      </trkpt>
      <trkpt lat="47.23543" lon="-1.37944">
        <ele>62</ele>
        <time>2020-05-29T16:44:26.000Z</time>
      </trkpt>
      <trkpt lat="47.23544" lon="-1.37926">
        <ele>62</ele>
        <time>2020-05-29T16:44:28.000Z</time>
      </trkpt>
      <trkpt lat="47.23546" lon="-1.37909">
        <ele>62</ele>
        <time>2020-05-29T16:44:30.000Z</time>
      </trkpt>
      <trkpt lat="47.23548" lon="-1.37891">
        <ele>62</ele>
        <time>2020-05-29T16:44:32.000Z</time>
      </trkpt>
      <trkpt lat="47.2355" lon="-1.37873">
        <ele>62</ele>
        <time>2020-05-29T16:44:34.000Z</time>
      </trkpt>
      <trkpt lat="47.23551" lon="-1.37855">
        <ele>62</ele>
        <time>2020-05-29T16:44:36.000Z</time>
      </trkpt>
      <trkpt lat="47.23553" lon="-1.37837">
        <ele>61</ele>
        <time>2020-05-29T16:44:38.000Z</time>
      </trkpt>
      <trkpt lat="47.23554" lon="-1.37819">
        <ele>61</ele>
        <time>2020-05-29T16:44:40.000Z</time>
      </trkpt>
      <trkpt lat="47.23556" lon="-1.37801">
        <ele>61</ele>
        <time>2020-05-29T16:44:42.000Z</time>
      </trkpt>
      <trkpt lat="47.23557" lon="-1.37784">
        <ele>61</ele>
        <time>2020-05-29T16:44:44.000Z</time>
      </trkpt>
      <trkpt lat="47.23559" lon="-1.37766">
        <ele>61</ele>
        <time>2020-05-29T16:44:46.000Z</time>
      </trkpt>
      <trkpt lat="47.2356" lon="-1.37749">
        <ele>61</ele>
        <time>2020-05-29T16:44:48.000Z</time>
      </trkpt>
      <trkpt lat="47.23562" lon="-1.37733">
        <ele>61</ele>
        <time>2020-05-29T16:44:50.000Z</time>
      </trkpt>
      <trkpt lat="47.23563" lon="-1.37718">
        <ele>61</ele>
        <time>2020-05-29T16:44:52.000Z</time>
      </trkpt>
      <trkpt lat="47.23565" lon="-1.37701">
        <ele>62</ele>
        <time>2020-05-29T16:44:54.000Z</time>
      </trkpt>
      <trkpt lat="47.23566" lon="-1.37684">
        <ele>62</ele>
        <time>2020-05-29T16:44:56.000Z</time>
      </trkpt>
      <trkpt lat="47.23567" lon="-1.37666">
        <ele>62</ele>
        <time>2020-05-29T16:44:58.000Z</time>
      </trkpt>
      <trkpt lat="47.23568" lon="-1.37647">
        <ele>61</ele>
        <time>2020-05-29T16:45:00.000Z</time>
      </trkpt>
      <trkpt lat="47.23571" lon="-1.37628">
        <ele>62</ele>
        <time>2020-05-29T16:45:02.000Z</time>
      </trkpt>
      <trkpt lat="47.23572" lon="-1.3761">
        <ele>61</ele>
        <time>2020-05-29T16:45:04.000Z</time>
      </trkpt>
      <trkpt lat="47.23574" lon="-1.37592">
        <ele>61</ele>
        <time>2020-05-29T16:45:06.000Z</time>
      </trkpt>
      <trkpt lat="47.23575" lon="-1.37574">
        <ele>61</ele>
        <time>2020-05-29T16:45:08.000Z</time>
      </trkpt>
      <trkpt lat="47.23577" lon="-1.37557">
        <ele>61</ele>
        <time>2020-05-29T16:45:10.000Z</time>
      </trkpt>
      <trkpt lat="47.23578" lon="-1.3754">
        <ele>61</ele>
        <time>2020-05-29T16:45:12.000Z</time>
      </trkpt>
      <trkpt lat="47.2358" lon="-1.37523">
        <ele>62</ele>
        <time>2020-05-29T16:45:14.000Z</time>
      </trkpt>
      <trkpt lat="47.23581" lon="-1.37506">
        <ele>62</ele>
        <time>2020-05-29T16:45:16.000Z</time>
      </trkpt>
      <trkpt lat="47.23583" lon="-1.37488">
        <ele>61</ele>
        <time>2020-05-29T16:45:18.000Z</time>
      </trkpt>
      <trkpt lat="47.23585" lon="-1.3747">
        <ele>61</ele>
        <time>2020-05-29T16:45:20.000Z</time>
      </trkpt>
      <trkpt lat="47.23587" lon="-1.37452">
        <ele>61</ele>
        <time>2020-05-29T16:45:22.000Z</time>
      </trkpt>
      <trkpt lat="47.23589" lon="-1.37434">
        <ele>61</ele>
        <time>2020-05-29T16:45:24.000Z</time>
      </trkpt>
      <trkpt lat="47.23591" lon="-1.37416">
        <ele>60</ele>
        <time>2020-05-29T16:45:26.000Z</time>
      </trkpt>
      <trkpt lat="47.23593" lon="-1.37399">
        <ele>60</ele>
        <time>2020-05-29T16:45:28.000Z</time>
      </trkpt>
      <trkpt lat="47.23595" lon="-1.37381">
        <ele>60</ele>
        <time>2020-05-29T16:45:30.000Z</time>
      </trkpt>
      <trkpt lat="47.23596" lon="-1.37365">
        <ele>60</ele>
        <time>2020-05-29T16:45:32.000Z</time>
      </trkpt>
      <trkpt lat="47.23598" lon="-1.37349">
        <ele>59</ele>
        <time>2020-05-29T16:45:34.000Z</time>
      </trkpt>
      <trkpt lat="47.236" lon="-1.37335">
        <ele>59</ele>
        <time>2020-05-29T16:45:36.000Z</time>
      </trkpt>
      <trkpt lat="47.23601" lon="-1.37319">
        <ele>59</ele>
        <time>2020-05-29T16:45:38.000Z</time>
      </trkpt>
      <trkpt lat="47.23603" lon="-1.37303">
        <ele>59</ele>
        <time>2020-05-29T16:45:40.000Z</time>
      </trkpt>
      <trkpt lat="47.23605" lon="-1.37287">
        <ele>59</ele>
        <time>2020-05-29T16:45:42.000Z</time>
      </trkpt>
      <trkpt lat="47.23606" lon="-1.37272">
        <ele>59</ele>
        <time>2020-05-29T16:45:44.000Z</time>
      </trkpt>
      <trkpt lat="47.23608" lon="-1.37257">
        <ele>59</ele>
        <time>2020-05-29T16:45:46.000Z</time>
      </trkpt>
      <trkpt lat="47.2361" lon="-1.37241">
        <ele>59</ele>
        <time>2020-05-29T16:45:48.000Z</time>
      </trkpt>
      <trkpt lat="47.23612" lon="-1.37226">
        <ele>59</ele>
        <time>2020-05-29T16:45:50.000Z</time>
      </trkpt>
      <trkpt lat="47.23614" lon="-1.37212">
        <ele>60</ele>
        <time>2020-05-29T16:45:52.000Z</time>
      </trkpt>
      <trkpt lat="47.23616" lon="-1.37198">
        <ele>59</ele>
        <time>2020-05-29T16:45:54.000Z</time>
      </trkpt>
      <trkpt lat="47.23618" lon="-1.37185">
        <ele>59</ele>
        <time>2020-05-29T16:45:56.000Z</time>
      </trkpt>
      <trkpt lat="47.2362" lon="-1.37171">
        <ele>59</ele>
        <time>2020-05-29T16:45:58.000Z</time>
      </trkpt>
      <trkpt lat="47.23622" lon="-1.37156">
        <ele>60</ele>
        <time>2020-05-29T16:46:00.000Z</time>
      </trkpt>
      <trkpt lat="47.23624" lon="-1.37142">
        <ele>60</ele>
        <time>2020-05-29T16:46:02.000Z</time>
      </trkpt>
      <trkpt lat="47.23627" lon="-1.37128">
        <ele>60</ele>
        <time>2020-05-29T16:46:04.000Z</time>
      </trkpt>
      <trkpt lat="47.2363" lon="-1.37115">
        <ele>61</ele>
        <time>2020-05-29T16:46:06.000Z</time>
      </trkpt>
      <trkpt lat="47.23633" lon="-1.37101">
        <ele>61</ele>
        <time>2020-05-29T16:46:08.000Z</time>
      </trkpt>
      <trkpt lat="47.23637" lon="-1.37087">
        <ele>61</ele>
        <time>2020-05-29T16:46:10.000Z</time>
      </trkpt>
      <trkpt lat="47.23641" lon="-1.37073">
        <ele>61</ele>
        <time>2020-05-29T16:46:12.000Z</time>
      </trkpt>
      <trkpt lat="47.23645" lon="-1.3706">
        <ele>61</ele>
        <time>2020-05-29T16:46:14.000Z</time>
      </trkpt>
      <trkpt lat="47.23649" lon="-1.37046">
        <ele>61</ele>
        <time>2020-05-29T16:46:16.000Z</time>
      </trkpt>
      <trkpt lat="47.23653" lon="-1.37032">
        <ele>61</ele>
        <time>2020-05-29T16:46:18.000Z</time>
      </trkpt>
      <trkpt lat="47.23657" lon="-1.37019">
        <ele>60</ele>
        <time>2020-05-29T16:46:20.000Z</time>
      </trkpt>
      <trkpt lat="47.23657" lon="-1.37004">
        <ele>61</ele>
        <time>2020-05-29T16:46:22.000Z</time>
      </trkpt>
      <trkpt lat="47.23657" lon="-1.36989">
        <ele>61</ele>
        <time>2020-05-29T16:46:24.000Z</time>
      </trkpt>
      <trkpt lat="47.23662" lon="-1.36975">
        <ele>61</ele>
        <time>2020-05-29T16:46:26.000Z</time>
      </trkpt>
      <trkpt lat="47.23671" lon="-1.36966">
        <ele>62</ele>
        <time>2020-05-29T16:46:28.000Z</time>
      </trkpt>
      <trkpt lat="47.23681" lon="-1.3696">
        <ele>61</ele>
        <time>2020-05-29T16:46:30.000Z</time>
      </trkpt>
      <trkpt lat="47.23688" lon="-1.3695">
        <ele>61</ele>
        <time>2020-05-29T16:46:32.000Z</time>
      </trkpt>
      <trkpt lat="47.23695" lon="-1.36938">
        <ele>61</ele>
        <time>2020-05-29T16:46:34.000Z</time>
      </trkpt>
      <trkpt lat="47.23702" lon="-1.36926">
        <ele>61</ele>
        <time>2020-05-29T16:46:36.000Z</time>
      </trkpt>
      <trkpt lat="47.23709" lon="-1.36915">
        <ele>60</ele>
        <time>2020-05-29T16:46:38.000Z</time>
      </trkpt>
      <trkpt lat="47.23716" lon="-1.36904">
        <ele>60</ele>
        <time>2020-05-29T16:46:40.000Z</time>
      </trkpt>
      <trkpt lat="47.23723" lon="-1.36894">
        <ele>60</ele>
        <time>2020-05-29T16:46:42.000Z</time>
      </trkpt>
      <trkpt lat="47.23729" lon="-1.36883">
        <ele>60</ele>
        <time>2020-05-29T16:46:44.000Z</time>
      </trkpt>
      <trkpt lat="47.23736" lon="-1.36873">
        <ele>60</ele>
        <time>2020-05-29T16:46:46.000Z</time>
      </trkpt>
      <trkpt lat="47.23744" lon="-1.36863">
        <ele>60</ele>
        <time>2020-05-29T16:46:48.000Z</time>
      </trkpt>
      <trkpt lat="47.23752" lon="-1.36855">
        <ele>60</ele>
        <time>2020-05-29T16:46:50.000Z</time>
      </trkpt>
      <trkpt lat="47.2376" lon="-1.36844">
        <ele>61</ele>
        <time>2020-05-29T16:46:52.000Z</time>
      </trkpt>
      <trkpt lat="47.23768" lon="-1.36836">
        <ele>61</ele>
        <time>2020-05-29T16:46:54.000Z</time>
      </trkpt>
      <trkpt lat="47.23776" lon="-1.36827">
        <ele>61</ele>
        <time>2020-05-29T16:46:56.000Z</time>
      </trkpt>
      <trkpt lat="47.23784" lon="-1.36819">
        <ele>61</ele>
        <time>2020-05-29T16:46:58.000Z</time>
      </trkpt>
      <trkpt lat="47.23791" lon="-1.36812">
        <ele>61</ele>
        <time>2020-05-29T16:47:00.000Z</time>
      </trkpt>
      <trkpt lat="47.23799" lon="-1.36804">
        <ele>61</ele>
        <time>2020-05-29T16:47:02.000Z</time>
      </trkpt>
      <trkpt lat="47.23807" lon="-1.36797">
        <ele>61</ele>
        <time>2020-05-29T16:47:04.000Z</time>
      </trkpt>
      <trkpt lat="47.23815" lon="-1.3679">
        <ele>61</ele>
        <time>2020-05-29T16:47:06.000Z</time>
      </trkpt>
      <trkpt lat="47.23824" lon="-1.36783">
        <ele>61</ele>
        <time>2020-05-29T16:47:08.000Z</time>
      </trkpt>
      <trkpt lat="47.23832" lon="-1.36776">
        <ele>61</ele>
        <time>2020-05-29T16:47:10.000Z</time>
      </trkpt>
      <trkpt lat="47.2384" lon="-1.36769">
        <ele>61</ele>
        <time>2020-05-29T16:47:12.000Z</time>
      </trkpt>
      <trkpt lat="47.23848" lon="-1.36762">
        <ele>61</ele>
        <time>2020-05-29T16:47:14.000Z</time>
      </trkpt>
      <trkpt lat="47.23857" lon="-1.36755">
        <ele>61</ele>
        <time>2020-05-29T16:47:16.000Z</time>
      </trkpt>
      <trkpt lat="47.23865" lon="-1.36748">
        <ele>61</ele>
        <time>2020-05-29T16:47:18.000Z</time>
      </trkpt>
      <trkpt lat="47.23877" lon="-1.36739">
        <ele>61</ele>
        <time>2020-05-29T16:47:21.000Z</time>
      </trkpt>
      <trkpt lat="47.23885" lon="-1.36731">
        <ele>62</ele>
        <time>2020-05-29T16:47:23.000Z</time>
      </trkpt>
      <trkpt lat="47.23893" lon="-1.36724">
        <ele>62</ele>
        <time>2020-05-29T16:47:25.000Z</time>
      </trkpt>
      <trkpt lat="47.23901" lon="-1.36717">
        <ele>63</ele>
        <time>2020-05-29T16:47:27.000Z</time>
      </trkpt>
      <trkpt lat="47.2391" lon="-1.3671">
        <ele>63</ele>
        <time>2020-05-29T16:47:29.000Z</time>
      </trkpt>
      <trkpt lat="47.23918" lon="-1.36703">
        <ele>63</ele>
        <time>2020-05-29T16:47:31.000Z</time>
      </trkpt>
      <trkpt lat="47.23926" lon="-1.36696">
        <ele>64</ele>
        <time>2020-05-29T16:47:33.000Z</time>
      </trkpt>
      <trkpt lat="47.23938" lon="-1.36687">
        <ele>64</ele>
        <time>2020-05-29T16:47:36.000Z</time>
      </trkpt>
      <trkpt lat="47.23946" lon="-1.36681">
        <ele>64</ele>
        <time>2020-05-29T16:47:38.000Z</time>
      </trkpt>
      <trkpt lat="47.23955" lon="-1.36674">
        <ele>64</ele>
        <time>2020-05-29T16:47:40.000Z</time>
      </trkpt>
      <trkpt lat="47.23963" lon="-1.36668">
        <ele>64</ele>
        <time>2020-05-29T16:47:42.000Z</time>
      </trkpt>
      <trkpt lat="47.23971" lon="-1.36661">
        <ele>64</ele>
        <time>2020-05-29T16:47:44.000Z</time>
      </trkpt>
      <trkpt lat="47.23979" lon="-1.36654">
        <ele>65</ele>
        <time>2020-05-29T16:47:46.000Z</time>
      </trkpt>
      <trkpt lat="47.23987" lon="-1.36648">
        <ele>65</ele>
        <time>2020-05-29T16:47:48.000Z</time>
      </trkpt>
      <trkpt lat="47.23995" lon="-1.3664">
        <ele>65</ele>
        <time>2020-05-29T16:47:50.000Z</time>
      </trkpt>
      <trkpt lat="47.24007" lon="-1.3663">
        <ele>65</ele>
        <time>2020-05-29T16:47:53.000Z</time>
      </trkpt>
      <trkpt lat="47.24015" lon="-1.36624">
        <ele>66</ele>
        <time>2020-05-29T16:47:55.000Z</time>
      </trkpt>
      <trkpt lat="47.24023" lon="-1.36617">
        <ele>66</ele>
        <time>2020-05-29T16:47:57.000Z</time>
      </trkpt>
      <trkpt lat="47.24034" lon="-1.36608">
        <ele>66</ele>
        <time>2020-05-29T16:48:00.000Z</time>
      </trkpt>
      <trkpt lat="47.24042" lon="-1.36601">
        <ele>66</ele>
        <time>2020-05-29T16:48:02.000Z</time>
      </trkpt>
      <trkpt lat="47.24051" lon="-1.36594">
        <ele>67</ele>
        <time>2020-05-29T16:48:04.000Z</time>
      </trkpt>
      <trkpt lat="47.24062" lon="-1.36583">
        <ele>67</ele>
        <time>2020-05-29T16:48:07.000Z</time>
      </trkpt>
      <trkpt lat="47.2407" lon="-1.36576">
        <ele>67</ele>
        <time>2020-05-29T16:48:09.000Z</time>
      </trkpt>
      <trkpt lat="47.24078" lon="-1.36569">
        <ele>67</ele>
        <time>2020-05-29T16:48:11.000Z</time>
      </trkpt>
      <trkpt lat="47.24085" lon="-1.36562">
        <ele>67</ele>
        <time>2020-05-29T16:48:13.000Z</time>
      </trkpt>
      <trkpt lat="47.24093" lon="-1.36554">
        <ele>67</ele>
        <time>2020-05-29T16:48:15.000Z</time>
      </trkpt>
      <trkpt lat="47.24101" lon="-1.36546">
        <ele>67</ele>
        <time>2020-05-29T16:48:17.000Z</time>
      </trkpt>
      <trkpt lat="47.24108" lon="-1.36539">
        <ele>67</ele>
        <time>2020-05-29T16:48:19.000Z</time>
      </trkpt>
      <trkpt lat="47.24116" lon="-1.3653">
        <ele>67</ele>
        <time>2020-05-29T16:48:21.000Z</time>
      </trkpt>
      <trkpt lat="47.24124" lon="-1.36523">
        <ele>67</ele>
        <time>2020-05-29T16:48:23.000Z</time>
      </trkpt>
      <trkpt lat="47.24131" lon="-1.36515">
        <ele>68</ele>
        <time>2020-05-29T16:48:25.000Z</time>
      </trkpt>
      <trkpt lat="47.24139" lon="-1.36507">
        <ele>68</ele>
        <time>2020-05-29T16:48:27.000Z</time>
      </trkpt>
      <trkpt lat="47.24146" lon="-1.36499">
        <ele>68</ele>
        <time>2020-05-29T16:48:29.000Z</time>
      </trkpt>
      <trkpt lat="47.24157" lon="-1.36487">
        <ele>68</ele>
        <time>2020-05-29T16:48:32.000Z</time>
      </trkpt>
      <trkpt lat="47.24164" lon="-1.36479">
        <ele>69</ele>
        <time>2020-05-29T16:48:34.000Z</time>
      </trkpt>
      <trkpt lat="47.24175" lon="-1.36467">
        <ele>68</ele>
        <time>2020-05-29T16:48:37.000Z</time>
      </trkpt>
      <trkpt lat="47.24182" lon="-1.36458">
        <ele>69</ele>
        <time>2020-05-29T16:48:39.000Z</time>
      </trkpt>
      <trkpt lat="47.24189" lon="-1.36448">
        <ele>69</ele>
        <time>2020-05-29T16:48:41.000Z</time>
      </trkpt>
      <trkpt lat="47.24196" lon="-1.3644">
        <ele>69</ele>
        <time>2020-05-29T16:48:43.000Z</time>
      </trkpt>
      <trkpt lat="47.24203" lon="-1.36431">
        <ele>69</ele>
        <time>2020-05-29T16:48:45.000Z</time>
      </trkpt>
      <trkpt lat="47.2421" lon="-1.36422">
        <ele>70</ele>
        <time>2020-05-29T16:48:47.000Z</time>
      </trkpt>
      <trkpt lat="47.24217" lon="-1.36413">
        <ele>70</ele>
        <time>2020-05-29T16:48:49.000Z</time>
      </trkpt>
      <trkpt lat="47.24228" lon="-1.36401">
        <ele>70</ele>
        <time>2020-05-29T16:48:52.000Z</time>
      </trkpt>
      <trkpt lat="47.24235" lon="-1.36391">
        <ele>70</ele>
        <time>2020-05-29T16:48:54.000Z</time>
      </trkpt>
      <trkpt lat="47.24242" lon="-1.36382">
        <ele>70</ele>
        <time>2020-05-29T16:48:56.000Z</time>
      </trkpt>
      <trkpt lat="47.24251" lon="-1.36368">
        <ele>71</ele>
        <time>2020-05-29T16:48:59.000Z</time>
      </trkpt>
      <trkpt lat="47.24258" lon="-1.36359">
        <ele>71</ele>
        <time>2020-05-29T16:49:01.000Z</time>
      </trkpt>
      <trkpt lat="47.24264" lon="-1.36349">
        <ele>71</ele>
        <time>2020-05-29T16:49:03.000Z</time>
      </trkpt>
      <trkpt lat="47.24274" lon="-1.36336">
        <ele>71</ele>
        <time>2020-05-29T16:49:06.000Z</time>
      </trkpt>
      <trkpt lat="47.24283" lon="-1.36323">
        <ele>72</ele>
        <time>2020-05-29T16:49:09.000Z</time>
      </trkpt>
      <trkpt lat="47.24292" lon="-1.36309">
        <ele>72</ele>
        <time>2020-05-29T16:49:12.000Z</time>
      </trkpt>
      <trkpt lat="47.243" lon="-1.36295">
        <ele>71</ele>
        <time>2020-05-29T16:49:15.000Z</time>
      </trkpt>
      <trkpt lat="47.24309" lon="-1.3628">
        <ele>72</ele>
        <time>2020-05-29T16:49:18.000Z</time>
      </trkpt>
      <trkpt lat="47.24316" lon="-1.36271">
        <ele>72</ele>
        <time>2020-05-29T16:49:20.000Z</time>
      </trkpt>
      <trkpt lat="47.24321" lon="-1.3626">
        <ele>72</ele>
        <time>2020-05-29T16:49:22.000Z</time>
      </trkpt>
      <trkpt lat="47.24328" lon="-1.3625">
        <ele>72</ele>
        <time>2020-05-29T16:49:24.000Z</time>
      </trkpt>
      <trkpt lat="47.24334" lon="-1.36239">
        <ele>72</ele>
        <time>2020-05-29T16:49:26.000Z</time>
      </trkpt>
      <trkpt lat="47.2434" lon="-1.36228">
        <ele>72</ele>
        <time>2020-05-29T16:49:28.000Z</time>
      </trkpt>
      <trkpt lat="47.24346" lon="-1.36218">
        <ele>72</ele>
        <time>2020-05-29T16:49:30.000Z</time>
      </trkpt>
      <trkpt lat="47.24351" lon="-1.36207">
        <ele>72</ele>
        <time>2020-05-29T16:49:32.000Z</time>
      </trkpt>
      <trkpt lat="47.24357" lon="-1.36195">
        <ele>72</ele>
        <time>2020-05-29T16:49:34.000Z</time>
      </trkpt>
      <trkpt lat="47.24363" lon="-1.36184">
        <ele>72</ele>
        <time>2020-05-29T16:49:36.000Z</time>
      </trkpt>
      <trkpt lat="47.24368" lon="-1.36174">
        <ele>72</ele>
        <time>2020-05-29T16:49:38.000Z</time>
      </trkpt>
      <trkpt lat="47.24374" lon="-1.36163">
        <ele>72</ele>
        <time>2020-05-29T16:49:40.000Z</time>
      </trkpt>
      <trkpt lat="47.2438" lon="-1.36153">
        <ele>72</ele>
        <time>2020-05-29T16:49:42.000Z</time>
      </trkpt>
      <trkpt lat="47.24385" lon="-1.36142">
        <ele>73</ele>
        <time>2020-05-29T16:49:44.000Z</time>
      </trkpt>
      <trkpt lat="47.24391" lon="-1.36132">
        <ele>73</ele>
        <time>2020-05-29T16:49:46.000Z</time>
      </trkpt>
      <trkpt lat="47.24396" lon="-1.36121">
        <ele>74</ele>
        <time>2020-05-29T16:49:48.000Z</time>
      </trkpt>
      <trkpt lat="47.24404" lon="-1.36105">
        <ele>74</ele>
        <time>2020-05-29T16:49:51.000Z</time>
      </trkpt>
      <trkpt lat="47.24409" lon="-1.36094">
        <ele>75</ele>
        <time>2020-05-29T16:49:53.000Z</time>
      </trkpt>
      <trkpt lat="47.24414" lon="-1.36082">
        <ele>75</ele>
        <time>2020-05-29T16:49:55.000Z</time>
      </trkpt>
      <trkpt lat="47.24419" lon="-1.36066">
        <ele>76</ele>
        <time>2020-05-29T16:49:58.000Z</time>
      </trkpt>
      <trkpt lat="47.24421" lon="-1.36051">
        <ele>76</ele>
        <time>2020-05-29T16:50:02.000Z</time>
      </trkpt>
      <trkpt lat="47.24421" lon="-1.36038">
        <ele>76</ele>
        <time>2020-05-29T16:50:08.000Z</time>
      </trkpt>
      <trkpt lat="47.24425" lon="-1.3602">
        <ele>77</ele>
        <time>2020-05-29T16:50:11.000Z</time>
      </trkpt>
      <trkpt lat="47.24434" lon="-1.36011">
        <ele>77</ele>
        <time>2020-05-29T16:50:13.000Z</time>
      </trkpt>
      <trkpt lat="47.24444" lon="-1.36013">
        <ele>77</ele>
        <time>2020-05-29T16:50:15.000Z</time>
      </trkpt>
      <trkpt lat="47.24454" lon="-1.36024">
        <ele>77</ele>
        <time>2020-05-29T16:50:17.000Z</time>
      </trkpt>
      <trkpt lat="47.24459" lon="-1.36041">
        <ele>77</ele>
        <time>2020-05-29T16:50:19.000Z</time>
      </trkpt>
      <trkpt lat="47.24465" lon="-1.36057">
        <ele>76</ele>
        <time>2020-05-29T16:50:21.000Z</time>
      </trkpt>
      <trkpt lat="47.24475" lon="-1.36072">
        <ele>76</ele>
        <time>2020-05-29T16:50:23.000Z</time>
      </trkpt>
      <trkpt lat="47.24484" lon="-1.3609">
        <ele>75</ele>
        <time>2020-05-29T16:50:25.000Z</time>
      </trkpt>
      <trkpt lat="47.24494" lon="-1.36107">
        <ele>74</ele>
        <time>2020-05-29T16:50:27.000Z</time>
      </trkpt>
      <trkpt lat="47.24505" lon="-1.36125">
        <ele>74</ele>
        <time>2020-05-29T16:50:29.000Z</time>
      </trkpt>
      <trkpt lat="47.24515" lon="-1.36143">
        <ele>74</ele>
        <time>2020-05-29T16:50:31.000Z</time>
      </trkpt>
      <trkpt lat="47.24526" lon="-1.36161">
        <ele>73</ele>
        <time>2020-05-29T16:50:33.000Z</time>
      </trkpt>
      <trkpt lat="47.24535" lon="-1.3618">
        <ele>72</ele>
        <time>2020-05-29T16:50:35.000Z</time>
      </trkpt>
      <trkpt lat="47.24543" lon="-1.362">
        <ele>72</ele>
        <time>2020-05-29T16:50:37.000Z</time>
      </trkpt>
      <trkpt lat="47.24549" lon="-1.3622">
        <ele>71</ele>
        <time>2020-05-29T16:50:39.000Z</time>
      </trkpt>
      <trkpt lat="47.24554" lon="-1.36243">
        <ele>70</ele>
        <time>2020-05-29T16:50:41.000Z</time>
      </trkpt>
      <trkpt lat="47.24559" lon="-1.36264">
        <ele>70</ele>
        <time>2020-05-29T16:50:43.000Z</time>
      </trkpt>
      <trkpt lat="47.24563" lon="-1.36286">
        <ele>69</ele>
        <time>2020-05-29T16:50:45.000Z</time>
      </trkpt>
      <trkpt lat="47.24568" lon="-1.36308">
        <ele>69</ele>
        <time>2020-05-29T16:50:47.000Z</time>
      </trkpt>
      <trkpt lat="47.24573" lon="-1.3633">
        <ele>68</ele>
        <time>2020-05-29T16:50:49.000Z</time>
      </trkpt>
      <trkpt lat="47.24578" lon="-1.36351">
        <ele>68</ele>
        <time>2020-05-29T16:50:51.000Z</time>
      </trkpt>
      <trkpt lat="47.24583" lon="-1.36373">
        <ele>68</ele>
        <time>2020-05-29T16:50:53.000Z</time>
      </trkpt>
      <trkpt lat="47.24589" lon="-1.36394">
        <ele>67</ele>
        <time>2020-05-29T16:50:55.000Z</time>
      </trkpt>
      <trkpt lat="47.24597" lon="-1.36415">
        <ele>67</ele>
        <time>2020-05-29T16:50:57.000Z</time>
      </trkpt>
      <trkpt lat="47.24606" lon="-1.36435">
        <ele>67</ele>
        <time>2020-05-29T16:50:59.000Z</time>
      </trkpt>
      <trkpt lat="47.24615" lon="-1.36455">
        <ele>66</ele>
        <time>2020-05-29T16:51:01.000Z</time>
      </trkpt>
      <trkpt lat="47.24624" lon="-1.36474">
        <ele>66</ele>
        <time>2020-05-29T16:51:03.000Z</time>
      </trkpt>
      <trkpt lat="47.24632" lon="-1.36494">
        <ele>66</ele>
        <time>2020-05-29T16:51:05.000Z</time>
      </trkpt>
      <trkpt lat="47.24641" lon="-1.36513">
        <ele>66</ele>
        <time>2020-05-29T16:51:07.000Z</time>
      </trkpt>
      <trkpt lat="47.2465" lon="-1.36532">
        <ele>65</ele>
        <time>2020-05-29T16:51:09.000Z</time>
      </trkpt>
      <trkpt lat="47.24659" lon="-1.36551">
        <ele>65</ele>
        <time>2020-05-29T16:51:11.000Z</time>
      </trkpt>
      <trkpt lat="47.24667" lon="-1.3657">
        <ele>64</ele>
        <time>2020-05-29T16:51:13.000Z</time>
      </trkpt>
      <trkpt lat="47.24674" lon="-1.36589">
        <ele>64</ele>
        <time>2020-05-29T16:51:15.000Z</time>
      </trkpt>
      <trkpt lat="47.24681" lon="-1.36609">
        <ele>64</ele>
        <time>2020-05-29T16:51:17.000Z</time>
      </trkpt>
      <trkpt lat="47.24687" lon="-1.3663">
        <ele>63</ele>
        <time>2020-05-29T16:51:19.000Z</time>
      </trkpt>
      <trkpt lat="47.24692" lon="-1.36651">
        <ele>63</ele>
        <time>2020-05-29T16:51:21.000Z</time>
      </trkpt>
      <trkpt lat="47.24697" lon="-1.36672">
        <ele>62</ele>
        <time>2020-05-29T16:51:23.000Z</time>
      </trkpt>
      <trkpt lat="47.24703" lon="-1.36694">
        <ele>62</ele>
        <time>2020-05-29T16:51:25.000Z</time>
      </trkpt>
      <trkpt lat="47.2471" lon="-1.36717">
        <ele>61</ele>
        <time>2020-05-29T16:51:27.000Z</time>
      </trkpt>
      <trkpt lat="47.24716" lon="-1.36742">
        <ele>60</ele>
        <time>2020-05-29T16:51:29.000Z</time>
      </trkpt>
      <trkpt lat="47.24719" lon="-1.36755">
        <ele>60</ele>
        <time>2020-05-29T16:51:30.000Z</time>
      </trkpt>
      <trkpt lat="47.24722" lon="-1.36768">
        <ele>59</ele>
        <time>2020-05-29T16:51:31.000Z</time>
      </trkpt>
      <trkpt lat="47.24725" lon="-1.36781">
        <ele>59</ele>
        <time>2020-05-29T16:51:32.000Z</time>
      </trkpt>
      <trkpt lat="47.24728" lon="-1.36793">
        <ele>59</ele>
        <time>2020-05-29T16:51:33.000Z</time>
      </trkpt>
      <trkpt lat="47.24732" lon="-1.36806">
        <ele>59</ele>
        <time>2020-05-29T16:51:34.000Z</time>
      </trkpt>
      <trkpt lat="47.24735" lon="-1.36819">
        <ele>58</ele>
        <time>2020-05-29T16:51:35.000Z</time>
      </trkpt>
      <trkpt lat="47.24737" lon="-1.36832">
        <ele>58</ele>
        <time>2020-05-29T16:51:36.000Z</time>
      </trkpt>
      <trkpt lat="47.24741" lon="-1.36844">
        <ele>58</ele>
        <time>2020-05-29T16:51:37.000Z</time>
      </trkpt>
      <trkpt lat="47.24747" lon="-1.36869">
        <ele>58</ele>
        <time>2020-05-29T16:51:39.000Z</time>
      </trkpt>
      <trkpt lat="47.24753" lon="-1.36894">
        <ele>58</ele>
        <time>2020-05-29T16:51:41.000Z</time>
      </trkpt>
      <trkpt lat="47.24759" lon="-1.36918">
        <ele>57</ele>
        <time>2020-05-29T16:51:43.000Z</time>
      </trkpt>
      <trkpt lat="47.24765" lon="-1.36942">
        <ele>57</ele>
        <time>2020-05-29T16:51:45.000Z</time>
      </trkpt>
      <trkpt lat="47.24771" lon="-1.36967">
        <ele>57</ele>
        <time>2020-05-29T16:51:47.000Z</time>
      </trkpt>
      <trkpt lat="47.24777" lon="-1.36991">
        <ele>56</ele>
        <time>2020-05-29T16:51:49.000Z</time>
      </trkpt>
      <trkpt lat="47.24784" lon="-1.37015">
        <ele>56</ele>
        <time>2020-05-29T16:51:51.000Z</time>
      </trkpt>
      <trkpt lat="47.24791" lon="-1.37037">
        <ele>56</ele>
        <time>2020-05-29T16:51:53.000Z</time>
      </trkpt>
      <trkpt lat="47.24798" lon="-1.37058">
        <ele>56</ele>
        <time>2020-05-29T16:51:55.000Z</time>
      </trkpt>
      <trkpt lat="47.24808" lon="-1.37075">
        <ele>56</ele>
        <time>2020-05-29T16:51:57.000Z</time>
      </trkpt>
      <trkpt lat="47.24819" lon="-1.37088">
        <ele>56</ele>
        <time>2020-05-29T16:51:59.000Z</time>
      </trkpt>
      <trkpt lat="47.24824" lon="-1.37108">
        <ele>56</ele>
        <time>2020-05-29T16:52:01.000Z</time>
      </trkpt>
      <trkpt lat="47.24828" lon="-1.3713">
        <ele>56</ele>
        <time>2020-05-29T16:52:03.000Z</time>
      </trkpt>
      <trkpt lat="47.24837" lon="-1.3715">
        <ele>56</ele>
        <time>2020-05-29T16:52:05.000Z</time>
      </trkpt>
      <trkpt lat="47.24847" lon="-1.37169">
        <ele>55</ele>
        <time>2020-05-29T16:52:07.000Z</time>
      </trkpt>
      <trkpt lat="47.24853" lon="-1.37179">
        <ele>55</ele>
        <time>2020-05-29T16:52:08.000Z</time>
      </trkpt>
      <trkpt lat="47.24864" lon="-1.37198">
        <ele>55</ele>
        <time>2020-05-29T16:52:10.000Z</time>
      </trkpt>
      <trkpt lat="47.24876" lon="-1.37216">
        <ele>55</ele>
        <time>2020-05-29T16:52:12.000Z</time>
      </trkpt>
      <trkpt lat="47.24888" lon="-1.37233">
        <ele>55</ele>
        <time>2020-05-29T16:52:14.000Z</time>
      </trkpt>
      <trkpt lat="47.24899" lon="-1.3725">
        <ele>55</ele>
        <time>2020-05-29T16:52:16.000Z</time>
      </trkpt>
      <trkpt lat="47.24911" lon="-1.37266">
        <ele>55</ele>
        <time>2020-05-29T16:52:18.000Z</time>
      </trkpt>
      <trkpt lat="47.24924" lon="-1.37282">
        <ele>54</ele>
        <time>2020-05-29T16:52:20.000Z</time>
      </trkpt>
      <trkpt lat="47.24937" lon="-1.37297">
        <ele>54</ele>
        <time>2020-05-29T16:52:22.000Z</time>
      </trkpt>
      <trkpt lat="47.2495" lon="-1.37312">
        <ele>54</ele>
        <time>2020-05-29T16:52:24.000Z</time>
      </trkpt>
      <trkpt lat="47.24963" lon="-1.37326">
        <ele>54</ele>
        <time>2020-05-29T16:52:26.000Z</time>
      </trkpt>
      <trkpt lat="47.24975" lon="-1.37341">
        <ele>54</ele>
        <time>2020-05-29T16:52:28.000Z</time>
      </trkpt>
      <trkpt lat="47.24988" lon="-1.37356">
        <ele>54</ele>
        <time>2020-05-29T16:52:30.000Z</time>
      </trkpt>
      <trkpt lat="47.24999" lon="-1.37371">
        <ele>54</ele>
        <time>2020-05-29T16:52:32.000Z</time>
      </trkpt>
      <trkpt lat="47.25011" lon="-1.37385">
        <ele>54</ele>
        <time>2020-05-29T16:52:34.000Z</time>
      </trkpt>
      <trkpt lat="47.25023" lon="-1.37399">
        <ele>54</ele>
        <time>2020-05-29T16:52:36.000Z</time>
      </trkpt>
      <trkpt lat="47.25035" lon="-1.37413">
        <ele>54</ele>
        <time>2020-05-29T16:52:38.000Z</time>
      </trkpt>
      <trkpt lat="47.25046" lon="-1.37427">
        <ele>54</ele>
        <time>2020-05-29T16:52:40.000Z</time>
      </trkpt>
      <trkpt lat="47.25058" lon="-1.37442">
        <ele>54</ele>
        <time>2020-05-29T16:52:42.000Z</time>
      </trkpt>
      <trkpt lat="47.25069" lon="-1.37455">
        <ele>54</ele>
        <time>2020-05-29T16:52:44.000Z</time>
      </trkpt>
      <trkpt lat="47.2508" lon="-1.37468">
        <ele>55</ele>
        <time>2020-05-29T16:52:46.000Z</time>
      </trkpt>
      <trkpt lat="47.25091" lon="-1.37481">
        <ele>54</ele>
        <time>2020-05-29T16:52:48.000Z</time>
      </trkpt>
      <trkpt lat="47.25103" lon="-1.37495">
        <ele>54</ele>
        <time>2020-05-29T16:52:50.000Z</time>
      </trkpt>
      <trkpt lat="47.25114" lon="-1.37509">
        <ele>54</ele>
        <time>2020-05-29T16:52:52.000Z</time>
      </trkpt>
      <trkpt lat="47.25126" lon="-1.37522">
        <ele>54</ele>
        <time>2020-05-29T16:52:54.000Z</time>
      </trkpt>
      <trkpt lat="47.25138" lon="-1.37536">
        <ele>54</ele>
        <time>2020-05-29T16:52:56.000Z</time>
      </trkpt>
      <trkpt lat="47.25149" lon="-1.37549">
        <ele>54</ele>
        <time>2020-05-29T16:52:58.000Z</time>
      </trkpt>
      <trkpt lat="47.2516" lon="-1.37562">
        <ele>54</ele>
        <time>2020-05-29T16:53:00.000Z</time>
      </trkpt>
      <trkpt lat="47.25172" lon="-1.37576">
        <ele>54</ele>
        <time>2020-05-29T16:53:02.000Z</time>
      </trkpt>
      <trkpt lat="47.25184" lon="-1.3759">
        <ele>53</ele>
        <time>2020-05-29T16:53:04.000Z</time>
      </trkpt>
      <trkpt lat="47.25195" lon="-1.37603">
        <ele>54</ele>
        <time>2020-05-29T16:53:06.000Z</time>
      </trkpt>
      <trkpt lat="47.25207" lon="-1.37617">
        <ele>54</ele>
        <time>2020-05-29T16:53:08.000Z</time>
      </trkpt>
      <trkpt lat="47.25218" lon="-1.3763">
        <ele>53</ele>
        <time>2020-05-29T16:53:10.000Z</time>
      </trkpt>
      <trkpt lat="47.25229" lon="-1.37644">
        <ele>53</ele>
        <time>2020-05-29T16:53:12.000Z</time>
      </trkpt>
      <trkpt lat="47.25241" lon="-1.37657">
        <ele>53</ele>
        <time>2020-05-29T16:53:14.000Z</time>
      </trkpt>
      <trkpt lat="47.25252" lon="-1.37671">
        <ele>53</ele>
        <time>2020-05-29T16:53:16.000Z</time>
      </trkpt>
      <trkpt lat="47.25264" lon="-1.37685">
        <ele>53</ele>
        <time>2020-05-29T16:53:18.000Z</time>
      </trkpt>
      <trkpt lat="47.25275" lon="-1.37699">
        <ele>52</ele>
        <time>2020-05-29T16:53:20.000Z</time>
      </trkpt>
      <trkpt lat="47.25287" lon="-1.37712">
        <ele>53</ele>
        <time>2020-05-29T16:53:22.000Z</time>
      </trkpt>
      <trkpt lat="47.25298" lon="-1.37726">
        <ele>53</ele>
        <time>2020-05-29T16:53:24.000Z</time>
      </trkpt>
      <trkpt lat="47.2531" lon="-1.37739">
        <ele>53</ele>
        <time>2020-05-29T16:53:26.000Z</time>
      </trkpt>
      <trkpt lat="47.25321" lon="-1.37751">
        <ele>53</ele>
        <time>2020-05-29T16:53:28.000Z</time>
      </trkpt>
      <trkpt lat="47.25332" lon="-1.37765">
        <ele>53</ele>
        <time>2020-05-29T16:53:30.000Z</time>
      </trkpt>
      <trkpt lat="47.25343" lon="-1.37778">
        <ele>53</ele>
        <time>2020-05-29T16:53:32.000Z</time>
      </trkpt>
      <trkpt lat="47.25355" lon="-1.37791">
        <ele>53</ele>
        <time>2020-05-29T16:53:34.000Z</time>
      </trkpt>
      <trkpt lat="47.25365" lon="-1.37805">
        <ele>53</ele>
        <time>2020-05-29T16:53:36.000Z</time>
      </trkpt>
      <trkpt lat="47.25377" lon="-1.37818">
        <ele>53</ele>
        <time>2020-05-29T16:53:38.000Z</time>
      </trkpt>
      <trkpt lat="47.25388" lon="-1.37832">
        <ele>53</ele>
        <time>2020-05-29T16:53:40.000Z</time>
      </trkpt>
      <trkpt lat="47.25399" lon="-1.37844">
        <ele>53</ele>
        <time>2020-05-29T16:53:42.000Z</time>
      </trkpt>
      <trkpt lat="47.2541" lon="-1.37858">
        <ele>53</ele>
        <time>2020-05-29T16:53:44.000Z</time>
      </trkpt>
      <trkpt lat="47.25421" lon="-1.37872">
        <ele>53</ele>
        <time>2020-05-29T16:53:46.000Z</time>
      </trkpt>
      <trkpt lat="47.25431" lon="-1.37886">
        <ele>53</ele>
        <time>2020-05-29T16:53:48.000Z</time>
      </trkpt>
      <trkpt lat="47.25441" lon="-1.37902">
        <ele>54</ele>
        <time>2020-05-29T16:53:50.000Z</time>
      </trkpt>
      <trkpt lat="47.2545" lon="-1.37917">
        <ele>54</ele>
        <time>2020-05-29T16:53:52.000Z</time>
      </trkpt>
      <trkpt lat="47.2546" lon="-1.37932">
        <ele>55</ele>
        <time>2020-05-29T16:53:54.000Z</time>
      </trkpt>
      <trkpt lat="47.25468" lon="-1.37948">
        <ele>55</ele>
        <time>2020-05-29T16:53:56.000Z</time>
      </trkpt>
      <trkpt lat="47.25477" lon="-1.37964">
        <ele>54</ele>
        <time>2020-05-29T16:53:58.000Z</time>
      </trkpt>
      <trkpt lat="47.25486" lon="-1.37981">
        <ele>54</ele>
        <time>2020-05-29T16:54:00.000Z</time>
      </trkpt>
      <trkpt lat="47.25494" lon="-1.37999">
        <ele>54</ele>
        <time>2020-05-29T16:54:02.000Z</time>
      </trkpt>
      <trkpt lat="47.25501" lon="-1.38017">
        <ele>54</ele>
        <time>2020-05-29T16:54:04.000Z</time>
      </trkpt>
      <trkpt lat="47.25509" lon="-1.38035">
        <ele>54</ele>
        <time>2020-05-29T16:54:06.000Z</time>
      </trkpt>
      <trkpt lat="47.25515" lon="-1.38054">
        <ele>54</ele>
        <time>2020-05-29T16:54:08.000Z</time>
      </trkpt>
      <trkpt lat="47.25521" lon="-1.38074">
        <ele>54</ele>
        <time>2020-05-29T16:54:10.000Z</time>
      </trkpt>
      <trkpt lat="47.25526" lon="-1.38095">
        <ele>54</ele>
        <time>2020-05-29T16:54:12.000Z</time>
      </trkpt>
      <trkpt lat="47.25533" lon="-1.38115">
        <ele>54</ele>
        <time>2020-05-29T16:54:14.000Z</time>
      </trkpt>
      <trkpt lat="47.25538" lon="-1.38136">
        <ele>54</ele>
        <time>2020-05-29T16:54:16.000Z</time>
      </trkpt>
      <trkpt lat="47.25542" lon="-1.38157">
        <ele>54</ele>
        <time>2020-05-29T16:54:18.000Z</time>
      </trkpt>
      <trkpt lat="47.25546" lon="-1.38178">
        <ele>54</ele>
        <time>2020-05-29T16:54:20.000Z</time>
      </trkpt>
      <trkpt lat="47.2555" lon="-1.38199">
        <ele>54</ele>
        <time>2020-05-29T16:54:22.000Z</time>
      </trkpt>
      <trkpt lat="47.25554" lon="-1.38222">
        <ele>54</ele>
        <time>2020-05-29T16:54:24.000Z</time>
      </trkpt>
      <trkpt lat="47.25556" lon="-1.38243">
        <ele>55</ele>
        <time>2020-05-29T16:54:26.000Z</time>
      </trkpt>
      <trkpt lat="47.25559" lon="-1.38265">
        <ele>55</ele>
        <time>2020-05-29T16:54:28.000Z</time>
      </trkpt>
      <trkpt lat="47.2556" lon="-1.38288">
        <ele>55</ele>
        <time>2020-05-29T16:54:30.000Z</time>
      </trkpt>
      <trkpt lat="47.25562" lon="-1.3831">
        <ele>55</ele>
        <time>2020-05-29T16:54:32.000Z</time>
      </trkpt>
      <trkpt lat="47.25562" lon="-1.38332">
        <ele>56</ele>
        <time>2020-05-29T16:54:34.000Z</time>
      </trkpt>
      <trkpt lat="47.25563" lon="-1.38355">
        <ele>56</ele>
        <time>2020-05-29T16:54:36.000Z</time>
      </trkpt>
      <trkpt lat="47.25563" lon="-1.38378">
        <ele>56</ele>
        <time>2020-05-29T16:54:38.000Z</time>
      </trkpt>
      <trkpt lat="47.25562" lon="-1.384">
        <ele>57</ele>
        <time>2020-05-29T16:54:40.000Z</time>
      </trkpt>
      <trkpt lat="47.25561" lon="-1.38423">
        <ele>57</ele>
        <time>2020-05-29T16:54:42.000Z</time>
      </trkpt>
      <trkpt lat="47.25561" lon="-1.38446">
        <ele>57</ele>
        <time>2020-05-29T16:54:44.000Z</time>
      </trkpt>
      <trkpt lat="47.2556" lon="-1.38469">
        <ele>57</ele>
        <time>2020-05-29T16:54:46.000Z</time>
      </trkpt>
      <trkpt lat="47.25559" lon="-1.38491">
        <ele>57</ele>
        <time>2020-05-29T16:54:48.000Z</time>
      </trkpt>
      <trkpt lat="47.25557" lon="-1.38514">
        <ele>57</ele>
        <time>2020-05-29T16:54:50.000Z</time>
      </trkpt>
      <trkpt lat="47.25556" lon="-1.38536">
        <ele>56</ele>
        <time>2020-05-29T16:54:52.000Z</time>
      </trkpt>
      <trkpt lat="47.25556" lon="-1.38558">
        <ele>56</ele>
        <time>2020-05-29T16:54:54.000Z</time>
      </trkpt>
      <trkpt lat="47.25555" lon="-1.38579">
        <ele>56</ele>
        <time>2020-05-29T16:54:56.000Z</time>
      </trkpt>
      <trkpt lat="47.25555" lon="-1.386">
        <ele>56</ele>
        <time>2020-05-29T16:54:58.000Z</time>
      </trkpt>
      <trkpt lat="47.25558" lon="-1.38618">
        <ele>56</ele>
        <time>2020-05-29T16:55:00.000Z</time>
      </trkpt>
      <trkpt lat="47.25563" lon="-1.38636">
        <ele>56</ele>
        <time>2020-05-29T16:55:02.000Z</time>
      </trkpt>
      <trkpt lat="47.25563" lon="-1.38657">
        <ele>56</ele>
        <time>2020-05-29T16:55:04.000Z</time>
      </trkpt>
      <trkpt lat="47.25554" lon="-1.38674">
        <ele>56</ele>
        <time>2020-05-29T16:55:06.000Z</time>
      </trkpt>
      <trkpt lat="47.25552" lon="-1.38694">
        <ele>55</ele>
        <time>2020-05-29T16:55:08.000Z</time>
      </trkpt>
      <trkpt lat="47.25551" lon="-1.38715">
        <ele>55</ele>
        <time>2020-05-29T16:55:10.000Z</time>
      </trkpt>
      <trkpt lat="47.25551" lon="-1.38737">
        <ele>55</ele>
        <time>2020-05-29T16:55:12.000Z</time>
      </trkpt>
      <trkpt lat="47.2555" lon="-1.3876">
        <ele>55</ele>
        <time>2020-05-29T16:55:14.000Z</time>
      </trkpt>
      <trkpt lat="47.2555" lon="-1.38783">
        <ele>55</ele>
        <time>2020-05-29T16:55:16.000Z</time>
      </trkpt>
      <trkpt lat="47.25549" lon="-1.38806">
        <ele>55</ele>
        <time>2020-05-29T16:55:18.000Z</time>
      </trkpt>
      <trkpt lat="47.25549" lon="-1.38829">
        <ele>55</ele>
        <time>2020-05-29T16:55:20.000Z</time>
      </trkpt>
      <trkpt lat="47.25548" lon="-1.38851">
        <ele>55</ele>
        <time>2020-05-29T16:55:22.000Z</time>
      </trkpt>
      <trkpt lat="47.25547" lon="-1.38873">
        <ele>55</ele>
        <time>2020-05-29T16:55:24.000Z</time>
      </trkpt>
      <trkpt lat="47.25547" lon="-1.38896">
        <ele>54</ele>
        <time>2020-05-29T16:55:26.000Z</time>
      </trkpt>
      <trkpt lat="47.25546" lon="-1.38919">
        <ele>55</ele>
        <time>2020-05-29T16:55:28.000Z</time>
      </trkpt>
      <trkpt lat="47.25545" lon="-1.38943">
        <ele>55</ele>
        <time>2020-05-29T16:55:30.000Z</time>
      </trkpt>
      <trkpt lat="47.25545" lon="-1.38966">
        <ele>55</ele>
        <time>2020-05-29T16:55:32.000Z</time>
      </trkpt>
      <trkpt lat="47.25543" lon="-1.38989">
        <ele>55</ele>
        <time>2020-05-29T16:55:34.000Z</time>
      </trkpt>
      <trkpt lat="47.25542" lon="-1.39013">
        <ele>55</ele>
        <time>2020-05-29T16:55:36.000Z</time>
      </trkpt>
      <trkpt lat="47.2554" lon="-1.39036">
        <ele>55</ele>
        <time>2020-05-29T16:55:38.000Z</time>
      </trkpt>
      <trkpt lat="47.25538" lon="-1.39059">
        <ele>56</ele>
        <time>2020-05-29T16:55:40.000Z</time>
      </trkpt>
      <trkpt lat="47.25535" lon="-1.39082">
        <ele>55</ele>
        <time>2020-05-29T16:55:42.000Z</time>
      </trkpt>
      <trkpt lat="47.25532" lon="-1.39104">
        <ele>55</ele>
        <time>2020-05-29T16:55:44.000Z</time>
      </trkpt>
      <trkpt lat="47.25528" lon="-1.39127">
        <ele>55</ele>
        <time>2020-05-29T16:55:46.000Z</time>
      </trkpt>
      <trkpt lat="47.25523" lon="-1.39148">
        <ele>55</ele>
        <time>2020-05-29T16:55:48.000Z</time>
      </trkpt>
      <trkpt lat="47.25518" lon="-1.39169">
        <ele>55</ele>
        <time>2020-05-29T16:55:50.000Z</time>
      </trkpt>
      <trkpt lat="47.25512" lon="-1.3919">
        <ele>56</ele>
        <time>2020-05-29T16:55:52.000Z</time>
      </trkpt>
      <trkpt lat="47.25507" lon="-1.39211">
        <ele>55</ele>
        <time>2020-05-29T16:55:54.000Z</time>
      </trkpt>
      <trkpt lat="47.25501" lon="-1.39231">
        <ele>56</ele>
        <time>2020-05-29T16:55:56.000Z</time>
      </trkpt>
      <trkpt lat="47.25494" lon="-1.39251">
        <ele>56</ele>
        <time>2020-05-29T16:55:58.000Z</time>
      </trkpt>
      <trkpt lat="47.25487" lon="-1.3927">
        <ele>56</ele>
        <time>2020-05-29T16:56:00.000Z</time>
      </trkpt>
      <trkpt lat="47.25481" lon="-1.39289">
        <ele>56</ele>
        <time>2020-05-29T16:56:02.000Z</time>
      </trkpt>
      <trkpt lat="47.25474" lon="-1.39308">
        <ele>56</ele>
        <time>2020-05-29T16:56:04.000Z</time>
      </trkpt>
      <trkpt lat="47.25467" lon="-1.39327">
        <ele>56</ele>
        <time>2020-05-29T16:56:06.000Z</time>
      </trkpt>
      <trkpt lat="47.2546" lon="-1.39347">
        <ele>56</ele>
        <time>2020-05-29T16:56:08.000Z</time>
      </trkpt>
      <trkpt lat="47.25453" lon="-1.39365">
        <ele>56</ele>
        <time>2020-05-29T16:56:10.000Z</time>
      </trkpt>
      <trkpt lat="47.25446" lon="-1.39384">
        <ele>55</ele>
        <time>2020-05-29T16:56:12.000Z</time>
      </trkpt>
      <trkpt lat="47.25439" lon="-1.39404">
        <ele>55</ele>
        <time>2020-05-29T16:56:14.000Z</time>
      </trkpt>
      <trkpt lat="47.25432" lon="-1.39422">
        <ele>55</ele>
        <time>2020-05-29T16:56:16.000Z</time>
      </trkpt>
      <trkpt lat="47.25426" lon="-1.39441">
        <ele>55</ele>
        <time>2020-05-29T16:56:18.000Z</time>
      </trkpt>
      <trkpt lat="47.2542" lon="-1.39461">
        <ele>55</ele>
        <time>2020-05-29T16:56:20.000Z</time>
      </trkpt>
      <trkpt lat="47.25415" lon="-1.39481">
        <ele>54</ele>
        <time>2020-05-29T16:56:22.000Z</time>
      </trkpt>
      <trkpt lat="47.2541" lon="-1.39502">
        <ele>54</ele>
        <time>2020-05-29T16:56:24.000Z</time>
      </trkpt>
      <trkpt lat="47.25406" lon="-1.39523">
        <ele>54</ele>
        <time>2020-05-29T16:56:26.000Z</time>
      </trkpt>
      <trkpt lat="47.25403" lon="-1.39545">
        <ele>54</ele>
        <time>2020-05-29T16:56:28.000Z</time>
      </trkpt>
      <trkpt lat="47.254" lon="-1.39567">
        <ele>55</ele>
        <time>2020-05-29T16:56:30.000Z</time>
      </trkpt>
      <trkpt lat="47.25398" lon="-1.39588">
        <ele>54</ele>
        <time>2020-05-29T16:56:32.000Z</time>
      </trkpt>
      <trkpt lat="47.25397" lon="-1.3961">
        <ele>54</ele>
        <time>2020-05-29T16:56:34.000Z</time>
      </trkpt>
      <trkpt lat="47.25398" lon="-1.39631">
        <ele>54</ele>
        <time>2020-05-29T16:56:36.000Z</time>
      </trkpt>
      <trkpt lat="47.25399" lon="-1.39652">
        <ele>55</ele>
        <time>2020-05-29T16:56:38.000Z</time>
      </trkpt>
      <trkpt lat="47.25401" lon="-1.39674">
        <ele>55</ele>
        <time>2020-05-29T16:56:40.000Z</time>
      </trkpt>
      <trkpt lat="47.25403" lon="-1.39695">
        <ele>55</ele>
        <time>2020-05-29T16:56:42.000Z</time>
      </trkpt>
      <trkpt lat="47.25406" lon="-1.39717">
        <ele>55</ele>
        <time>2020-05-29T16:56:44.000Z</time>
      </trkpt>
      <trkpt lat="47.25409" lon="-1.39737">
        <ele>56</ele>
        <time>2020-05-29T16:56:46.000Z</time>
      </trkpt>
      <trkpt lat="47.25411" lon="-1.39759">
        <ele>56</ele>
        <time>2020-05-29T16:56:48.000Z</time>
      </trkpt>
      <trkpt lat="47.25413" lon="-1.3978">
        <ele>56</ele>
        <time>2020-05-29T16:56:50.000Z</time>
      </trkpt>
      <trkpt lat="47.25415" lon="-1.39802">
        <ele>56</ele>
        <time>2020-05-29T16:56:52.000Z</time>
      </trkpt>
      <trkpt lat="47.25418" lon="-1.39824">
        <ele>56</ele>
        <time>2020-05-29T16:56:54.000Z</time>
      </trkpt>
      <trkpt lat="47.2542" lon="-1.39846">
        <ele>56</ele>
        <time>2020-05-29T16:56:56.000Z</time>
      </trkpt>
      <trkpt lat="47.25423" lon="-1.39869">
        <ele>56</ele>
        <time>2020-05-29T16:56:58.000Z</time>
      </trkpt>
      <trkpt lat="47.25425" lon="-1.39891">
        <ele>56</ele>
        <time>2020-05-29T16:57:00.000Z</time>
      </trkpt>
      <trkpt lat="47.25428" lon="-1.39913">
        <ele>56</ele>
        <time>2020-05-29T16:57:02.000Z</time>
      </trkpt>
      <trkpt lat="47.2543" lon="-1.39936">
        <ele>56</ele>
        <time>2020-05-29T16:57:04.000Z</time>
      </trkpt>
      <trkpt lat="47.25432" lon="-1.39958">
        <ele>56</ele>
        <time>2020-05-29T16:57:06.000Z</time>
      </trkpt>
      <trkpt lat="47.25434" lon="-1.3998">
        <ele>56</ele>
        <time>2020-05-29T16:57:08.000Z</time>
      </trkpt>
      <trkpt lat="47.25436" lon="-1.40002">
        <ele>56</ele>
        <time>2020-05-29T16:57:10.000Z</time>
      </trkpt>
      <trkpt lat="47.25439" lon="-1.40024">
        <ele>55</ele>
        <time>2020-05-29T16:57:12.000Z</time>
      </trkpt>
      <trkpt lat="47.25441" lon="-1.40046">
        <ele>55</ele>
        <time>2020-05-29T16:57:14.000Z</time>
      </trkpt>
      <trkpt lat="47.25443" lon="-1.40067">
        <ele>55</ele>
        <time>2020-05-29T16:57:16.000Z</time>
      </trkpt>
      <trkpt lat="47.25446" lon="-1.40089">
        <ele>55</ele>
        <time>2020-05-29T16:57:18.000Z</time>
      </trkpt>
      <trkpt lat="47.25449" lon="-1.4011">
        <ele>55</ele>
        <time>2020-05-29T16:57:20.000Z</time>
      </trkpt>
      <trkpt lat="47.25451" lon="-1.40132">
        <ele>55</ele>
        <time>2020-05-29T16:57:22.000Z</time>
      </trkpt>
      <trkpt lat="47.25454" lon="-1.40154">
        <ele>56</ele>
        <time>2020-05-29T16:57:24.000Z</time>
      </trkpt>
      <trkpt lat="47.25456" lon="-1.40175">
        <ele>55</ele>
        <time>2020-05-29T16:57:26.000Z</time>
      </trkpt>
      <trkpt lat="47.25459" lon="-1.40197">
        <ele>55</ele>
        <time>2020-05-29T16:57:28.000Z</time>
      </trkpt>
      <trkpt lat="47.25461" lon="-1.40218">
        <ele>55</ele>
        <time>2020-05-29T16:57:30.000Z</time>
      </trkpt>
      <trkpt lat="47.25464" lon="-1.4024">
        <ele>55</ele>
        <time>2020-05-29T16:57:32.000Z</time>
      </trkpt>
      <trkpt lat="47.25466" lon="-1.40261">
        <ele>55</ele>
        <time>2020-05-29T16:57:34.000Z</time>
      </trkpt>
      <trkpt lat="47.25469" lon="-1.40282">
        <ele>55</ele>
        <time>2020-05-29T16:57:36.000Z</time>
      </trkpt>
      <trkpt lat="47.25471" lon="-1.40303">
        <ele>55</ele>
        <time>2020-05-29T16:57:38.000Z</time>
      </trkpt>
      <trkpt lat="47.25473" lon="-1.40324">
        <ele>55</ele>
        <time>2020-05-29T16:57:40.000Z</time>
      </trkpt>
      <trkpt lat="47.25476" lon="-1.40344">
        <ele>55</ele>
        <time>2020-05-29T16:57:42.000Z</time>
      </trkpt>
      <trkpt lat="47.25478" lon="-1.40365">
        <ele>55</ele>
        <time>2020-05-29T16:57:44.000Z</time>
      </trkpt>
      <trkpt lat="47.2548" lon="-1.40386">
        <ele>55</ele>
        <time>2020-05-29T16:57:46.000Z</time>
      </trkpt>
      <trkpt lat="47.25482" lon="-1.40407">
        <ele>55</ele>
        <time>2020-05-29T16:57:48.000Z</time>
      </trkpt>
      <trkpt lat="47.25484" lon="-1.40429">
        <ele>55</ele>
        <time>2020-05-29T16:57:50.000Z</time>
      </trkpt>
      <trkpt lat="47.25486" lon="-1.4045">
        <ele>56</ele>
        <time>2020-05-29T16:57:52.000Z</time>
      </trkpt>
      <trkpt lat="47.25488" lon="-1.40471">
        <ele>56</ele>
        <time>2020-05-29T16:57:54.000Z</time>
      </trkpt>
      <trkpt lat="47.25491" lon="-1.40493">
        <ele>56</ele>
        <time>2020-05-29T16:57:56.000Z</time>
      </trkpt>
      <trkpt lat="47.25493" lon="-1.40513">
        <ele>56</ele>
        <time>2020-05-29T16:57:58.000Z</time>
      </trkpt>
      <trkpt lat="47.25495" lon="-1.40534">
        <ele>56</ele>
        <time>2020-05-29T16:58:00.000Z</time>
      </trkpt>
      <trkpt lat="47.25498" lon="-1.40554">
        <ele>56</ele>
        <time>2020-05-29T16:58:02.000Z</time>
      </trkpt>
      <trkpt lat="47.255" lon="-1.40574">
        <ele>56</ele>
        <time>2020-05-29T16:58:04.000Z</time>
      </trkpt>
      <trkpt lat="47.25502" lon="-1.40595">
        <ele>56</ele>
        <time>2020-05-29T16:58:06.000Z</time>
      </trkpt>
      <trkpt lat="47.25504" lon="-1.40616">
        <ele>55</ele>
        <time>2020-05-29T16:58:08.000Z</time>
      </trkpt>
      <trkpt lat="47.25507" lon="-1.40636">
        <ele>55</ele>
        <time>2020-05-29T16:58:10.000Z</time>
      </trkpt>
      <trkpt lat="47.25517" lon="-1.4065">
        <ele>55</ele>
        <time>2020-05-29T16:58:12.000Z</time>
      </trkpt>
      <trkpt lat="47.25525" lon="-1.40666">
        <ele>55</ele>
        <time>2020-05-29T16:58:14.000Z</time>
      </trkpt>
      <trkpt lat="47.25527" lon="-1.40686">
        <ele>55</ele>
        <time>2020-05-29T16:58:16.000Z</time>
      </trkpt>
      <trkpt lat="47.25529" lon="-1.40707">
        <ele>55</ele>
        <time>2020-05-29T16:58:18.000Z</time>
      </trkpt>
      <trkpt lat="47.25532" lon="-1.40728">
        <ele>55</ele>
        <time>2020-05-29T16:58:20.000Z</time>
      </trkpt>
      <trkpt lat="47.25533" lon="-1.40749">
        <ele>55</ele>
        <time>2020-05-29T16:58:22.000Z</time>
      </trkpt>
      <trkpt lat="47.25537" lon="-1.40771">
        <ele>55</ele>
        <time>2020-05-29T16:58:24.000Z</time>
      </trkpt>
      <trkpt lat="47.25539" lon="-1.40791">
        <ele>56</ele>
        <time>2020-05-29T16:58:26.000Z</time>
      </trkpt>
      <trkpt lat="47.25541" lon="-1.40812">
        <ele>56</ele>
        <time>2020-05-29T16:58:28.000Z</time>
      </trkpt>
      <trkpt lat="47.25544" lon="-1.40833">
        <ele>57</ele>
        <time>2020-05-29T16:58:30.000Z</time>
      </trkpt>
      <trkpt lat="47.25546" lon="-1.40854">
        <ele>56</ele>
        <time>2020-05-29T16:58:32.000Z</time>
      </trkpt>
      <trkpt lat="47.25548" lon="-1.40875">
        <ele>56</ele>
        <time>2020-05-29T16:58:34.000Z</time>
      </trkpt>
      <trkpt lat="47.25552" lon="-1.40896">
        <ele>55</ele>
        <time>2020-05-29T16:58:36.000Z</time>
      </trkpt>
      <trkpt lat="47.25555" lon="-1.40917">
        <ele>55</ele>
        <time>2020-05-29T16:58:38.000Z</time>
      </trkpt>
      <trkpt lat="47.25558" lon="-1.40937">
        <ele>55</ele>
        <time>2020-05-29T16:58:40.000Z</time>
      </trkpt>
      <trkpt lat="47.25562" lon="-1.40957">
        <ele>55</ele>
        <time>2020-05-29T16:58:42.000Z</time>
      </trkpt>
      <trkpt lat="47.25566" lon="-1.40976">
        <ele>55</ele>
        <time>2020-05-29T16:58:44.000Z</time>
      </trkpt>
      <trkpt lat="47.2557" lon="-1.40996">
        <ele>55</ele>
        <time>2020-05-29T16:58:46.000Z</time>
      </trkpt>
      <trkpt lat="47.25571" lon="-1.41016">
        <ele>55</ele>
        <time>2020-05-29T16:58:48.000Z</time>
      </trkpt>
      <trkpt lat="47.25567" lon="-1.41034">
        <ele>55</ele>
        <time>2020-05-29T16:58:50.000Z</time>
      </trkpt>
      <trkpt lat="47.25559" lon="-1.41046">
        <ele>55</ele>
        <time>2020-05-29T16:58:52.000Z</time>
      </trkpt>
      <trkpt lat="47.25558" lon="-1.41063">
        <ele>54</ele>
        <time>2020-05-29T16:58:54.000Z</time>
      </trkpt>
      <trkpt lat="47.25559" lon="-1.41082">
        <ele>54</ele>
        <time>2020-05-29T16:58:56.000Z</time>
      </trkpt>
      <trkpt lat="47.25563" lon="-1.41102">
        <ele>55</ele>
        <time>2020-05-29T16:58:58.000Z</time>
      </trkpt>
      <trkpt lat="47.25565" lon="-1.41123">
        <ele>54</ele>
        <time>2020-05-29T16:59:00.000Z</time>
      </trkpt>
      <trkpt lat="47.25566" lon="-1.41144">
        <ele>54</ele>
        <time>2020-05-29T16:59:02.000Z</time>
      </trkpt>
      <trkpt lat="47.25568" lon="-1.41165">
        <ele>55</ele>
        <time>2020-05-29T16:59:04.000Z</time>
      </trkpt>
      <trkpt lat="47.25572" lon="-1.41185">
        <ele>56</ele>
        <time>2020-05-29T16:59:06.000Z</time>
      </trkpt>
      <trkpt lat="47.25574" lon="-1.41205">
        <ele>55</ele>
        <time>2020-05-29T16:59:08.000Z</time>
      </trkpt>
      <trkpt lat="47.25577" lon="-1.41225">
        <ele>55</ele>
        <time>2020-05-29T16:59:10.000Z</time>
      </trkpt>
      <trkpt lat="47.2558" lon="-1.41244">
        <ele>55</ele>
        <time>2020-05-29T16:59:12.000Z</time>
      </trkpt>
      <trkpt lat="47.25582" lon="-1.41265">
        <ele>55</ele>
        <time>2020-05-29T16:59:14.000Z</time>
      </trkpt>
      <trkpt lat="47.25583" lon="-1.41287">
        <ele>56</ele>
        <time>2020-05-29T16:59:16.000Z</time>
      </trkpt>
      <trkpt lat="47.25586" lon="-1.41308">
        <ele>56</ele>
        <time>2020-05-29T16:59:18.000Z</time>
      </trkpt>
      <trkpt lat="47.25588" lon="-1.41328">
        <ele>56</ele>
        <time>2020-05-29T16:59:20.000Z</time>
      </trkpt>
      <trkpt lat="47.25591" lon="-1.41347">
        <ele>56</ele>
        <time>2020-05-29T16:59:22.000Z</time>
      </trkpt>
      <trkpt lat="47.25593" lon="-1.41367">
        <ele>55</ele>
        <time>2020-05-29T16:59:24.000Z</time>
      </trkpt>
      <trkpt lat="47.25595" lon="-1.41387">
        <ele>55</ele>
        <time>2020-05-29T16:59:26.000Z</time>
      </trkpt>
      <trkpt lat="47.25597" lon="-1.41407">
        <ele>55</ele>
        <time>2020-05-29T16:59:28.000Z</time>
      </trkpt>
      <trkpt lat="47.25597" lon="-1.41426">
        <ele>55</ele>
        <time>2020-05-29T16:59:30.000Z</time>
      </trkpt>
      <trkpt lat="47.25599" lon="-1.41445">
        <ele>55</ele>
        <time>2020-05-29T16:59:32.000Z</time>
      </trkpt>
      <trkpt lat="47.25602" lon="-1.41464">
        <ele>55</ele>
        <time>2020-05-29T16:59:34.000Z</time>
      </trkpt>
      <trkpt lat="47.25605" lon="-1.41485">
        <ele>55</ele>
        <time>2020-05-29T16:59:36.000Z</time>
      </trkpt>
      <trkpt lat="47.25608" lon="-1.41505">
        <ele>55</ele>
        <time>2020-05-29T16:59:38.000Z</time>
      </trkpt>
      <trkpt lat="47.2561" lon="-1.41525">
        <ele>55</ele>
        <time>2020-05-29T16:59:40.000Z</time>
      </trkpt>
      <trkpt lat="47.25609" lon="-1.41544">
        <ele>55</ele>
        <time>2020-05-29T16:59:42.000Z</time>
      </trkpt>
      <trkpt lat="47.2561" lon="-1.41563">
        <ele>56</ele>
        <time>2020-05-29T16:59:44.000Z</time>
      </trkpt>
      <trkpt lat="47.25613" lon="-1.41583">
        <ele>56</ele>
        <time>2020-05-29T16:59:46.000Z</time>
      </trkpt>
      <trkpt lat="47.25616" lon="-1.41602">
        <ele>56</ele>
        <time>2020-05-29T16:59:48.000Z</time>
      </trkpt>
      <trkpt lat="47.25618" lon="-1.41619">
        <ele>57</ele>
        <time>2020-05-29T16:59:50.000Z</time>
      </trkpt>
      <trkpt lat="47.25621" lon="-1.41636">
        <ele>57</ele>
        <time>2020-05-29T16:59:52.000Z</time>
      </trkpt>
      <trkpt lat="47.25623" lon="-1.41655">
        <ele>56</ele>
        <time>2020-05-29T16:59:54.000Z</time>
      </trkpt>
      <trkpt lat="47.25625" lon="-1.41676">
        <ele>56</ele>
        <time>2020-05-29T16:59:56.000Z</time>
      </trkpt>
      <trkpt lat="47.25627" lon="-1.41696">
        <ele>56</ele>
        <time>2020-05-29T16:59:58.000Z</time>
      </trkpt>
      <trkpt lat="47.25628" lon="-1.41716">
        <ele>56</ele>
        <time>2020-05-29T17:00:00.000Z</time>
      </trkpt>
      <trkpt lat="47.2563" lon="-1.41737">
        <ele>56</ele>
        <time>2020-05-29T17:00:02.000Z</time>
      </trkpt>
      <trkpt lat="47.25633" lon="-1.41757">
        <ele>56</ele>
        <time>2020-05-29T17:00:04.000Z</time>
      </trkpt>
      <trkpt lat="47.25635" lon="-1.41778">
        <ele>56</ele>
        <time>2020-05-29T17:00:06.000Z</time>
      </trkpt>
      <trkpt lat="47.25637" lon="-1.418">
        <ele>56</ele>
        <time>2020-05-29T17:00:08.000Z</time>
      </trkpt>
      <trkpt lat="47.25638" lon="-1.41819">
        <ele>57</ele>
        <time>2020-05-29T17:00:10.000Z</time>
      </trkpt>
      <trkpt lat="47.2564" lon="-1.41839">
        <ele>56</ele>
        <time>2020-05-29T17:00:12.000Z</time>
      </trkpt>
      <trkpt lat="47.25643" lon="-1.41858">
        <ele>57</ele>
        <time>2020-05-29T17:00:14.000Z</time>
      </trkpt>
      <trkpt lat="47.25645" lon="-1.41878">
        <ele>56</ele>
        <time>2020-05-29T17:00:16.000Z</time>
      </trkpt>
      <trkpt lat="47.25647" lon="-1.41897">
        <ele>56</ele>
        <time>2020-05-29T17:00:18.000Z</time>
      </trkpt>
      <trkpt lat="47.25649" lon="-1.41917">
        <ele>57</ele>
        <time>2020-05-29T17:00:20.000Z</time>
      </trkpt>
      <trkpt lat="47.25649" lon="-1.41935">
        <ele>57</ele>
        <time>2020-05-29T17:00:22.000Z</time>
      </trkpt>
      <trkpt lat="47.25652" lon="-1.41954">
        <ele>57</ele>
        <time>2020-05-29T17:00:24.000Z</time>
      </trkpt>
      <trkpt lat="47.25655" lon="-1.41974">
        <ele>56</ele>
        <time>2020-05-29T17:00:26.000Z</time>
      </trkpt>
      <trkpt lat="47.25659" lon="-1.41994">
        <ele>57</ele>
        <time>2020-05-29T17:00:28.000Z</time>
      </trkpt>
      <trkpt lat="47.2566" lon="-1.42015">
        <ele>57</ele>
        <time>2020-05-29T17:00:30.000Z</time>
      </trkpt>
      <trkpt lat="47.25662" lon="-1.42036">
        <ele>57</ele>
        <time>2020-05-29T17:00:32.000Z</time>
      </trkpt>
      <trkpt lat="47.25664" lon="-1.42056">
        <ele>57</ele>
        <time>2020-05-29T17:00:34.000Z</time>
      </trkpt>
      <trkpt lat="47.25667" lon="-1.42076">
        <ele>57</ele>
        <time>2020-05-29T17:00:36.000Z</time>
      </trkpt>
      <trkpt lat="47.25669" lon="-1.42095">
        <ele>57</ele>
        <time>2020-05-29T17:00:38.000Z</time>
      </trkpt>
      <trkpt lat="47.2567" lon="-1.42114">
        <ele>57</ele>
        <time>2020-05-29T17:00:40.000Z</time>
      </trkpt>
      <trkpt lat="47.25671" lon="-1.42132">
        <ele>57</ele>
        <time>2020-05-29T17:00:42.000Z</time>
      </trkpt>
      <trkpt lat="47.25669" lon="-1.42147">
        <ele>57</ele>
        <time>2020-05-29T17:00:44.000Z</time>
      </trkpt>
      <trkpt lat="47.2567" lon="-1.42164">
        <ele>57</ele>
        <time>2020-05-29T17:00:46.000Z</time>
      </trkpt>
      <trkpt lat="47.25673" lon="-1.42182">
        <ele>57</ele>
        <time>2020-05-29T17:00:48.000Z</time>
      </trkpt>
      <trkpt lat="47.25676" lon="-1.42203">
        <ele>56</ele>
        <time>2020-05-29T17:00:50.000Z</time>
      </trkpt>
      <trkpt lat="47.25677" lon="-1.42224">
        <ele>57</ele>
        <time>2020-05-29T17:00:52.000Z</time>
      </trkpt>
      <trkpt lat="47.25679" lon="-1.42245">
        <ele>57</ele>
        <time>2020-05-29T17:00:54.000Z</time>
      </trkpt>
      <trkpt lat="47.25682" lon="-1.42266">
        <ele>57</ele>
        <time>2020-05-29T17:00:56.000Z</time>
      </trkpt>
      <trkpt lat="47.25684" lon="-1.42287">
        <ele>56</ele>
        <time>2020-05-29T17:00:58.000Z</time>
      </trkpt>
      <trkpt lat="47.25687" lon="-1.42308">
        <ele>56</ele>
        <time>2020-05-29T17:01:00.000Z</time>
      </trkpt>
      <trkpt lat="47.25689" lon="-1.42328">
        <ele>56</ele>
        <time>2020-05-29T17:01:02.000Z</time>
      </trkpt>
      <trkpt lat="47.25691" lon="-1.42348">
        <ele>56</ele>
        <time>2020-05-29T17:01:04.000Z</time>
      </trkpt>
      <trkpt lat="47.25693" lon="-1.42369">
        <ele>56</ele>
        <time>2020-05-29T17:01:06.000Z</time>
      </trkpt>
      <trkpt lat="47.25695" lon="-1.42389">
        <ele>56</ele>
        <time>2020-05-29T17:01:08.000Z</time>
      </trkpt>
      <trkpt lat="47.25697" lon="-1.42409">
        <ele>56</ele>
        <time>2020-05-29T17:01:10.000Z</time>
      </trkpt>
      <trkpt lat="47.25699" lon="-1.42428">
        <ele>56</ele>
        <time>2020-05-29T17:01:12.000Z</time>
      </trkpt>
      <trkpt lat="47.25702" lon="-1.42449">
        <ele>56</ele>
        <time>2020-05-29T17:01:14.000Z</time>
      </trkpt>
      <trkpt lat="47.25704" lon="-1.42468">
        <ele>56</ele>
        <time>2020-05-29T17:01:16.000Z</time>
      </trkpt>
      <trkpt lat="47.25706" lon="-1.42488">
        <ele>56</ele>
        <time>2020-05-29T17:01:18.000Z</time>
      </trkpt>
      <trkpt lat="47.25709" lon="-1.42507">
        <ele>56</ele>
        <time>2020-05-29T17:01:20.000Z</time>
      </trkpt>
      <trkpt lat="47.25711" lon="-1.42526">
        <ele>56</ele>
        <time>2020-05-29T17:01:22.000Z</time>
      </trkpt>
      <trkpt lat="47.25712" lon="-1.42544">
        <ele>57</ele>
        <time>2020-05-29T17:01:24.000Z</time>
      </trkpt>
      <trkpt lat="47.25714" lon="-1.42561">
        <ele>57</ele>
        <time>2020-05-29T17:01:26.000Z</time>
      </trkpt>
      <trkpt lat="47.25717" lon="-1.42577">
        <ele>58</ele>
        <time>2020-05-29T17:01:28.000Z</time>
      </trkpt>
      <trkpt lat="47.2572" lon="-1.4259">
        <ele>58</ele>
        <time>2020-05-29T17:01:30.000Z</time>
      </trkpt>
      <trkpt lat="47.25729" lon="-1.42606">
        <ele>59</ele>
        <time>2020-05-29T17:01:33.000Z</time>
      </trkpt>
      <trkpt lat="47.25735" lon="-1.42621">
        <ele>60</ele>
        <time>2020-05-29T17:01:35.000Z</time>
      </trkpt>
      <trkpt lat="47.25739" lon="-1.42637">
        <ele>60</ele>
        <time>2020-05-29T17:01:37.000Z</time>
      </trkpt>
      <trkpt lat="47.25745" lon="-1.42651">
        <ele>60</ele>
        <time>2020-05-29T17:01:39.000Z</time>
      </trkpt>
      <trkpt lat="47.25752" lon="-1.42666">
        <ele>60</ele>
        <time>2020-05-29T17:01:41.000Z</time>
      </trkpt>
      <trkpt lat="47.25758" lon="-1.42681">
        <ele>60</ele>
        <time>2020-05-29T17:01:43.000Z</time>
      </trkpt>
      <trkpt lat="47.25764" lon="-1.42695">
        <ele>61</ele>
        <time>2020-05-29T17:01:45.000Z</time>
      </trkpt>
      <trkpt lat="47.25769" lon="-1.42709">
        <ele>61</ele>
        <time>2020-05-29T17:01:47.000Z</time>
      </trkpt>
      <trkpt lat="47.25775" lon="-1.42725">
        <ele>62</ele>
        <time>2020-05-29T17:01:49.000Z</time>
      </trkpt>
      <trkpt lat="47.25781" lon="-1.4274">
        <ele>62</ele>
        <time>2020-05-29T17:01:51.000Z</time>
      </trkpt>
      <trkpt lat="47.25787" lon="-1.42755">
        <ele>62</ele>
        <time>2020-05-29T17:01:53.000Z</time>
      </trkpt>
      <trkpt lat="47.25793" lon="-1.42771">
        <ele>63</ele>
        <time>2020-05-29T17:01:55.000Z</time>
      </trkpt>
      <trkpt lat="47.258" lon="-1.42786">
        <ele>63</ele>
        <time>2020-05-29T17:01:57.000Z</time>
      </trkpt>
      <trkpt lat="47.25806" lon="-1.42801">
        <ele>63</ele>
        <time>2020-05-29T17:01:59.000Z</time>
      </trkpt>
      <trkpt lat="47.25812" lon="-1.42815">
        <ele>63</ele>
        <time>2020-05-29T17:02:01.000Z</time>
      </trkpt>
      <trkpt lat="47.25818" lon="-1.4283">
        <ele>64</ele>
        <time>2020-05-29T17:02:03.000Z</time>
      </trkpt>
      <trkpt lat="47.25824" lon="-1.42846">
        <ele>64</ele>
        <time>2020-05-29T17:02:05.000Z</time>
      </trkpt>
      <trkpt lat="47.2583" lon="-1.42861">
        <ele>64</ele>
        <time>2020-05-29T17:02:07.000Z</time>
      </trkpt>
      <trkpt lat="47.25836" lon="-1.42877">
        <ele>64</ele>
        <time>2020-05-29T17:02:09.000Z</time>
      </trkpt>
      <trkpt lat="47.25842" lon="-1.42892">
        <ele>64</ele>
        <time>2020-05-29T17:02:11.000Z</time>
      </trkpt>
      <trkpt lat="47.25849" lon="-1.42907">
        <ele>63</ele>
        <time>2020-05-29T17:02:13.000Z</time>
      </trkpt>
      <trkpt lat="47.25856" lon="-1.42925">
        <ele>62</ele>
        <time>2020-05-29T17:02:15.000Z</time>
      </trkpt>
      <trkpt lat="47.25864" lon="-1.42943">
        <ele>61</ele>
        <time>2020-05-29T17:02:17.000Z</time>
      </trkpt>
      <trkpt lat="47.25871" lon="-1.42961">
        <ele>60</ele>
        <time>2020-05-29T17:02:19.000Z</time>
      </trkpt>
      <trkpt lat="47.25879" lon="-1.42979">
        <ele>59</ele>
        <time>2020-05-29T17:02:21.000Z</time>
      </trkpt>
      <trkpt lat="47.25887" lon="-1.42998">
        <ele>59</ele>
        <time>2020-05-29T17:02:23.000Z</time>
      </trkpt>
      <trkpt lat="47.25895" lon="-1.43018">
        <ele>58</ele>
        <time>2020-05-29T17:02:25.000Z</time>
      </trkpt>
      <trkpt lat="47.25902" lon="-1.43036">
        <ele>58</ele>
        <time>2020-05-29T17:02:27.000Z</time>
      </trkpt>
      <trkpt lat="47.2591" lon="-1.43055">
        <ele>58</ele>
        <time>2020-05-29T17:02:29.000Z</time>
      </trkpt>
      <trkpt lat="47.25917" lon="-1.43073">
        <ele>58</ele>
        <time>2020-05-29T17:02:31.000Z</time>
      </trkpt>
      <trkpt lat="47.25925" lon="-1.4309">
        <ele>58</ele>
        <time>2020-05-29T17:02:33.000Z</time>
      </trkpt>
      <trkpt lat="47.25933" lon="-1.43108">
        <ele>58</ele>
        <time>2020-05-29T17:02:35.000Z</time>
      </trkpt>
      <trkpt lat="47.25941" lon="-1.43123">
        <ele>58</ele>
        <time>2020-05-29T17:02:37.000Z</time>
      </trkpt>
      <trkpt lat="47.25951" lon="-1.43138">
        <ele>58</ele>
        <time>2020-05-29T17:02:39.000Z</time>
      </trkpt>
      <trkpt lat="47.25961" lon="-1.43152">
        <ele>59</ele>
        <time>2020-05-29T17:02:41.000Z</time>
      </trkpt>
      <trkpt lat="47.2597" lon="-1.43166">
        <ele>59</ele>
        <time>2020-05-29T17:02:43.000Z</time>
      </trkpt>
      <trkpt lat="47.25978" lon="-1.43179">
        <ele>60</ele>
        <time>2020-05-29T17:02:45.000Z</time>
      </trkpt>
      <trkpt lat="47.25987" lon="-1.43191">
        <ele>60</ele>
        <time>2020-05-29T17:02:47.000Z</time>
      </trkpt>
      <trkpt lat="47.25996" lon="-1.43203">
        <ele>60</ele>
        <time>2020-05-29T17:02:49.000Z</time>
      </trkpt>
      <trkpt lat="47.26005" lon="-1.43216">
        <ele>61</ele>
        <time>2020-05-29T17:02:51.000Z</time>
      </trkpt>
      <trkpt lat="47.26014" lon="-1.43229">
        <ele>60</ele>
        <time>2020-05-29T17:02:53.000Z</time>
      </trkpt>
      <trkpt lat="47.26022" lon="-1.43242">
        <ele>61</ele>
        <time>2020-05-29T17:02:55.000Z</time>
      </trkpt>
      <trkpt lat="47.26031" lon="-1.43254">
        <ele>62</ele>
        <time>2020-05-29T17:02:57.000Z</time>
      </trkpt>
      <trkpt lat="47.26039" lon="-1.43266">
        <ele>62</ele>
        <time>2020-05-29T17:02:59.000Z</time>
      </trkpt>
      <trkpt lat="47.26048" lon="-1.43279">
        <ele>62</ele>
        <time>2020-05-29T17:03:01.000Z</time>
      </trkpt>
      <trkpt lat="47.26057" lon="-1.43291">
        <ele>63</ele>
        <time>2020-05-29T17:03:03.000Z</time>
      </trkpt>
      <trkpt lat="47.26066" lon="-1.43305">
        <ele>63</ele>
        <time>2020-05-29T17:03:05.000Z</time>
      </trkpt>
      <trkpt lat="47.26075" lon="-1.43317">
        <ele>63</ele>
        <time>2020-05-29T17:03:07.000Z</time>
      </trkpt>
      <trkpt lat="47.26083" lon="-1.4333">
        <ele>63</ele>
        <time>2020-05-29T17:03:09.000Z</time>
      </trkpt>
      <trkpt lat="47.26092" lon="-1.43342">
        <ele>63</ele>
        <time>2020-05-29T17:03:11.000Z</time>
      </trkpt>
      <trkpt lat="47.26101" lon="-1.43354">
        <ele>63</ele>
        <time>2020-05-29T17:03:13.000Z</time>
      </trkpt>
      <trkpt lat="47.26109" lon="-1.43367">
        <ele>63</ele>
        <time>2020-05-29T17:03:15.000Z</time>
      </trkpt>
      <trkpt lat="47.26118" lon="-1.43379">
        <ele>63</ele>
        <time>2020-05-29T17:03:17.000Z</time>
      </trkpt>
      <trkpt lat="47.26127" lon="-1.43392">
        <ele>64</ele>
        <time>2020-05-29T17:03:19.000Z</time>
      </trkpt>
      <trkpt lat="47.26137" lon="-1.43406">
        <ele>64</ele>
        <time>2020-05-29T17:03:21.000Z</time>
      </trkpt>
      <trkpt lat="47.26146" lon="-1.4342">
        <ele>63</ele>
        <time>2020-05-29T17:03:23.000Z</time>
      </trkpt>
      <trkpt lat="47.26155" lon="-1.43435">
        <ele>63</ele>
        <time>2020-05-29T17:03:25.000Z</time>
      </trkpt>
      <trkpt lat="47.26165" lon="-1.43449">
        <ele>62</ele>
        <time>2020-05-29T17:03:27.000Z</time>
      </trkpt>
      <trkpt lat="47.26175" lon="-1.43463">
        <ele>62</ele>
        <time>2020-05-29T17:03:29.000Z</time>
      </trkpt>
      <trkpt lat="47.26185" lon="-1.43476">
        <ele>62</ele>
        <time>2020-05-29T17:03:31.000Z</time>
      </trkpt>
      <trkpt lat="47.26195" lon="-1.43489">
        <ele>62</ele>
        <time>2020-05-29T17:03:33.000Z</time>
      </trkpt>
      <trkpt lat="47.26204" lon="-1.43503">
        <ele>62</ele>
        <time>2020-05-29T17:03:35.000Z</time>
      </trkpt>
      <trkpt lat="47.26214" lon="-1.43518">
        <ele>61</ele>
        <time>2020-05-29T17:03:37.000Z</time>
      </trkpt>
      <trkpt lat="47.26223" lon="-1.43532">
        <ele>61</ele>
        <time>2020-05-29T17:03:39.000Z</time>
      </trkpt>
      <trkpt lat="47.26232" lon="-1.43547">
        <ele>60</ele>
        <time>2020-05-29T17:03:41.000Z</time>
      </trkpt>
      <trkpt lat="47.26235" lon="-1.43565">
        <ele>60</ele>
        <time>2020-05-29T17:03:43.000Z</time>
      </trkpt>
      <trkpt lat="47.26224" lon="-1.43581">
        <ele>59</ele>
        <time>2020-05-29T17:03:45.000Z</time>
      </trkpt>
      <trkpt lat="47.26212" lon="-1.43597">
        <ele>57</ele>
        <time>2020-05-29T17:03:47.000Z</time>
      </trkpt>
      <trkpt lat="47.262" lon="-1.43613">
        <ele>56</ele>
        <time>2020-05-29T17:03:49.000Z</time>
      </trkpt>
      <trkpt lat="47.26187" lon="-1.4363">
        <ele>56</ele>
        <time>2020-05-29T17:03:51.000Z</time>
      </trkpt>
      <trkpt lat="47.26176" lon="-1.43647">
        <ele>55</ele>
        <time>2020-05-29T17:03:53.000Z</time>
      </trkpt>
      <trkpt lat="47.26165" lon="-1.43665">
        <ele>55</ele>
        <time>2020-05-29T17:03:55.000Z</time>
      </trkpt>
      <trkpt lat="47.26154" lon="-1.4368">
        <ele>55</ele>
        <time>2020-05-29T17:03:57.000Z</time>
      </trkpt>
      <trkpt lat="47.26143" lon="-1.43696">
        <ele>55</ele>
        <time>2020-05-29T17:03:59.000Z</time>
      </trkpt>
      <trkpt lat="47.26133" lon="-1.43712">
        <ele>56</ele>
        <time>2020-05-29T17:04:01.000Z</time>
      </trkpt>
      <trkpt lat="47.26124" lon="-1.43727">
        <ele>55</ele>
        <time>2020-05-29T17:04:03.000Z</time>
      </trkpt>
      <trkpt lat="47.26114" lon="-1.43743">
        <ele>55</ele>
        <time>2020-05-29T17:04:05.000Z</time>
      </trkpt>
      <trkpt lat="47.26103" lon="-1.43756">
        <ele>54</ele>
        <time>2020-05-29T17:04:07.000Z</time>
      </trkpt>
      <trkpt lat="47.26092" lon="-1.4377">
        <ele>54</ele>
        <time>2020-05-29T17:04:09.000Z</time>
      </trkpt>
      <trkpt lat="47.26081" lon="-1.43784">
        <ele>54</ele>
        <time>2020-05-29T17:04:11.000Z</time>
      </trkpt>
      <trkpt lat="47.2607" lon="-1.43798">
        <ele>54</ele>
        <time>2020-05-29T17:04:13.000Z</time>
      </trkpt>
      <trkpt lat="47.26059" lon="-1.43815">
        <ele>53</ele>
        <time>2020-05-29T17:04:15.000Z</time>
      </trkpt>
      <trkpt lat="47.26051" lon="-1.43834">
        <ele>53</ele>
        <time>2020-05-29T17:04:17.000Z</time>
      </trkpt>
      <trkpt lat="47.26044" lon="-1.43852">
        <ele>54</ele>
        <time>2020-05-29T17:04:19.000Z</time>
      </trkpt>
      <trkpt lat="47.26033" lon="-1.43865">
        <ele>54</ele>
        <time>2020-05-29T17:04:21.000Z</time>
      </trkpt>
      <trkpt lat="47.26022" lon="-1.43877">
        <ele>54</ele>
        <time>2020-05-29T17:04:23.000Z</time>
      </trkpt>
      <trkpt lat="47.2601" lon="-1.43889">
        <ele>54</ele>
        <time>2020-05-29T17:04:25.000Z</time>
      </trkpt>
      <trkpt lat="47.25999" lon="-1.43901">
        <ele>55</ele>
        <time>2020-05-29T17:04:27.000Z</time>
      </trkpt>
      <trkpt lat="47.25987" lon="-1.43914">
        <ele>54</ele>
        <time>2020-05-29T17:04:29.000Z</time>
      </trkpt>
      <trkpt lat="47.25975" lon="-1.43929">
        <ele>54</ele>
        <time>2020-05-29T17:04:31.000Z</time>
      </trkpt>
      <trkpt lat="47.25965" lon="-1.43942">
        <ele>54</ele>
        <time>2020-05-29T17:04:33.000Z</time>
      </trkpt>
      <trkpt lat="47.25954" lon="-1.43956">
        <ele>55</ele>
        <time>2020-05-29T17:04:35.000Z</time>
      </trkpt>
      <trkpt lat="47.25943" lon="-1.43969">
        <ele>55</ele>
        <time>2020-05-29T17:04:37.000Z</time>
      </trkpt>
      <trkpt lat="47.25932" lon="-1.43982">
        <ele>56</ele>
        <time>2020-05-29T17:04:39.000Z</time>
      </trkpt>
      <trkpt lat="47.25921" lon="-1.43994">
        <ele>56</ele>
        <time>2020-05-29T17:04:41.000Z</time>
      </trkpt>
      <trkpt lat="47.25909" lon="-1.44006">
        <ele>56</ele>
        <time>2020-05-29T17:04:43.000Z</time>
      </trkpt>
      <trkpt lat="47.25897" lon="-1.4402">
        <ele>56</ele>
        <time>2020-05-29T17:04:45.000Z</time>
      </trkpt>
      <trkpt lat="47.25886" lon="-1.44034">
        <ele>56</ele>
        <time>2020-05-29T17:04:47.000Z</time>
      </trkpt>
      <trkpt lat="47.25878" lon="-1.44051">
        <ele>56</ele>
        <time>2020-05-29T17:04:49.000Z</time>
      </trkpt>
      <trkpt lat="47.25873" lon="-1.44069">
        <ele>55</ele>
        <time>2020-05-29T17:04:51.000Z</time>
      </trkpt>
      <trkpt lat="47.25865" lon="-1.44086">
        <ele>54</ele>
        <time>2020-05-29T17:04:53.000Z</time>
      </trkpt>
      <trkpt lat="47.25855" lon="-1.44099">
        <ele>55</ele>
        <time>2020-05-29T17:04:55.000Z</time>
      </trkpt>
      <trkpt lat="47.25845" lon="-1.44112">
        <ele>55</ele>
        <time>2020-05-29T17:04:57.000Z</time>
      </trkpt>
      <trkpt lat="47.25833" lon="-1.44123">
        <ele>56</ele>
        <time>2020-05-29T17:04:59.000Z</time>
      </trkpt>
      <trkpt lat="47.25822" lon="-1.44135">
        <ele>55</ele>
        <time>2020-05-29T17:05:01.000Z</time>
      </trkpt>
      <trkpt lat="47.2581" lon="-1.44148">
        <ele>55</ele>
        <time>2020-05-29T17:05:03.000Z</time>
      </trkpt>
      <trkpt lat="47.25798" lon="-1.44162">
        <ele>56</ele>
        <time>2020-05-29T17:05:05.000Z</time>
      </trkpt>
      <trkpt lat="47.25786" lon="-1.44175">
        <ele>55</ele>
        <time>2020-05-29T17:05:07.000Z</time>
      </trkpt>
      <trkpt lat="47.25775" lon="-1.44188">
        <ele>55</ele>
        <time>2020-05-29T17:05:09.000Z</time>
      </trkpt>
      <trkpt lat="47.25764" lon="-1.44202">
        <ele>55</ele>
        <time>2020-05-29T17:05:11.000Z</time>
      </trkpt>
      <trkpt lat="47.25754" lon="-1.44215">
        <ele>55</ele>
        <time>2020-05-29T17:05:13.000Z</time>
      </trkpt>
      <trkpt lat="47.25743" lon="-1.44229">
        <ele>56</ele>
        <time>2020-05-29T17:05:15.000Z</time>
      </trkpt>
      <trkpt lat="47.25733" lon="-1.44243">
        <ele>55</ele>
        <time>2020-05-29T17:05:17.000Z</time>
      </trkpt>
      <trkpt lat="47.25723" lon="-1.44256">
        <ele>55</ele>
        <time>2020-05-29T17:05:19.000Z</time>
      </trkpt>
      <trkpt lat="47.25712" lon="-1.44268">
        <ele>55</ele>
        <time>2020-05-29T17:05:21.000Z</time>
      </trkpt>
      <trkpt lat="47.25701" lon="-1.44281">
        <ele>55</ele>
        <time>2020-05-29T17:05:23.000Z</time>
      </trkpt>
      <trkpt lat="47.2569" lon="-1.44294">
        <ele>55</ele>
        <time>2020-05-29T17:05:25.000Z</time>
      </trkpt>
      <trkpt lat="47.25679" lon="-1.44308">
        <ele>55</ele>
        <time>2020-05-29T17:05:27.000Z</time>
      </trkpt>
      <trkpt lat="47.25669" lon="-1.44321">
        <ele>55</ele>
        <time>2020-05-29T17:05:29.000Z</time>
      </trkpt>
      <trkpt lat="47.25658" lon="-1.44333">
        <ele>56</ele>
        <time>2020-05-29T17:05:31.000Z</time>
      </trkpt>
      <trkpt lat="47.25646" lon="-1.44347">
        <ele>56</ele>
        <time>2020-05-29T17:05:33.000Z</time>
      </trkpt>
      <trkpt lat="47.25634" lon="-1.4436">
        <ele>56</ele>
        <time>2020-05-29T17:05:35.000Z</time>
      </trkpt>
      <trkpt lat="47.25622" lon="-1.44374">
        <ele>55</ele>
        <time>2020-05-29T17:05:37.000Z</time>
      </trkpt>
      <trkpt lat="47.2561" lon="-1.44387">
        <ele>55</ele>
        <time>2020-05-29T17:05:39.000Z</time>
      </trkpt>
      <trkpt lat="47.25599" lon="-1.44401">
        <ele>55</ele>
        <time>2020-05-29T17:05:41.000Z</time>
      </trkpt>
      <trkpt lat="47.25587" lon="-1.44415">
        <ele>55</ele>
        <time>2020-05-29T17:05:43.000Z</time>
      </trkpt>
      <trkpt lat="47.25576" lon="-1.4443">
        <ele>55</ele>
        <time>2020-05-29T17:05:45.000Z</time>
      </trkpt>
      <trkpt lat="47.25565" lon="-1.44444">
        <ele>55</ele>
        <time>2020-05-29T17:05:47.000Z</time>
      </trkpt>
      <trkpt lat="47.25555" lon="-1.44459">
        <ele>55</ele>
        <time>2020-05-29T17:05:49.000Z</time>
      </trkpt>
      <trkpt lat="47.25544" lon="-1.44474">
        <ele>55</ele>
        <time>2020-05-29T17:05:51.000Z</time>
      </trkpt>
      <trkpt lat="47.25534" lon="-1.4449">
        <ele>56</ele>
        <time>2020-05-29T17:05:53.000Z</time>
      </trkpt>
      <trkpt lat="47.25524" lon="-1.44506">
        <ele>56</ele>
        <time>2020-05-29T17:05:55.000Z</time>
      </trkpt>
      <trkpt lat="47.25513" lon="-1.44521">
        <ele>56</ele>
        <time>2020-05-29T17:05:57.000Z</time>
      </trkpt>
      <trkpt lat="47.25501" lon="-1.44536">
        <ele>56</ele>
        <time>2020-05-29T17:05:59.000Z</time>
      </trkpt>
      <trkpt lat="47.2549" lon="-1.44552">
        <ele>55</ele>
        <time>2020-05-29T17:06:01.000Z</time>
      </trkpt>
      <trkpt lat="47.2548" lon="-1.44567">
        <ele>56</ele>
        <time>2020-05-29T17:06:03.000Z</time>
      </trkpt>
      <trkpt lat="47.2547" lon="-1.44583">
        <ele>56</ele>
        <time>2020-05-29T17:06:05.000Z</time>
      </trkpt>
      <trkpt lat="47.25461" lon="-1.44599">
        <ele>56</ele>
        <time>2020-05-29T17:06:07.000Z</time>
      </trkpt>
      <trkpt lat="47.25451" lon="-1.44614">
        <ele>56</ele>
        <time>2020-05-29T17:06:09.000Z</time>
      </trkpt>
      <trkpt lat="47.2544" lon="-1.44628">
        <ele>56</ele>
        <time>2020-05-29T17:06:11.000Z</time>
      </trkpt>
      <trkpt lat="47.25429" lon="-1.44642">
        <ele>56</ele>
        <time>2020-05-29T17:06:13.000Z</time>
      </trkpt>
      <trkpt lat="47.25419" lon="-1.44656">
        <ele>56</ele>
        <time>2020-05-29T17:06:15.000Z</time>
      </trkpt>
      <trkpt lat="47.25408" lon="-1.44671">
        <ele>55</ele>
        <time>2020-05-29T17:06:17.000Z</time>
      </trkpt>
      <trkpt lat="47.25397" lon="-1.44685">
        <ele>54</ele>
        <time>2020-05-29T17:06:19.000Z</time>
      </trkpt>
      <trkpt lat="47.25386" lon="-1.44699">
        <ele>54</ele>
        <time>2020-05-29T17:06:21.000Z</time>
      </trkpt>
      <trkpt lat="47.25375" lon="-1.44712">
        <ele>53</ele>
        <time>2020-05-29T17:06:23.000Z</time>
      </trkpt>
      <trkpt lat="47.25363" lon="-1.44725">
        <ele>54</ele>
        <time>2020-05-29T17:06:25.000Z</time>
      </trkpt>
      <trkpt lat="47.25351" lon="-1.44737">
        <ele>53</ele>
        <time>2020-05-29T17:06:27.000Z</time>
      </trkpt>
      <trkpt lat="47.25338" lon="-1.44749">
        <ele>53</ele>
        <time>2020-05-29T17:06:29.000Z</time>
      </trkpt>
      <trkpt lat="47.25326" lon="-1.44761">
        <ele>53</ele>
        <time>2020-05-29T17:06:31.000Z</time>
      </trkpt>
      <trkpt lat="47.25314" lon="-1.44773">
        <ele>53</ele>
        <time>2020-05-29T17:06:33.000Z</time>
      </trkpt>
      <trkpt lat="47.25303" lon="-1.44785">
        <ele>53</ele>
        <time>2020-05-29T17:06:35.000Z</time>
      </trkpt>
      <trkpt lat="47.25292" lon="-1.44797">
        <ele>53</ele>
        <time>2020-05-29T17:06:37.000Z</time>
      </trkpt>
      <trkpt lat="47.25282" lon="-1.44809">
        <ele>53</ele>
        <time>2020-05-29T17:06:39.000Z</time>
      </trkpt>
      <trkpt lat="47.25271" lon="-1.44822">
        <ele>53</ele>
        <time>2020-05-29T17:06:41.000Z</time>
      </trkpt>
      <trkpt lat="47.2526" lon="-1.44834">
        <ele>53</ele>
        <time>2020-05-29T17:06:43.000Z</time>
      </trkpt>
      <trkpt lat="47.25249" lon="-1.44848">
        <ele>53</ele>
        <time>2020-05-29T17:06:45.000Z</time>
      </trkpt>
      <trkpt lat="47.25239" lon="-1.4486">
        <ele>53</ele>
        <time>2020-05-29T17:06:47.000Z</time>
      </trkpt>
      <trkpt lat="47.25226" lon="-1.44872">
        <ele>54</ele>
        <time>2020-05-29T17:06:49.000Z</time>
      </trkpt>
      <trkpt lat="47.25213" lon="-1.44883">
        <ele>54</ele>
        <time>2020-05-29T17:06:51.000Z</time>
      </trkpt>
      <trkpt lat="47.252" lon="-1.44895">
        <ele>54</ele>
        <time>2020-05-29T17:06:53.000Z</time>
      </trkpt>
      <trkpt lat="47.25185" lon="-1.44906">
        <ele>54</ele>
        <time>2020-05-29T17:06:55.000Z</time>
      </trkpt>
      <trkpt lat="47.25171" lon="-1.44919">
        <ele>53</ele>
        <time>2020-05-29T17:06:57.000Z</time>
      </trkpt>
      <trkpt lat="47.25157" lon="-1.44931">
        <ele>52</ele>
        <time>2020-05-29T17:06:59.000Z</time>
      </trkpt>
      <trkpt lat="47.25145" lon="-1.44942">
        <ele>52</ele>
        <time>2020-05-29T17:07:01.000Z</time>
      </trkpt>
      <trkpt lat="47.25133" lon="-1.44953">
        <ele>52</ele>
        <time>2020-05-29T17:07:03.000Z</time>
      </trkpt>
      <trkpt lat="47.2512" lon="-1.44965">
        <ele>51</ele>
        <time>2020-05-29T17:07:05.000Z</time>
      </trkpt>
      <trkpt lat="47.25108" lon="-1.44976">
        <ele>52</ele>
        <time>2020-05-29T17:07:07.000Z</time>
      </trkpt>
      <trkpt lat="47.25096" lon="-1.44987">
        <ele>52</ele>
        <time>2020-05-29T17:07:09.000Z</time>
      </trkpt>
      <trkpt lat="47.25084" lon="-1.44997">
        <ele>52</ele>
        <time>2020-05-29T17:07:11.000Z</time>
      </trkpt>
      <trkpt lat="47.25072" lon="-1.45007">
        <ele>53</ele>
        <time>2020-05-29T17:07:13.000Z</time>
      </trkpt>
      <trkpt lat="47.25059" lon="-1.45016">
        <ele>54</ele>
        <time>2020-05-29T17:07:15.000Z</time>
      </trkpt>
      <trkpt lat="47.25046" lon="-1.45026">
        <ele>55</ele>
        <time>2020-05-29T17:07:17.000Z</time>
      </trkpt>
      <trkpt lat="47.25034" lon="-1.45035">
        <ele>55</ele>
        <time>2020-05-29T17:07:19.000Z</time>
      </trkpt>
      <trkpt lat="47.25022" lon="-1.45045">
        <ele>55</ele>
        <time>2020-05-29T17:07:21.000Z</time>
      </trkpt>
      <trkpt lat="47.25009" lon="-1.45056">
        <ele>54</ele>
        <time>2020-05-29T17:07:23.000Z</time>
      </trkpt>
      <trkpt lat="47.24997" lon="-1.45068">
        <ele>54</ele>
        <time>2020-05-29T17:07:25.000Z</time>
      </trkpt>
      <trkpt lat="47.24986" lon="-1.45082">
        <ele>53</ele>
        <time>2020-05-29T17:07:27.000Z</time>
      </trkpt>
      <trkpt lat="47.24975" lon="-1.45095">
        <ele>52</ele>
        <time>2020-05-29T17:07:29.000Z</time>
      </trkpt>
      <trkpt lat="47.24964" lon="-1.45108">
        <ele>52</ele>
        <time>2020-05-29T17:07:31.000Z</time>
      </trkpt>
      <trkpt lat="47.24953" lon="-1.45119">
        <ele>52</ele>
        <time>2020-05-29T17:07:33.000Z</time>
      </trkpt>
      <trkpt lat="47.24941" lon="-1.45131">
        <ele>52</ele>
        <time>2020-05-29T17:07:35.000Z</time>
      </trkpt>
      <trkpt lat="47.24929" lon="-1.45143">
        <ele>53</ele>
        <time>2020-05-29T17:07:37.000Z</time>
      </trkpt>
      <trkpt lat="47.24918" lon="-1.45154">
        <ele>54</ele>
        <time>2020-05-29T17:07:39.000Z</time>
      </trkpt>
      <trkpt lat="47.24908" lon="-1.45168">
        <ele>53</ele>
        <time>2020-05-29T17:07:41.000Z</time>
      </trkpt>
      <trkpt lat="47.24899" lon="-1.45183">
        <ele>52</ele>
        <time>2020-05-29T17:07:43.000Z</time>
      </trkpt>
      <trkpt lat="47.2489" lon="-1.45196">
        <ele>53</ele>
        <time>2020-05-29T17:07:45.000Z</time>
      </trkpt>
      <trkpt lat="47.2488" lon="-1.45209">
        <ele>53</ele>
        <time>2020-05-29T17:07:47.000Z</time>
      </trkpt>
      <trkpt lat="47.2487" lon="-1.45224">
        <ele>53</ele>
        <time>2020-05-29T17:07:49.000Z</time>
      </trkpt>
      <trkpt lat="47.2486" lon="-1.45237">
        <ele>53</ele>
        <time>2020-05-29T17:07:51.000Z</time>
      </trkpt>
      <trkpt lat="47.24851" lon="-1.45252">
        <ele>53</ele>
        <time>2020-05-29T17:07:53.000Z</time>
      </trkpt>
      <trkpt lat="47.24837" lon="-1.45274">
        <ele>53</ele>
        <time>2020-05-29T17:07:56.000Z</time>
      </trkpt>
      <trkpt lat="47.24828" lon="-1.45289">
        <ele>52</ele>
        <time>2020-05-29T17:07:58.000Z</time>
      </trkpt>
      <trkpt lat="47.24821" lon="-1.45306">
        <ele>53</ele>
        <time>2020-05-29T17:08:00.000Z</time>
      </trkpt>
      <trkpt lat="47.24813" lon="-1.45323">
        <ele>52</ele>
        <time>2020-05-29T17:08:02.000Z</time>
      </trkpt>
      <trkpt lat="47.24806" lon="-1.4534">
        <ele>53</ele>
        <time>2020-05-29T17:08:04.000Z</time>
      </trkpt>
      <trkpt lat="47.24797" lon="-1.45357">
        <ele>53</ele>
        <time>2020-05-29T17:08:06.000Z</time>
      </trkpt>
      <trkpt lat="47.24785" lon="-1.45384">
        <ele>54</ele>
        <time>2020-05-29T17:08:09.000Z</time>
      </trkpt>
      <trkpt lat="47.24778" lon="-1.45402">
        <ele>55</ele>
        <time>2020-05-29T17:08:11.000Z</time>
      </trkpt>
      <trkpt lat="47.24771" lon="-1.4542">
        <ele>55</ele>
        <time>2020-05-29T17:08:13.000Z</time>
      </trkpt>
      <trkpt lat="47.24765" lon="-1.45437">
        <ele>55</ele>
        <time>2020-05-29T17:08:15.000Z</time>
      </trkpt>
      <trkpt lat="47.24755" lon="-1.45463">
        <ele>55</ele>
        <time>2020-05-29T17:08:18.000Z</time>
      </trkpt>
      <trkpt lat="47.24745" lon="-1.45489">
        <ele>56</ele>
        <time>2020-05-29T17:08:21.000Z</time>
      </trkpt>
      <trkpt lat="47.24737" lon="-1.45506">
        <ele>55</ele>
        <time>2020-05-29T17:08:23.000Z</time>
      </trkpt>
      <trkpt lat="47.2473" lon="-1.45524">
        <ele>55</ele>
        <time>2020-05-29T17:08:25.000Z</time>
      </trkpt>
      <trkpt lat="47.24723" lon="-1.45542">
        <ele>56</ele>
        <time>2020-05-29T17:08:27.000Z</time>
      </trkpt>
      <trkpt lat="47.24716" lon="-1.45561">
        <ele>56</ele>
        <time>2020-05-29T17:08:29.000Z</time>
      </trkpt>
      <trkpt lat="47.24709" lon="-1.4558">
        <ele>56</ele>
        <time>2020-05-29T17:08:31.000Z</time>
      </trkpt>
      <trkpt lat="47.24704" lon="-1.45599">
        <ele>56</ele>
        <time>2020-05-29T17:08:33.000Z</time>
      </trkpt>
      <trkpt lat="47.24697" lon="-1.45617">
        <ele>56</ele>
        <time>2020-05-29T17:08:35.000Z</time>
      </trkpt>
      <trkpt lat="47.24691" lon="-1.45635">
        <ele>56</ele>
        <time>2020-05-29T17:08:37.000Z</time>
      </trkpt>
      <trkpt lat="47.24685" lon="-1.45652">
        <ele>56</ele>
        <time>2020-05-29T17:08:39.000Z</time>
      </trkpt>
      <trkpt lat="47.2468" lon="-1.4567">
        <ele>57</ele>
        <time>2020-05-29T17:08:41.000Z</time>
      </trkpt>
      <trkpt lat="47.24676" lon="-1.45688">
        <ele>57</ele>
        <time>2020-05-29T17:08:43.000Z</time>
      </trkpt>
      <trkpt lat="47.2467" lon="-1.45716">
        <ele>56</ele>
        <time>2020-05-29T17:08:46.000Z</time>
      </trkpt>
      <trkpt lat="47.24667" lon="-1.45736">
        <ele>56</ele>
        <time>2020-05-29T17:08:48.000Z</time>
      </trkpt>
      <trkpt lat="47.24663" lon="-1.45755">
        <ele>56</ele>
        <time>2020-05-29T17:08:50.000Z</time>
      </trkpt>
      <trkpt lat="47.24657" lon="-1.45781">
        <ele>57</ele>
        <time>2020-05-29T17:08:53.000Z</time>
      </trkpt>
      <trkpt lat="47.24653" lon="-1.45798">
        <ele>58</ele>
        <time>2020-05-29T17:08:55.000Z</time>
      </trkpt>
      <trkpt lat="47.24647" lon="-1.45815">
        <ele>58</ele>
        <time>2020-05-29T17:08:57.000Z</time>
      </trkpt>
      <trkpt lat="47.24639" lon="-1.45843">
        <ele>57</ele>
        <time>2020-05-29T17:09:00.000Z</time>
      </trkpt>
      <trkpt lat="47.24634" lon="-1.45862">
        <ele>58</ele>
        <time>2020-05-29T17:09:02.000Z</time>
      </trkpt>
      <trkpt lat="47.2463" lon="-1.45881">
        <ele>58</ele>
        <time>2020-05-29T17:09:04.000Z</time>
      </trkpt>
      <trkpt lat="47.24624" lon="-1.459">
        <ele>57</ele>
        <time>2020-05-29T17:09:06.000Z</time>
      </trkpt>
      <trkpt lat="47.24619" lon="-1.45919">
        <ele>56</ele>
        <time>2020-05-29T17:09:08.000Z</time>
      </trkpt>
      <trkpt lat="47.24614" lon="-1.45937">
        <ele>57</ele>
        <time>2020-05-29T17:09:10.000Z</time>
      </trkpt>
      <trkpt lat="47.24601" lon="-1.4596">
        <ele>57</ele>
        <time>2020-05-29T17:09:13.000Z</time>
      </trkpt>
      <trkpt lat="47.24592" lon="-1.45978">
        <ele>57</ele>
        <time>2020-05-29T17:09:15.000Z</time>
      </trkpt>
      <trkpt lat="47.24583" lon="-1.45995">
        <ele>56</ele>
        <time>2020-05-29T17:09:17.000Z</time>
      </trkpt>
      <trkpt lat="47.2457" lon="-1.46021">
        <ele>56</ele>
        <time>2020-05-29T17:09:20.000Z</time>
      </trkpt>
      <trkpt lat="47.24556" lon="-1.46047">
        <ele>56</ele>
        <time>2020-05-29T17:09:23.000Z</time>
      </trkpt>
      <trkpt lat="47.24548" lon="-1.46062">
        <ele>56</ele>
        <time>2020-05-29T17:09:25.000Z</time>
      </trkpt>
      <trkpt lat="47.2454" lon="-1.46077">
        <ele>56</ele>
        <time>2020-05-29T17:09:27.000Z</time>
      </trkpt>
      <trkpt lat="47.24531" lon="-1.46092">
        <ele>56</ele>
        <time>2020-05-29T17:09:29.000Z</time>
      </trkpt>
      <trkpt lat="47.24521" lon="-1.46107">
        <ele>56</ele>
        <time>2020-05-29T17:09:31.000Z</time>
      </trkpt>
      <trkpt lat="47.24509" lon="-1.4612">
        <ele>56</ele>
        <time>2020-05-29T17:09:33.000Z</time>
      </trkpt>
      <trkpt lat="47.24498" lon="-1.46133">
        <ele>55</ele>
        <time>2020-05-29T17:09:35.000Z</time>
      </trkpt>
      <trkpt lat="47.24488" lon="-1.46147">
        <ele>55</ele>
        <time>2020-05-29T17:09:37.000Z</time>
      </trkpt>
      <trkpt lat="47.24473" lon="-1.46167">
        <ele>55</ele>
        <time>2020-05-29T17:09:40.000Z</time>
      </trkpt>
      <trkpt lat="47.24458" lon="-1.46186">
        <ele>55</ele>
        <time>2020-05-29T17:09:43.000Z</time>
      </trkpt>
      <trkpt lat="47.24447" lon="-1.46199">
        <ele>56</ele>
        <time>2020-05-29T17:09:45.000Z</time>
      </trkpt>
      <trkpt lat="47.24436" lon="-1.46213">
        <ele>56</ele>
        <time>2020-05-29T17:09:47.000Z</time>
      </trkpt>
      <trkpt lat="47.24426" lon="-1.46226">
        <ele>56</ele>
        <time>2020-05-29T17:09:49.000Z</time>
      </trkpt>
      <trkpt lat="47.24416" lon="-1.4624">
        <ele>56</ele>
        <time>2020-05-29T17:09:51.000Z</time>
      </trkpt>
      <trkpt lat="47.24406" lon="-1.46253">
        <ele>56</ele>
        <time>2020-05-29T17:09:53.000Z</time>
      </trkpt>
      <trkpt lat="47.24397" lon="-1.46266">
        <ele>57</ele>
        <time>2020-05-29T17:09:55.000Z</time>
      </trkpt>
      <trkpt lat="47.24388" lon="-1.46279">
        <ele>57</ele>
        <time>2020-05-29T17:09:57.000Z</time>
      </trkpt>
      <trkpt lat="47.24378" lon="-1.46293">
        <ele>57</ele>
        <time>2020-05-29T17:09:59.000Z</time>
      </trkpt>
      <trkpt lat="47.24368" lon="-1.46308">
        <ele>56</ele>
        <time>2020-05-29T17:10:01.000Z</time>
      </trkpt>
      <trkpt lat="47.24359" lon="-1.46324">
        <ele>56</ele>
        <time>2020-05-29T17:10:03.000Z</time>
      </trkpt>
      <trkpt lat="47.2435" lon="-1.46338">
        <ele>55</ele>
        <time>2020-05-29T17:10:05.000Z</time>
      </trkpt>
      <trkpt lat="47.24342" lon="-1.46353">
        <ele>55</ele>
        <time>2020-05-29T17:10:07.000Z</time>
      </trkpt>
      <trkpt lat="47.24332" lon="-1.46368">
        <ele>55</ele>
        <time>2020-05-29T17:10:09.000Z</time>
      </trkpt>
      <trkpt lat="47.24318" lon="-1.46392">
        <ele>54</ele>
        <time>2020-05-29T17:10:12.000Z</time>
      </trkpt>
      <trkpt lat="47.24311" lon="-1.46408">
        <ele>54</ele>
        <time>2020-05-29T17:10:14.000Z</time>
      </trkpt>
      <trkpt lat="47.24302" lon="-1.46423">
        <ele>54</ele>
        <time>2020-05-29T17:10:16.000Z</time>
      </trkpt>
      <trkpt lat="47.24293" lon="-1.46437">
        <ele>55</ele>
        <time>2020-05-29T17:10:18.000Z</time>
      </trkpt>
      <trkpt lat="47.24283" lon="-1.46451">
        <ele>55</ele>
        <time>2020-05-29T17:10:20.000Z</time>
      </trkpt>
      <trkpt lat="47.24272" lon="-1.46465">
        <ele>57</ele>
        <time>2020-05-29T17:10:22.000Z</time>
      </trkpt>
      <trkpt lat="47.24261" lon="-1.46478">
        <ele>57</ele>
        <time>2020-05-29T17:10:24.000Z</time>
      </trkpt>
      <trkpt lat="47.24251" lon="-1.46492">
        <ele>57</ele>
        <time>2020-05-29T17:10:26.000Z</time>
      </trkpt>
      <trkpt lat="47.2424" lon="-1.46505">
        <ele>56</ele>
        <time>2020-05-29T17:10:28.000Z</time>
      </trkpt>
      <trkpt lat="47.24229" lon="-1.46517">
        <ele>57</ele>
        <time>2020-05-29T17:10:30.000Z</time>
      </trkpt>
      <trkpt lat="47.24219" lon="-1.4653">
        <ele>57</ele>
        <time>2020-05-29T17:10:32.000Z</time>
      </trkpt>
      <trkpt lat="47.24209" lon="-1.46543">
        <ele>57</ele>
        <time>2020-05-29T17:10:34.000Z</time>
      </trkpt>
      <trkpt lat="47.24199" lon="-1.46556">
        <ele>56</ele>
        <time>2020-05-29T17:10:36.000Z</time>
      </trkpt>
      <trkpt lat="47.24189" lon="-1.46568">
        <ele>56</ele>
        <time>2020-05-29T17:10:38.000Z</time>
      </trkpt>
      <trkpt lat="47.24178" lon="-1.46582">
        <ele>56</ele>
        <time>2020-05-29T17:10:40.000Z</time>
      </trkpt>
      <trkpt lat="47.24169" lon="-1.46595">
        <ele>56</ele>
        <time>2020-05-29T17:10:42.000Z</time>
      </trkpt>
      <trkpt lat="47.24159" lon="-1.46608">
        <ele>56</ele>
        <time>2020-05-29T17:10:44.000Z</time>
      </trkpt>
      <trkpt lat="47.24148" lon="-1.46621">
        <ele>55</ele>
        <time>2020-05-29T17:10:46.000Z</time>
      </trkpt>
      <trkpt lat="47.24134" lon="-1.46641">
        <ele>56</ele>
        <time>2020-05-29T17:10:49.000Z</time>
      </trkpt>
      <trkpt lat="47.24125" lon="-1.46655">
        <ele>56</ele>
        <time>2020-05-29T17:10:51.000Z</time>
      </trkpt>
      <trkpt lat="47.24115" lon="-1.46668">
        <ele>56</ele>
        <time>2020-05-29T17:10:53.000Z</time>
      </trkpt>
      <trkpt lat="47.24105" lon="-1.46682">
        <ele>56</ele>
        <time>2020-05-29T17:10:55.000Z</time>
      </trkpt>
      <trkpt lat="47.24096" lon="-1.46696">
        <ele>55</ele>
        <time>2020-05-29T17:10:57.000Z</time>
      </trkpt>
      <trkpt lat="47.24088" lon="-1.46708">
        <ele>55</ele>
        <time>2020-05-29T17:10:59.000Z</time>
      </trkpt>
      <trkpt lat="47.24084" lon="-1.46723">
        <ele>55</ele>
        <time>2020-05-29T17:11:01.000Z</time>
      </trkpt>
      <trkpt lat="47.24077" lon="-1.46736">
        <ele>56</ele>
        <time>2020-05-29T17:11:03.000Z</time>
      </trkpt>
      <trkpt lat="47.24064" lon="-1.46747">
        <ele>56</ele>
        <time>2020-05-29T17:11:05.000Z</time>
      </trkpt>
      <trkpt lat="47.2405" lon="-1.46757">
        <ele>55</ele>
        <time>2020-05-29T17:11:07.000Z</time>
      </trkpt>
      <trkpt lat="47.24038" lon="-1.4677">
        <ele>55</ele>
        <time>2020-05-29T17:11:09.000Z</time>
      </trkpt>
      <trkpt lat="47.24026" lon="-1.46783">
        <ele>55</ele>
        <time>2020-05-29T17:11:11.000Z</time>
      </trkpt>
      <trkpt lat="47.24014" lon="-1.46796">
        <ele>56</ele>
        <time>2020-05-29T17:11:13.000Z</time>
      </trkpt>
      <trkpt lat="47.24003" lon="-1.46809">
        <ele>56</ele>
        <time>2020-05-29T17:11:15.000Z</time>
      </trkpt>
      <trkpt lat="47.23991" lon="-1.46822">
        <ele>56</ele>
        <time>2020-05-29T17:11:17.000Z</time>
      </trkpt>
      <trkpt lat="47.23979" lon="-1.46833">
        <ele>56</ele>
        <time>2020-05-29T17:11:19.000Z</time>
      </trkpt>
      <trkpt lat="47.23967" lon="-1.46846">
        <ele>56</ele>
        <time>2020-05-29T17:11:21.000Z</time>
      </trkpt>
      <trkpt lat="47.23949" lon="-1.46863">
        <ele>57</ele>
        <time>2020-05-29T17:11:24.000Z</time>
      </trkpt>
      <trkpt lat="47.23937" lon="-1.46873">
        <ele>57</ele>
        <time>2020-05-29T17:11:26.000Z</time>
      </trkpt>
      <trkpt lat="47.23926" lon="-1.46884">
        <ele>58</ele>
        <time>2020-05-29T17:11:28.000Z</time>
      </trkpt>
      <trkpt lat="47.23916" lon="-1.46897">
        <ele>58</ele>
        <time>2020-05-29T17:11:30.000Z</time>
      </trkpt>
      <trkpt lat="47.23905" lon="-1.4691">
        <ele>58</ele>
        <time>2020-05-29T17:11:32.000Z</time>
      </trkpt>
      <trkpt lat="47.2389" lon="-1.4693">
        <ele>57</ele>
        <time>2020-05-29T17:11:35.000Z</time>
      </trkpt>
      <trkpt lat="47.23879" lon="-1.46944">
        <ele>57</ele>
        <time>2020-05-29T17:11:37.000Z</time>
      </trkpt>
      <trkpt lat="47.23867" lon="-1.46959">
        <ele>57</ele>
        <time>2020-05-29T17:11:39.000Z</time>
      </trkpt>
      <trkpt lat="47.23856" lon="-1.46973">
        <ele>56</ele>
        <time>2020-05-29T17:11:41.000Z</time>
      </trkpt>
      <trkpt lat="47.23846" lon="-1.46988">
        <ele>56</ele>
        <time>2020-05-29T17:11:43.000Z</time>
      </trkpt>
      <trkpt lat="47.23835" lon="-1.47003">
        <ele>56</ele>
        <time>2020-05-29T17:11:45.000Z</time>
      </trkpt>
      <trkpt lat="47.23825" lon="-1.47019">
        <ele>56</ele>
        <time>2020-05-29T17:11:47.000Z</time>
      </trkpt>
      <trkpt lat="47.23815" lon="-1.47035">
        <ele>55</ele>
        <time>2020-05-29T17:11:49.000Z</time>
      </trkpt>
      <trkpt lat="47.23804" lon="-1.47051">
        <ele>55</ele>
        <time>2020-05-29T17:11:51.000Z</time>
      </trkpt>
      <trkpt lat="47.23794" lon="-1.47066">
        <ele>55</ele>
        <time>2020-05-29T17:11:53.000Z</time>
      </trkpt>
      <trkpt lat="47.23784" lon="-1.47081">
        <ele>54</ele>
        <time>2020-05-29T17:11:55.000Z</time>
      </trkpt>
      <trkpt lat="47.23773" lon="-1.47095">
        <ele>54</ele>
        <time>2020-05-29T17:11:57.000Z</time>
      </trkpt>
      <trkpt lat="47.23763" lon="-1.4711">
        <ele>54</ele>
        <time>2020-05-29T17:11:59.000Z</time>
      </trkpt>
      <trkpt lat="47.23752" lon="-1.47125">
        <ele>53</ele>
        <time>2020-05-29T17:12:01.000Z</time>
      </trkpt>
      <trkpt lat="47.2374" lon="-1.47138">
        <ele>54</ele>
        <time>2020-05-29T17:12:03.000Z</time>
      </trkpt>
      <trkpt lat="47.23729" lon="-1.47151">
        <ele>54</ele>
        <time>2020-05-29T17:12:05.000Z</time>
      </trkpt>
      <trkpt lat="47.23717" lon="-1.47166">
        <ele>54</ele>
        <time>2020-05-29T17:12:07.000Z</time>
      </trkpt>
      <trkpt lat="47.23707" lon="-1.4718">
        <ele>54</ele>
        <time>2020-05-29T17:12:09.000Z</time>
      </trkpt>
      <trkpt lat="47.23696" lon="-1.47195">
        <ele>54</ele>
        <time>2020-05-29T17:12:11.000Z</time>
      </trkpt>
      <trkpt lat="47.23686" lon="-1.47211">
        <ele>53</ele>
        <time>2020-05-29T17:12:13.000Z</time>
      </trkpt>
      <trkpt lat="47.23675" lon="-1.47226">
        <ele>54</ele>
        <time>2020-05-29T17:12:15.000Z</time>
      </trkpt>
      <trkpt lat="47.23663" lon="-1.4724">
        <ele>54</ele>
        <time>2020-05-29T17:12:17.000Z</time>
      </trkpt>
      <trkpt lat="47.23652" lon="-1.47254">
        <ele>54</ele>
        <time>2020-05-29T17:12:19.000Z</time>
      </trkpt>
      <trkpt lat="47.23641" lon="-1.47267">
        <ele>54</ele>
        <time>2020-05-29T17:12:21.000Z</time>
      </trkpt>
      <trkpt lat="47.23629" lon="-1.4728">
        <ele>55</ele>
        <time>2020-05-29T17:12:23.000Z</time>
      </trkpt>
      <trkpt lat="47.23617" lon="-1.47292">
        <ele>55</ele>
        <time>2020-05-29T17:12:25.000Z</time>
      </trkpt>
      <trkpt lat="47.23605" lon="-1.47305">
        <ele>55</ele>
        <time>2020-05-29T17:12:27.000Z</time>
      </trkpt>
      <trkpt lat="47.23594" lon="-1.47317">
        <ele>55</ele>
        <time>2020-05-29T17:12:29.000Z</time>
      </trkpt>
      <trkpt lat="47.23581" lon="-1.47328">
        <ele>55</ele>
        <time>2020-05-29T17:12:31.000Z</time>
      </trkpt>
      <trkpt lat="47.23569" lon="-1.47338">
        <ele>55</ele>
        <time>2020-05-29T17:12:33.000Z</time>
      </trkpt>
      <trkpt lat="47.23556" lon="-1.47348">
        <ele>55</ele>
        <time>2020-05-29T17:12:35.000Z</time>
      </trkpt>
      <trkpt lat="47.23544" lon="-1.47359">
        <ele>56</ele>
        <time>2020-05-29T17:12:37.000Z</time>
      </trkpt>
      <trkpt lat="47.23531" lon="-1.4737">
        <ele>56</ele>
        <time>2020-05-29T17:12:39.000Z</time>
      </trkpt>
      <trkpt lat="47.23518" lon="-1.4738">
        <ele>56</ele>
        <time>2020-05-29T17:12:41.000Z</time>
      </trkpt>
      <trkpt lat="47.23506" lon="-1.4739">
        <ele>56</ele>
        <time>2020-05-29T17:12:43.000Z</time>
      </trkpt>
      <trkpt lat="47.23494" lon="-1.474">
        <ele>56</ele>
        <time>2020-05-29T17:12:45.000Z</time>
      </trkpt>
      <trkpt lat="47.2348" lon="-1.47407">
        <ele>56</ele>
        <time>2020-05-29T17:12:47.000Z</time>
      </trkpt>
      <trkpt lat="47.23466" lon="-1.47414">
        <ele>56</ele>
        <time>2020-05-29T17:12:49.000Z</time>
      </trkpt>
      <trkpt lat="47.23452" lon="-1.47419">
        <ele>55</ele>
        <time>2020-05-29T17:12:51.000Z</time>
      </trkpt>
      <trkpt lat="47.23439" lon="-1.47425">
        <ele>55</ele>
        <time>2020-05-29T17:12:53.000Z</time>
      </trkpt>
      <trkpt lat="47.23426" lon="-1.47429">
        <ele>55</ele>
        <time>2020-05-29T17:12:55.000Z</time>
      </trkpt>
      <trkpt lat="47.23415" lon="-1.47439">
        <ele>55</ele>
        <time>2020-05-29T17:12:57.000Z</time>
      </trkpt>
      <trkpt lat="47.23404" lon="-1.47451">
        <ele>55</ele>
        <time>2020-05-29T17:12:59.000Z</time>
      </trkpt>
      <trkpt lat="47.23391" lon="-1.47458">
        <ele>54</ele>
        <time>2020-05-29T17:13:01.000Z</time>
      </trkpt>
      <trkpt lat="47.23376" lon="-1.47466">
        <ele>54</ele>
        <time>2020-05-29T17:13:03.000Z</time>
      </trkpt>
      <trkpt lat="47.23359" lon="-1.47473">
        <ele>54</ele>
        <time>2020-05-29T17:13:05.000Z</time>
      </trkpt>
      <trkpt lat="47.23344" lon="-1.4748">
        <ele>55</ele>
        <time>2020-05-29T17:13:07.000Z</time>
      </trkpt>
      <trkpt lat="47.23331" lon="-1.4749">
        <ele>55</ele>
        <time>2020-05-29T17:13:09.000Z</time>
      </trkpt>
      <trkpt lat="47.23316" lon="-1.475">
        <ele>54</ele>
        <time>2020-05-29T17:13:11.000Z</time>
      </trkpt>
      <trkpt lat="47.23302" lon="-1.47508">
        <ele>55</ele>
        <time>2020-05-29T17:13:13.000Z</time>
      </trkpt>
      <trkpt lat="47.2328" lon="-1.47519">
        <ele>56</ele>
        <time>2020-05-29T17:13:16.000Z</time>
      </trkpt>
      <trkpt lat="47.23268" lon="-1.47529">
        <ele>55</ele>
        <time>2020-05-29T17:13:18.000Z</time>
      </trkpt>
      <trkpt lat="47.23258" lon="-1.47543">
        <ele>56</ele>
        <time>2020-05-29T17:13:20.000Z</time>
      </trkpt>
      <trkpt lat="47.2325" lon="-1.47559">
        <ele>56</ele>
        <time>2020-05-29T17:13:22.000Z</time>
      </trkpt>
      <trkpt lat="47.23241" lon="-1.47575">
        <ele>56</ele>
        <time>2020-05-29T17:13:24.000Z</time>
      </trkpt>
      <trkpt lat="47.23232" lon="-1.47591">
        <ele>56</ele>
        <time>2020-05-29T17:13:26.000Z</time>
      </trkpt>
      <trkpt lat="47.23224" lon="-1.47607">
        <ele>55</ele>
        <time>2020-05-29T17:13:28.000Z</time>
      </trkpt>
      <trkpt lat="47.23216" lon="-1.47625">
        <ele>55</ele>
        <time>2020-05-29T17:13:30.000Z</time>
      </trkpt>
      <trkpt lat="47.23209" lon="-1.47643">
        <ele>55</ele>
        <time>2020-05-29T17:13:32.000Z</time>
      </trkpt>
      <trkpt lat="47.23202" lon="-1.4766">
        <ele>55</ele>
        <time>2020-05-29T17:13:34.000Z</time>
      </trkpt>
      <trkpt lat="47.23196" lon="-1.47676">
        <ele>55</ele>
        <time>2020-05-29T17:13:36.000Z</time>
      </trkpt>
      <trkpt lat="47.23189" lon="-1.47694">
        <ele>55</ele>
        <time>2020-05-29T17:13:38.000Z</time>
      </trkpt>
      <trkpt lat="47.23181" lon="-1.47712">
        <ele>55</ele>
        <time>2020-05-29T17:13:40.000Z</time>
      </trkpt>
      <trkpt lat="47.23173" lon="-1.47729">
        <ele>56</ele>
        <time>2020-05-29T17:13:42.000Z</time>
      </trkpt>
      <trkpt lat="47.23165" lon="-1.47747">
        <ele>56</ele>
        <time>2020-05-29T17:13:44.000Z</time>
      </trkpt>
      <trkpt lat="47.23158" lon="-1.47766">
        <ele>56</ele>
        <time>2020-05-29T17:13:46.000Z</time>
      </trkpt>
      <trkpt lat="47.23151" lon="-1.47784">
        <ele>56</ele>
        <time>2020-05-29T17:13:48.000Z</time>
      </trkpt>
      <trkpt lat="47.23145" lon="-1.47802">
        <ele>57</ele>
        <time>2020-05-29T17:13:50.000Z</time>
      </trkpt>
      <trkpt lat="47.23138" lon="-1.47819">
        <ele>56</ele>
        <time>2020-05-29T17:13:52.000Z</time>
      </trkpt>
      <trkpt lat="47.23131" lon="-1.47835">
        <ele>55</ele>
        <time>2020-05-29T17:13:54.000Z</time>
      </trkpt>
      <trkpt lat="47.23122" lon="-1.47853">
        <ele>55</ele>
        <time>2020-05-29T17:13:56.000Z</time>
      </trkpt>
      <trkpt lat="47.23112" lon="-1.4787">
        <ele>55</ele>
        <time>2020-05-29T17:13:58.000Z</time>
      </trkpt>
      <trkpt lat="47.23102" lon="-1.47885">
        <ele>55</ele>
        <time>2020-05-29T17:14:00.000Z</time>
      </trkpt>
      <trkpt lat="47.23091" lon="-1.47899">
        <ele>55</ele>
        <time>2020-05-29T17:14:02.000Z</time>
      </trkpt>
      <trkpt lat="47.23081" lon="-1.47913">
        <ele>56</ele>
        <time>2020-05-29T17:14:04.000Z</time>
      </trkpt>
      <trkpt lat="47.2307" lon="-1.47927">
        <ele>56</ele>
        <time>2020-05-29T17:14:06.000Z</time>
      </trkpt>
      <trkpt lat="47.23058" lon="-1.47941">
        <ele>56</ele>
        <time>2020-05-29T17:14:08.000Z</time>
      </trkpt>
      <trkpt lat="47.23048" lon="-1.47954">
        <ele>56</ele>
        <time>2020-05-29T17:14:10.000Z</time>
      </trkpt>
      <trkpt lat="47.23038" lon="-1.47968">
        <ele>56</ele>
        <time>2020-05-29T17:14:12.000Z</time>
      </trkpt>
      <trkpt lat="47.23028" lon="-1.47981">
        <ele>56</ele>
        <time>2020-05-29T17:14:14.000Z</time>
      </trkpt>
      <trkpt lat="47.23019" lon="-1.47994">
        <ele>55</ele>
        <time>2020-05-29T17:14:16.000Z</time>
      </trkpt>
      <trkpt lat="47.2301" lon="-1.48009">
        <ele>55</ele>
        <time>2020-05-29T17:14:18.000Z</time>
      </trkpt>
      <trkpt lat="47.23001" lon="-1.48023">
        <ele>55</ele>
        <time>2020-05-29T17:14:20.000Z</time>
      </trkpt>
      <trkpt lat="47.22992" lon="-1.48038">
        <ele>55</ele>
        <time>2020-05-29T17:14:22.000Z</time>
      </trkpt>
      <trkpt lat="47.22984" lon="-1.48052">
        <ele>54</ele>
        <time>2020-05-29T17:14:24.000Z</time>
      </trkpt>
      <trkpt lat="47.22977" lon="-1.48065">
        <ele>54</ele>
        <time>2020-05-29T17:14:26.000Z</time>
      </trkpt>
      <trkpt lat="47.2297" lon="-1.48077">
        <ele>54</ele>
        <time>2020-05-29T17:14:28.000Z</time>
      </trkpt>
      <trkpt lat="47.22964" lon="-1.48088">
        <ele>55</ele>
        <time>2020-05-29T17:14:32.000Z</time>
      </trkpt>
      <trkpt lat="47.22957" lon="-1.48102">
        <ele>55</ele>
        <time>2020-05-29T17:14:36.000Z</time>
      </trkpt>
      <trkpt lat="47.22946" lon="-1.48109">
        <ele>55</ele>
        <time>2020-05-29T17:14:38.000Z</time>
      </trkpt>
      <trkpt lat="47.22932" lon="-1.48111">
        <ele>54</ele>
        <time>2020-05-29T17:14:40.000Z</time>
      </trkpt>
      <trkpt lat="47.22917" lon="-1.48116">
        <ele>54</ele>
        <time>2020-05-29T17:14:42.000Z</time>
      </trkpt>
      <trkpt lat="47.22903" lon="-1.48126">
        <ele>55</ele>
        <time>2020-05-29T17:14:44.000Z</time>
      </trkpt>
      <trkpt lat="47.22891" lon="-1.48142">
        <ele>54</ele>
        <time>2020-05-29T17:14:46.000Z</time>
      </trkpt>
      <trkpt lat="47.2288" lon="-1.48159">
        <ele>54</ele>
        <time>2020-05-29T17:14:48.000Z</time>
      </trkpt>
      <trkpt lat="47.2287" lon="-1.48176">
        <ele>55</ele>
        <time>2020-05-29T17:14:50.000Z</time>
      </trkpt>
      <trkpt lat="47.2286" lon="-1.48192">
        <ele>55</ele>
        <time>2020-05-29T17:14:52.000Z</time>
      </trkpt>
      <trkpt lat="47.22849" lon="-1.48208">
        <ele>54</ele>
        <time>2020-05-29T17:14:54.000Z</time>
      </trkpt>
      <trkpt lat="47.22838" lon="-1.48224">
        <ele>54</ele>
        <time>2020-05-29T17:14:56.000Z</time>
      </trkpt>
      <trkpt lat="47.22827" lon="-1.4824">
        <ele>54</ele>
        <time>2020-05-29T17:14:58.000Z</time>
      </trkpt>
      <trkpt lat="47.22815" lon="-1.48256">
        <ele>54</ele>
        <time>2020-05-29T17:15:00.000Z</time>
      </trkpt>
      <trkpt lat="47.22804" lon="-1.48275">
        <ele>54</ele>
        <time>2020-05-29T17:15:02.000Z</time>
      </trkpt>
      <trkpt lat="47.22795" lon="-1.48295">
        <ele>55</ele>
        <time>2020-05-29T17:15:04.000Z</time>
      </trkpt>
      <trkpt lat="47.22784" lon="-1.48314">
        <ele>55</ele>
        <time>2020-05-29T17:15:06.000Z</time>
      </trkpt>
      <trkpt lat="47.22772" lon="-1.48333">
        <ele>55</ele>
        <time>2020-05-29T17:15:08.000Z</time>
      </trkpt>
      <trkpt lat="47.22759" lon="-1.48349">
        <ele>56</ele>
        <time>2020-05-29T17:15:10.000Z</time>
      </trkpt>
      <trkpt lat="47.22747" lon="-1.48366">
        <ele>56</ele>
        <time>2020-05-29T17:15:12.000Z</time>
      </trkpt>
      <trkpt lat="47.22735" lon="-1.48382">
        <ele>57</ele>
        <time>2020-05-29T17:15:14.000Z</time>
      </trkpt>
      <trkpt lat="47.22723" lon="-1.48397">
        <ele>57</ele>
        <time>2020-05-29T17:15:16.000Z</time>
      </trkpt>
      <trkpt lat="47.22712" lon="-1.48413">
        <ele>56</ele>
        <time>2020-05-29T17:15:18.000Z</time>
      </trkpt>
      <trkpt lat="47.22703" lon="-1.48433">
        <ele>56</ele>
        <time>2020-05-29T17:15:20.000Z</time>
      </trkpt>
      <trkpt lat="47.22696" lon="-1.48454">
        <ele>56</ele>
        <time>2020-05-29T17:15:22.000Z</time>
      </trkpt>
      <trkpt lat="47.22689" lon="-1.48474">
        <ele>56</ele>
        <time>2020-05-29T17:15:24.000Z</time>
      </trkpt>
      <trkpt lat="47.2268" lon="-1.48492">
        <ele>56</ele>
        <time>2020-05-29T17:15:26.000Z</time>
      </trkpt>
      <trkpt lat="47.22672" lon="-1.48512">
        <ele>57</ele>
        <time>2020-05-29T17:15:28.000Z</time>
      </trkpt>
      <trkpt lat="47.22666" lon="-1.48532">
        <ele>56</ele>
        <time>2020-05-29T17:15:30.000Z</time>
      </trkpt>
      <trkpt lat="47.2266" lon="-1.48554">
        <ele>56</ele>
        <time>2020-05-29T17:15:32.000Z</time>
      </trkpt>
      <trkpt lat="47.22653" lon="-1.48576">
        <ele>56</ele>
        <time>2020-05-29T17:15:34.000Z</time>
      </trkpt>
      <trkpt lat="47.22646" lon="-1.48595">
        <ele>57</ele>
        <time>2020-05-29T17:15:36.000Z</time>
      </trkpt>
      <trkpt lat="47.22638" lon="-1.48613">
        <ele>57</ele>
        <time>2020-05-29T17:15:38.000Z</time>
      </trkpt>
      <trkpt lat="47.22632" lon="-1.48631">
        <ele>56</ele>
        <time>2020-05-29T17:15:40.000Z</time>
      </trkpt>
      <trkpt lat="47.22625" lon="-1.48649">
        <ele>56</ele>
        <time>2020-05-29T17:15:42.000Z</time>
      </trkpt>
      <trkpt lat="47.22619" lon="-1.48669">
        <ele>56</ele>
        <time>2020-05-29T17:15:44.000Z</time>
      </trkpt>
      <trkpt lat="47.22613" lon="-1.48689">
        <ele>56</ele>
        <time>2020-05-29T17:15:46.000Z</time>
      </trkpt>
      <trkpt lat="47.22606" lon="-1.4871">
        <ele>56</ele>
        <time>2020-05-29T17:15:48.000Z</time>
      </trkpt>
      <trkpt lat="47.226" lon="-1.48731">
        <ele>56</ele>
        <time>2020-05-29T17:15:50.000Z</time>
      </trkpt>
      <trkpt lat="47.22595" lon="-1.48752">
        <ele>55</ele>
        <time>2020-05-29T17:15:52.000Z</time>
      </trkpt>
      <trkpt lat="47.22589" lon="-1.48773">
        <ele>56</ele>
        <time>2020-05-29T17:15:54.000Z</time>
      </trkpt>
      <trkpt lat="47.22583" lon="-1.48793">
        <ele>56</ele>
        <time>2020-05-29T17:15:56.000Z</time>
      </trkpt>
      <trkpt lat="47.22576" lon="-1.48812">
        <ele>57</ele>
        <time>2020-05-29T17:15:58.000Z</time>
      </trkpt>
      <trkpt lat="47.22569" lon="-1.48831">
        <ele>57</ele>
        <time>2020-05-29T17:16:00.000Z</time>
      </trkpt>
      <trkpt lat="47.22564" lon="-1.48849">
        <ele>57</ele>
        <time>2020-05-29T17:16:02.000Z</time>
      </trkpt>
      <trkpt lat="47.22559" lon="-1.48867">
        <ele>56</ele>
        <time>2020-05-29T17:16:04.000Z</time>
      </trkpt>
      <trkpt lat="47.22554" lon="-1.48885">
        <ele>55</ele>
        <time>2020-05-29T17:16:06.000Z</time>
      </trkpt>
      <trkpt lat="47.22547" lon="-1.48904">
        <ele>55</ele>
        <time>2020-05-29T17:16:08.000Z</time>
      </trkpt>
      <trkpt lat="47.22541" lon="-1.48924">
        <ele>54</ele>
        <time>2020-05-29T17:16:10.000Z</time>
      </trkpt>
      <trkpt lat="47.22535" lon="-1.48944">
        <ele>54</ele>
        <time>2020-05-29T17:16:12.000Z</time>
      </trkpt>
      <trkpt lat="47.22528" lon="-1.48962">
        <ele>55</ele>
        <time>2020-05-29T17:16:14.000Z</time>
      </trkpt>
      <trkpt lat="47.22521" lon="-1.48981">
        <ele>55</ele>
        <time>2020-05-29T17:16:16.000Z</time>
      </trkpt>
      <trkpt lat="47.22515" lon="-1.49">
        <ele>54</ele>
        <time>2020-05-29T17:16:18.000Z</time>
      </trkpt>
      <trkpt lat="47.2251" lon="-1.49019">
        <ele>53</ele>
        <time>2020-05-29T17:16:20.000Z</time>
      </trkpt>
      <trkpt lat="47.22504" lon="-1.49038">
        <ele>53</ele>
        <time>2020-05-29T17:16:22.000Z</time>
      </trkpt>
      <trkpt lat="47.22499" lon="-1.49057">
        <ele>53</ele>
        <time>2020-05-29T17:16:24.000Z</time>
      </trkpt>
      <trkpt lat="47.22493" lon="-1.49077">
        <ele>53</ele>
        <time>2020-05-29T17:16:26.000Z</time>
      </trkpt>
      <trkpt lat="47.22487" lon="-1.49096">
        <ele>54</ele>
        <time>2020-05-29T17:16:28.000Z</time>
      </trkpt>
      <trkpt lat="47.22481" lon="-1.49116">
        <ele>54</ele>
        <time>2020-05-29T17:16:30.000Z</time>
      </trkpt>
      <trkpt lat="47.22476" lon="-1.49135">
        <ele>54</ele>
        <time>2020-05-29T17:16:32.000Z</time>
      </trkpt>
      <trkpt lat="47.22469" lon="-1.49154">
        <ele>55</ele>
        <time>2020-05-29T17:16:34.000Z</time>
      </trkpt>
      <trkpt lat="47.22462" lon="-1.49174">
        <ele>54</ele>
        <time>2020-05-29T17:16:36.000Z</time>
      </trkpt>
      <trkpt lat="47.22455" lon="-1.49194">
        <ele>54</ele>
        <time>2020-05-29T17:16:38.000Z</time>
      </trkpt>
      <trkpt lat="47.22449" lon="-1.49213">
        <ele>54</ele>
        <time>2020-05-29T17:16:40.000Z</time>
      </trkpt>
      <trkpt lat="47.22443" lon="-1.49231">
        <ele>54</ele>
        <time>2020-05-29T17:16:42.000Z</time>
      </trkpt>
      <trkpt lat="47.22437" lon="-1.49249">
        <ele>54</ele>
        <time>2020-05-29T17:16:44.000Z</time>
      </trkpt>
      <trkpt lat="47.2243" lon="-1.49266">
        <ele>54</ele>
        <time>2020-05-29T17:16:46.000Z</time>
      </trkpt>
      <trkpt lat="47.22422" lon="-1.49284">
        <ele>54</ele>
        <time>2020-05-29T17:16:48.000Z</time>
      </trkpt>
      <trkpt lat="47.22416" lon="-1.49303">
        <ele>52</ele>
        <time>2020-05-29T17:16:50.000Z</time>
      </trkpt>
      <trkpt lat="47.22409" lon="-1.49322">
        <ele>51</ele>
        <time>2020-05-29T17:16:52.000Z</time>
      </trkpt>
      <trkpt lat="47.22401" lon="-1.49341">
        <ele>52</ele>
        <time>2020-05-29T17:16:54.000Z</time>
      </trkpt>
      <trkpt lat="47.22394" lon="-1.4936">
        <ele>52</ele>
        <time>2020-05-29T17:16:56.000Z</time>
      </trkpt>
      <trkpt lat="47.22386" lon="-1.49377">
        <ele>52</ele>
        <time>2020-05-29T17:16:58.000Z</time>
      </trkpt>
      <trkpt lat="47.22379" lon="-1.49394">
        <ele>52</ele>
        <time>2020-05-29T17:17:00.000Z</time>
      </trkpt>
      <trkpt lat="47.22371" lon="-1.49413">
        <ele>52</ele>
        <time>2020-05-29T17:17:02.000Z</time>
      </trkpt>
      <trkpt lat="47.22361" lon="-1.4943">
        <ele>52</ele>
        <time>2020-05-29T17:17:04.000Z</time>
      </trkpt>
      <trkpt lat="47.22353" lon="-1.49448">
        <ele>52</ele>
        <time>2020-05-29T17:17:06.000Z</time>
      </trkpt>
      <trkpt lat="47.22348" lon="-1.49466">
        <ele>53</ele>
        <time>2020-05-29T17:17:08.000Z</time>
      </trkpt>
      <trkpt lat="47.22342" lon="-1.49486">
        <ele>53</ele>
        <time>2020-05-29T17:17:10.000Z</time>
      </trkpt>
      <trkpt lat="47.22336" lon="-1.49505">
        <ele>54</ele>
        <time>2020-05-29T17:17:12.000Z</time>
      </trkpt>
      <trkpt lat="47.2233" lon="-1.49524">
        <ele>55</ele>
        <time>2020-05-29T17:17:14.000Z</time>
      </trkpt>
      <trkpt lat="47.22324" lon="-1.49543">
        <ele>54</ele>
        <time>2020-05-29T17:17:16.000Z</time>
      </trkpt>
      <trkpt lat="47.22319" lon="-1.4956">
        <ele>55</ele>
        <time>2020-05-29T17:17:18.000Z</time>
      </trkpt>
      <trkpt lat="47.22313" lon="-1.49578">
        <ele>55</ele>
        <time>2020-05-29T17:17:20.000Z</time>
      </trkpt>
      <trkpt lat="47.22307" lon="-1.49596">
        <ele>55</ele>
        <time>2020-05-29T17:17:22.000Z</time>
      </trkpt>
      <trkpt lat="47.223" lon="-1.49614">
        <ele>56</ele>
        <time>2020-05-29T17:17:24.000Z</time>
      </trkpt>
      <trkpt lat="47.22294" lon="-1.49634">
        <ele>56</ele>
        <time>2020-05-29T17:17:26.000Z</time>
      </trkpt>
      <trkpt lat="47.22288" lon="-1.49654">
        <ele>56</ele>
        <time>2020-05-29T17:17:28.000Z</time>
      </trkpt>
      <trkpt lat="47.22282" lon="-1.49673">
        <ele>55</ele>
        <time>2020-05-29T17:17:30.000Z</time>
      </trkpt>
      <trkpt lat="47.22275" lon="-1.49692">
        <ele>55</ele>
        <time>2020-05-29T17:17:32.000Z</time>
      </trkpt>
      <trkpt lat="47.22268" lon="-1.49711">
        <ele>54</ele>
        <time>2020-05-29T17:17:34.000Z</time>
      </trkpt>
      <trkpt lat="47.22262" lon="-1.4973">
        <ele>55</ele>
        <time>2020-05-29T17:17:36.000Z</time>
      </trkpt>
      <trkpt lat="47.22258" lon="-1.49748">
        <ele>55</ele>
        <time>2020-05-29T17:17:38.000Z</time>
      </trkpt>
      <trkpt lat="47.22255" lon="-1.49768">
        <ele>55</ele>
        <time>2020-05-29T17:17:40.000Z</time>
      </trkpt>
      <trkpt lat="47.22252" lon="-1.4979">
        <ele>55</ele>
        <time>2020-05-29T17:17:42.000Z</time>
      </trkpt>
      <trkpt lat="47.2225" lon="-1.49809">
        <ele>56</ele>
        <time>2020-05-29T17:17:44.000Z</time>
      </trkpt>
      <trkpt lat="47.22247" lon="-1.49829">
        <ele>54</ele>
        <time>2020-05-29T17:17:46.000Z</time>
      </trkpt>
      <trkpt lat="47.22243" lon="-1.49849">
        <ele>54</ele>
        <time>2020-05-29T17:17:48.000Z</time>
      </trkpt>
      <trkpt lat="47.22239" lon="-1.49868">
        <ele>54</ele>
        <time>2020-05-29T17:17:50.000Z</time>
      </trkpt>
      <trkpt lat="47.22234" lon="-1.49888">
        <ele>54</ele>
        <time>2020-05-29T17:17:52.000Z</time>
      </trkpt>
      <trkpt lat="47.2223" lon="-1.49907">
        <ele>55</ele>
        <time>2020-05-29T17:17:54.000Z</time>
      </trkpt>
      <trkpt lat="47.22226" lon="-1.49926">
        <ele>55</ele>
        <time>2020-05-29T17:17:56.000Z</time>
      </trkpt>
      <trkpt lat="47.22223" lon="-1.49943">
        <ele>54</ele>
        <time>2020-05-29T17:17:58.000Z</time>
      </trkpt>
      <trkpt lat="47.22219" lon="-1.49962">
        <ele>54</ele>
        <time>2020-05-29T17:18:00.000Z</time>
      </trkpt>
      <trkpt lat="47.22214" lon="-1.49979">
        <ele>54</ele>
        <time>2020-05-29T17:18:02.000Z</time>
      </trkpt>
      <trkpt lat="47.22209" lon="-1.49995">
        <ele>54</ele>
        <time>2020-05-29T17:18:04.000Z</time>
      </trkpt>
      <trkpt lat="47.22204" lon="-1.50013">
        <ele>54</ele>
        <time>2020-05-29T17:18:06.000Z</time>
      </trkpt>
      <trkpt lat="47.222" lon="-1.50036">
        <ele>54</ele>
        <time>2020-05-29T17:18:08.000Z</time>
      </trkpt>
      <trkpt lat="47.22195" lon="-1.50058">
        <ele>54</ele>
        <time>2020-05-29T17:18:10.000Z</time>
      </trkpt>
      <trkpt lat="47.22189" lon="-1.50079">
        <ele>54</ele>
        <time>2020-05-29T17:18:12.000Z</time>
      </trkpt>
      <trkpt lat="47.22184" lon="-1.50099">
        <ele>55</ele>
        <time>2020-05-29T17:18:14.000Z</time>
      </trkpt>
      <trkpt lat="47.22179" lon="-1.50118">
        <ele>56</ele>
        <time>2020-05-29T17:18:16.000Z</time>
      </trkpt>
      <trkpt lat="47.22172" lon="-1.50136">
        <ele>56</ele>
        <time>2020-05-29T17:18:18.000Z</time>
      </trkpt>
      <trkpt lat="47.22166" lon="-1.50153">
        <ele>55</ele>
        <time>2020-05-29T17:18:20.000Z</time>
      </trkpt>
      <trkpt lat="47.2216" lon="-1.50172">
        <ele>56</ele>
        <time>2020-05-29T17:18:22.000Z</time>
      </trkpt>
      <trkpt lat="47.22155" lon="-1.50192">
        <ele>56</ele>
        <time>2020-05-29T17:18:24.000Z</time>
      </trkpt>
      <trkpt lat="47.22149" lon="-1.50212">
        <ele>55</ele>
        <time>2020-05-29T17:18:26.000Z</time>
      </trkpt>
      <trkpt lat="47.22142" lon="-1.50232">
        <ele>55</ele>
        <time>2020-05-29T17:18:28.000Z</time>
      </trkpt>
      <trkpt lat="47.22137" lon="-1.50251">
        <ele>54</ele>
        <time>2020-05-29T17:18:30.000Z</time>
      </trkpt>
      <trkpt lat="47.22131" lon="-1.50271">
        <ele>54</ele>
        <time>2020-05-29T17:18:32.000Z</time>
      </trkpt>
      <trkpt lat="47.22121" lon="-1.5029">
        <ele>54</ele>
        <time>2020-05-29T17:18:34.000Z</time>
      </trkpt>
      <trkpt lat="47.22113" lon="-1.50309">
        <ele>55</ele>
        <time>2020-05-29T17:18:36.000Z</time>
      </trkpt>
      <trkpt lat="47.22103" lon="-1.50327">
        <ele>56</ele>
        <time>2020-05-29T17:18:38.000Z</time>
      </trkpt>
      <trkpt lat="47.22095" lon="-1.50345">
        <ele>55</ele>
        <time>2020-05-29T17:18:40.000Z</time>
      </trkpt>
      <trkpt lat="47.2209" lon="-1.50364">
        <ele>55</ele>
        <time>2020-05-29T17:18:42.000Z</time>
      </trkpt>
      <trkpt lat="47.22086" lon="-1.50383">
        <ele>55</ele>
        <time>2020-05-29T17:18:44.000Z</time>
      </trkpt>
      <trkpt lat="47.22082" lon="-1.50401">
        <ele>55</ele>
        <time>2020-05-29T17:18:46.000Z</time>
      </trkpt>
      <trkpt lat="47.22076" lon="-1.50422">
        <ele>55</ele>
        <time>2020-05-29T17:18:48.000Z</time>
      </trkpt>
      <trkpt lat="47.22072" lon="-1.50444">
        <ele>54</ele>
        <time>2020-05-29T17:18:50.000Z</time>
      </trkpt>
      <trkpt lat="47.22068" lon="-1.50466">
        <ele>53</ele>
        <time>2020-05-29T17:18:52.000Z</time>
      </trkpt>
      <trkpt lat="47.22066" lon="-1.50487">
        <ele>54</ele>
        <time>2020-05-29T17:18:54.000Z</time>
      </trkpt>
      <trkpt lat="47.22064" lon="-1.50508">
        <ele>54</ele>
        <time>2020-05-29T17:18:56.000Z</time>
      </trkpt>
      <trkpt lat="47.22064" lon="-1.50527">
        <ele>54</ele>
        <time>2020-05-29T17:18:58.000Z</time>
      </trkpt>
      <trkpt lat="47.22063" lon="-1.50547">
        <ele>54</ele>
        <time>2020-05-29T17:19:00.000Z</time>
      </trkpt>
      <trkpt lat="47.22063" lon="-1.50566">
        <ele>54</ele>
        <time>2020-05-29T17:19:02.000Z</time>
      </trkpt>
      <trkpt lat="47.22062" lon="-1.50585">
        <ele>54</ele>
        <time>2020-05-29T17:19:04.000Z</time>
      </trkpt>
      <trkpt lat="47.22061" lon="-1.50604">
        <ele>54</ele>
        <time>2020-05-29T17:19:06.000Z</time>
      </trkpt>
      <trkpt lat="47.2206" lon="-1.50622">
        <ele>55</ele>
        <time>2020-05-29T17:19:08.000Z</time>
      </trkpt>
      <trkpt lat="47.22059" lon="-1.50642">
        <ele>54</ele>
        <time>2020-05-29T17:19:10.000Z</time>
      </trkpt>
      <trkpt lat="47.22058" lon="-1.50661">
        <ele>55</ele>
        <time>2020-05-29T17:19:12.000Z</time>
      </trkpt>
      <trkpt lat="47.22056" lon="-1.5068">
        <ele>55</ele>
        <time>2020-05-29T17:19:14.000Z</time>
      </trkpt>
      <trkpt lat="47.22055" lon="-1.50698">
        <ele>56</ele>
        <time>2020-05-29T17:19:16.000Z</time>
      </trkpt>
      <trkpt lat="47.22053" lon="-1.50718">
        <ele>56</ele>
        <time>2020-05-29T17:19:18.000Z</time>
      </trkpt>
      <trkpt lat="47.22052" lon="-1.50738">
        <ele>55</ele>
        <time>2020-05-29T17:19:20.000Z</time>
      </trkpt>
      <trkpt lat="47.22049" lon="-1.50756">
        <ele>54</ele>
        <time>2020-05-29T17:19:22.000Z</time>
      </trkpt>
      <trkpt lat="47.22047" lon="-1.50774">
        <ele>54</ele>
        <time>2020-05-29T17:19:24.000Z</time>
      </trkpt>
      <trkpt lat="47.2204" lon="-1.50793">
        <ele>54</ele>
        <time>2020-05-29T17:19:26.000Z</time>
      </trkpt>
      <trkpt lat="47.22034" lon="-1.50812">
        <ele>54</ele>
        <time>2020-05-29T17:19:28.000Z</time>
      </trkpt>
      <trkpt lat="47.22026" lon="-1.50832">
        <ele>54</ele>
        <time>2020-05-29T17:19:30.000Z</time>
      </trkpt>
      <trkpt lat="47.22017" lon="-1.50853">
        <ele>55</ele>
        <time>2020-05-29T17:19:32.000Z</time>
      </trkpt>
      <trkpt lat="47.22007" lon="-1.50873">
        <ele>55</ele>
        <time>2020-05-29T17:19:34.000Z</time>
      </trkpt>
      <trkpt lat="47.22" lon="-1.50895">
        <ele>55</ele>
        <time>2020-05-29T17:19:36.000Z</time>
      </trkpt>
      <trkpt lat="47.21992" lon="-1.50917">
        <ele>55</ele>
        <time>2020-05-29T17:19:38.000Z</time>
      </trkpt>
      <trkpt lat="47.21985" lon="-1.50938">
        <ele>55</ele>
        <time>2020-05-29T17:19:40.000Z</time>
      </trkpt>
      <trkpt lat="47.21979" lon="-1.50959">
        <ele>55</ele>
        <time>2020-05-29T17:19:42.000Z</time>
      </trkpt>
      <trkpt lat="47.21974" lon="-1.50978">
        <ele>54</ele>
        <time>2020-05-29T17:19:44.000Z</time>
      </trkpt>
      <trkpt lat="47.21969" lon="-1.50996">
        <ele>54</ele>
        <time>2020-05-29T17:19:46.000Z</time>
      </trkpt>
      <trkpt lat="47.21963" lon="-1.51015">
        <ele>55</ele>
        <time>2020-05-29T17:19:48.000Z</time>
      </trkpt>
      <trkpt lat="47.21959" lon="-1.51033">
        <ele>55</ele>
        <time>2020-05-29T17:19:50.000Z</time>
      </trkpt>
      <trkpt lat="47.21954" lon="-1.5105">
        <ele>55</ele>
        <time>2020-05-29T17:19:52.000Z</time>
      </trkpt>
      <trkpt lat="47.21946" lon="-1.51061">
        <ele>55</ele>
        <time>2020-05-29T17:19:54.000Z</time>
      </trkpt>
      <trkpt lat="47.21938" lon="-1.51072">
        <ele>55</ele>
        <time>2020-05-29T17:19:56.000Z</time>
      </trkpt>
      <trkpt lat="47.21933" lon="-1.51083">
        <ele>55</ele>
        <time>2020-05-29T17:20:00.000Z</time>
      </trkpt>
      <trkpt lat="47.21929" lon="-1.51103">
        <ele>56</ele>
        <time>2020-05-29T17:20:06.000Z</time>
      </trkpt>
      <trkpt lat="47.21923" lon="-1.51122">
        <ele>56</ele>
        <time>2020-05-29T17:20:08.000Z</time>
      </trkpt>
      <trkpt lat="47.21916" lon="-1.51143">
        <ele>57</ele>
        <time>2020-05-29T17:20:10.000Z</time>
      </trkpt>
      <trkpt lat="47.21909" lon="-1.51165">
        <ele>57</ele>
        <time>2020-05-29T17:20:12.000Z</time>
      </trkpt>
      <trkpt lat="47.21902" lon="-1.51187">
        <ele>57</ele>
        <time>2020-05-29T17:20:14.000Z</time>
      </trkpt>
      <trkpt lat="47.21895" lon="-1.51208">
        <ele>57</ele>
        <time>2020-05-29T17:20:16.000Z</time>
      </trkpt>
      <trkpt lat="47.21888" lon="-1.5123">
        <ele>56</ele>
        <time>2020-05-29T17:20:18.000Z</time>
      </trkpt>
      <trkpt lat="47.2188" lon="-1.51252">
        <ele>56</ele>
        <time>2020-05-29T17:20:20.000Z</time>
      </trkpt>
      <trkpt lat="47.21873" lon="-1.51273">
        <ele>56</ele>
        <time>2020-05-29T17:20:22.000Z</time>
      </trkpt>
      <trkpt lat="47.21866" lon="-1.51294">
        <ele>57</ele>
        <time>2020-05-29T17:20:24.000Z</time>
      </trkpt>
      <trkpt lat="47.2186" lon="-1.51316">
        <ele>57</ele>
        <time>2020-05-29T17:20:26.000Z</time>
      </trkpt>
      <trkpt lat="47.21854" lon="-1.51335">
        <ele>57</ele>
        <time>2020-05-29T17:20:28.000Z</time>
      </trkpt>
      <trkpt lat="47.21849" lon="-1.51356">
        <ele>57</ele>
        <time>2020-05-29T17:20:30.000Z</time>
      </trkpt>
      <trkpt lat="47.21843" lon="-1.51378">
        <ele>56</ele>
        <time>2020-05-29T17:20:32.000Z</time>
      </trkpt>
      <trkpt lat="47.21838" lon="-1.51399">
        <ele>55</ele>
        <time>2020-05-29T17:20:34.000Z</time>
      </trkpt>
      <trkpt lat="47.21834" lon="-1.5142">
        <ele>55</ele>
        <time>2020-05-29T17:20:36.000Z</time>
      </trkpt>
      <trkpt lat="47.21829" lon="-1.51441">
        <ele>56</ele>
        <time>2020-05-29T17:20:38.000Z</time>
      </trkpt>
      <trkpt lat="47.21824" lon="-1.5146">
        <ele>56</ele>
        <time>2020-05-29T17:20:40.000Z</time>
      </trkpt>
      <trkpt lat="47.2182" lon="-1.5148">
        <ele>56</ele>
        <time>2020-05-29T17:20:42.000Z</time>
      </trkpt>
      <trkpt lat="47.21813" lon="-1.515">
        <ele>56</ele>
        <time>2020-05-29T17:20:44.000Z</time>
      </trkpt>
      <trkpt lat="47.21805" lon="-1.51518">
        <ele>56</ele>
        <time>2020-05-29T17:20:46.000Z</time>
      </trkpt>
      <trkpt lat="47.21797" lon="-1.51537">
        <ele>56</ele>
        <time>2020-05-29T17:20:48.000Z</time>
      </trkpt>
      <trkpt lat="47.21789" lon="-1.51556">
        <ele>56</ele>
        <time>2020-05-29T17:20:50.000Z</time>
      </trkpt>
      <trkpt lat="47.2178" lon="-1.51574">
        <ele>56</ele>
        <time>2020-05-29T17:20:52.000Z</time>
      </trkpt>
      <trkpt lat="47.21771" lon="-1.5159">
        <ele>56</ele>
        <time>2020-05-29T17:20:54.000Z</time>
      </trkpt>
      <trkpt lat="47.2176" lon="-1.51604">
        <ele>56</ele>
        <time>2020-05-29T17:20:56.000Z</time>
      </trkpt>
      <trkpt lat="47.21751" lon="-1.51621">
        <ele>55</ele>
        <time>2020-05-29T17:20:58.000Z</time>
      </trkpt>
      <trkpt lat="47.21743" lon="-1.51638">
        <ele>55</ele>
        <time>2020-05-29T17:21:00.000Z</time>
      </trkpt>
      <trkpt lat="47.21735" lon="-1.51655">
        <ele>55</ele>
        <time>2020-05-29T17:21:02.000Z</time>
      </trkpt>
      <trkpt lat="47.21727" lon="-1.51672">
        <ele>55</ele>
        <time>2020-05-29T17:21:04.000Z</time>
      </trkpt>
      <trkpt lat="47.2172" lon="-1.5169">
        <ele>55</ele>
        <time>2020-05-29T17:21:06.000Z</time>
      </trkpt>
      <trkpt lat="47.21712" lon="-1.51708">
        <ele>56</ele>
        <time>2020-05-29T17:21:08.000Z</time>
      </trkpt>
      <trkpt lat="47.21705" lon="-1.51726">
        <ele>56</ele>
        <time>2020-05-29T17:21:10.000Z</time>
      </trkpt>
      <trkpt lat="47.21696" lon="-1.51745">
        <ele>56</ele>
        <time>2020-05-29T17:21:12.000Z</time>
      </trkpt>
      <trkpt lat="47.21687" lon="-1.51764">
        <ele>55</ele>
        <time>2020-05-29T17:21:14.000Z</time>
      </trkpt>
      <trkpt lat="47.21679" lon="-1.51782">
        <ele>56</ele>
        <time>2020-05-29T17:21:16.000Z</time>
      </trkpt>
      <trkpt lat="47.21671" lon="-1.518">
        <ele>55</ele>
        <time>2020-05-29T17:21:18.000Z</time>
      </trkpt>
      <trkpt lat="47.21663" lon="-1.51815">
        <ele>56</ele>
        <time>2020-05-29T17:21:20.000Z</time>
      </trkpt>
      <trkpt lat="47.21657" lon="-1.5183">
        <ele>56</ele>
        <time>2020-05-29T17:21:22.000Z</time>
      </trkpt>
      <trkpt lat="47.21651" lon="-1.51847">
        <ele>56</ele>
        <time>2020-05-29T17:21:24.000Z</time>
      </trkpt>
      <trkpt lat="47.21648" lon="-1.51865">
        <ele>56</ele>
        <time>2020-05-29T17:21:26.000Z</time>
      </trkpt>
      <trkpt lat="47.21645" lon="-1.51887">
        <ele>56</ele>
        <time>2020-05-29T17:21:28.000Z</time>
      </trkpt>
      <trkpt lat="47.21637" lon="-1.51902">
        <ele>56</ele>
        <time>2020-05-29T17:21:30.000Z</time>
      </trkpt>
      <trkpt lat="47.21629" lon="-1.51921">
        <ele>57</ele>
        <time>2020-05-29T17:21:32.000Z</time>
      </trkpt>
      <trkpt lat="47.21625" lon="-1.51941">
        <ele>57</ele>
        <time>2020-05-29T17:21:34.000Z</time>
      </trkpt>
      <trkpt lat="47.21622" lon="-1.51961">
        <ele>56</ele>
        <time>2020-05-29T17:21:36.000Z</time>
      </trkpt>
      <trkpt lat="47.21615" lon="-1.51978">
        <ele>56</ele>
        <time>2020-05-29T17:21:38.000Z</time>
      </trkpt>
      <trkpt lat="47.21607" lon="-1.51994">
        <ele>56</ele>
        <time>2020-05-29T17:21:40.000Z</time>
      </trkpt>
      <trkpt lat="47.21602" lon="-1.52013">
        <ele>55</ele>
        <time>2020-05-29T17:21:42.000Z</time>
      </trkpt>
      <trkpt lat="47.21595" lon="-1.52033">
        <ele>55</ele>
        <time>2020-05-29T17:21:44.000Z</time>
      </trkpt>
      <trkpt lat="47.21587" lon="-1.52053">
        <ele>55</ele>
        <time>2020-05-29T17:21:46.000Z</time>
      </trkpt>
      <trkpt lat="47.2158" lon="-1.52072">
        <ele>55</ele>
        <time>2020-05-29T17:21:48.000Z</time>
      </trkpt>
      <trkpt lat="47.21575" lon="-1.52092">
        <ele>56</ele>
        <time>2020-05-29T17:21:50.000Z</time>
      </trkpt>
      <trkpt lat="47.21568" lon="-1.52111">
        <ele>56</ele>
        <time>2020-05-29T17:21:52.000Z</time>
      </trkpt>
      <trkpt lat="47.21562" lon="-1.52131">
        <ele>56</ele>
        <time>2020-05-29T17:21:54.000Z</time>
      </trkpt>
      <trkpt lat="47.21556" lon="-1.5215">
        <ele>56</ele>
        <time>2020-05-29T17:21:56.000Z</time>
      </trkpt>
      <trkpt lat="47.2155" lon="-1.52171">
        <ele>56</ele>
        <time>2020-05-29T17:21:58.000Z</time>
      </trkpt>
      <trkpt lat="47.21543" lon="-1.52191">
        <ele>56</ele>
        <time>2020-05-29T17:22:00.000Z</time>
      </trkpt>
      <trkpt lat="47.21536" lon="-1.52212">
        <ele>57</ele>
        <time>2020-05-29T17:22:02.000Z</time>
      </trkpt>
      <trkpt lat="47.21529" lon="-1.52231">
        <ele>56</ele>
        <time>2020-05-29T17:22:04.000Z</time>
      </trkpt>
      <trkpt lat="47.21523" lon="-1.52251">
        <ele>56</ele>
        <time>2020-05-29T17:22:06.000Z</time>
      </trkpt>
      <trkpt lat="47.21517" lon="-1.52271">
        <ele>56</ele>
        <time>2020-05-29T17:22:08.000Z</time>
      </trkpt>
      <trkpt lat="47.21509" lon="-1.52292">
        <ele>56</ele>
        <time>2020-05-29T17:22:10.000Z</time>
      </trkpt>
      <trkpt lat="47.21503" lon="-1.52314">
        <ele>56</ele>
        <time>2020-05-29T17:22:12.000Z</time>
      </trkpt>
      <trkpt lat="47.21497" lon="-1.52334">
        <ele>56</ele>
        <time>2020-05-29T17:22:14.000Z</time>
      </trkpt>
      <trkpt lat="47.21492" lon="-1.52354">
        <ele>56</ele>
        <time>2020-05-29T17:22:16.000Z</time>
      </trkpt>
      <trkpt lat="47.21486" lon="-1.52375">
        <ele>56</ele>
        <time>2020-05-29T17:22:18.000Z</time>
      </trkpt>
      <trkpt lat="47.21479" lon="-1.52396">
        <ele>56</ele>
        <time>2020-05-29T17:22:20.000Z</time>
      </trkpt>
      <trkpt lat="47.21471" lon="-1.52419">
        <ele>57</ele>
        <time>2020-05-29T17:22:22.000Z</time>
      </trkpt>
      <trkpt lat="47.21463" lon="-1.52441">
        <ele>57</ele>
        <time>2020-05-29T17:22:24.000Z</time>
      </trkpt>
      <trkpt lat="47.21456" lon="-1.52462">
        <ele>57</ele>
        <time>2020-05-29T17:22:26.000Z</time>
      </trkpt>
      <trkpt lat="47.21449" lon="-1.52484">
        <ele>57</ele>
        <time>2020-05-29T17:22:28.000Z</time>
      </trkpt>
      <trkpt lat="47.21442" lon="-1.52506">
        <ele>56</ele>
        <time>2020-05-29T17:22:30.000Z</time>
      </trkpt>
      <trkpt lat="47.21435" lon="-1.52526">
        <ele>56</ele>
        <time>2020-05-29T17:22:32.000Z</time>
      </trkpt>
      <trkpt lat="47.21428" lon="-1.52547">
        <ele>56</ele>
        <time>2020-05-29T17:22:34.000Z</time>
      </trkpt>
      <trkpt lat="47.21422" lon="-1.52568">
        <ele>56</ele>
        <time>2020-05-29T17:22:36.000Z</time>
      </trkpt>
      <trkpt lat="47.21416" lon="-1.52589">
        <ele>57</ele>
        <time>2020-05-29T17:22:38.000Z</time>
      </trkpt>
      <trkpt lat="47.21409" lon="-1.5261">
        <ele>57</ele>
        <time>2020-05-29T17:22:40.000Z</time>
      </trkpt>
      <trkpt lat="47.21402" lon="-1.5263">
        <ele>57</ele>
        <time>2020-05-29T17:22:42.000Z</time>
      </trkpt>
      <trkpt lat="47.21396" lon="-1.52651">
        <ele>57</ele>
        <time>2020-05-29T17:22:44.000Z</time>
      </trkpt>
      <trkpt lat="47.21392" lon="-1.52671">
        <ele>57</ele>
        <time>2020-05-29T17:22:46.000Z</time>
      </trkpt>
      <trkpt lat="47.21387" lon="-1.52692">
        <ele>58</ele>
        <time>2020-05-29T17:22:48.000Z</time>
      </trkpt>
      <trkpt lat="47.21381" lon="-1.52713">
        <ele>58</ele>
        <time>2020-05-29T17:22:50.000Z</time>
      </trkpt>
      <trkpt lat="47.21377" lon="-1.52734">
        <ele>58</ele>
        <time>2020-05-29T17:22:52.000Z</time>
      </trkpt>
      <trkpt lat="47.21374" lon="-1.52754">
        <ele>58</ele>
        <time>2020-05-29T17:22:54.000Z</time>
      </trkpt>
      <trkpt lat="47.21371" lon="-1.52775">
        <ele>57</ele>
        <time>2020-05-29T17:22:56.000Z</time>
      </trkpt>
      <trkpt lat="47.21368" lon="-1.52797">
        <ele>58</ele>
        <time>2020-05-29T17:22:58.000Z</time>
      </trkpt>
      <trkpt lat="47.21365" lon="-1.52819">
        <ele>59</ele>
        <time>2020-05-29T17:23:00.000Z</time>
      </trkpt>
      <trkpt lat="47.21359" lon="-1.52843">
        <ele>57</ele>
        <time>2020-05-29T17:23:02.000Z</time>
      </trkpt>
      <trkpt lat="47.21354" lon="-1.5287">
        <ele>57</ele>
        <time>2020-05-29T17:23:04.000Z</time>
      </trkpt>
      <trkpt lat="47.21351" lon="-1.52884">
        <ele>57</ele>
        <time>2020-05-29T17:23:05.000Z</time>
      </trkpt>
      <trkpt lat="47.21348" lon="-1.52897">
        <ele>56</ele>
        <time>2020-05-29T17:23:06.000Z</time>
      </trkpt>
      <trkpt lat="47.21345" lon="-1.5291">
        <ele>57</ele>
        <time>2020-05-29T17:23:07.000Z</time>
      </trkpt>
      <trkpt lat="47.21344" lon="-1.52923">
        <ele>56</ele>
        <time>2020-05-29T17:23:08.000Z</time>
      </trkpt>
      <trkpt lat="47.21341" lon="-1.52949">
        <ele>56</ele>
        <time>2020-05-29T17:23:10.000Z</time>
      </trkpt>
      <trkpt lat="47.21338" lon="-1.52973">
        <ele>56</ele>
        <time>2020-05-29T17:23:12.000Z</time>
      </trkpt>
      <trkpt lat="47.21336" lon="-1.52997">
        <ele>57</ele>
        <time>2020-05-29T17:23:14.000Z</time>
      </trkpt>
      <trkpt lat="47.21334" lon="-1.5302">
        <ele>57</ele>
        <time>2020-05-29T17:23:16.000Z</time>
      </trkpt>
      <trkpt lat="47.21331" lon="-1.5304">
        <ele>58</ele>
        <time>2020-05-29T17:23:18.000Z</time>
      </trkpt>
      <trkpt lat="47.2133" lon="-1.5306">
        <ele>58</ele>
        <time>2020-05-29T17:23:20.000Z</time>
      </trkpt>
      <trkpt lat="47.2133" lon="-1.53083">
        <ele>59</ele>
        <time>2020-05-29T17:23:22.000Z</time>
      </trkpt>
      <trkpt lat="47.2133" lon="-1.53105">
        <ele>59</ele>
        <time>2020-05-29T17:23:24.000Z</time>
      </trkpt>
      <trkpt lat="47.21327" lon="-1.53128">
        <ele>59</ele>
        <time>2020-05-29T17:23:26.000Z</time>
      </trkpt>
      <trkpt lat="47.21322" lon="-1.53152">
        <ele>58</ele>
        <time>2020-05-29T17:23:28.000Z</time>
      </trkpt>
      <trkpt lat="47.21318" lon="-1.53175">
        <ele>58</ele>
        <time>2020-05-29T17:23:30.000Z</time>
      </trkpt>
      <trkpt lat="47.21315" lon="-1.53198">
        <ele>58</ele>
        <time>2020-05-29T17:23:32.000Z</time>
      </trkpt>
      <trkpt lat="47.21313" lon="-1.53223">
        <ele>58</ele>
        <time>2020-05-29T17:23:34.000Z</time>
      </trkpt>
      <trkpt lat="47.21313" lon="-1.53248">
        <ele>58</ele>
        <time>2020-05-29T17:23:36.000Z</time>
      </trkpt>
      <trkpt lat="47.21312" lon="-1.53271">
        <ele>58</ele>
        <time>2020-05-29T17:23:38.000Z</time>
      </trkpt>
      <trkpt lat="47.21312" lon="-1.53294">
        <ele>59</ele>
        <time>2020-05-29T17:23:40.000Z</time>
      </trkpt>
      <trkpt lat="47.2131" lon="-1.53315">
        <ele>60</ele>
        <time>2020-05-29T17:23:42.000Z</time>
      </trkpt>
      <trkpt lat="47.21307" lon="-1.53338">
        <ele>59</ele>
        <time>2020-05-29T17:23:44.000Z</time>
      </trkpt>
      <trkpt lat="47.21303" lon="-1.53359">
        <ele>59</ele>
        <time>2020-05-29T17:23:46.000Z</time>
      </trkpt>
      <trkpt lat="47.21298" lon="-1.53381">
        <ele>58</ele>
        <time>2020-05-29T17:23:48.000Z</time>
      </trkpt>
      <trkpt lat="47.21295" lon="-1.53402">
        <ele>57</ele>
        <time>2020-05-29T17:23:50.000Z</time>
      </trkpt>
      <trkpt lat="47.21291" lon="-1.53424">
        <ele>57</ele>
        <time>2020-05-29T17:23:52.000Z</time>
      </trkpt>
      <trkpt lat="47.21292" lon="-1.53446">
        <ele>57</ele>
        <time>2020-05-29T17:23:54.000Z</time>
      </trkpt>
      <trkpt lat="47.21297" lon="-1.53466">
        <ele>57</ele>
        <time>2020-05-29T17:23:56.000Z</time>
      </trkpt>
      <trkpt lat="47.21302" lon="-1.53486">
        <ele>56</ele>
        <time>2020-05-29T17:23:58.000Z</time>
      </trkpt>
      <trkpt lat="47.21304" lon="-1.53509">
        <ele>56</ele>
        <time>2020-05-29T17:24:00.000Z</time>
      </trkpt>
      <trkpt lat="47.21305" lon="-1.53531">
        <ele>57</ele>
        <time>2020-05-29T17:24:02.000Z</time>
      </trkpt>
      <trkpt lat="47.21306" lon="-1.53553">
        <ele>58</ele>
        <time>2020-05-29T17:24:04.000Z</time>
      </trkpt>
      <trkpt lat="47.21307" lon="-1.53574">
        <ele>58</ele>
        <time>2020-05-29T17:24:06.000Z</time>
      </trkpt>
      <trkpt lat="47.21307" lon="-1.53594">
        <ele>58</ele>
        <time>2020-05-29T17:24:08.000Z</time>
      </trkpt>
      <trkpt lat="47.21307" lon="-1.53612">
        <ele>58</ele>
        <time>2020-05-29T17:24:10.000Z</time>
      </trkpt>
      <trkpt lat="47.21302" lon="-1.53628">
        <ele>57</ele>
        <time>2020-05-29T17:24:12.000Z</time>
      </trkpt>
      <trkpt lat="47.21297" lon="-1.53644">
        <ele>58</ele>
        <time>2020-05-29T17:24:15.000Z</time>
      </trkpt>
      <trkpt lat="47.21295" lon="-1.53657">
        <ele>59</ele>
        <time>2020-05-29T17:24:17.000Z</time>
      </trkpt>
      <trkpt lat="47.21295" lon="-1.53671">
        <ele>59</ele>
        <time>2020-05-29T17:24:19.000Z</time>
      </trkpt>
      <trkpt lat="47.21302" lon="-1.53686">
        <ele>59</ele>
        <time>2020-05-29T17:24:21.000Z</time>
      </trkpt>
      <trkpt lat="47.21307" lon="-1.53705">
        <ele>59</ele>
        <time>2020-05-29T17:24:23.000Z</time>
      </trkpt>
      <trkpt lat="47.21312" lon="-1.53726">
        <ele>59</ele>
        <time>2020-05-29T17:24:25.000Z</time>
      </trkpt>
      <trkpt lat="47.21316" lon="-1.53747">
        <ele>59</ele>
        <time>2020-05-29T17:24:27.000Z</time>
      </trkpt>
      <trkpt lat="47.2132" lon="-1.53768">
        <ele>60</ele>
        <time>2020-05-29T17:24:29.000Z</time>
      </trkpt>
      <trkpt lat="47.21323" lon="-1.53788">
        <ele>60</ele>
        <time>2020-05-29T17:24:31.000Z</time>
      </trkpt>
      <trkpt lat="47.21327" lon="-1.53809">
        <ele>61</ele>
        <time>2020-05-29T17:24:33.000Z</time>
      </trkpt>
      <trkpt lat="47.2133" lon="-1.53829">
        <ele>61</ele>
        <time>2020-05-29T17:24:35.000Z</time>
      </trkpt>
      <trkpt lat="47.21334" lon="-1.53848">
        <ele>61</ele>
        <time>2020-05-29T17:24:37.000Z</time>
      </trkpt>
      <trkpt lat="47.21337" lon="-1.53866">
        <ele>61</ele>
        <time>2020-05-29T17:24:39.000Z</time>
      </trkpt>
      <trkpt lat="47.21341" lon="-1.53884">
        <ele>62</ele>
        <time>2020-05-29T17:24:41.000Z</time>
      </trkpt>
      <trkpt lat="47.21345" lon="-1.539">
        <ele>63</ele>
        <time>2020-05-29T17:24:43.000Z</time>
      </trkpt>
      <trkpt lat="47.21347" lon="-1.53915">
        <ele>63</ele>
        <time>2020-05-29T17:24:45.000Z</time>
      </trkpt>
      <trkpt lat="47.21357" lon="-1.53925">
        <ele>61</ele>
        <time>2020-05-29T17:24:52.000Z</time>
      </trkpt>
      <trkpt lat="47.21368" lon="-1.53931">
        <ele>61</ele>
        <time>2020-05-29T17:24:54.000Z</time>
      </trkpt>
      <trkpt lat="47.21381" lon="-1.53934">
        <ele>60</ele>
        <time>2020-05-29T17:24:56.000Z</time>
      </trkpt>
      <trkpt lat="47.21392" lon="-1.53949">
        <ele>59</ele>
        <time>2020-05-29T17:24:58.000Z</time>
      </trkpt>
      <trkpt lat="47.21395" lon="-1.5397">
        <ele>59</ele>
        <time>2020-05-29T17:25:00.000Z</time>
      </trkpt>
      <trkpt lat="47.21391" lon="-1.53985">
        <ele>59</ele>
        <time>2020-05-29T17:25:02.000Z</time>
      </trkpt>
      <trkpt lat="47.21388" lon="-1.53999">
        <ele>59</ele>
        <time>2020-05-29T17:25:04.000Z</time>
      </trkpt>
      <trkpt lat="47.21397" lon="-1.54014">
        <ele>59</ele>
        <time>2020-05-29T17:25:06.000Z</time>
      </trkpt>
      <trkpt lat="47.21407" lon="-1.54029">
        <ele>59</ele>
        <time>2020-05-29T17:25:08.000Z</time>
      </trkpt>
      <trkpt lat="47.21417" lon="-1.54044">
        <ele>59</ele>
        <time>2020-05-29T17:25:10.000Z</time>
      </trkpt>
      <trkpt lat="47.21427" lon="-1.5406">
        <ele>59</ele>
        <time>2020-05-29T17:25:12.000Z</time>
      </trkpt>
      <trkpt lat="47.21436" lon="-1.54076">
        <ele>59</ele>
        <time>2020-05-29T17:25:14.000Z</time>
      </trkpt>
      <trkpt lat="47.21447" lon="-1.5409">
        <ele>59</ele>
        <time>2020-05-29T17:25:16.000Z</time>
      </trkpt>
      <trkpt lat="47.21457" lon="-1.54104">
        <ele>59</ele>
        <time>2020-05-29T17:25:18.000Z</time>
      </trkpt>
      <trkpt lat="47.21466" lon="-1.54119">
        <ele>59</ele>
        <time>2020-05-29T17:25:20.000Z</time>
      </trkpt>
      <trkpt lat="47.21476" lon="-1.54134">
        <ele>59</ele>
        <time>2020-05-29T17:25:22.000Z</time>
      </trkpt>
      <trkpt lat="47.21485" lon="-1.54148">
        <ele>59</ele>
        <time>2020-05-29T17:25:24.000Z</time>
      </trkpt>
      <trkpt lat="47.21493" lon="-1.54162">
        <ele>59</ele>
        <time>2020-05-29T17:25:26.000Z</time>
      </trkpt>
      <trkpt lat="47.21504" lon="-1.54175">
        <ele>59</ele>
        <time>2020-05-29T17:25:28.000Z</time>
      </trkpt>
      <trkpt lat="47.21515" lon="-1.54191">
        <ele>58</ele>
        <time>2020-05-29T17:25:30.000Z</time>
      </trkpt>
      <trkpt lat="47.21524" lon="-1.54207">
        <ele>58</ele>
        <time>2020-05-29T17:25:32.000Z</time>
      </trkpt>
      <trkpt lat="47.21534" lon="-1.54224">
        <ele>57</ele>
        <time>2020-05-29T17:25:34.000Z</time>
      </trkpt>
      <trkpt lat="47.21543" lon="-1.54239">
        <ele>58</ele>
        <time>2020-05-29T17:25:36.000Z</time>
      </trkpt>
      <trkpt lat="47.21555" lon="-1.54247">
        <ele>58</ele>
        <time>2020-05-29T17:25:38.000Z</time>
      </trkpt>
      <trkpt lat="47.21568" lon="-1.54248">
        <ele>57</ele>
        <time>2020-05-29T17:25:40.000Z</time>
      </trkpt>
      <trkpt lat="47.21581" lon="-1.54259">
        <ele>55</ele>
        <time>2020-05-29T17:25:42.000Z</time>
      </trkpt>
      <trkpt lat="47.21582" lon="-1.54281">
        <ele>55</ele>
        <time>2020-05-29T17:25:44.000Z</time>
      </trkpt>
      <trkpt lat="47.21585" lon="-1.54301">
        <ele>55</ele>
        <time>2020-05-29T17:25:46.000Z</time>
      </trkpt>
      <trkpt lat="47.21593" lon="-1.54318">
        <ele>56</ele>
        <time>2020-05-29T17:25:48.000Z</time>
      </trkpt>
      <trkpt lat="47.21601" lon="-1.54334">
        <ele>56</ele>
        <time>2020-05-29T17:25:50.000Z</time>
      </trkpt>
      <trkpt lat="47.21607" lon="-1.5435">
        <ele>57</ele>
        <time>2020-05-29T17:25:52.000Z</time>
      </trkpt>
      <trkpt lat="47.21613" lon="-1.54367">
        <ele>57</ele>
        <time>2020-05-29T17:25:54.000Z</time>
      </trkpt>
      <trkpt lat="47.21616" lon="-1.54387">
        <ele>58</ele>
        <time>2020-05-29T17:25:56.000Z</time>
      </trkpt>
      <trkpt lat="47.21617" lon="-1.54407">
        <ele>59</ele>
        <time>2020-05-29T17:25:58.000Z</time>
      </trkpt>
      <trkpt lat="47.21616" lon="-1.54426">
        <ele>60</ele>
        <time>2020-05-29T17:26:00.000Z</time>
      </trkpt>
      <trkpt lat="47.21615" lon="-1.54445">
        <ele>60</ele>
        <time>2020-05-29T17:26:02.000Z</time>
      </trkpt>
      <trkpt lat="47.21614" lon="-1.54464">
        <ele>60</ele>
        <time>2020-05-29T17:26:04.000Z</time>
      </trkpt>
      <trkpt lat="47.21612" lon="-1.54483">
        <ele>60</ele>
        <time>2020-05-29T17:26:06.000Z</time>
      </trkpt>
      <trkpt lat="47.21608" lon="-1.54501">
        <ele>60</ele>
        <time>2020-05-29T17:26:08.000Z</time>
      </trkpt>
      <trkpt lat="47.21603" lon="-1.54519">
        <ele>60</ele>
        <time>2020-05-29T17:26:10.000Z</time>
      </trkpt>
      <trkpt lat="47.21596" lon="-1.54535">
        <ele>59</ele>
        <time>2020-05-29T17:26:12.000Z</time>
      </trkpt>
      <trkpt lat="47.21589" lon="-1.54551">
        <ele>60</ele>
        <time>2020-05-29T17:26:14.000Z</time>
      </trkpt>
      <trkpt lat="47.21583" lon="-1.54569">
        <ele>60</ele>
        <time>2020-05-29T17:26:16.000Z</time>
      </trkpt>
      <trkpt lat="47.21576" lon="-1.54587">
        <ele>60</ele>
        <time>2020-05-29T17:26:18.000Z</time>
      </trkpt>
      <trkpt lat="47.2157" lon="-1.54605">
        <ele>59</ele>
        <time>2020-05-29T17:26:20.000Z</time>
      </trkpt>
      <trkpt lat="47.21563" lon="-1.54624">
        <ele>59</ele>
        <time>2020-05-29T17:26:22.000Z</time>
      </trkpt>
      <trkpt lat="47.21557" lon="-1.54642">
        <ele>59</ele>
        <time>2020-05-29T17:26:24.000Z</time>
      </trkpt>
      <trkpt lat="47.2155" lon="-1.5466">
        <ele>59</ele>
        <time>2020-05-29T17:26:26.000Z</time>
      </trkpt>
      <trkpt lat="47.21544" lon="-1.54674">
        <ele>59</ele>
        <time>2020-05-29T17:26:28.000Z</time>
      </trkpt>
      <trkpt lat="47.21541" lon="-1.54692">
        <ele>59</ele>
        <time>2020-05-29T17:26:30.000Z</time>
      </trkpt>
      <trkpt lat="47.21536" lon="-1.54714">
        <ele>59</ele>
        <time>2020-05-29T17:26:32.000Z</time>
      </trkpt>
      <trkpt lat="47.21528" lon="-1.54732">
        <ele>61</ele>
        <time>2020-05-29T17:26:34.000Z</time>
      </trkpt>
      <trkpt lat="47.2152" lon="-1.54752">
        <ele>60</ele>
        <time>2020-05-29T17:26:36.000Z</time>
      </trkpt>
      <trkpt lat="47.21511" lon="-1.54773">
        <ele>60</ele>
        <time>2020-05-29T17:26:38.000Z</time>
      </trkpt>
      <trkpt lat="47.21504" lon="-1.54792">
        <ele>59</ele>
        <time>2020-05-29T17:26:40.000Z</time>
      </trkpt>
      <trkpt lat="47.21497" lon="-1.5481">
        <ele>60</ele>
        <time>2020-05-29T17:26:42.000Z</time>
      </trkpt>
      <trkpt lat="47.2149" lon="-1.54828">
        <ele>60</ele>
        <time>2020-05-29T17:26:44.000Z</time>
      </trkpt>
      <trkpt lat="47.21482" lon="-1.54845">
        <ele>60</ele>
        <time>2020-05-29T17:26:46.000Z</time>
      </trkpt>
      <trkpt lat="47.21472" lon="-1.54862">
        <ele>60</ele>
        <time>2020-05-29T17:26:48.000Z</time>
      </trkpt>
      <trkpt lat="47.21463" lon="-1.54881">
        <ele>60</ele>
        <time>2020-05-29T17:26:50.000Z</time>
      </trkpt>
      <trkpt lat="47.21454" lon="-1.549">
        <ele>61</ele>
        <time>2020-05-29T17:26:52.000Z</time>
      </trkpt>
      <trkpt lat="47.21446" lon="-1.54918">
        <ele>60</ele>
        <time>2020-05-29T17:26:54.000Z</time>
      </trkpt>
      <trkpt lat="47.21438" lon="-1.54937">
        <ele>60</ele>
        <time>2020-05-29T17:26:56.000Z</time>
      </trkpt>
      <trkpt lat="47.21429" lon="-1.54954">
        <ele>60</ele>
        <time>2020-05-29T17:26:58.000Z</time>
      </trkpt>
      <trkpt lat="47.2142" lon="-1.54973">
        <ele>60</ele>
        <time>2020-05-29T17:27:00.000Z</time>
      </trkpt>
      <trkpt lat="47.21411" lon="-1.54992">
        <ele>60</ele>
        <time>2020-05-29T17:27:02.000Z</time>
      </trkpt>
      <trkpt lat="47.21402" lon="-1.55012">
        <ele>60</ele>
        <time>2020-05-29T17:27:04.000Z</time>
      </trkpt>
      <trkpt lat="47.21394" lon="-1.55029">
        <ele>60</ele>
        <time>2020-05-29T17:27:06.000Z</time>
      </trkpt>
      <trkpt lat="47.21386" lon="-1.55046">
        <ele>60</ele>
        <time>2020-05-29T17:27:08.000Z</time>
      </trkpt>
      <trkpt lat="47.21378" lon="-1.55064">
        <ele>59</ele>
        <time>2020-05-29T17:27:10.000Z</time>
      </trkpt>
      <trkpt lat="47.21371" lon="-1.55083">
        <ele>59</ele>
        <time>2020-05-29T17:27:12.000Z</time>
      </trkpt>
      <trkpt lat="47.21365" lon="-1.55101">
        <ele>58</ele>
        <time>2020-05-29T17:27:14.000Z</time>
      </trkpt>
      <trkpt lat="47.21357" lon="-1.55119">
        <ele>58</ele>
        <time>2020-05-29T17:27:16.000Z</time>
      </trkpt>
      <trkpt lat="47.21351" lon="-1.55136">
        <ele>57</ele>
        <time>2020-05-29T17:27:18.000Z</time>
      </trkpt>
      <trkpt lat="47.21344" lon="-1.55154">
        <ele>56</ele>
        <time>2020-05-29T17:27:20.000Z</time>
      </trkpt>
      <trkpt lat="47.21337" lon="-1.55172">
        <ele>56</ele>
        <time>2020-05-29T17:27:22.000Z</time>
      </trkpt>
      <trkpt lat="47.2133" lon="-1.5519">
        <ele>55</ele>
        <time>2020-05-29T17:27:24.000Z</time>
      </trkpt>
      <trkpt lat="47.21323" lon="-1.55208">
        <ele>55</ele>
        <time>2020-05-29T17:27:26.000Z</time>
      </trkpt>
      <trkpt lat="47.21315" lon="-1.55227">
        <ele>54</ele>
        <time>2020-05-29T17:27:28.000Z</time>
      </trkpt>
      <trkpt lat="47.21309" lon="-1.55245">
        <ele>54</ele>
        <time>2020-05-29T17:27:30.000Z</time>
      </trkpt>
      <trkpt lat="47.21301" lon="-1.55261">
        <ele>54</ele>
        <time>2020-05-29T17:27:32.000Z</time>
      </trkpt>
      <trkpt lat="47.21294" lon="-1.55276">
        <ele>55</ele>
        <time>2020-05-29T17:27:34.000Z</time>
      </trkpt>
      <trkpt lat="47.21286" lon="-1.55288">
        <ele>55</ele>
        <time>2020-05-29T17:27:36.000Z</time>
      </trkpt>
      <trkpt lat="47.21271" lon="-1.55292">
        <ele>56</ele>
        <time>2020-05-29T17:27:38.000Z</time>
      </trkpt>
      <trkpt lat="47.21263" lon="-1.55299">
        <ele>56</ele>
        <time>2020-05-29T17:27:40.000Z</time>
      </trkpt>
      <trkpt lat="47.21261" lon="-1.55314">
        <ele>57</ele>
        <time>2020-05-29T17:27:42.000Z</time>
      </trkpt>
      <trkpt lat="47.21263" lon="-1.55329">
        <ele>58</ele>
        <time>2020-05-29T17:27:44.000Z</time>
      </trkpt>
      <trkpt lat="47.21268" lon="-1.55341">
        <ele>59</ele>
        <time>2020-05-29T17:27:46.000Z</time>
      </trkpt>
      <trkpt lat="47.21278" lon="-1.55353">
        <ele>58</ele>
        <time>2020-05-29T17:27:49.000Z</time>
      </trkpt>
      <trkpt lat="47.21284" lon="-1.55362">
        <ele>59</ele>
        <time>2020-05-29T17:27:51.000Z</time>
      </trkpt>
      <trkpt lat="47.21282" lon="-1.55377">
        <ele>58</ele>
        <time>2020-05-29T17:27:53.000Z</time>
      </trkpt>
      <trkpt lat="47.21275" lon="-1.5539">
        <ele>58</ele>
        <time>2020-05-29T17:27:55.000Z</time>
      </trkpt>
      <trkpt lat="47.21267" lon="-1.55407">
        <ele>59</ele>
        <time>2020-05-29T17:27:57.000Z</time>
      </trkpt>
      <trkpt lat="47.21257" lon="-1.55426">
        <ele>59</ele>
        <time>2020-05-29T17:27:59.000Z</time>
      </trkpt>
      <trkpt lat="47.21245" lon="-1.55445">
        <ele>59</ele>
        <time>2020-05-29T17:28:01.000Z</time>
      </trkpt>
      <trkpt lat="47.21233" lon="-1.55464">
        <ele>59</ele>
        <time>2020-05-29T17:28:03.000Z</time>
      </trkpt>
      <trkpt lat="47.21224" lon="-1.55485">
        <ele>59</ele>
        <time>2020-05-29T17:28:05.000Z</time>
      </trkpt>
      <trkpt lat="47.21216" lon="-1.55508">
        <ele>59</ele>
        <time>2020-05-29T17:28:07.000Z</time>
      </trkpt>
      <trkpt lat="47.21213" lon="-1.55521">
        <ele>59</ele>
        <time>2020-05-29T17:28:08.000Z</time>
      </trkpt>
      <trkpt lat="47.2121" lon="-1.55533">
        <ele>59</ele>
        <time>2020-05-29T17:28:09.000Z</time>
      </trkpt>
      <trkpt lat="47.21206" lon="-1.55545">
        <ele>59</ele>
        <time>2020-05-29T17:28:10.000Z</time>
      </trkpt>
      <trkpt lat="47.21198" lon="-1.55569">
        <ele>58</ele>
        <time>2020-05-29T17:28:12.000Z</time>
      </trkpt>
      <trkpt lat="47.2119" lon="-1.5559">
        <ele>58</ele>
        <time>2020-05-29T17:28:14.000Z</time>
      </trkpt>
      <trkpt lat="47.21182" lon="-1.55612">
        <ele>58</ele>
        <time>2020-05-29T17:28:16.000Z</time>
      </trkpt>
      <trkpt lat="47.21175" lon="-1.55633">
        <ele>58</ele>
        <time>2020-05-29T17:28:18.000Z</time>
      </trkpt>
      <trkpt lat="47.21171" lon="-1.55649">
        <ele>57</ele>
        <time>2020-05-29T17:28:20.000Z</time>
      </trkpt>
      <trkpt lat="47.21166" lon="-1.55666">
        <ele>58</ele>
        <time>2020-05-29T17:28:22.000Z</time>
      </trkpt>
      <trkpt lat="47.21154" lon="-1.55674">
        <ele>57</ele>
        <time>2020-05-29T17:28:24.000Z</time>
      </trkpt>
      <trkpt lat="47.21141" lon="-1.55667">
        <ele>57</ele>
        <time>2020-05-29T17:28:26.000Z</time>
      </trkpt>
      <trkpt lat="47.2113" lon="-1.55654">
        <ele>56</ele>
        <time>2020-05-29T17:28:28.000Z</time>
      </trkpt>
      <trkpt lat="47.21118" lon="-1.55643">
        <ele>56</ele>
        <time>2020-05-29T17:28:30.000Z</time>
      </trkpt>
      <trkpt lat="47.21105" lon="-1.55632">
        <ele>56</ele>
        <time>2020-05-29T17:28:32.000Z</time>
      </trkpt>
      <trkpt lat="47.2109" lon="-1.55622">
        <ele>57</ele>
        <time>2020-05-29T17:28:34.000Z</time>
      </trkpt>
      <trkpt lat="47.21075" lon="-1.55612">
        <ele>59</ele>
        <time>2020-05-29T17:28:36.000Z</time>
      </trkpt>
      <trkpt lat="47.21061" lon="-1.55602">
        <ele>60</ele>
        <time>2020-05-29T17:28:38.000Z</time>
      </trkpt>
      <trkpt lat="47.21047" lon="-1.55594">
        <ele>60</ele>
        <time>2020-05-29T17:28:40.000Z</time>
      </trkpt>
      <trkpt lat="47.21034" lon="-1.55588">
        <ele>60</ele>
        <time>2020-05-29T17:28:42.000Z</time>
      </trkpt>
      <trkpt lat="47.2102" lon="-1.55584">
        <ele>60</ele>
        <time>2020-05-29T17:28:44.000Z</time>
      </trkpt>
      <trkpt lat="47.21007" lon="-1.55581">
        <ele>60</ele>
        <time>2020-05-29T17:28:46.000Z</time>
      </trkpt>
      <trkpt lat="47.20995" lon="-1.55579">
        <ele>60</ele>
        <time>2020-05-29T17:28:48.000Z</time>
      </trkpt>
      <trkpt lat="47.20985" lon="-1.55576">
        <ele>59</ele>
        <time>2020-05-29T17:28:50.000Z</time>
      </trkpt>
      <trkpt lat="47.20975" lon="-1.55575">
        <ele>59</ele>
        <time>2020-05-29T17:28:52.000Z</time>
      </trkpt>
      <trkpt lat="47.20964" lon="-1.55574">
        <ele>59</ele>
        <time>2020-05-29T17:28:55.000Z</time>
      </trkpt>
      <trkpt lat="47.20955" lon="-1.55571">
        <ele>58</ele>
        <time>2020-05-29T17:28:59.000Z</time>
      </trkpt>
      <trkpt lat="47.20946" lon="-1.5557">
        <ele>58</ele>
        <time>2020-05-29T17:29:03.000Z</time>
      </trkpt>
      <trkpt lat="47.20936" lon="-1.55568">
        <ele>57</ele>
        <time>2020-05-29T17:29:05.000Z</time>
      </trkpt>
      <trkpt lat="47.20922" lon="-1.55564">
        <ele>57</ele>
        <time>2020-05-29T17:29:07.000Z</time>
      </trkpt>
      <trkpt lat="47.20909" lon="-1.5556">
        <ele>57</ele>
        <time>2020-05-29T17:29:09.000Z</time>
      </trkpt>
      <trkpt lat="47.20894" lon="-1.55554">
        <ele>58</ele>
        <time>2020-05-29T17:29:11.000Z</time>
      </trkpt>
      <trkpt lat="47.2088" lon="-1.55549">
        <ele>59</ele>
        <time>2020-05-29T17:29:13.000Z</time>
      </trkpt>
      <trkpt lat="47.20865" lon="-1.55546">
        <ele>59</ele>
        <time>2020-05-29T17:29:15.000Z</time>
      </trkpt>
      <trkpt lat="47.2085" lon="-1.55544">
        <ele>59</ele>
        <time>2020-05-29T17:29:17.000Z</time>
      </trkpt>
      <trkpt lat="47.20835" lon="-1.55541">
        <ele>59</ele>
        <time>2020-05-29T17:29:19.000Z</time>
      </trkpt>
      <trkpt lat="47.2082" lon="-1.55537">
        <ele>59</ele>
        <time>2020-05-29T17:29:21.000Z</time>
      </trkpt>
      <trkpt lat="47.20805" lon="-1.55534">
        <ele>58</ele>
        <time>2020-05-29T17:29:23.000Z</time>
      </trkpt>
      <trkpt lat="47.20789" lon="-1.55531">
        <ele>58</ele>
        <time>2020-05-29T17:29:25.000Z</time>
      </trkpt>
      <trkpt lat="47.20774" lon="-1.55526">
        <ele>57</ele>
        <time>2020-05-29T17:29:27.000Z</time>
      </trkpt>
      <trkpt lat="47.20757" lon="-1.55523">
        <ele>56</ele>
        <time>2020-05-29T17:29:29.000Z</time>
      </trkpt>
      <trkpt lat="47.20741" lon="-1.55518">
        <ele>55</ele>
        <time>2020-05-29T17:29:31.000Z</time>
      </trkpt>
      <trkpt lat="47.20727" lon="-1.55512">
        <ele>55</ele>
        <time>2020-05-29T17:29:33.000Z</time>
      </trkpt>
      <trkpt lat="47.20712" lon="-1.55508">
        <ele>56</ele>
        <time>2020-05-29T17:29:35.000Z</time>
      </trkpt>
      <trkpt lat="47.20698" lon="-1.55504">
        <ele>56</ele>
        <time>2020-05-29T17:29:37.000Z</time>
      </trkpt>
      <trkpt lat="47.20687" lon="-1.55502">
        <ele>57</ele>
        <time>2020-05-29T17:29:39.000Z</time>
      </trkpt>
      <trkpt lat="47.20676" lon="-1.555">
        <ele>56</ele>
        <time>2020-05-29T17:29:42.000Z</time>
      </trkpt>
      <trkpt lat="47.20667" lon="-1.555">
        <ele>56</ele>
        <time>2020-05-29T17:29:48.000Z</time>
      </trkpt>
      <trkpt lat="47.20656" lon="-1.55498">
        <ele>56</ele>
        <time>2020-05-29T17:30:05.000Z</time>
      </trkpt>
      <trkpt lat="47.20644" lon="-1.55495">
        <ele>58</ele>
        <time>2020-05-29T17:30:07.000Z</time>
      </trkpt>
      <trkpt lat="47.20631" lon="-1.55493">
        <ele>59</ele>
        <time>2020-05-29T17:30:09.000Z</time>
      </trkpt>
      <trkpt lat="47.20617" lon="-1.5549">
        <ele>59</ele>
        <time>2020-05-29T17:30:11.000Z</time>
      </trkpt>
      <trkpt lat="47.20602" lon="-1.55487">
        <ele>59</ele>
        <time>2020-05-29T17:30:13.000Z</time>
      </trkpt>
      <trkpt lat="47.20589" lon="-1.55484">
        <ele>59</ele>
        <time>2020-05-29T17:30:15.000Z</time>
      </trkpt>
      <trkpt lat="47.20574" lon="-1.55481">
        <ele>57</ele>
        <time>2020-05-29T17:30:17.000Z</time>
      </trkpt>
      <trkpt lat="47.20561" lon="-1.55485">
        <ele>57</ele>
        <time>2020-05-29T17:30:19.000Z</time>
      </trkpt>
      <trkpt lat="47.20548" lon="-1.55497">
        <ele>57</ele>
        <time>2020-05-29T17:30:21.000Z</time>
      </trkpt>
      <trkpt lat="47.20534" lon="-1.55506">
        <ele>57</ele>
        <time>2020-05-29T17:30:23.000Z</time>
      </trkpt>
      <trkpt lat="47.20521" lon="-1.55501">
        <ele>57</ele>
        <time>2020-05-29T17:30:25.000Z</time>
      </trkpt>
      <trkpt lat="47.20509" lon="-1.55485">
        <ele>58</ele>
        <time>2020-05-29T17:30:27.000Z</time>
      </trkpt>
      <trkpt lat="47.20502" lon="-1.55462">
        <ele>58</ele>
        <time>2020-05-29T17:30:29.000Z</time>
      </trkpt>
      <trkpt lat="47.20504" lon="-1.55449">
        <ele>59</ele>
        <time>2020-05-29T17:30:30.000Z</time>
      </trkpt>
      <trkpt lat="47.20506" lon="-1.55436">
        <ele>58</ele>
        <time>2020-05-29T17:30:31.000Z</time>
      </trkpt>
      <trkpt lat="47.20503" lon="-1.55415">
        <ele>57</ele>
        <time>2020-05-29T17:30:33.000Z</time>
      </trkpt>
      <trkpt lat="47.20495" lon="-1.55397">
        <ele>57</ele>
        <time>2020-05-29T17:30:35.000Z</time>
      </trkpt>
      <trkpt lat="47.20487" lon="-1.55379">
        <ele>57</ele>
        <time>2020-05-29T17:30:37.000Z</time>
      </trkpt>
      <trkpt lat="47.20479" lon="-1.55362">
        <ele>57</ele>
        <time>2020-05-29T17:30:39.000Z</time>
      </trkpt>
      <trkpt lat="47.20469" lon="-1.55345">
        <ele>58</ele>
        <time>2020-05-29T17:30:41.000Z</time>
      </trkpt>
      <trkpt lat="47.20459" lon="-1.55328">
        <ele>58</ele>
        <time>2020-05-29T17:30:43.000Z</time>
      </trkpt>
      <trkpt lat="47.20451" lon="-1.5531">
        <ele>57</ele>
        <time>2020-05-29T17:30:45.000Z</time>
      </trkpt>
      <trkpt lat="47.20442" lon="-1.55292">
        <ele>56</ele>
        <time>2020-05-29T17:30:47.000Z</time>
      </trkpt>
      <trkpt lat="47.20434" lon="-1.55274">
        <ele>56</ele>
        <time>2020-05-29T17:30:49.000Z</time>
      </trkpt>
      <trkpt lat="47.20425" lon="-1.55258">
        <ele>55</ele>
        <time>2020-05-29T17:30:51.000Z</time>
      </trkpt>
      <trkpt lat="47.20417" lon="-1.55239">
        <ele>54</ele>
        <time>2020-05-29T17:30:53.000Z</time>
      </trkpt>
      <trkpt lat="47.2041" lon="-1.55223">
        <ele>53</ele>
        <time>2020-05-29T17:30:55.000Z</time>
      </trkpt>
      <trkpt lat="47.20402" lon="-1.55209">
        <ele>54</ele>
        <time>2020-05-29T17:30:57.000Z</time>
      </trkpt>
      <trkpt lat="47.20395" lon="-1.55195">
        <ele>55</ele>
        <time>2020-05-29T17:30:59.000Z</time>
      </trkpt>
      <trkpt lat="47.20385" lon="-1.55186">
        <ele>56</ele>
        <time>2020-05-29T17:31:02.000Z</time>
      </trkpt>
      <trkpt lat="47.20373" lon="-1.55191">
        <ele>56</ele>
        <time>2020-05-29T17:31:05.000Z</time>
      </trkpt>
      <trkpt lat="47.20362" lon="-1.55207">
        <ele>56</ele>
        <time>2020-05-29T17:31:07.000Z</time>
      </trkpt>
      <trkpt lat="47.2035" lon="-1.55219">
        <ele>57</ele>
        <time>2020-05-29T17:31:09.000Z</time>
      </trkpt>
      <trkpt lat="47.2034" lon="-1.55233">
        <ele>57</ele>
        <time>2020-05-29T17:31:11.000Z</time>
      </trkpt>
      <trkpt lat="47.20329" lon="-1.55247">
        <ele>57</ele>
        <time>2020-05-29T17:31:13.000Z</time>
      </trkpt>
      <trkpt lat="47.20318" lon="-1.55261">
        <ele>58</ele>
        <time>2020-05-29T17:31:15.000Z</time>
      </trkpt>
      <trkpt lat="47.20307" lon="-1.55274">
        <ele>60</ele>
        <time>2020-05-29T17:31:17.000Z</time>
      </trkpt>
      <trkpt lat="47.20296" lon="-1.55287">
        <ele>61</ele>
        <time>2020-05-29T17:31:19.000Z</time>
      </trkpt>
      <trkpt lat="47.20287" lon="-1.55301">
        <ele>61</ele>
        <time>2020-05-29T17:31:21.000Z</time>
      </trkpt>
      <trkpt lat="47.20277" lon="-1.55315">
        <ele>60</ele>
        <time>2020-05-29T17:31:23.000Z</time>
      </trkpt>
      <trkpt lat="47.20267" lon="-1.5533">
        <ele>60</ele>
        <time>2020-05-29T17:31:25.000Z</time>
      </trkpt>
      <trkpt lat="47.20258" lon="-1.55344">
        <ele>58</ele>
        <time>2020-05-29T17:31:27.000Z</time>
      </trkpt>
      <trkpt lat="47.20248" lon="-1.55358">
        <ele>59</ele>
        <time>2020-05-29T17:31:29.000Z</time>
      </trkpt>
      <trkpt lat="47.20236" lon="-1.55371">
        <ele>58</ele>
        <time>2020-05-29T17:31:31.000Z</time>
      </trkpt>
      <trkpt lat="47.20224" lon="-1.55384">
        <ele>58</ele>
        <time>2020-05-29T17:31:33.000Z</time>
      </trkpt>
      <trkpt lat="47.20212" lon="-1.55397">
        <ele>57</ele>
        <time>2020-05-29T17:31:35.000Z</time>
      </trkpt>
      <trkpt lat="47.20202" lon="-1.55411">
        <ele>57</ele>
        <time>2020-05-29T17:31:37.000Z</time>
      </trkpt>
      <trkpt lat="47.20192" lon="-1.55427">
        <ele>57</ele>
        <time>2020-05-29T17:31:39.000Z</time>
      </trkpt>
      <trkpt lat="47.20179" lon="-1.55443">
        <ele>57</ele>
        <time>2020-05-29T17:31:41.000Z</time>
      </trkpt>
      <trkpt lat="47.20168" lon="-1.5546">
        <ele>58</ele>
        <time>2020-05-29T17:31:43.000Z</time>
      </trkpt>
      <trkpt lat="47.20156" lon="-1.55474">
        <ele>57</ele>
        <time>2020-05-29T17:31:45.000Z</time>
      </trkpt>
      <trkpt lat="47.20143" lon="-1.55489">
        <ele>56</ele>
        <time>2020-05-29T17:31:47.000Z</time>
      </trkpt>
      <trkpt lat="47.20131" lon="-1.55505">
        <ele>56</ele>
        <time>2020-05-29T17:31:49.000Z</time>
      </trkpt>
      <trkpt lat="47.20119" lon="-1.5552">
        <ele>57</ele>
        <time>2020-05-29T17:31:51.000Z</time>
      </trkpt>
      <trkpt lat="47.20107" lon="-1.55534">
        <ele>57</ele>
        <time>2020-05-29T17:31:53.000Z</time>
      </trkpt>
      <trkpt lat="47.20095" lon="-1.5555">
        <ele>57</ele>
        <time>2020-05-29T17:31:55.000Z</time>
      </trkpt>
      <trkpt lat="47.20082" lon="-1.55566">
        <ele>56</ele>
        <time>2020-05-29T17:31:57.000Z</time>
      </trkpt>
      <trkpt lat="47.2007" lon="-1.55582">
        <ele>56</ele>
        <time>2020-05-29T17:31:59.000Z</time>
      </trkpt>
      <trkpt lat="47.20059" lon="-1.55597">
        <ele>56</ele>
        <time>2020-05-29T17:32:01.000Z</time>
      </trkpt>
      <trkpt lat="47.20047" lon="-1.55613">
        <ele>57</ele>
        <time>2020-05-29T17:32:03.000Z</time>
      </trkpt>
      <trkpt lat="47.20035" lon="-1.55626">
        <ele>57</ele>
        <time>2020-05-29T17:32:05.000Z</time>
      </trkpt>
      <trkpt lat="47.20026" lon="-1.5564">
        <ele>56</ele>
        <time>2020-05-29T17:32:07.000Z</time>
      </trkpt>
      <trkpt lat="47.20017" lon="-1.55653">
        <ele>56</ele>
        <time>2020-05-29T17:32:09.000Z</time>
      </trkpt>
      <trkpt lat="47.20009" lon="-1.55665">
        <ele>56</ele>
        <time>2020-05-29T17:32:11.000Z</time>
      </trkpt>
      <trkpt lat="47.19998" lon="-1.55665">
        <ele>56</ele>
        <time>2020-05-29T17:32:13.000Z</time>
      </trkpt>
      <trkpt lat="47.19993" lon="-1.55649">
        <ele>55</ele>
        <time>2020-05-29T17:32:15.000Z</time>
      </trkpt>
      <trkpt lat="47.19981" lon="-1.55647">
        <ele>54</ele>
        <time>2020-05-29T17:32:19.000Z</time>
      </trkpt>
      <trkpt lat="47.1997" lon="-1.55655">
        <ele>54</ele>
        <time>2020-05-29T17:32:21.000Z</time>
      </trkpt>
      <trkpt lat="47.19959" lon="-1.55665">
        <ele>55</ele>
        <time>2020-05-29T17:32:23.000Z</time>
      </trkpt>
      <trkpt lat="47.19948" lon="-1.55677">
        <ele>55</ele>
        <time>2020-05-29T17:32:25.000Z</time>
      </trkpt>
      <trkpt lat="47.19939" lon="-1.55694">
        <ele>54</ele>
        <time>2020-05-29T17:32:27.000Z</time>
      </trkpt>
      <trkpt lat="47.19934" lon="-1.55714">
        <ele>53</ele>
        <time>2020-05-29T17:32:29.000Z</time>
      </trkpt>
      <trkpt lat="47.19933" lon="-1.55735">
        <ele>53</ele>
        <time>2020-05-29T17:32:31.000Z</time>
      </trkpt>
      <trkpt lat="47.19933" lon="-1.55757">
        <ele>53</ele>
        <time>2020-05-29T17:32:33.000Z</time>
      </trkpt>
      <trkpt lat="47.19933" lon="-1.55777">
        <ele>53</ele>
        <time>2020-05-29T17:32:35.000Z</time>
      </trkpt>
      <trkpt lat="47.19933" lon="-1.55799">
        <ele>53</ele>
        <time>2020-05-29T17:32:37.000Z</time>
      </trkpt>
      <trkpt lat="47.19934" lon="-1.55821">
        <ele>53</ele>
        <time>2020-05-29T17:32:39.000Z</time>
      </trkpt>
      <trkpt lat="47.19934" lon="-1.55843">
        <ele>53</ele>
        <time>2020-05-29T17:32:41.000Z</time>
      </trkpt>
      <trkpt lat="47.19934" lon="-1.55865">
        <ele>54</ele>
        <time>2020-05-29T17:32:43.000Z</time>
      </trkpt>
      <trkpt lat="47.19934" lon="-1.55887">
        <ele>54</ele>
        <time>2020-05-29T17:32:45.000Z</time>
      </trkpt>
      <trkpt lat="47.19934" lon="-1.55909">
        <ele>54</ele>
        <time>2020-05-29T17:32:47.000Z</time>
      </trkpt>
      <trkpt lat="47.19935" lon="-1.55932">
        <ele>53</ele>
        <time>2020-05-29T17:32:49.000Z</time>
      </trkpt>
      <trkpt lat="47.19935" lon="-1.55952">
        <ele>53</ele>
        <time>2020-05-29T17:32:51.000Z</time>
      </trkpt>
      <trkpt lat="47.19936" lon="-1.55973">
        <ele>53</ele>
        <time>2020-05-29T17:32:53.000Z</time>
      </trkpt>
      <trkpt lat="47.19936" lon="-1.55994">
        <ele>53</ele>
        <time>2020-05-29T17:32:55.000Z</time>
      </trkpt>
      <trkpt lat="47.19935" lon="-1.56015">
        <ele>54</ele>
        <time>2020-05-29T17:32:57.000Z</time>
      </trkpt>
      <trkpt lat="47.19935" lon="-1.56036">
        <ele>54</ele>
        <time>2020-05-29T17:32:59.000Z</time>
      </trkpt>
      <trkpt lat="47.19936" lon="-1.56057">
        <ele>54</ele>
        <time>2020-05-29T17:33:01.000Z</time>
      </trkpt>
      <trkpt lat="47.1994" lon="-1.56077">
        <ele>54</ele>
        <time>2020-05-29T17:33:03.000Z</time>
      </trkpt>
      <trkpt lat="47.19948" lon="-1.56094">
        <ele>54</ele>
        <time>2020-05-29T17:33:05.000Z</time>
      </trkpt>
      <trkpt lat="47.19955" lon="-1.56109">
        <ele>54</ele>
        <time>2020-05-29T17:33:07.000Z</time>
      </trkpt>
      <trkpt lat="47.1996" lon="-1.56125">
        <ele>55</ele>
        <time>2020-05-29T17:33:09.000Z</time>
      </trkpt>
      <trkpt lat="47.19965" lon="-1.56138">
        <ele>55</ele>
        <time>2020-05-29T17:33:13.000Z</time>
      </trkpt>
      <trkpt lat="47.19972" lon="-1.5615">
        <ele>55</ele>
        <time>2020-05-29T17:33:16.000Z</time>
      </trkpt>
      <trkpt lat="47.19967" lon="-1.56167">
        <ele>56</ele>
        <time>2020-05-29T17:33:19.000Z</time>
      </trkpt>
      <trkpt lat="47.19956" lon="-1.5617">
        <ele>57</ele>
        <time>2020-05-29T17:33:21.000Z</time>
      </trkpt>
      <trkpt lat="47.19944" lon="-1.56173">
        <ele>58</ele>
        <time>2020-05-29T17:33:23.000Z</time>
      </trkpt>
      <trkpt lat="47.19932" lon="-1.56175">
        <ele>59</ele>
        <time>2020-05-29T17:33:25.000Z</time>
      </trkpt>
      <trkpt lat="47.1992" lon="-1.56177">
        <ele>59</ele>
        <time>2020-05-29T17:33:27.000Z</time>
      </trkpt>
      <trkpt lat="47.19908" lon="-1.56179">
        <ele>60</ele>
        <time>2020-05-29T17:33:29.000Z</time>
      </trkpt>
      <trkpt lat="47.19897" lon="-1.5618">
        <ele>60</ele>
        <time>2020-05-29T17:33:31.000Z</time>
      </trkpt>
      <trkpt lat="47.19885" lon="-1.56182">
        <ele>61</ele>
        <time>2020-05-29T17:33:33.000Z</time>
      </trkpt>
      <trkpt lat="47.19873" lon="-1.56185">
        <ele>61</ele>
        <time>2020-05-29T17:33:35.000Z</time>
      </trkpt>
      <trkpt lat="47.19861" lon="-1.56186">
        <ele>61</ele>
        <time>2020-05-29T17:33:37.000Z</time>
      </trkpt>
      <trkpt lat="47.19849" lon="-1.56189">
        <ele>61</ele>
        <time>2020-05-29T17:33:39.000Z</time>
      </trkpt>
      <trkpt lat="47.19837" lon="-1.56191">
        <ele>61</ele>
        <time>2020-05-29T17:33:41.000Z</time>
      </trkpt>
      <trkpt lat="47.19825" lon="-1.56193">
        <ele>61</ele>
        <time>2020-05-29T17:33:43.000Z</time>
      </trkpt>
      <trkpt lat="47.19813" lon="-1.56195">
        <ele>61</ele>
        <time>2020-05-29T17:33:45.000Z</time>
      </trkpt>
      <trkpt lat="47.19801" lon="-1.56198">
        <ele>61</ele>
        <time>2020-05-29T17:33:47.000Z</time>
      </trkpt>
      <trkpt lat="47.19789" lon="-1.562">
        <ele>60</ele>
        <time>2020-05-29T17:33:49.000Z</time>
      </trkpt>
      <trkpt lat="47.19776" lon="-1.56202">
        <ele>60</ele>
        <time>2020-05-29T17:33:51.000Z</time>
      </trkpt>
      <trkpt lat="47.19762" lon="-1.56205">
        <ele>60</ele>
        <time>2020-05-29T17:33:53.000Z</time>
      </trkpt>
      <trkpt lat="47.19749" lon="-1.56208">
        <ele>59</ele>
        <time>2020-05-29T17:33:55.000Z</time>
      </trkpt>
      <trkpt lat="47.19734" lon="-1.5621">
        <ele>58</ele>
        <time>2020-05-29T17:33:57.000Z</time>
      </trkpt>
      <trkpt lat="47.19719" lon="-1.56213">
        <ele>57</ele>
        <time>2020-05-29T17:33:59.000Z</time>
      </trkpt>
      <trkpt lat="47.19704" lon="-1.56216">
        <ele>56</ele>
        <time>2020-05-29T17:34:01.000Z</time>
      </trkpt>
      <trkpt lat="47.19686" lon="-1.5622">
        <ele>56</ele>
        <time>2020-05-29T17:34:03.000Z</time>
      </trkpt>
      <trkpt lat="47.19669" lon="-1.56225">
        <ele>54</ele>
        <time>2020-05-29T17:34:05.000Z</time>
      </trkpt>
      <trkpt lat="47.19651" lon="-1.5623">
        <ele>54</ele>
        <time>2020-05-29T17:34:07.000Z</time>
      </trkpt>
      <trkpt lat="47.19637" lon="-1.56243">
        <ele>53</ele>
        <time>2020-05-29T17:34:09.000Z</time>
      </trkpt>
      <trkpt lat="47.19635" lon="-1.56267">
        <ele>53</ele>
        <time>2020-05-29T17:34:11.000Z</time>
      </trkpt>
      <trkpt lat="47.19635" lon="-1.56289">
        <ele>54</ele>
        <time>2020-05-29T17:34:13.000Z</time>
      </trkpt>
      <trkpt lat="47.19634" lon="-1.56312">
        <ele>54</ele>
        <time>2020-05-29T17:34:15.000Z</time>
      </trkpt>
      <trkpt lat="47.19634" lon="-1.56334">
        <ele>54</ele>
        <time>2020-05-29T17:34:17.000Z</time>
      </trkpt>
      <trkpt lat="47.19633" lon="-1.56357">
        <ele>55</ele>
        <time>2020-05-29T17:34:19.000Z</time>
      </trkpt>
      <trkpt lat="47.19633" lon="-1.5638">
        <ele>54</ele>
        <time>2020-05-29T17:34:21.000Z</time>
      </trkpt>
      <trkpt lat="47.19634" lon="-1.56403">
        <ele>54</ele>
        <time>2020-05-29T17:34:23.000Z</time>
      </trkpt>
      <trkpt lat="47.19635" lon="-1.56426">
        <ele>54</ele>
        <time>2020-05-29T17:34:25.000Z</time>
      </trkpt>
      <trkpt lat="47.19636" lon="-1.56449">
        <ele>54</ele>
        <time>2020-05-29T17:34:27.000Z</time>
      </trkpt>
      <trkpt lat="47.19637" lon="-1.56472">
        <ele>55</ele>
        <time>2020-05-29T17:34:29.000Z</time>
      </trkpt>
      <trkpt lat="47.19637" lon="-1.56494">
        <ele>55</ele>
        <time>2020-05-29T17:34:31.000Z</time>
      </trkpt>
      <trkpt lat="47.19637" lon="-1.56516">
        <ele>55</ele>
        <time>2020-05-29T17:34:33.000Z</time>
      </trkpt>
      <trkpt lat="47.19636" lon="-1.56539">
        <ele>55</ele>
        <time>2020-05-29T17:34:35.000Z</time>
      </trkpt>
      <trkpt lat="47.19636" lon="-1.56562">
        <ele>56</ele>
        <time>2020-05-29T17:34:37.000Z</time>
      </trkpt>
      <trkpt lat="47.19635" lon="-1.56584">
        <ele>56</ele>
        <time>2020-05-29T17:34:39.000Z</time>
      </trkpt>
      <trkpt lat="47.19635" lon="-1.56607">
        <ele>57</ele>
        <time>2020-05-29T17:34:41.000Z</time>
      </trkpt>
      <trkpt lat="47.19633" lon="-1.56631">
        <ele>58</ele>
        <time>2020-05-29T17:34:43.000Z</time>
      </trkpt>
      <trkpt lat="47.19632" lon="-1.56652">
        <ele>58</ele>
        <time>2020-05-29T17:34:45.000Z</time>
      </trkpt>
      <trkpt lat="47.19631" lon="-1.56675">
        <ele>57</ele>
        <time>2020-05-29T17:34:47.000Z</time>
      </trkpt>
      <trkpt lat="47.1963" lon="-1.56697">
        <ele>57</ele>
        <time>2020-05-29T17:34:49.000Z</time>
      </trkpt>
      <trkpt lat="47.19629" lon="-1.56719">
        <ele>58</ele>
        <time>2020-05-29T17:34:51.000Z</time>
      </trkpt>
      <trkpt lat="47.19626" lon="-1.56741">
        <ele>58</ele>
        <time>2020-05-29T17:34:53.000Z</time>
      </trkpt>
      <trkpt lat="47.19625" lon="-1.56764">
        <ele>57</ele>
        <time>2020-05-29T17:34:55.000Z</time>
      </trkpt>
      <trkpt lat="47.19623" lon="-1.56786">
        <ele>57</ele>
        <time>2020-05-29T17:34:57.000Z</time>
      </trkpt>
      <trkpt lat="47.19621" lon="-1.56808">
        <ele>57</ele>
        <time>2020-05-29T17:34:59.000Z</time>
      </trkpt>
      <trkpt lat="47.19619" lon="-1.56829">
        <ele>57</ele>
        <time>2020-05-29T17:35:01.000Z</time>
      </trkpt>
      <trkpt lat="47.19619" lon="-1.56852">
        <ele>57</ele>
        <time>2020-05-29T17:35:03.000Z</time>
      </trkpt>
      <trkpt lat="47.19618" lon="-1.56874">
        <ele>57</ele>
        <time>2020-05-29T17:35:05.000Z</time>
      </trkpt>
      <trkpt lat="47.19617" lon="-1.56895">
        <ele>57</ele>
        <time>2020-05-29T17:35:07.000Z</time>
      </trkpt>
      <trkpt lat="47.19616" lon="-1.56916">
        <ele>57</ele>
        <time>2020-05-29T17:35:09.000Z</time>
      </trkpt>
      <trkpt lat="47.19614" lon="-1.56937">
        <ele>57</ele>
        <time>2020-05-29T17:35:11.000Z</time>
      </trkpt>
      <trkpt lat="47.19613" lon="-1.56958">
        <ele>56</ele>
        <time>2020-05-29T17:35:13.000Z</time>
      </trkpt>
      <trkpt lat="47.19611" lon="-1.5698">
        <ele>55</ele>
        <time>2020-05-29T17:35:15.000Z</time>
      </trkpt>
      <trkpt lat="47.1961" lon="-1.57001">
        <ele>56</ele>
        <time>2020-05-29T17:35:17.000Z</time>
      </trkpt>
      <trkpt lat="47.19608" lon="-1.57022">
        <ele>55</ele>
        <time>2020-05-29T17:35:19.000Z</time>
      </trkpt>
      <trkpt lat="47.19607" lon="-1.57043">
        <ele>55</ele>
        <time>2020-05-29T17:35:21.000Z</time>
      </trkpt>
      <trkpt lat="47.19606" lon="-1.57065">
        <ele>55</ele>
        <time>2020-05-29T17:35:23.000Z</time>
      </trkpt>
      <trkpt lat="47.19605" lon="-1.57085">
        <ele>54</ele>
        <time>2020-05-29T17:35:25.000Z</time>
      </trkpt>
      <trkpt lat="47.19604" lon="-1.57104">
        <ele>54</ele>
        <time>2020-05-29T17:35:27.000Z</time>
      </trkpt>
      <trkpt lat="47.19603" lon="-1.57125">
        <ele>54</ele>
        <time>2020-05-29T17:35:29.000Z</time>
      </trkpt>
      <trkpt lat="47.19601" lon="-1.57145">
        <ele>54</ele>
        <time>2020-05-29T17:35:31.000Z</time>
      </trkpt>
      <trkpt lat="47.196" lon="-1.57166">
        <ele>54</ele>
        <time>2020-05-29T17:35:33.000Z</time>
      </trkpt>
      <trkpt lat="47.19599" lon="-1.57189">
        <ele>54</ele>
        <time>2020-05-29T17:35:35.000Z</time>
      </trkpt>
      <trkpt lat="47.19598" lon="-1.57211">
        <ele>54</ele>
        <time>2020-05-29T17:35:37.000Z</time>
      </trkpt>
      <trkpt lat="47.19596" lon="-1.57234">
        <ele>54</ele>
        <time>2020-05-29T17:35:39.000Z</time>
      </trkpt>
      <trkpt lat="47.19594" lon="-1.57256">
        <ele>54</ele>
        <time>2020-05-29T17:35:41.000Z</time>
      </trkpt>
      <trkpt lat="47.19593" lon="-1.57279">
        <ele>55</ele>
        <time>2020-05-29T17:35:43.000Z</time>
      </trkpt>
      <trkpt lat="47.19591" lon="-1.57301">
        <ele>55</ele>
        <time>2020-05-29T17:35:45.000Z</time>
      </trkpt>
      <trkpt lat="47.19589" lon="-1.57323">
        <ele>55</ele>
        <time>2020-05-29T17:35:47.000Z</time>
      </trkpt>
      <trkpt lat="47.19584" lon="-1.57346">
        <ele>54</ele>
        <time>2020-05-29T17:35:49.000Z</time>
      </trkpt>
      <trkpt lat="47.1958" lon="-1.57366">
        <ele>54</ele>
        <time>2020-05-29T17:35:51.000Z</time>
      </trkpt>
      <trkpt lat="47.19576" lon="-1.57387">
        <ele>54</ele>
        <time>2020-05-29T17:35:53.000Z</time>
      </trkpt>
      <trkpt lat="47.19571" lon="-1.57408">
        <ele>54</ele>
        <time>2020-05-29T17:35:55.000Z</time>
      </trkpt>
      <trkpt lat="47.19567" lon="-1.5743">
        <ele>54</ele>
        <time>2020-05-29T17:35:57.000Z</time>
      </trkpt>
      <trkpt lat="47.19563" lon="-1.5745">
        <ele>54</ele>
        <time>2020-05-29T17:35:59.000Z</time>
      </trkpt>
      <trkpt lat="47.19559" lon="-1.57472">
        <ele>54</ele>
        <time>2020-05-29T17:36:01.000Z</time>
      </trkpt>
      <trkpt lat="47.19555" lon="-1.57493">
        <ele>55</ele>
        <time>2020-05-29T17:36:03.000Z</time>
      </trkpt>
      <trkpt lat="47.1955" lon="-1.57515">
        <ele>54</ele>
        <time>2020-05-29T17:36:05.000Z</time>
      </trkpt>
      <trkpt lat="47.19546" lon="-1.57535">
        <ele>54</ele>
        <time>2020-05-29T17:36:07.000Z</time>
      </trkpt>
      <trkpt lat="47.19542" lon="-1.57556">
        <ele>53</ele>
        <time>2020-05-29T17:36:09.000Z</time>
      </trkpt>
      <trkpt lat="47.19538" lon="-1.57576">
        <ele>53</ele>
        <time>2020-05-29T17:36:11.000Z</time>
      </trkpt>
      <trkpt lat="47.19534" lon="-1.57598">
        <ele>53</ele>
        <time>2020-05-29T17:36:13.000Z</time>
      </trkpt>
      <trkpt lat="47.19529" lon="-1.57618">
        <ele>53</ele>
        <time>2020-05-29T17:36:15.000Z</time>
      </trkpt>
      <trkpt lat="47.19526" lon="-1.57639">
        <ele>54</ele>
        <time>2020-05-29T17:36:17.000Z</time>
      </trkpt>
      <trkpt lat="47.19521" lon="-1.57659">
        <ele>54</ele>
        <time>2020-05-29T17:36:19.000Z</time>
      </trkpt>
      <trkpt lat="47.19517" lon="-1.57679">
        <ele>54</ele>
        <time>2020-05-29T17:36:21.000Z</time>
      </trkpt>
      <trkpt lat="47.19513" lon="-1.577">
        <ele>55</ele>
        <time>2020-05-29T17:36:23.000Z</time>
      </trkpt>
      <trkpt lat="47.19509" lon="-1.57721">
        <ele>55</ele>
        <time>2020-05-29T17:36:25.000Z</time>
      </trkpt>
      <trkpt lat="47.19505" lon="-1.57741">
        <ele>55</ele>
        <time>2020-05-29T17:36:27.000Z</time>
      </trkpt>
      <trkpt lat="47.195" lon="-1.57761">
        <ele>54</ele>
        <time>2020-05-29T17:36:29.000Z</time>
      </trkpt>
      <trkpt lat="47.19496" lon="-1.57782">
        <ele>54</ele>
        <time>2020-05-29T17:36:31.000Z</time>
      </trkpt>
      <trkpt lat="47.19492" lon="-1.57802">
        <ele>53</ele>
        <time>2020-05-29T17:36:33.000Z</time>
      </trkpt>
      <trkpt lat="47.19488" lon="-1.57822">
        <ele>54</ele>
        <time>2020-05-29T17:36:35.000Z</time>
      </trkpt>
      <trkpt lat="47.19485" lon="-1.57843">
        <ele>54</ele>
        <time>2020-05-29T17:36:37.000Z</time>
      </trkpt>
      <trkpt lat="47.19484" lon="-1.57863">
        <ele>54</ele>
        <time>2020-05-29T17:36:39.000Z</time>
      </trkpt>
      <trkpt lat="47.19479" lon="-1.57882">
        <ele>53</ele>
        <time>2020-05-29T17:36:41.000Z</time>
      </trkpt>
      <trkpt lat="47.19475" lon="-1.57903">
        <ele>53</ele>
        <time>2020-05-29T17:36:43.000Z</time>
      </trkpt>
      <trkpt lat="47.19473" lon="-1.57924">
        <ele>53</ele>
        <time>2020-05-29T17:36:45.000Z</time>
      </trkpt>
      <trkpt lat="47.19471" lon="-1.57945">
        <ele>53</ele>
        <time>2020-05-29T17:36:47.000Z</time>
      </trkpt>
      <trkpt lat="47.1947" lon="-1.57965">
        <ele>53</ele>
        <time>2020-05-29T17:36:49.000Z</time>
      </trkpt>
      <trkpt lat="47.19469" lon="-1.57984">
        <ele>54</ele>
        <time>2020-05-29T17:36:51.000Z</time>
      </trkpt>
      <trkpt lat="47.19467" lon="-1.58003">
        <ele>54</ele>
        <time>2020-05-29T17:36:53.000Z</time>
      </trkpt>
      <trkpt lat="47.19465" lon="-1.58023">
        <ele>54</ele>
        <time>2020-05-29T17:36:55.000Z</time>
      </trkpt>
      <trkpt lat="47.19464" lon="-1.58041">
        <ele>53</ele>
        <time>2020-05-29T17:36:57.000Z</time>
      </trkpt>
      <trkpt lat="47.19461" lon="-1.58059">
        <ele>53</ele>
        <time>2020-05-29T17:36:59.000Z</time>
      </trkpt>
      <trkpt lat="47.1946" lon="-1.58076">
        <ele>52</ele>
        <time>2020-05-29T17:37:01.000Z</time>
      </trkpt>
      <trkpt lat="47.19458" lon="-1.58091">
        <ele>53</ele>
        <time>2020-05-29T17:37:03.000Z</time>
      </trkpt>
      <trkpt lat="47.19448" lon="-1.58105">
        <ele>53</ele>
        <time>2020-05-29T17:37:05.000Z</time>
      </trkpt>
      <trkpt lat="47.19437" lon="-1.58118">
        <ele>52</ele>
        <time>2020-05-29T17:37:07.000Z</time>
      </trkpt>
      <trkpt lat="47.19426" lon="-1.58131">
        <ele>53</ele>
        <time>2020-05-29T17:37:09.000Z</time>
      </trkpt>
      <trkpt lat="47.19415" lon="-1.58143">
        <ele>52</ele>
        <time>2020-05-29T17:37:11.000Z</time>
      </trkpt>
      <trkpt lat="47.19405" lon="-1.58156">
        <ele>52</ele>
        <time>2020-05-29T17:37:13.000Z</time>
      </trkpt>
      <trkpt lat="47.19398" lon="-1.58172">
        <ele>53</ele>
        <time>2020-05-29T17:37:15.000Z</time>
      </trkpt>
      <trkpt lat="47.19391" lon="-1.58189">
        <ele>53</ele>
        <time>2020-05-29T17:37:17.000Z</time>
      </trkpt>
      <trkpt lat="47.19383" lon="-1.58207">
        <ele>53</ele>
        <time>2020-05-29T17:37:19.000Z</time>
      </trkpt>
      <trkpt lat="47.19376" lon="-1.58224">
        <ele>53</ele>
        <time>2020-05-29T17:37:21.000Z</time>
      </trkpt>
      <trkpt lat="47.19369" lon="-1.58242">
        <ele>53</ele>
        <time>2020-05-29T17:37:23.000Z</time>
      </trkpt>
      <trkpt lat="47.19362" lon="-1.58259">
        <ele>53</ele>
        <time>2020-05-29T17:37:25.000Z</time>
      </trkpt>
      <trkpt lat="47.19354" lon="-1.58277">
        <ele>54</ele>
        <time>2020-05-29T17:37:27.000Z</time>
      </trkpt>
      <trkpt lat="47.19343" lon="-1.58291">
        <ele>54</ele>
        <time>2020-05-29T17:37:29.000Z</time>
      </trkpt>
      <trkpt lat="47.1933" lon="-1.58302">
        <ele>55</ele>
        <time>2020-05-29T17:37:31.000Z</time>
      </trkpt>
      <trkpt lat="47.19317" lon="-1.58314">
        <ele>55</ele>
        <time>2020-05-29T17:37:33.000Z</time>
      </trkpt>
      <trkpt lat="47.19304" lon="-1.58325">
        <ele>54</ele>
        <time>2020-05-29T17:37:35.000Z</time>
      </trkpt>
      <trkpt lat="47.19291" lon="-1.58335">
        <ele>54</ele>
        <time>2020-05-29T17:37:37.000Z</time>
      </trkpt>
      <trkpt lat="47.19279" lon="-1.58348">
        <ele>53</ele>
        <time>2020-05-29T17:37:39.000Z</time>
      </trkpt>
      <trkpt lat="47.19268" lon="-1.5836">
        <ele>53</ele>
        <time>2020-05-29T17:37:41.000Z</time>
      </trkpt>
      <trkpt lat="47.19255" lon="-1.58373">
        <ele>53</ele>
        <time>2020-05-29T17:37:43.000Z</time>
      </trkpt>
      <trkpt lat="47.19242" lon="-1.58384">
        <ele>52</ele>
        <time>2020-05-29T17:37:45.000Z</time>
      </trkpt>
      <trkpt lat="47.1923" lon="-1.58396">
        <ele>53</ele>
        <time>2020-05-29T17:37:47.000Z</time>
      </trkpt>
      <trkpt lat="47.19217" lon="-1.58408">
        <ele>53</ele>
        <time>2020-05-29T17:37:49.000Z</time>
      </trkpt>
      <trkpt lat="47.19204" lon="-1.58419">
        <ele>53</ele>
        <time>2020-05-29T17:37:51.000Z</time>
      </trkpt>
      <trkpt lat="47.19192" lon="-1.58431">
        <ele>53</ele>
        <time>2020-05-29T17:37:53.000Z</time>
      </trkpt>
      <trkpt lat="47.19181" lon="-1.58442">
        <ele>53</ele>
        <time>2020-05-29T17:37:55.000Z</time>
      </trkpt>
      <trkpt lat="47.19169" lon="-1.58453">
        <ele>53</ele>
        <time>2020-05-29T17:37:57.000Z</time>
      </trkpt>
      <trkpt lat="47.19159" lon="-1.58465">
        <ele>52</ele>
        <time>2020-05-29T17:37:59.000Z</time>
      </trkpt>
      <trkpt lat="47.19149" lon="-1.58477">
        <ele>52</ele>
        <time>2020-05-29T17:38:01.000Z</time>
      </trkpt>
      <trkpt lat="47.19138" lon="-1.58486">
        <ele>53</ele>
        <time>2020-05-29T17:38:03.000Z</time>
      </trkpt>
      <trkpt lat="47.19125" lon="-1.58497">
        <ele>54</ele>
        <time>2020-05-29T17:38:05.000Z</time>
      </trkpt>
      <trkpt lat="47.19112" lon="-1.58508">
        <ele>55</ele>
        <time>2020-05-29T17:38:07.000Z</time>
      </trkpt>
      <trkpt lat="47.191" lon="-1.5852">
        <ele>55</ele>
        <time>2020-05-29T17:38:09.000Z</time>
      </trkpt>
      <trkpt lat="47.19089" lon="-1.58531">
        <ele>55</ele>
        <time>2020-05-29T17:38:11.000Z</time>
      </trkpt>
      <trkpt lat="47.19076" lon="-1.58543">
        <ele>55</ele>
        <time>2020-05-29T17:38:13.000Z</time>
      </trkpt>
      <trkpt lat="47.19064" lon="-1.58555">
        <ele>55</ele>
        <time>2020-05-29T17:38:15.000Z</time>
      </trkpt>
      <trkpt lat="47.19051" lon="-1.58567">
        <ele>55</ele>
        <time>2020-05-29T17:38:17.000Z</time>
      </trkpt>
      <trkpt lat="47.19039" lon="-1.58579">
        <ele>55</ele>
        <time>2020-05-29T17:38:19.000Z</time>
      </trkpt>
      <trkpt lat="47.19027" lon="-1.5859">
        <ele>55</ele>
        <time>2020-05-29T17:38:21.000Z</time>
      </trkpt>
      <trkpt lat="47.19015" lon="-1.58602">
        <ele>55</ele>
        <time>2020-05-29T17:38:23.000Z</time>
      </trkpt>
      <trkpt lat="47.19004" lon="-1.58613">
        <ele>55</ele>
        <time>2020-05-29T17:38:25.000Z</time>
      </trkpt>
      <trkpt lat="47.18992" lon="-1.58624">
        <ele>55</ele>
        <time>2020-05-29T17:38:27.000Z</time>
      </trkpt>
      <trkpt lat="47.18981" lon="-1.58635">
        <ele>55</ele>
        <time>2020-05-29T17:38:29.000Z</time>
      </trkpt>
      <trkpt lat="47.18969" lon="-1.58646">
        <ele>55</ele>
        <time>2020-05-29T17:38:31.000Z</time>
      </trkpt>
      <trkpt lat="47.18957" lon="-1.58658">
        <ele>55</ele>
        <time>2020-05-29T17:38:33.000Z</time>
      </trkpt>
      <trkpt lat="47.18945" lon="-1.5867">
        <ele>55</ele>
        <time>2020-05-29T17:38:35.000Z</time>
      </trkpt>
      <trkpt lat="47.18933" lon="-1.58681">
        <ele>55</ele>
        <time>2020-05-29T17:38:37.000Z</time>
      </trkpt>
      <trkpt lat="47.1892" lon="-1.58692">
        <ele>55</ele>
        <time>2020-05-29T17:38:39.000Z</time>
      </trkpt>
      <trkpt lat="47.18907" lon="-1.58702">
        <ele>55</ele>
        <time>2020-05-29T17:38:41.000Z</time>
      </trkpt>
      <trkpt lat="47.18895" lon="-1.58712">
        <ele>55</ele>
        <time>2020-05-29T17:38:43.000Z</time>
      </trkpt>
      <trkpt lat="47.18881" lon="-1.58719">
        <ele>55</ele>
        <time>2020-05-29T17:38:45.000Z</time>
      </trkpt>
      <trkpt lat="47.18868" lon="-1.58726">
        <ele>55</ele>
        <time>2020-05-29T17:38:47.000Z</time>
      </trkpt>
      <trkpt lat="47.18855" lon="-1.58734">
        <ele>55</ele>
        <time>2020-05-29T17:38:49.000Z</time>
      </trkpt>
      <trkpt lat="47.18844" lon="-1.58741">
        <ele>55</ele>
        <time>2020-05-29T17:38:51.000Z</time>
      </trkpt>
      <trkpt lat="47.18835" lon="-1.58751">
        <ele>55</ele>
        <time>2020-05-29T17:38:53.000Z</time>
      </trkpt>
      <trkpt lat="47.18836" lon="-1.58765">
        <ele>55</ele>
        <time>2020-05-29T17:38:55.000Z</time>
      </trkpt>
      <trkpt lat="47.18833" lon="-1.58778">
        <ele>55</ele>
        <time>2020-05-29T17:38:57.000Z</time>
      </trkpt>
      <trkpt lat="47.18825" lon="-1.58793">
        <ele>56</ele>
        <time>2020-05-29T17:39:00.000Z</time>
      </trkpt>
      <trkpt lat="47.18817" lon="-1.58803">
        <ele>56</ele>
        <time>2020-05-29T17:39:02.000Z</time>
      </trkpt>
      <trkpt lat="47.18806" lon="-1.58811">
        <ele>56</ele>
        <time>2020-05-29T17:39:05.000Z</time>
      </trkpt>
      <trkpt lat="47.18796" lon="-1.58818">
        <ele>56</ele>
        <time>2020-05-29T17:39:08.000Z</time>
      </trkpt>
      <trkpt lat="47.18791" lon="-1.5883">
        <ele>56</ele>
        <time>2020-05-29T17:39:10.000Z</time>
      </trkpt>
      <trkpt lat="47.18787" lon="-1.58847">
        <ele>55</ele>
        <time>2020-05-29T17:39:12.000Z</time>
      </trkpt>
      <trkpt lat="47.18783" lon="-1.58867">
        <ele>55</ele>
        <time>2020-05-29T17:39:14.000Z</time>
      </trkpt>
      <trkpt lat="47.1878" lon="-1.58888">
        <ele>56</ele>
        <time>2020-05-29T17:39:16.000Z</time>
      </trkpt>
      <trkpt lat="47.18778" lon="-1.5891">
        <ele>56</ele>
        <time>2020-05-29T17:39:18.000Z</time>
      </trkpt>
      <trkpt lat="47.18775" lon="-1.58932">
        <ele>56</ele>
        <time>2020-05-29T17:39:20.000Z</time>
      </trkpt>
      <trkpt lat="47.18773" lon="-1.58954">
        <ele>56</ele>
        <time>2020-05-29T17:39:22.000Z</time>
      </trkpt>
      <trkpt lat="47.1877" lon="-1.58976">
        <ele>56</ele>
        <time>2020-05-29T17:39:24.000Z</time>
      </trkpt>
      <trkpt lat="47.18768" lon="-1.58998">
        <ele>56</ele>
        <time>2020-05-29T17:39:26.000Z</time>
      </trkpt>
      <trkpt lat="47.18765" lon="-1.59019">
        <ele>55</ele>
        <time>2020-05-29T17:39:28.000Z</time>
      </trkpt>
      <trkpt lat="47.18763" lon="-1.59039">
        <ele>55</ele>
        <time>2020-05-29T17:39:30.000Z</time>
      </trkpt>
      <trkpt lat="47.1876" lon="-1.59061">
        <ele>55</ele>
        <time>2020-05-29T17:39:32.000Z</time>
      </trkpt>
      <trkpt lat="47.18758" lon="-1.59084">
        <ele>56</ele>
        <time>2020-05-29T17:39:34.000Z</time>
      </trkpt>
      <trkpt lat="47.18755" lon="-1.59106">
        <ele>56</ele>
        <time>2020-05-29T17:39:36.000Z</time>
      </trkpt>
      <trkpt lat="47.18753" lon="-1.59129">
        <ele>56</ele>
        <time>2020-05-29T17:39:38.000Z</time>
      </trkpt>
      <trkpt lat="47.18751" lon="-1.59151">
        <ele>56</ele>
        <time>2020-05-29T17:39:40.000Z</time>
      </trkpt>
      <trkpt lat="47.18748" lon="-1.59173">
        <ele>56</ele>
        <time>2020-05-29T17:39:42.000Z</time>
      </trkpt>
      <trkpt lat="47.18746" lon="-1.59195">
        <ele>56</ele>
        <time>2020-05-29T17:39:44.000Z</time>
      </trkpt>
      <trkpt lat="47.18743" lon="-1.59216">
        <ele>56</ele>
        <time>2020-05-29T17:39:46.000Z</time>
      </trkpt>
      <trkpt lat="47.18741" lon="-1.59238">
        <ele>56</ele>
        <time>2020-05-29T17:39:48.000Z</time>
      </trkpt>
      <trkpt lat="47.18739" lon="-1.5926">
        <ele>56</ele>
        <time>2020-05-29T17:39:50.000Z</time>
      </trkpt>
      <trkpt lat="47.18737" lon="-1.59281">
        <ele>56</ele>
        <time>2020-05-29T17:39:52.000Z</time>
      </trkpt>
      <trkpt lat="47.18734" lon="-1.59303">
        <ele>55</ele>
        <time>2020-05-29T17:39:54.000Z</time>
      </trkpt>
      <trkpt lat="47.18732" lon="-1.59325">
        <ele>55</ele>
        <time>2020-05-29T17:39:56.000Z</time>
      </trkpt>
      <trkpt lat="47.1873" lon="-1.59347">
        <ele>55</ele>
        <time>2020-05-29T17:39:58.000Z</time>
      </trkpt>
      <trkpt lat="47.18727" lon="-1.59369">
        <ele>56</ele>
        <time>2020-05-29T17:40:00.000Z</time>
      </trkpt>
      <trkpt lat="47.18725" lon="-1.59391">
        <ele>56</ele>
        <time>2020-05-29T17:40:02.000Z</time>
      </trkpt>
      <trkpt lat="47.18723" lon="-1.59414">
        <ele>57</ele>
        <time>2020-05-29T17:40:04.000Z</time>
      </trkpt>
      <trkpt lat="47.1872" lon="-1.59436">
        <ele>56</ele>
        <time>2020-05-29T17:40:06.000Z</time>
      </trkpt>
      <trkpt lat="47.18717" lon="-1.59459">
        <ele>57</ele>
        <time>2020-05-29T17:40:08.000Z</time>
      </trkpt>
      <trkpt lat="47.18715" lon="-1.59481">
        <ele>57</ele>
        <time>2020-05-29T17:40:10.000Z</time>
      </trkpt>
      <trkpt lat="47.18713" lon="-1.59504">
        <ele>57</ele>
        <time>2020-05-29T17:40:12.000Z</time>
      </trkpt>
      <trkpt lat="47.1871" lon="-1.59526">
        <ele>57</ele>
        <time>2020-05-29T17:40:14.000Z</time>
      </trkpt>
      <trkpt lat="47.18708" lon="-1.59548">
        <ele>56</ele>
        <time>2020-05-29T17:40:16.000Z</time>
      </trkpt>
      <trkpt lat="47.18706" lon="-1.5957">
        <ele>56</ele>
        <time>2020-05-29T17:40:18.000Z</time>
      </trkpt>
      <trkpt lat="47.18703" lon="-1.59592">
        <ele>57</ele>
        <time>2020-05-29T17:40:20.000Z</time>
      </trkpt>
      <trkpt lat="47.187" lon="-1.59614">
        <ele>57</ele>
        <time>2020-05-29T17:40:22.000Z</time>
      </trkpt>
      <trkpt lat="47.18697" lon="-1.59636">
        <ele>57</ele>
        <time>2020-05-29T17:40:24.000Z</time>
      </trkpt>
      <trkpt lat="47.18694" lon="-1.59657">
        <ele>57</ele>
        <time>2020-05-29T17:40:26.000Z</time>
      </trkpt>
      <trkpt lat="47.18691" lon="-1.59679">
        <ele>57</ele>
        <time>2020-05-29T17:40:28.000Z</time>
      </trkpt>
      <trkpt lat="47.18689" lon="-1.597">
        <ele>57</ele>
        <time>2020-05-29T17:40:30.000Z</time>
      </trkpt>
      <trkpt lat="47.18688" lon="-1.5972">
        <ele>57</ele>
        <time>2020-05-29T17:40:32.000Z</time>
      </trkpt>
      <trkpt lat="47.18688" lon="-1.59741">
        <ele>56</ele>
        <time>2020-05-29T17:40:34.000Z</time>
      </trkpt>
      <trkpt lat="47.18688" lon="-1.59762">
        <ele>56</ele>
        <time>2020-05-29T17:40:36.000Z</time>
      </trkpt>
      <trkpt lat="47.1869" lon="-1.59784">
        <ele>56</ele>
        <time>2020-05-29T17:40:38.000Z</time>
      </trkpt>
      <trkpt lat="47.18688" lon="-1.59808">
        <ele>56</ele>
        <time>2020-05-29T17:40:40.000Z</time>
      </trkpt>
      <trkpt lat="47.18681" lon="-1.59829">
        <ele>56</ele>
        <time>2020-05-29T17:40:42.000Z</time>
      </trkpt>
      <trkpt lat="47.18667" lon="-1.59843">
        <ele>56</ele>
        <time>2020-05-29T17:40:44.000Z</time>
      </trkpt>
      <trkpt lat="47.18652" lon="-1.59845">
        <ele>57</ele>
        <time>2020-05-29T17:40:46.000Z</time>
      </trkpt>
      <trkpt lat="47.18639" lon="-1.59837">
        <ele>56</ele>
        <time>2020-05-29T17:40:48.000Z</time>
      </trkpt>
      <trkpt lat="47.18627" lon="-1.59832">
        <ele>57</ele>
        <time>2020-05-29T17:40:50.000Z</time>
      </trkpt>
      <trkpt lat="47.18619" lon="-1.59842">
        <ele>56</ele>
        <time>2020-05-29T17:40:52.000Z</time>
      </trkpt>
      <trkpt lat="47.18624" lon="-1.59858">
        <ele>55</ele>
        <time>2020-05-29T17:40:54.000Z</time>
      </trkpt>
      <trkpt lat="47.18626" lon="-1.59873">
        <ele>56</ele>
        <time>2020-05-29T17:40:56.000Z</time>
      </trkpt>
      <trkpt lat="47.18621" lon="-1.59891">
        <ele>56</ele>
        <time>2020-05-29T17:40:58.000Z</time>
      </trkpt>
      <trkpt lat="47.18617" lon="-1.59911">
        <ele>55</ele>
        <time>2020-05-29T17:41:00.000Z</time>
      </trkpt>
      <trkpt lat="47.18611" lon="-1.59931">
        <ele>55</ele>
        <time>2020-05-29T17:41:02.000Z</time>
      </trkpt>
      <trkpt lat="47.18605" lon="-1.59949">
        <ele>56</ele>
        <time>2020-05-29T17:41:04.000Z</time>
      </trkpt>
      <trkpt lat="47.186" lon="-1.59968">
        <ele>55</ele>
        <time>2020-05-29T17:41:06.000Z</time>
      </trkpt>
      <trkpt lat="47.18594" lon="-1.59987">
        <ele>55</ele>
        <time>2020-05-29T17:41:08.000Z</time>
      </trkpt>
      <trkpt lat="47.18588" lon="-1.60006">
        <ele>55</ele>
        <time>2020-05-29T17:41:10.000Z</time>
      </trkpt>
      <trkpt lat="47.18582" lon="-1.60025">
        <ele>56</ele>
        <time>2020-05-29T17:41:12.000Z</time>
      </trkpt>
      <trkpt lat="47.18575" lon="-1.60044">
        <ele>56</ele>
        <time>2020-05-29T17:41:14.000Z</time>
      </trkpt>
      <trkpt lat="47.18568" lon="-1.60062">
        <ele>56</ele>
        <time>2020-05-29T17:41:16.000Z</time>
      </trkpt>
      <trkpt lat="47.18561" lon="-1.6008">
        <ele>56</ele>
        <time>2020-05-29T17:41:18.000Z</time>
      </trkpt>
      <trkpt lat="47.18554" lon="-1.60098">
        <ele>55</ele>
        <time>2020-05-29T17:41:20.000Z</time>
      </trkpt>
      <trkpt lat="47.18546" lon="-1.60116">
        <ele>55</ele>
        <time>2020-05-29T17:41:22.000Z</time>
      </trkpt>
      <trkpt lat="47.18539" lon="-1.60134">
        <ele>55</ele>
        <time>2020-05-29T17:41:24.000Z</time>
      </trkpt>
      <trkpt lat="47.18531" lon="-1.60151">
        <ele>55</ele>
        <time>2020-05-29T17:41:26.000Z</time>
      </trkpt>
      <trkpt lat="47.18523" lon="-1.60168">
        <ele>55</ele>
        <time>2020-05-29T17:41:28.000Z</time>
      </trkpt>
      <trkpt lat="47.18514" lon="-1.60185">
        <ele>55</ele>
        <time>2020-05-29T17:41:30.000Z</time>
      </trkpt>
      <trkpt lat="47.18505" lon="-1.60202">
        <ele>55</ele>
        <time>2020-05-29T17:41:32.000Z</time>
      </trkpt>
      <trkpt lat="47.18497" lon="-1.60219">
        <ele>55</ele>
        <time>2020-05-29T17:41:34.000Z</time>
      </trkpt>
      <trkpt lat="47.18488" lon="-1.60236">
        <ele>55</ele>
        <time>2020-05-29T17:41:36.000Z</time>
      </trkpt>
      <trkpt lat="47.18479" lon="-1.60253">
        <ele>56</ele>
        <time>2020-05-29T17:41:38.000Z</time>
      </trkpt>
      <trkpt lat="47.1847" lon="-1.6027">
        <ele>56</ele>
        <time>2020-05-29T17:41:40.000Z</time>
      </trkpt>
      <trkpt lat="47.18461" lon="-1.60286">
        <ele>55</ele>
        <time>2020-05-29T17:41:42.000Z</time>
      </trkpt>
      <trkpt lat="47.18452" lon="-1.60302">
        <ele>55</ele>
        <time>2020-05-29T17:41:44.000Z</time>
      </trkpt>
      <trkpt lat="47.18442" lon="-1.60318">
        <ele>55</ele>
        <time>2020-05-29T17:41:46.000Z</time>
      </trkpt>
      <trkpt lat="47.18432" lon="-1.60333">
        <ele>55</ele>
        <time>2020-05-29T17:41:48.000Z</time>
      </trkpt>
      <trkpt lat="47.18422" lon="-1.60348">
        <ele>55</ele>
        <time>2020-05-29T17:41:50.000Z</time>
      </trkpt>
      <trkpt lat="47.18412" lon="-1.60363">
        <ele>55</ele>
        <time>2020-05-29T17:41:52.000Z</time>
      </trkpt>
      <trkpt lat="47.18402" lon="-1.60377">
        <ele>55</ele>
        <time>2020-05-29T17:41:54.000Z</time>
      </trkpt>
      <trkpt lat="47.18391" lon="-1.60391">
        <ele>55</ele>
        <time>2020-05-29T17:41:56.000Z</time>
      </trkpt>
      <trkpt lat="47.18381" lon="-1.60406">
        <ele>55</ele>
        <time>2020-05-29T17:41:58.000Z</time>
      </trkpt>
      <trkpt lat="47.18369" lon="-1.6042">
        <ele>55</ele>
        <time>2020-05-29T17:42:00.000Z</time>
      </trkpt>
      <trkpt lat="47.18358" lon="-1.60434">
        <ele>55</ele>
        <time>2020-05-29T17:42:02.000Z</time>
      </trkpt>
      <trkpt lat="47.18347" lon="-1.60448">
        <ele>55</ele>
        <time>2020-05-29T17:42:04.000Z</time>
      </trkpt>
      <trkpt lat="47.18336" lon="-1.60461">
        <ele>56</ele>
        <time>2020-05-29T17:42:06.000Z</time>
      </trkpt>
      <trkpt lat="47.18324" lon="-1.60474">
        <ele>56</ele>
        <time>2020-05-29T17:42:08.000Z</time>
      </trkpt>
      <trkpt lat="47.18312" lon="-1.60488">
        <ele>56</ele>
        <time>2020-05-29T17:42:10.000Z</time>
      </trkpt>
      <trkpt lat="47.18301" lon="-1.605">
        <ele>57</ele>
        <time>2020-05-29T17:42:12.000Z</time>
      </trkpt>
      <trkpt lat="47.1829" lon="-1.60513">
        <ele>57</ele>
        <time>2020-05-29T17:42:14.000Z</time>
      </trkpt>
      <trkpt lat="47.18278" lon="-1.60525">
        <ele>56</ele>
        <time>2020-05-29T17:42:16.000Z</time>
      </trkpt>
      <trkpt lat="47.18265" lon="-1.60537">
        <ele>56</ele>
        <time>2020-05-29T17:42:18.000Z</time>
      </trkpt>
      <trkpt lat="47.18252" lon="-1.60547">
        <ele>56</ele>
        <time>2020-05-29T17:42:20.000Z</time>
      </trkpt>
      <trkpt lat="47.18239" lon="-1.60556">
        <ele>55</ele>
        <time>2020-05-29T17:42:22.000Z</time>
      </trkpt>
      <trkpt lat="47.18227" lon="-1.60564">
        <ele>55</ele>
        <time>2020-05-29T17:42:24.000Z</time>
      </trkpt>
      <trkpt lat="47.18214" lon="-1.6057">
        <ele>55</ele>
        <time>2020-05-29T17:42:26.000Z</time>
      </trkpt>
      <trkpt lat="47.18202" lon="-1.60574">
        <ele>55</ele>
        <time>2020-05-29T17:42:28.000Z</time>
      </trkpt>
      <trkpt lat="47.18193" lon="-1.6058">
        <ele>54</ele>
        <time>2020-05-29T17:42:30.000Z</time>
      </trkpt>
      <trkpt lat="47.1819" lon="-1.60597">
        <ele>54</ele>
        <time>2020-05-29T17:42:33.000Z</time>
      </trkpt>
      <trkpt lat="47.18178" lon="-1.60602">
        <ele>54</ele>
        <time>2020-05-29T17:42:35.000Z</time>
      </trkpt>
      <trkpt lat="47.18164" lon="-1.60604">
        <ele>54</ele>
        <time>2020-05-29T17:42:37.000Z</time>
      </trkpt>
      <trkpt lat="47.1815" lon="-1.60605">
        <ele>54</ele>
        <time>2020-05-29T17:42:39.000Z</time>
      </trkpt>
      <trkpt lat="47.18137" lon="-1.60604">
        <ele>54</ele>
        <time>2020-05-29T17:42:41.000Z</time>
      </trkpt>
      <trkpt lat="47.18124" lon="-1.60601">
        <ele>54</ele>
        <time>2020-05-29T17:42:43.000Z</time>
      </trkpt>
      <trkpt lat="47.18112" lon="-1.60596">
        <ele>54</ele>
        <time>2020-05-29T17:42:45.000Z</time>
      </trkpt>
      <trkpt lat="47.18098" lon="-1.60589">
        <ele>54</ele>
        <time>2020-05-29T17:42:47.000Z</time>
      </trkpt>
      <trkpt lat="47.18084" lon="-1.60582">
        <ele>54</ele>
        <time>2020-05-29T17:42:49.000Z</time>
      </trkpt>
      <trkpt lat="47.18072" lon="-1.60575">
        <ele>55</ele>
        <time>2020-05-29T17:42:51.000Z</time>
      </trkpt>
      <trkpt lat="47.18059" lon="-1.60567">
        <ele>55</ele>
        <time>2020-05-29T17:42:53.000Z</time>
      </trkpt>
      <trkpt lat="47.18046" lon="-1.6056">
        <ele>56</ele>
        <time>2020-05-29T17:42:55.000Z</time>
      </trkpt>
      <trkpt lat="47.18034" lon="-1.60555">
        <ele>56</ele>
        <time>2020-05-29T17:42:57.000Z</time>
      </trkpt>
      <trkpt lat="47.1802" lon="-1.60555">
        <ele>55</ele>
        <time>2020-05-29T17:42:59.000Z</time>
      </trkpt>
      <trkpt lat="47.18008" lon="-1.60557">
        <ele>56</ele>
        <time>2020-05-29T17:43:01.000Z</time>
      </trkpt>
      <trkpt lat="47.17995" lon="-1.6056">
        <ele>56</ele>
        <time>2020-05-29T17:43:03.000Z</time>
      </trkpt>
      <trkpt lat="47.17984" lon="-1.60565">
        <ele>57</ele>
        <time>2020-05-29T17:43:05.000Z</time>
      </trkpt>
      <trkpt lat="47.17971" lon="-1.60569">
        <ele>57</ele>
        <time>2020-05-29T17:43:07.000Z</time>
      </trkpt>
      <trkpt lat="47.17959" lon="-1.60573">
        <ele>57</ele>
        <time>2020-05-29T17:43:09.000Z</time>
      </trkpt>
      <trkpt lat="47.17949" lon="-1.60579">
        <ele>56</ele>
        <time>2020-05-29T17:43:11.000Z</time>
      </trkpt>
      <trkpt lat="47.17938" lon="-1.60584">
        <ele>56</ele>
        <time>2020-05-29T17:43:13.000Z</time>
      </trkpt>
      <trkpt lat="47.17927" lon="-1.60589">
        <ele>56</ele>
        <time>2020-05-29T17:43:16.000Z</time>
      </trkpt>
      <trkpt lat="47.17914" lon="-1.6059">
        <ele>56</ele>
        <time>2020-05-29T17:43:20.000Z</time>
      </trkpt>
      <trkpt lat="47.17908" lon="-1.60602">
        <ele>55</ele>
        <time>2020-05-29T17:43:22.000Z</time>
      </trkpt>
      <trkpt lat="47.17904" lon="-1.60619">
        <ele>55</ele>
        <time>2020-05-29T17:43:24.000Z</time>
      </trkpt>
      <trkpt lat="47.179" lon="-1.60636">
        <ele>54</ele>
        <time>2020-05-29T17:43:26.000Z</time>
      </trkpt>
      <trkpt lat="47.17893" lon="-1.60654">
        <ele>54</ele>
        <time>2020-05-29T17:43:28.000Z</time>
      </trkpt>
      <trkpt lat="47.17887" lon="-1.60674">
        <ele>54</ele>
        <time>2020-05-29T17:43:30.000Z</time>
      </trkpt>
      <trkpt lat="47.1788" lon="-1.60693">
        <ele>54</ele>
        <time>2020-05-29T17:43:32.000Z</time>
      </trkpt>
      <trkpt lat="47.17876" lon="-1.60713">
        <ele>54</ele>
        <time>2020-05-29T17:43:34.000Z</time>
      </trkpt>
      <trkpt lat="47.17871" lon="-1.60732">
        <ele>54</ele>
        <time>2020-05-29T17:43:36.000Z</time>
      </trkpt>
      <trkpt lat="47.17867" lon="-1.60751">
        <ele>55</ele>
        <time>2020-05-29T17:43:38.000Z</time>
      </trkpt>
      <trkpt lat="47.17863" lon="-1.60769">
        <ele>55</ele>
        <time>2020-05-29T17:43:40.000Z</time>
      </trkpt>
      <trkpt lat="47.17859" lon="-1.60787">
        <ele>55</ele>
        <time>2020-05-29T17:43:42.000Z</time>
      </trkpt>
      <trkpt lat="47.17855" lon="-1.60805">
        <ele>55</ele>
        <time>2020-05-29T17:43:44.000Z</time>
      </trkpt>
      <trkpt lat="47.17851" lon="-1.60822">
        <ele>56</ele>
        <time>2020-05-29T17:43:46.000Z</time>
      </trkpt>
      <trkpt lat="47.17845" lon="-1.60839">
        <ele>55</ele>
        <time>2020-05-29T17:43:48.000Z</time>
      </trkpt>
      <trkpt lat="47.17838" lon="-1.60855">
        <ele>55</ele>
        <time>2020-05-29T17:43:50.000Z</time>
      </trkpt>
      <trkpt lat="47.1783" lon="-1.60869">
        <ele>55</ele>
        <time>2020-05-29T17:43:52.000Z</time>
      </trkpt>
      <trkpt lat="47.17821" lon="-1.60883">
        <ele>55</ele>
        <time>2020-05-29T17:43:54.000Z</time>
      </trkpt>
      <trkpt lat="47.17809" lon="-1.60895">
        <ele>55</ele>
        <time>2020-05-29T17:43:56.000Z</time>
      </trkpt>
      <trkpt lat="47.17797" lon="-1.60904">
        <ele>55</ele>
        <time>2020-05-29T17:43:58.000Z</time>
      </trkpt>
      <trkpt lat="47.17786" lon="-1.60912">
        <ele>55</ele>
        <time>2020-05-29T17:44:00.000Z</time>
      </trkpt>
      <trkpt lat="47.17774" lon="-1.60921">
        <ele>55</ele>
        <time>2020-05-29T17:44:02.000Z</time>
      </trkpt>
      <trkpt lat="47.17763" lon="-1.60931">
        <ele>55</ele>
        <time>2020-05-29T17:44:04.000Z</time>
      </trkpt>
      <trkpt lat="47.17752" lon="-1.6094">
        <ele>55</ele>
        <time>2020-05-29T17:44:06.000Z</time>
      </trkpt>
      <trkpt lat="47.1774" lon="-1.60949">
        <ele>55</ele>
        <time>2020-05-29T17:44:08.000Z</time>
      </trkpt>
      <trkpt lat="47.17729" lon="-1.60957">
        <ele>54</ele>
        <time>2020-05-29T17:44:10.000Z</time>
      </trkpt>
      <trkpt lat="47.17717" lon="-1.60965">
        <ele>54</ele>
        <time>2020-05-29T17:44:12.000Z</time>
      </trkpt>
      <trkpt lat="47.17706" lon="-1.60972">
        <ele>53</ele>
        <time>2020-05-29T17:44:14.000Z</time>
      </trkpt>
      <trkpt lat="47.17693" lon="-1.60976">
        <ele>53</ele>
        <time>2020-05-29T17:44:16.000Z</time>
      </trkpt>
      <trkpt lat="47.17679" lon="-1.60974">
        <ele>53</ele>
        <time>2020-05-29T17:44:18.000Z</time>
      </trkpt>
      <trkpt lat="47.17664" lon="-1.60974">
        <ele>53</ele>
        <time>2020-05-29T17:44:20.000Z</time>
      </trkpt>
      <trkpt lat="47.17652" lon="-1.60981">
        <ele>53</ele>
        <time>2020-05-29T17:44:22.000Z</time>
      </trkpt>
      <trkpt lat="47.1764" lon="-1.60992">
        <ele>53</ele>
        <time>2020-05-29T17:44:24.000Z</time>
      </trkpt>
      <trkpt lat="47.17629" lon="-1.61002">
        <ele>53</ele>
        <time>2020-05-29T17:44:26.000Z</time>
      </trkpt>
      <trkpt lat="47.17618" lon="-1.61012">
        <ele>53</ele>
        <time>2020-05-29T17:44:28.000Z</time>
      </trkpt>
      <trkpt lat="47.17607" lon="-1.61021">
        <ele>53</ele>
        <time>2020-05-29T17:44:30.000Z</time>
      </trkpt>
      <trkpt lat="47.17595" lon="-1.61031">
        <ele>52</ele>
        <time>2020-05-29T17:44:32.000Z</time>
      </trkpt>
      <trkpt lat="47.17584" lon="-1.61039">
        <ele>52</ele>
        <time>2020-05-29T17:44:34.000Z</time>
      </trkpt>
      <trkpt lat="47.17573" lon="-1.61048">
        <ele>52</ele>
        <time>2020-05-29T17:44:36.000Z</time>
      </trkpt>
      <trkpt lat="47.17562" lon="-1.61057">
        <ele>52</ele>
        <time>2020-05-29T17:44:38.000Z</time>
      </trkpt>
      <trkpt lat="47.17551" lon="-1.61067">
        <ele>53</ele>
        <time>2020-05-29T17:44:40.000Z</time>
      </trkpt>
      <trkpt lat="47.17541" lon="-1.61078">
        <ele>53</ele>
        <time>2020-05-29T17:44:42.000Z</time>
      </trkpt>
      <trkpt lat="47.1753" lon="-1.61087">
        <ele>53</ele>
        <time>2020-05-29T17:44:44.000Z</time>
      </trkpt>
      <trkpt lat="47.1752" lon="-1.61096">
        <ele>54</ele>
        <time>2020-05-29T17:44:46.000Z</time>
      </trkpt>
      <trkpt lat="47.17509" lon="-1.61104">
        <ele>54</ele>
        <time>2020-05-29T17:44:48.000Z</time>
      </trkpt>
      <trkpt lat="47.17497" lon="-1.61106">
        <ele>54</ele>
        <time>2020-05-29T17:44:50.000Z</time>
      </trkpt>
      <trkpt lat="47.17485" lon="-1.61106">
        <ele>54</ele>
        <time>2020-05-29T17:44:52.000Z</time>
      </trkpt>
      <trkpt lat="47.17473" lon="-1.611">
        <ele>55</ele>
        <time>2020-05-29T17:44:54.000Z</time>
      </trkpt>
      <trkpt lat="47.17464" lon="-1.61091">
        <ele>56</ele>
        <time>2020-05-29T17:44:56.000Z</time>
      </trkpt>
      <trkpt lat="47.17455" lon="-1.61081">
        <ele>56</ele>
        <time>2020-05-29T17:44:58.000Z</time>
      </trkpt>
      <trkpt lat="47.17446" lon="-1.61068">
        <ele>56</ele>
        <time>2020-05-29T17:45:00.000Z</time>
      </trkpt>
      <trkpt lat="47.1744" lon="-1.61053">
        <ele>57</ele>
        <time>2020-05-29T17:45:02.000Z</time>
      </trkpt>
      <trkpt lat="47.17436" lon="-1.6104">
        <ele>57</ele>
        <time>2020-05-29T17:45:04.000Z</time>
      </trkpt>
      <trkpt lat="47.17432" lon="-1.61026">
        <ele>58</ele>
        <time>2020-05-29T17:45:06.000Z</time>
      </trkpt>
      <trkpt lat="47.17426" lon="-1.61039">
        <ele>57</ele>
        <time>2020-05-29T17:45:12.000Z</time>
      </trkpt>
      <trkpt lat="47.17432" lon="-1.61056">
        <ele>58</ele>
        <time>2020-05-29T17:45:15.000Z</time>
      </trkpt>
      <trkpt lat="47.17439" lon="-1.61069">
        <ele>58</ele>
        <time>2020-05-29T17:45:17.000Z</time>
      </trkpt>
      <trkpt lat="47.17445" lon="-1.61083">
        <ele>58</ele>
        <time>2020-05-29T17:45:19.000Z</time>
      </trkpt>
      <trkpt lat="47.17451" lon="-1.61097">
        <ele>59</ele>
        <time>2020-05-29T17:45:21.000Z</time>
      </trkpt>
      <trkpt lat="47.17457" lon="-1.6111">
        <ele>59</ele>
        <time>2020-05-29T17:45:23.000Z</time>
      </trkpt>
      <trkpt lat="47.17462" lon="-1.61125">
        <ele>59</ele>
        <time>2020-05-29T17:45:25.000Z</time>
      </trkpt>
      <trkpt lat="47.17468" lon="-1.61139">
        <ele>59</ele>
        <time>2020-05-29T17:45:27.000Z</time>
      </trkpt>
      <trkpt lat="47.17473" lon="-1.61153">
        <ele>60</ele>
        <time>2020-05-29T17:45:29.000Z</time>
      </trkpt>
      <trkpt lat="47.17479" lon="-1.61168">
        <ele>60</ele>
        <time>2020-05-29T17:45:31.000Z</time>
      </trkpt>
      <trkpt lat="47.17484" lon="-1.61184">
        <ele>60</ele>
        <time>2020-05-29T17:45:33.000Z</time>
      </trkpt>
      <trkpt lat="47.1749" lon="-1.61199">
        <ele>61</ele>
        <time>2020-05-29T17:45:35.000Z</time>
      </trkpt>
      <trkpt lat="47.17496" lon="-1.61214">
        <ele>61</ele>
        <time>2020-05-29T17:45:37.000Z</time>
      </trkpt>
      <trkpt lat="47.17502" lon="-1.61229">
        <ele>62</ele>
        <time>2020-05-29T17:45:39.000Z</time>
      </trkpt>
      <trkpt lat="47.17508" lon="-1.61242">
        <ele>62</ele>
        <time>2020-05-29T17:45:41.000Z</time>
      </trkpt>
      <trkpt lat="47.17515" lon="-1.61255">
        <ele>62</ele>
        <time>2020-05-29T17:45:43.000Z</time>
      </trkpt>
      <trkpt lat="47.17523" lon="-1.61267">
        <ele>62</ele>
        <time>2020-05-29T17:45:45.000Z</time>
      </trkpt>
      <trkpt lat="47.17531" lon="-1.61279">
        <ele>62</ele>
        <time>2020-05-29T17:45:47.000Z</time>
      </trkpt>
      <trkpt lat="47.17541" lon="-1.61288">
        <ele>62</ele>
        <time>2020-05-29T17:45:49.000Z</time>
      </trkpt>
      <trkpt lat="47.17551" lon="-1.61296">
        <ele>62</ele>
        <time>2020-05-29T17:45:51.000Z</time>
      </trkpt>
      <trkpt lat="47.17562" lon="-1.61307">
        <ele>62</ele>
        <time>2020-05-29T17:45:53.000Z</time>
      </trkpt>
      <trkpt lat="47.17565" lon="-1.61326">
        <ele>62</ele>
        <time>2020-05-29T17:45:55.000Z</time>
      </trkpt>
      <trkpt lat="47.17559" lon="-1.61344">
        <ele>62</ele>
        <time>2020-05-29T17:45:57.000Z</time>
      </trkpt>
      <trkpt lat="47.17549" lon="-1.61356">
        <ele>62</ele>
        <time>2020-05-29T17:45:59.000Z</time>
      </trkpt>
      <trkpt lat="47.17538" lon="-1.61368">
        <ele>62</ele>
        <time>2020-05-29T17:46:01.000Z</time>
      </trkpt>
      <trkpt lat="47.17531" lon="-1.61384">
        <ele>62</ele>
        <time>2020-05-29T17:46:03.000Z</time>
      </trkpt>
      <trkpt lat="47.17527" lon="-1.61401">
        <ele>62</ele>
        <time>2020-05-29T17:46:05.000Z</time>
      </trkpt>
      <trkpt lat="47.17524" lon="-1.61417">
        <ele>63</ele>
        <time>2020-05-29T17:46:07.000Z</time>
      </trkpt>
      <trkpt lat="47.1752" lon="-1.61431">
        <ele>63</ele>
        <time>2020-05-29T17:46:09.000Z</time>
      </trkpt>
      <trkpt lat="47.17517" lon="-1.61446">
        <ele>64</ele>
        <time>2020-05-29T17:46:11.000Z</time>
      </trkpt>
      <trkpt lat="47.1751" lon="-1.61458">
        <ele>64</ele>
        <time>2020-05-29T17:46:13.000Z</time>
      </trkpt>
      <trkpt lat="47.175" lon="-1.61465">
        <ele>65</ele>
        <time>2020-05-29T17:46:15.000Z</time>
      </trkpt>
      <trkpt lat="47.1749" lon="-1.61469">
        <ele>66</ele>
        <time>2020-05-29T17:46:17.000Z</time>
      </trkpt>
      <trkpt lat="47.17479" lon="-1.61476">
        <ele>67</ele>
        <time>2020-05-29T17:46:19.000Z</time>
      </trkpt>
      <trkpt lat="47.17468" lon="-1.6148">
        <ele>68</ele>
        <time>2020-05-29T17:46:21.000Z</time>
      </trkpt>
      <trkpt lat="47.17458" lon="-1.61485">
        <ele>69</ele>
        <time>2020-05-29T17:46:23.000Z</time>
      </trkpt>
      <trkpt lat="47.17448" lon="-1.61489">
        <ele>69</ele>
        <time>2020-05-29T17:46:25.000Z</time>
      </trkpt>
      <trkpt lat="47.17438" lon="-1.61495">
        <ele>69</ele>
        <time>2020-05-29T17:46:27.000Z</time>
      </trkpt>
      <trkpt lat="47.17429" lon="-1.61501">
        <ele>69</ele>
        <time>2020-05-29T17:46:29.000Z</time>
      </trkpt>
      <trkpt lat="47.17419" lon="-1.61508">
        <ele>68</ele>
        <time>2020-05-29T17:46:31.000Z</time>
      </trkpt>
      <trkpt lat="47.1741" lon="-1.61514">
        <ele>69</ele>
        <time>2020-05-29T17:46:33.000Z</time>
      </trkpt>
      <trkpt lat="47.17401" lon="-1.61521">
        <ele>69</ele>
        <time>2020-05-29T17:46:35.000Z</time>
      </trkpt>
      <trkpt lat="47.17393" lon="-1.61528">
        <ele>69</ele>
        <time>2020-05-29T17:46:37.000Z</time>
      </trkpt>
      <trkpt lat="47.17385" lon="-1.61536">
        <ele>70</ele>
        <time>2020-05-29T17:46:39.000Z</time>
      </trkpt>
      <trkpt lat="47.17377" lon="-1.61545">
        <ele>72</ele>
        <time>2020-05-29T17:46:41.000Z</time>
      </trkpt>
      <trkpt lat="47.17369" lon="-1.61553">
        <ele>72</ele>
        <time>2020-05-29T17:46:43.000Z</time>
      </trkpt>
      <trkpt lat="47.1736" lon="-1.61562">
        <ele>72</ele>
        <time>2020-05-29T17:46:45.000Z</time>
      </trkpt>
      <trkpt lat="47.17352" lon="-1.61572">
        <ele>73</ele>
        <time>2020-05-29T17:46:47.000Z</time>
      </trkpt>
      <trkpt lat="47.17344" lon="-1.61582">
        <ele>73</ele>
        <time>2020-05-29T17:46:49.000Z</time>
      </trkpt>
      <trkpt lat="47.17336" lon="-1.61591">
        <ele>72</ele>
        <time>2020-05-29T17:46:51.000Z</time>
      </trkpt>
      <trkpt lat="47.17327" lon="-1.61601">
        <ele>72</ele>
        <time>2020-05-29T17:46:53.000Z</time>
      </trkpt>
      <trkpt lat="47.17318" lon="-1.61613">
        <ele>72</ele>
        <time>2020-05-29T17:46:55.000Z</time>
      </trkpt>
      <trkpt lat="47.17311" lon="-1.61624">
        <ele>72</ele>
        <time>2020-05-29T17:46:57.000Z</time>
      </trkpt>
      <trkpt lat="47.17304" lon="-1.61636">
        <ele>72</ele>
        <time>2020-05-29T17:46:59.000Z</time>
      </trkpt>
      <trkpt lat="47.17296" lon="-1.61648">
        <ele>72</ele>
        <time>2020-05-29T17:47:01.000Z</time>
      </trkpt>
      <trkpt lat="47.17289" lon="-1.61661">
        <ele>72</ele>
        <time>2020-05-29T17:47:03.000Z</time>
      </trkpt>
      <trkpt lat="47.17282" lon="-1.61674">
        <ele>72</ele>
        <time>2020-05-29T17:47:05.000Z</time>
      </trkpt>
      <trkpt lat="47.17275" lon="-1.61687">
        <ele>73</ele>
        <time>2020-05-29T17:47:07.000Z</time>
      </trkpt>
      <trkpt lat="47.17268" lon="-1.61701">
        <ele>72</ele>
        <time>2020-05-29T17:47:09.000Z</time>
      </trkpt>
      <trkpt lat="47.17262" lon="-1.61714">
        <ele>72</ele>
        <time>2020-05-29T17:47:11.000Z</time>
      </trkpt>
      <trkpt lat="47.17255" lon="-1.61728">
        <ele>72</ele>
        <time>2020-05-29T17:47:13.000Z</time>
      </trkpt>
      <trkpt lat="47.1725" lon="-1.61744">
        <ele>72</ele>
        <time>2020-05-29T17:47:15.000Z</time>
      </trkpt>
      <trkpt lat="47.17247" lon="-1.6176">
        <ele>71</ele>
        <time>2020-05-29T17:47:17.000Z</time>
      </trkpt>
      <trkpt lat="47.17245" lon="-1.61774">
        <ele>71</ele>
        <time>2020-05-29T17:47:19.000Z</time>
      </trkpt>
      <trkpt lat="47.17235" lon="-1.61786">
        <ele>70</ele>
        <time>2020-05-29T17:47:21.000Z</time>
      </trkpt>
      <trkpt lat="47.17225" lon="-1.61795">
        <ele>70</ele>
        <time>2020-05-29T17:47:23.000Z</time>
      </trkpt>
      <trkpt lat="47.17214" lon="-1.61805">
        <ele>70</ele>
        <time>2020-05-29T17:47:25.000Z</time>
      </trkpt>
      <trkpt lat="47.17203" lon="-1.61814">
        <ele>70</ele>
        <time>2020-05-29T17:47:27.000Z</time>
      </trkpt>
      <trkpt lat="47.17192" lon="-1.61824">
        <ele>70</ele>
        <time>2020-05-29T17:47:29.000Z</time>
      </trkpt>
      <trkpt lat="47.17182" lon="-1.61833">
        <ele>70</ele>
        <time>2020-05-29T17:47:31.000Z</time>
      </trkpt>
      <trkpt lat="47.17171" lon="-1.61844">
        <ele>70</ele>
        <time>2020-05-29T17:47:33.000Z</time>
      </trkpt>
      <trkpt lat="47.1716" lon="-1.61854">
        <ele>70</ele>
        <time>2020-05-29T17:47:35.000Z</time>
      </trkpt>
      <trkpt lat="47.1715" lon="-1.61864">
        <ele>70</ele>
        <time>2020-05-29T17:47:37.000Z</time>
      </trkpt>
      <trkpt lat="47.17139" lon="-1.61874">
        <ele>69</ele>
        <time>2020-05-29T17:47:39.000Z</time>
      </trkpt>
      <trkpt lat="47.17128" lon="-1.61884">
        <ele>69</ele>
        <time>2020-05-29T17:47:41.000Z</time>
      </trkpt>
      <trkpt lat="47.17117" lon="-1.61895">
        <ele>69</ele>
        <time>2020-05-29T17:47:43.000Z</time>
      </trkpt>
      <trkpt lat="47.17107" lon="-1.61906">
        <ele>69</ele>
        <time>2020-05-29T17:47:45.000Z</time>
      </trkpt>
      <trkpt lat="47.17097" lon="-1.61916">
        <ele>69</ele>
        <time>2020-05-29T17:47:47.000Z</time>
      </trkpt>
      <trkpt lat="47.17086" lon="-1.61926">
        <ele>70</ele>
        <time>2020-05-29T17:47:49.000Z</time>
      </trkpt>
      <trkpt lat="47.17077" lon="-1.61935">
        <ele>69</ele>
        <time>2020-05-29T17:47:51.000Z</time>
      </trkpt>
      <trkpt lat="47.17067" lon="-1.61945">
        <ele>69</ele>
        <time>2020-05-29T17:47:53.000Z</time>
      </trkpt>
      <trkpt lat="47.17057" lon="-1.61958">
        <ele>70</ele>
        <time>2020-05-29T17:47:55.000Z</time>
      </trkpt>
      <trkpt lat="47.17048" lon="-1.61971">
        <ele>70</ele>
        <time>2020-05-29T17:47:57.000Z</time>
      </trkpt>
      <trkpt lat="47.17039" lon="-1.61984">
        <ele>69</ele>
        <time>2020-05-29T17:47:59.000Z</time>
      </trkpt>
      <trkpt lat="47.17029" lon="-1.61998">
        <ele>69</ele>
        <time>2020-05-29T17:48:01.000Z</time>
      </trkpt>
      <trkpt lat="47.1702" lon="-1.62012">
        <ele>70</ele>
        <time>2020-05-29T17:48:03.000Z</time>
      </trkpt>
      <trkpt lat="47.17011" lon="-1.62026">
        <ele>70</ele>
        <time>2020-05-29T17:48:05.000Z</time>
      </trkpt>
      <trkpt lat="47.17001" lon="-1.62041">
        <ele>70</ele>
        <time>2020-05-29T17:48:07.000Z</time>
      </trkpt>
      <trkpt lat="47.16993" lon="-1.62057">
        <ele>69</ele>
        <time>2020-05-29T17:48:09.000Z</time>
      </trkpt>
      <trkpt lat="47.16984" lon="-1.62072">
        <ele>69</ele>
        <time>2020-05-29T17:48:11.000Z</time>
      </trkpt>
      <trkpt lat="47.16976" lon="-1.62087">
        <ele>70</ele>
        <time>2020-05-29T17:48:13.000Z</time>
      </trkpt>
      <trkpt lat="47.16967" lon="-1.62102">
        <ele>70</ele>
        <time>2020-05-29T17:48:15.000Z</time>
      </trkpt>
      <trkpt lat="47.16959" lon="-1.62117">
        <ele>70</ele>
        <time>2020-05-29T17:48:17.000Z</time>
      </trkpt>
      <trkpt lat="47.16952" lon="-1.62132">
        <ele>70</ele>
        <time>2020-05-29T17:48:19.000Z</time>
      </trkpt>
      <trkpt lat="47.16944" lon="-1.62148">
        <ele>69</ele>
        <time>2020-05-29T17:48:21.000Z</time>
      </trkpt>
      <trkpt lat="47.16936" lon="-1.62163">
        <ele>69</ele>
        <time>2020-05-29T17:48:23.000Z</time>
      </trkpt>
      <trkpt lat="47.16929" lon="-1.62179">
        <ele>69</ele>
        <time>2020-05-29T17:48:25.000Z</time>
      </trkpt>
      <trkpt lat="47.16921" lon="-1.62194">
        <ele>70</ele>
        <time>2020-05-29T17:48:27.000Z</time>
      </trkpt>
      <trkpt lat="47.16913" lon="-1.62208">
        <ele>70</ele>
        <time>2020-05-29T17:48:29.000Z</time>
      </trkpt>
      <trkpt lat="47.16904" lon="-1.62221">
        <ele>70</ele>
        <time>2020-05-29T17:48:31.000Z</time>
      </trkpt>
      <trkpt lat="47.16894" lon="-1.62234">
        <ele>71</ele>
        <time>2020-05-29T17:48:33.000Z</time>
      </trkpt>
      <trkpt lat="47.16884" lon="-1.62246">
        <ele>71</ele>
        <time>2020-05-29T17:48:35.000Z</time>
      </trkpt>
      <trkpt lat="47.16874" lon="-1.62259">
        <ele>71</ele>
        <time>2020-05-29T17:48:37.000Z</time>
      </trkpt>
      <trkpt lat="47.16865" lon="-1.62271">
        <ele>71</ele>
        <time>2020-05-29T17:48:39.000Z</time>
      </trkpt>
      <trkpt lat="47.16854" lon="-1.62283">
        <ele>71</ele>
        <time>2020-05-29T17:48:41.000Z</time>
      </trkpt>
      <trkpt lat="47.16845" lon="-1.62295">
        <ele>72</ele>
        <time>2020-05-29T17:48:43.000Z</time>
      </trkpt>
      <trkpt lat="47.16834" lon="-1.62307">
        <ele>72</ele>
        <time>2020-05-29T17:48:45.000Z</time>
      </trkpt>
      <trkpt lat="47.16823" lon="-1.62317">
        <ele>71</ele>
        <time>2020-05-29T17:48:47.000Z</time>
      </trkpt>
      <trkpt lat="47.16812" lon="-1.62325">
        <ele>71</ele>
        <time>2020-05-29T17:48:49.000Z</time>
      </trkpt>
      <trkpt lat="47.168" lon="-1.62332">
        <ele>71</ele>
        <time>2020-05-29T17:48:51.000Z</time>
      </trkpt>
      <trkpt lat="47.16787" lon="-1.62338">
        <ele>71</ele>
        <time>2020-05-29T17:48:53.000Z</time>
      </trkpt>
      <trkpt lat="47.16775" lon="-1.62345">
        <ele>71</ele>
        <time>2020-05-29T17:48:55.000Z</time>
      </trkpt>
      <trkpt lat="47.16763" lon="-1.62353">
        <ele>70</ele>
        <time>2020-05-29T17:48:57.000Z</time>
      </trkpt>
      <trkpt lat="47.16751" lon="-1.62362">
        <ele>70</ele>
        <time>2020-05-29T17:48:59.000Z</time>
      </trkpt>
      <trkpt lat="47.16742" lon="-1.62377">
        <ele>69</ele>
        <time>2020-05-29T17:49:01.000Z</time>
      </trkpt>
      <trkpt lat="47.16735" lon="-1.62393">
        <ele>69</ele>
        <time>2020-05-29T17:49:03.000Z</time>
      </trkpt>
      <trkpt lat="47.16732" lon="-1.6241">
        <ele>68</ele>
        <time>2020-05-29T17:49:05.000Z</time>
      </trkpt>
      <trkpt lat="47.1673" lon="-1.62427">
        <ele>68</ele>
        <time>2020-05-29T17:49:07.000Z</time>
      </trkpt>
      <trkpt lat="47.16727" lon="-1.62443">
        <ele>69</ele>
        <time>2020-05-29T17:49:09.000Z</time>
      </trkpt>
      <trkpt lat="47.16723" lon="-1.62459">
        <ele>68</ele>
        <time>2020-05-29T17:49:11.000Z</time>
      </trkpt>
      <trkpt lat="47.1672" lon="-1.62476">
        <ele>68</ele>
        <time>2020-05-29T17:49:13.000Z</time>
      </trkpt>
      <trkpt lat="47.16722" lon="-1.62492">
        <ele>68</ele>
        <time>2020-05-29T17:49:15.000Z</time>
      </trkpt>
      <trkpt lat="47.16733" lon="-1.62499">
        <ele>69</ele>
        <time>2020-05-29T17:49:17.000Z</time>
      </trkpt>
      <trkpt lat="47.16745" lon="-1.62503">
        <ele>70</ele>
        <time>2020-05-29T17:49:19.000Z</time>
      </trkpt>
      <trkpt lat="47.16758" lon="-1.6251">
        <ele>70</ele>
        <time>2020-05-29T17:49:21.000Z</time>
      </trkpt>
      <trkpt lat="47.16769" lon="-1.62517">
        <ele>71</ele>
        <time>2020-05-29T17:49:23.000Z</time>
      </trkpt>
      <trkpt lat="47.1678" lon="-1.62525">
        <ele>71</ele>
        <time>2020-05-29T17:49:25.000Z</time>
      </trkpt>
      <trkpt lat="47.16791" lon="-1.62532">
        <ele>71</ele>
        <time>2020-05-29T17:49:27.000Z</time>
      </trkpt>
      <trkpt lat="47.16802" lon="-1.62539">
        <ele>71</ele>
        <time>2020-05-29T17:49:29.000Z</time>
      </trkpt>
      <trkpt lat="47.16812" lon="-1.62546">
        <ele>71</ele>
        <time>2020-05-29T17:49:31.000Z</time>
      </trkpt>
      <trkpt lat="47.16821" lon="-1.62555">
        <ele>70</ele>
        <time>2020-05-29T17:49:33.000Z</time>
      </trkpt>
      <trkpt lat="47.16831" lon="-1.62566">
        <ele>70</ele>
        <time>2020-05-29T17:49:35.000Z</time>
      </trkpt>
      <trkpt lat="47.16836" lon="-1.62579">
        <ele>70</ele>
        <time>2020-05-29T17:49:37.000Z</time>
      </trkpt>
      <trkpt lat="47.16826" lon="-1.62601">
        <ele>70</ele>
        <time>2020-05-29T17:49:40.000Z</time>
      </trkpt>
      <trkpt lat="47.16818" lon="-1.62614">
        <ele>70</ele>
        <time>2020-05-29T17:49:42.000Z</time>
      </trkpt>
      <trkpt lat="47.16811" lon="-1.62626">
        <ele>70</ele>
        <time>2020-05-29T17:49:44.000Z</time>
      </trkpt>
      <trkpt lat="47.16803" lon="-1.62638">
        <ele>70</ele>
        <time>2020-05-29T17:49:46.000Z</time>
      </trkpt>
      <trkpt lat="47.16796" lon="-1.62648">
        <ele>71</ele>
        <time>2020-05-29T17:49:48.000Z</time>
      </trkpt>
      <trkpt lat="47.16788" lon="-1.62662">
        <ele>71</ele>
        <time>2020-05-29T17:49:51.000Z</time>
      </trkpt>
      <trkpt lat="47.1678" lon="-1.62656">
        <ele>71</ele>
        <time>2020-05-29T17:49:54.000Z</time>
      </trkpt>
    </trkseg>
  </trk>
</gpx>